<?xml version="1.0" encoding="UTF-8" standalone="no" ?><gpx xmlns="http://www.topografix.com/GPX/1/1" xmlns:gpxx="http://www.garmin.com/xmlschemas/GpxExtensions/v3" xmlns:wptx1="http://www.garmin.com/xmlschemas/WaypointExtension/v1" xmlns:gpxtpx="http://www.garmin.com/xmlschemas/TrackPointExtension/v1" creator="GuideVTT.com" version="1.1" xmlns:xsi="http://www.w3.org/2001/XMLSchema-instance" xsi:schemaLocation="http://www.topografix.com/GPX/1/1 http://www.topografix.com/GPX/1/1/gpx.xsd http://www.garmin.com/xmlschemas/GpxExtensions/v3 http://www8.garmin.com/xmlschemas/GpxExtensionsv3.xsd http://www.garmin.com/xmlschemas/WaypointExtension/v1 http://www8.garmin.com/xmlschemas/WaypointExtensionv1.xsd http://www.garmin.com/xmlschemas/TrackPointExtension/v1 http://www.garmin.com/xmlschemas/TrackPointExtensionv1.xsd">
<metadata><link href="http://www.garmin.com"><text>Garmin International</text></link><time>2013-06-22T15:13:50Z</time></metadata>
<trk><name>vtt_2017-03-12_58c50374dc3377365167eefc.gpx</name><extensions><gpxx:TrackExtension><gpxx:DisplayColor>Cyan</gpxx:DisplayColor></gpxx:TrackExtension></extensions><trkseg>
<trkpt lat="48.873271942139" lon="2.8435552120209"><ele>131</ele><time>2026-4-30T21:15:16Z</time></trkpt>
<trkpt lat="48.873271942139" lon="2.8435552120209"><ele>131</ele><time>2026-4-30T21:15:19Z</time></trkpt>
<trkpt lat="48.873271942139" lon="2.8435552120209"><ele>131</ele><time>2026-4-30T21:15:22Z</time></trkpt>
<trkpt lat="48.873271942139" lon="2.8435552120209"><ele>131</ele><time>2026-4-30T21:15:25Z</time></trkpt>
<trkpt lat="48.873271942139" lon="2.8435552120209"><ele>131</ele><time>2026-4-30T21:15:28Z</time></trkpt>
<trkpt lat="48.873420715332" lon="2.8435299396515"><ele>131</ele><time>2026-4-30T21:15:31Z</time></trkpt>
<trkpt lat="48.873420715332" lon="2.8435299396515"><ele>131</ele><time>2026-4-30T21:15:34Z</time></trkpt>
<trkpt lat="48.873523712158" lon="2.84330701828"><ele>130</ele><time>2026-4-30T21:15:37Z</time></trkpt>
<trkpt lat="48.873580932617" lon="2.8431820869446"><ele>130</ele><time>2026-4-30T21:15:40Z</time></trkpt>
<trkpt lat="48.873641967773" lon="2.8430373668671"><ele>130</ele><time>2026-4-30T21:15:43Z</time></trkpt>
<trkpt lat="48.873695373535" lon="2.8428721427917"><ele>130</ele><time>2026-4-30T21:15:46Z</time></trkpt>
<trkpt lat="48.873752593994" lon="2.8427205085754"><ele>130</ele><time>2026-4-30T21:15:49Z</time></trkpt>
<trkpt lat="48.873802185059" lon="2.8425831794739"><ele>130</ele><time>2026-4-30T21:15:52Z</time></trkpt>
<trkpt lat="48.873851776123" lon="2.8424594402313"><ele>130</ele><time>2026-4-30T21:15:55Z</time></trkpt>
<trkpt lat="48.873893737793" lon="2.8423848152161"><ele>130</ele><time>2026-4-30T21:15:58Z</time></trkpt>
<trkpt lat="48.873893737793" lon="2.8423848152161"><ele>130</ele><time>2026-4-30T21:16:1Z</time></trkpt>
<trkpt lat="48.873935699463" lon="2.8422503471375"><ele>130</ele><time>2026-4-30T21:16:4Z</time></trkpt>
<trkpt lat="48.873935699463" lon="2.8422503471375"><ele>130</ele><time>2026-4-30T21:16:7Z</time></trkpt>
<trkpt lat="48.874000549316" lon="2.8422808647156"><ele>130</ele><time>2026-4-30T21:16:10Z</time></trkpt>
<trkpt lat="48.874092102051" lon="2.8423368930817"><ele>130</ele><time>2026-4-30T21:16:13Z</time></trkpt>
<trkpt lat="48.874092102051" lon="2.8423368930817"><ele>130</ele><time>2026-4-30T21:16:16Z</time></trkpt>
<trkpt lat="48.874092102051" lon="2.8423368930817"><ele>130</ele><time>2026-4-30T21:16:19Z</time></trkpt>
<trkpt lat="48.874168395996" lon="2.8424022197723"><ele>129</ele><time>2026-4-30T21:16:22Z</time></trkpt>
<trkpt lat="48.874168395996" lon="2.8424022197723"><ele>129</ele><time>2026-4-30T21:16:25Z</time></trkpt>
<trkpt lat="48.874248504639" lon="2.8424594402313"><ele>129</ele><time>2026-4-30T21:16:28Z</time></trkpt>
<trkpt lat="48.874248504639" lon="2.8424594402313"><ele>129</ele><time>2026-4-30T21:16:31Z</time></trkpt>
<trkpt lat="48.874340057373" lon="2.8425159454346"><ele>129</ele><time>2026-4-30T21:16:34Z</time></trkpt>
<trkpt lat="48.874340057373" lon="2.8425159454346"><ele>129</ele><time>2026-4-30T21:16:37Z</time></trkpt>
<trkpt lat="48.874420166016" lon="2.8425693511963"><ele>129</ele><time>2026-4-30T21:16:40Z</time></trkpt>
<trkpt lat="48.874420166016" lon="2.8425693511963"><ele>129</ele><time>2026-4-30T21:16:43Z</time></trkpt>
<trkpt lat="48.874420166016" lon="2.8425693511963"><ele>129</ele><time>2026-4-30T21:16:46Z</time></trkpt>
<trkpt lat="48.874519348145" lon="2.8426167964935"><ele>128</ele><time>2026-4-30T21:16:49Z</time></trkpt>
<trkpt lat="48.874519348145" lon="2.8426167964935"><ele>128</ele><time>2026-4-30T21:16:52Z</time></trkpt>
<trkpt lat="48.874614715576" lon="2.8426642417908"><ele>128</ele><time>2026-4-30T21:16:55Z</time></trkpt>
<trkpt lat="48.874614715576" lon="2.8426642417908"><ele>128</ele><time>2026-4-30T21:16:58Z</time></trkpt>
<trkpt lat="48.874668121338" lon="2.8426957130432"><ele>127</ele><time>2026-4-30T21:17:1Z</time></trkpt>
<trkpt lat="48.874732971191" lon="2.8427286148071"><ele>127</ele><time>2026-4-30T21:17:4Z</time></trkpt>
<trkpt lat="48.874786376953" lon="2.8427655696869"><ele>127</ele><time>2026-4-30T21:17:7Z</time></trkpt>
<trkpt lat="48.874786376953" lon="2.8427655696869"><ele>127</ele><time>2026-4-30T21:17:10Z</time></trkpt>
<trkpt lat="48.874885559082" lon="2.8428115844727"><ele>126</ele><time>2026-4-30T21:17:13Z</time></trkpt>
<trkpt lat="48.874942779541" lon="2.8428270816803"><ele>126</ele><time>2026-4-30T21:17:16Z</time></trkpt>
<trkpt lat="48.874942779541" lon="2.8428270816803"><ele>126</ele><time>2026-4-30T21:17:19Z</time></trkpt>
<trkpt lat="48.875003814697" lon="2.8428449630737"><ele>126</ele><time>2026-4-30T21:17:22Z</time></trkpt>
<trkpt lat="48.875110626221" lon="2.8428618907928"><ele>125</ele><time>2026-4-30T21:17:25Z</time></trkpt>
<trkpt lat="48.875110626221" lon="2.8428618907928"><ele>125</ele><time>2026-4-30T21:17:28Z</time></trkpt>
<trkpt lat="48.875175476074" lon="2.8428738117218"><ele>124</ele><time>2026-4-30T21:17:31Z</time></trkpt>
<trkpt lat="48.875240325928" lon="2.8428952693939"><ele>124</ele><time>2026-4-30T21:17:34Z</time></trkpt>
<trkpt lat="48.875301361084" lon="2.8429095745087"><ele>123</ele><time>2026-4-30T21:17:37Z</time></trkpt>
<trkpt lat="48.875301361084" lon="2.8429095745087"><ele>123</ele><time>2026-4-30T21:17:40Z</time></trkpt>
<trkpt lat="48.875350952148" lon="2.8429517745972"><ele>123</ele><time>2026-4-30T21:17:43Z</time></trkpt>
<trkpt lat="48.875431060791" lon="2.8430268764496"><ele>122</ele><time>2026-4-30T21:17:46Z</time></trkpt>
<trkpt lat="48.875495910645" lon="2.8430836200714"><ele>122</ele><time>2026-4-30T21:17:49Z</time></trkpt>
<trkpt lat="48.875495910645" lon="2.8430836200714"><ele>122</ele><time>2026-4-30T21:17:52Z</time></trkpt>
<trkpt lat="48.875549316406" lon="2.843132019043"><ele>121</ele><time>2026-4-30T21:17:55Z</time></trkpt>
<trkpt lat="48.875598907471" lon="2.843177318573"><ele>121</ele><time>2026-4-30T21:17:58Z</time></trkpt>
<trkpt lat="48.875659942627" lon="2.8432257175446"><ele>121</ele><time>2026-4-30T21:18:1Z</time></trkpt>
<trkpt lat="48.875659942627" lon="2.8432257175446"><ele>121</ele><time>2026-4-30T21:18:4Z</time></trkpt>
<trkpt lat="48.87572479248" lon="2.8432800769806"><ele>120</ele><time>2026-4-30T21:18:7Z</time></trkpt>
<trkpt lat="48.875778198242" lon="2.8433213233948"><ele>120</ele><time>2026-4-30T21:18:10Z</time></trkpt>
<trkpt lat="48.875835418701" lon="2.8433620929718"><ele>119</ele><time>2026-4-30T21:18:13Z</time></trkpt>
<trkpt lat="48.875835418701" lon="2.8433620929718"><ele>119</ele><time>2026-4-30T21:18:16Z</time></trkpt>
<trkpt lat="48.875900268555" lon="2.8434042930603"><ele>119</ele><time>2026-4-30T21:18:19Z</time></trkpt>
<trkpt lat="48.875999450684" lon="2.8434751033783"><ele>118</ele><time>2026-4-30T21:18:22Z</time></trkpt>
<trkpt lat="48.875999450684" lon="2.8434751033783"><ele>118</ele><time>2026-4-30T21:18:25Z</time></trkpt>
<trkpt lat="48.876052856445" lon="2.8435139656067"><ele>117</ele><time>2026-4-30T21:18:28Z</time></trkpt>
<trkpt lat="48.876110076904" lon="2.8435521125793"><ele>117</ele><time>2026-4-30T21:18:31Z</time></trkpt>
<trkpt lat="48.876167297363" lon="2.8435866832733"><ele>116</ele><time>2026-4-30T21:18:34Z</time></trkpt>
<trkpt lat="48.876167297363" lon="2.8435866832733"><ele>116</ele><time>2026-4-30T21:18:37Z</time></trkpt>
<trkpt lat="48.876220703125" lon="2.8436188697815"><ele>116</ele><time>2026-4-30T21:18:40Z</time></trkpt>
<trkpt lat="48.876281738281" lon="2.8436579704285"><ele>116</ele><time>2026-4-30T21:18:43Z</time></trkpt>
<trkpt lat="48.876281738281" lon="2.8436579704285"><ele>116</ele><time>2026-4-30T21:18:46Z</time></trkpt>
<trkpt lat="48.876281738281" lon="2.8436579704285"><ele>116</ele><time>2026-4-30T21:18:49Z</time></trkpt>
<trkpt lat="48.87638092041" lon="2.8437304496765"><ele>115</ele><time>2026-4-30T21:18:52Z</time></trkpt>
<trkpt lat="48.87638092041" lon="2.8437304496765"><ele>115</ele><time>2026-4-30T21:18:55Z</time></trkpt>
<trkpt lat="48.876483917236" lon="2.8438048362732"><ele>115</ele><time>2026-4-30T21:18:58Z</time></trkpt>
<trkpt lat="48.876483917236" lon="2.8438048362732"><ele>115</ele><time>2026-4-30T21:19:1Z</time></trkpt>
<trkpt lat="48.876544952393" lon="2.8438477516174"><ele>114</ele><time>2026-4-30T21:19:4Z</time></trkpt>
<trkpt lat="48.876544952393" lon="2.8438477516174"><ele>114</ele><time>2026-4-30T21:19:7Z</time></trkpt>
<trkpt lat="48.876640319824" lon="2.8439157009125"><ele>114</ele><time>2026-4-30T21:19:10Z</time></trkpt>
<trkpt lat="48.876640319824" lon="2.8439157009125"><ele>114</ele><time>2026-4-30T21:19:13Z</time></trkpt>
<trkpt lat="48.876697540283" lon="2.843955039978"><ele>114</ele><time>2026-4-30T21:19:16Z</time></trkpt>
<trkpt lat="48.876758575439" lon="2.8439953327179"><ele>114</ele><time>2026-4-30T21:19:19Z</time></trkpt>
<trkpt lat="48.876808166504" lon="2.8440356254578"><ele>113</ele><time>2026-4-30T21:19:22Z</time></trkpt>
<trkpt lat="48.876808166504" lon="2.8440356254578"><ele>113</ele><time>2026-4-30T21:19:25Z</time></trkpt>
<trkpt lat="48.87691116333" lon="2.8441076278687"><ele>113</ele><time>2026-4-30T21:19:28Z</time></trkpt>
<trkpt lat="48.87691116333" lon="2.8441076278687"><ele>113</ele><time>2026-4-30T21:19:31Z</time></trkpt>
<trkpt lat="48.87691116333" lon="2.8441076278687"><ele>113</ele><time>2026-4-30T21:19:34Z</time></trkpt>
<trkpt lat="48.877014160156" lon="2.8441905975342"><ele>112</ele><time>2026-4-30T21:19:37Z</time></trkpt>
<trkpt lat="48.877014160156" lon="2.8441905975342"><ele>112</ele><time>2026-4-30T21:19:40Z</time></trkpt>
<trkpt lat="48.877117156982" lon="2.8442623615265"><ele>112</ele><time>2026-4-30T21:19:43Z</time></trkpt>
<trkpt lat="48.877117156982" lon="2.8442623615265"><ele>112</ele><time>2026-4-30T21:19:46Z</time></trkpt>
<trkpt lat="48.877117156982" lon="2.8442623615265"><ele>112</ele><time>2026-4-30T21:19:49Z</time></trkpt>
<trkpt lat="48.877216339111" lon="2.8443350791931"><ele>111</ele><time>2026-4-30T21:19:52Z</time></trkpt>
<trkpt lat="48.87727355957" lon="2.8443801403046"><ele>111</ele><time>2026-4-30T21:19:55Z</time></trkpt>
<trkpt lat="48.87727355957" lon="2.8443801403046"><ele>111</ele><time>2026-4-30T21:19:58Z</time></trkpt>
<trkpt lat="48.877338409424" lon="2.8444223403931"><ele>111</ele><time>2026-4-30T21:20:1Z</time></trkpt>
<trkpt lat="48.87739944458" lon="2.8444616794586"><ele>111</ele><time>2026-4-30T21:20:4Z</time></trkpt>
<trkpt lat="48.877460479736" lon="2.8445019721985"><ele>111</ele><time>2026-4-30T21:20:7Z</time></trkpt>
<trkpt lat="48.877460479736" lon="2.8445019721985"><ele>111</ele><time>2026-4-30T21:20:10Z</time></trkpt>
<trkpt lat="48.877544403076" lon="2.8445558547974"><ele>109</ele><time>2026-4-30T21:20:13Z</time></trkpt>
<trkpt lat="48.877624511719" lon="2.8446130752563"><ele>107</ele><time>2026-4-30T21:20:16Z</time></trkpt>
<trkpt lat="48.87769317627" lon="2.8446612358093"><ele>107</ele><time>2026-4-30T21:20:19Z</time></trkpt>
<trkpt lat="48.87769317627" lon="2.8446612358093"><ele>107</ele><time>2026-4-30T21:20:22Z</time></trkpt>
<trkpt lat="48.87776184082" lon="2.8447041511536"><ele>107</ele><time>2026-4-30T21:20:25Z</time></trkpt>
<trkpt lat="48.877834320068" lon="2.8447523117065"><ele>106</ele><time>2026-4-30T21:20:28Z</time></trkpt>
<trkpt lat="48.877906799316" lon="2.8448021411896"><ele>106</ele><time>2026-4-30T21:20:31Z</time></trkpt>
<trkpt lat="48.877967834473" lon="2.8448457717896"><ele>105</ele><time>2026-4-30T21:20:34Z</time></trkpt>
<trkpt lat="48.878028869629" lon="2.844890832901"><ele>105</ele><time>2026-4-30T21:20:37Z</time></trkpt>
<trkpt lat="48.878028869629" lon="2.844890832901"><ele>105</ele><time>2026-4-30T21:20:40Z</time></trkpt>
<trkpt lat="48.87809753418" lon="2.844940662384"><ele>105</ele><time>2026-4-30T21:20:43Z</time></trkpt>
<trkpt lat="48.878158569336" lon="2.844982624054"><ele>105</ele><time>2026-4-30T21:20:46Z</time></trkpt>
<trkpt lat="48.878215789795" lon="2.8450288772583"><ele>105</ele><time>2026-4-30T21:20:49Z</time></trkpt>
<trkpt lat="48.878215789795" lon="2.8450288772583"><ele>105</ele><time>2026-4-30T21:20:52Z</time></trkpt>
<trkpt lat="48.878215789795" lon="2.8450288772583"><ele>105</ele><time>2026-4-30T21:20:55Z</time></trkpt>
<trkpt lat="48.878311157227" lon="2.8451042175293"><ele>105</ele><time>2026-4-30T21:20:58Z</time></trkpt>
<trkpt lat="48.878360748291" lon="2.8451492786407"><ele>105</ele><time>2026-4-30T21:21:1Z</time></trkpt>
<trkpt lat="48.878360748291" lon="2.8451492786407"><ele>105</ele><time>2026-4-30T21:21:4Z</time></trkpt>
<trkpt lat="48.878429412842" lon="2.8451442718506"><ele>105</ele><time>2026-4-30T21:21:7Z</time></trkpt>
<trkpt lat="48.878490447998" lon="2.8451471328735"><ele>105</ele><time>2026-4-30T21:21:10Z</time></trkpt>
<trkpt lat="48.878540039062" lon="2.8452064990997"><ele>105</ele><time>2026-4-30T21:21:13Z</time></trkpt>
<trkpt lat="48.878540039062" lon="2.8452064990997"><ele>105</ele><time>2026-4-30T21:21:16Z</time></trkpt>
<trkpt lat="48.878589630127" lon="2.8452694416046"><ele>105</ele><time>2026-4-30T21:21:19Z</time></trkpt>
<trkpt lat="48.878643035889" lon="2.8453397750854"><ele>105</ele><time>2026-4-30T21:21:22Z</time></trkpt>
<trkpt lat="48.878643035889" lon="2.8453397750854"><ele>105</ele><time>2026-4-30T21:21:25Z</time></trkpt>
<trkpt lat="48.878643035889" lon="2.8453397750854"><ele>105</ele><time>2026-4-30T21:21:28Z</time></trkpt>
<trkpt lat="48.878726959229" lon="2.8454513549805"><ele>105</ele><time>2026-4-30T21:21:31Z</time></trkpt>
<trkpt lat="48.878799438477" lon="2.8455281257629"><ele>105</ele><time>2026-4-30T21:21:34Z</time></trkpt>
<trkpt lat="48.878856658936" lon="2.8455862998962"><ele>105</ele><time>2026-4-30T21:21:37Z</time></trkpt>
<trkpt lat="48.878856658936" lon="2.8455862998962"><ele>105</ele><time>2026-4-30T21:21:40Z</time></trkpt>
<trkpt lat="48.878925323486" lon="2.8456387519836"><ele>105</ele><time>2026-4-30T21:21:43Z</time></trkpt>
<trkpt lat="48.879001617432" lon="2.8457005023956"><ele>105</ele><time>2026-4-30T21:21:46Z</time></trkpt>
<trkpt lat="48.879070281982" lon="2.8457543849945"><ele>105</ele><time>2026-4-30T21:21:49Z</time></trkpt>
<trkpt lat="48.879150390625" lon="2.8458166122437"><ele>105</ele><time>2026-4-30T21:21:52Z</time></trkpt>
<trkpt lat="48.87922668457" lon="2.8458871841431"><ele>104</ele><time>2026-4-30T21:21:55Z</time></trkpt>
<trkpt lat="48.87922668457" lon="2.8458871841431"><ele>104</ele><time>2026-4-30T21:21:58Z</time></trkpt>
<trkpt lat="48.87931060791" lon="2.845954656601"><ele>103</ele><time>2026-4-30T21:22:1Z</time></trkpt>
<trkpt lat="48.879383087158" lon="2.8460166454315"><ele>101</ele><time>2026-4-30T21:22:4Z</time></trkpt>
<trkpt lat="48.879463195801" lon="2.8460826873779"><ele>102</ele><time>2026-4-30T21:22:7Z</time></trkpt>
<trkpt lat="48.879463195801" lon="2.8460826873779"><ele>102</ele><time>2026-4-30T21:22:10Z</time></trkpt>
<trkpt lat="48.879558563232" lon="2.846150636673"><ele>103</ele><time>2026-4-30T21:22:13Z</time></trkpt>
<trkpt lat="48.87964630127" lon="2.8462104797363"><ele>105</ele><time>2026-4-30T21:22:16Z</time></trkpt>
<trkpt lat="48.879734039307" lon="2.8462755680084"><ele>105</ele><time>2026-4-30T21:22:19Z</time></trkpt>
<trkpt lat="48.879810333252" lon="2.8463382720947"><ele>105</ele><time>2026-4-30T21:22:22Z</time></trkpt>
<trkpt lat="48.879894256592" lon="2.846400976181"><ele>103</ele><time>2026-4-30T21:22:25Z</time></trkpt>
<trkpt lat="48.879978179932" lon="2.8464636802673"><ele>102</ele><time>2026-4-30T21:22:28Z</time></trkpt>
<trkpt lat="48.879978179932" lon="2.8464636802673"><ele>102</ele><time>2026-4-30T21:22:31Z</time></trkpt>
<trkpt lat="48.880062103271" lon="2.8465306758881"><ele>101</ele><time>2026-4-30T21:22:34Z</time></trkpt>
<trkpt lat="48.880142211914" lon="2.8465964794159"><ele>100</ele><time>2026-4-30T21:22:37Z</time></trkpt>
<trkpt lat="48.880226135254" lon="2.8466603755951"><ele>99</ele><time>2026-4-30T21:22:40Z</time></trkpt>
<trkpt lat="48.880226135254" lon="2.8466603755951"><ele>99</ele><time>2026-4-30T21:22:43Z</time></trkpt>
<trkpt lat="48.880313873291" lon="2.8467240333557"><ele>99</ele><time>2026-4-30T21:22:46Z</time></trkpt>
<trkpt lat="48.880405426025" lon="2.8467891216278"><ele>99</ele><time>2026-4-30T21:22:49Z</time></trkpt>
<trkpt lat="48.880489349365" lon="2.8468489646912"><ele>100</ele><time>2026-4-30T21:22:52Z</time></trkpt>
<trkpt lat="48.880565643311" lon="2.8469040393829"><ele>100</ele><time>2026-4-30T21:22:55Z</time></trkpt>
<trkpt lat="48.880638122559" lon="2.8469624519348"><ele>100</ele><time>2026-4-30T21:22:58Z</time></trkpt>
<trkpt lat="48.880638122559" lon="2.8469624519348"><ele>100</ele><time>2026-4-30T21:23:1Z</time></trkpt>
<trkpt lat="48.880718231201" lon="2.8470249176025"><ele>100</ele><time>2026-4-30T21:23:4Z</time></trkpt>
<trkpt lat="48.880805969238" lon="2.8470902442932"><ele>99</ele><time>2026-4-30T21:23:7Z</time></trkpt>
<trkpt lat="48.880886077881" lon="2.8471493721008"><ele>99</ele><time>2026-4-30T21:23:10Z</time></trkpt>
<trkpt lat="48.880947113037" lon="2.8472044467926"><ele>99</ele><time>2026-4-30T21:23:13Z</time></trkpt>
<trkpt lat="48.88102722168" lon="2.8472666740417"><ele>99</ele><time>2026-4-30T21:23:16Z</time></trkpt>
<trkpt lat="48.881114959717" lon="2.8473308086395"><ele>100</ele><time>2026-4-30T21:23:19Z</time></trkpt>
<trkpt lat="48.881191253662" lon="2.8473889827728"><ele>101</ele><time>2026-4-30T21:23:22Z</time></trkpt>
<trkpt lat="48.881267547607" lon="2.8474414348602"><ele>101</ele><time>2026-4-30T21:23:25Z</time></trkpt>
<trkpt lat="48.88134765625" lon="2.8474936485291"><ele>101</ele><time>2026-4-30T21:23:28Z</time></trkpt>
<trkpt lat="48.881423950195" lon="2.8475317955017"><ele>102</ele><time>2026-4-30T21:23:31Z</time></trkpt>
<trkpt lat="48.881423950195" lon="2.8475317955017"><ele>102</ele><time>2026-4-30T21:23:34Z</time></trkpt>
<trkpt lat="48.881500244141" lon="2.8475499153137"><ele>102</ele><time>2026-4-30T21:23:37Z</time></trkpt>
<trkpt lat="48.881568908691" lon="2.8475642204285"><ele>104</ele><time>2026-4-30T21:23:40Z</time></trkpt>
<trkpt lat="48.881649017334" lon="2.8475828170776"><ele>105</ele><time>2026-4-30T21:23:43Z</time></trkpt>
<trkpt lat="48.881732940674" lon="2.8476119041443"><ele>105</ele><time>2026-4-30T21:23:46Z</time></trkpt>
<trkpt lat="48.881805419922" lon="2.8476366996765"><ele>104</ele><time>2026-4-30T21:23:49Z</time></trkpt>
<trkpt lat="48.881893157959" lon="2.8476665019989"><ele>104</ele><time>2026-4-30T21:23:52Z</time></trkpt>
<trkpt lat="48.881973266602" lon="2.8476986885071"><ele>103</ele><time>2026-4-30T21:23:55Z</time></trkpt>
<trkpt lat="48.882064819336" lon="2.8477599620819"><ele>101</ele><time>2026-4-30T21:23:58Z</time></trkpt>
<trkpt lat="48.882064819336" lon="2.8477599620819"><ele>101</ele><time>2026-4-30T21:24:1Z</time></trkpt>
<trkpt lat="48.882148742676" lon="2.8478209972382"><ele>99</ele><time>2026-4-30T21:24:4Z</time></trkpt>
<trkpt lat="48.882228851318" lon="2.8478696346283"><ele>98</ele><time>2026-4-30T21:24:7Z</time></trkpt>
<trkpt lat="48.88232421875" lon="2.8479237556458"><ele>98</ele><time>2026-4-30T21:24:10Z</time></trkpt>
<trkpt lat="48.882423400879" lon="2.8479897975922"><ele>98</ele><time>2026-4-30T21:24:13Z</time></trkpt>
<trkpt lat="48.882511138916" lon="2.848046541214"><ele>99</ele><time>2026-4-30T21:24:16Z</time></trkpt>
<trkpt lat="48.882614135742" lon="2.8481087684631"><ele>99</ele><time>2026-4-30T21:24:19Z</time></trkpt>
<trkpt lat="48.882614135742" lon="2.8481087684631"><ele>99</ele><time>2026-4-30T21:24:22Z</time></trkpt>
<trkpt lat="48.882713317871" lon="2.8481683731079"><ele>99</ele><time>2026-4-30T21:24:25Z</time></trkpt>
<trkpt lat="48.882801055908" lon="2.8482320308685"><ele>99</ele><time>2026-4-30T21:24:28Z</time></trkpt>
<trkpt lat="48.882869720459" lon="2.8482954502106"><ele>99</ele><time>2026-4-30T21:24:31Z</time></trkpt>
<trkpt lat="48.882869720459" lon="2.8482954502106"><ele>99</ele><time>2026-4-30T21:24:34Z</time></trkpt>
<trkpt lat="48.882942199707" lon="2.848340511322"><ele>99</ele><time>2026-4-30T21:24:37Z</time></trkpt>
<trkpt lat="48.882942199707" lon="2.848340511322"><ele>99</ele><time>2026-4-30T21:24:40Z</time></trkpt>
<trkpt lat="48.882942199707" lon="2.848340511322"><ele>99</ele><time>2026-4-30T21:24:43Z</time></trkpt>
<trkpt lat="48.883003234863" lon="2.8483700752258"><ele>98</ele><time>2026-4-30T21:24:46Z</time></trkpt>
<trkpt lat="48.883003234863" lon="2.8483700752258"><ele>98</ele><time>2026-4-30T21:24:49Z</time></trkpt>
<trkpt lat="48.883003234863" lon="2.8483700752258"><ele>98</ele><time>2026-4-30T21:24:52Z</time></trkpt>
<trkpt lat="48.883003234863" lon="2.8483700752258"><ele>98</ele><time>2026-4-30T21:24:55Z</time></trkpt>
<trkpt lat="48.883121490479" lon="2.8483393192291"><ele>98</ele><time>2026-4-30T21:24:58Z</time></trkpt>
<trkpt lat="48.883152008057" lon="2.848160982132"><ele>98</ele><time>2026-4-30T21:25:1Z</time></trkpt>
<trkpt lat="48.883152008057" lon="2.848160982132"><ele>98</ele><time>2026-4-30T21:25:4Z</time></trkpt>
<trkpt lat="48.88317489624" lon="2.8480606079102"><ele>98</ele><time>2026-4-30T21:25:7Z</time></trkpt>
<trkpt lat="48.883190155029" lon="2.8479421138763"><ele>98</ele><time>2026-4-30T21:25:10Z</time></trkpt>
<trkpt lat="48.883205413818" lon="2.8478288650513"><ele>98</ele><time>2026-4-30T21:25:13Z</time></trkpt>
<trkpt lat="48.883205413818" lon="2.8478288650513"><ele>98</ele><time>2026-4-30T21:25:16Z</time></trkpt>
<trkpt lat="48.88321685791" lon="2.8477280139923"><ele>99</ele><time>2026-4-30T21:25:19Z</time></trkpt>
<trkpt lat="48.883232116699" lon="2.847644329071"><ele>99</ele><time>2026-4-30T21:25:22Z</time></trkpt>
<trkpt lat="48.883251190186" lon="2.8475391864777"><ele>99</ele><time>2026-4-30T21:25:25Z</time></trkpt>
<trkpt lat="48.883251190186" lon="2.8475391864777"><ele>99</ele><time>2026-4-30T21:25:28Z</time></trkpt>
<trkpt lat="48.883270263672" lon="2.847425699234"><ele>99</ele><time>2026-4-30T21:25:31Z</time></trkpt>
<trkpt lat="48.883289337158" lon="2.8473162651062"><ele>98</ele><time>2026-4-30T21:25:34Z</time></trkpt>
<trkpt lat="48.883308410645" lon="2.8472211360931"><ele>98</ele><time>2026-4-30T21:25:37Z</time></trkpt>
<trkpt lat="48.883308410645" lon="2.8472211360931"><ele>98</ele><time>2026-4-30T21:25:40Z</time></trkpt>
<trkpt lat="48.883335113525" lon="2.8470437526703"><ele>98</ele><time>2026-4-30T21:25:43Z</time></trkpt>
<trkpt lat="48.883346557617" lon="2.84694647789"><ele>98</ele><time>2026-4-30T21:25:46Z</time></trkpt>
<trkpt lat="48.883346557617" lon="2.84694647789"><ele>98</ele><time>2026-4-30T21:25:49Z</time></trkpt>
<trkpt lat="48.883361816406" lon="2.8468382358551"><ele>98</ele><time>2026-4-30T21:25:52Z</time></trkpt>
<trkpt lat="48.883377075195" lon="2.8467326164246"><ele>98</ele><time>2026-4-30T21:25:55Z</time></trkpt>
<trkpt lat="48.883396148682" lon="2.846622467041"><ele>98</ele><time>2026-4-30T21:25:58Z</time></trkpt>
<trkpt lat="48.883396148682" lon="2.846622467041"><ele>98</ele><time>2026-4-30T21:26:1Z</time></trkpt>
<trkpt lat="48.883415222168" lon="2.8465213775635"><ele>98</ele><time>2026-4-30T21:26:4Z</time></trkpt>
<trkpt lat="48.883434295654" lon="2.8464286327362"><ele>98</ele><time>2026-4-30T21:26:7Z</time></trkpt>
<trkpt lat="48.883457183838" lon="2.8463218212128"><ele>98</ele><time>2026-4-30T21:26:10Z</time></trkpt>
<trkpt lat="48.883476257324" lon="2.8462076187134"><ele>99</ele><time>2026-4-30T21:26:13Z</time></trkpt>
<trkpt lat="48.883499145508" lon="2.8461010456085"><ele>99</ele><time>2026-4-30T21:26:16Z</time></trkpt>
<trkpt lat="48.883499145508" lon="2.8461010456085"><ele>99</ele><time>2026-4-30T21:26:19Z</time></trkpt>
<trkpt lat="48.883522033691" lon="2.8460144996643"><ele>99</ele><time>2026-4-30T21:26:22Z</time></trkpt>
<trkpt lat="48.883544921875" lon="2.8459243774414"><ele>99</ele><time>2026-4-30T21:26:25Z</time></trkpt>
<trkpt lat="48.883609771729" lon="2.8458685874939"><ele>99</ele><time>2026-4-30T21:26:28Z</time></trkpt>
<trkpt lat="48.883609771729" lon="2.8458685874939"><ele>99</ele><time>2026-4-30T21:26:31Z</time></trkpt>
<trkpt lat="48.883670806885" lon="2.8458647727966"><ele>99</ele><time>2026-4-30T21:26:34Z</time></trkpt>
<trkpt lat="48.883743286133" lon="2.8458755016327"><ele>100</ele><time>2026-4-30T21:26:37Z</time></trkpt>
<trkpt lat="48.883823394775" lon="2.8458874225616"><ele>102</ele><time>2026-4-30T21:26:40Z</time></trkpt>
<trkpt lat="48.883823394775" lon="2.8458874225616"><ele>102</ele><time>2026-4-30T21:26:43Z</time></trkpt>
<trkpt lat="48.883903503418" lon="2.8459131717682"><ele>103</ele><time>2026-4-30T21:26:46Z</time></trkpt>
<trkpt lat="48.883983612061" lon="2.8459358215332"><ele>104</ele><time>2026-4-30T21:26:49Z</time></trkpt>
<trkpt lat="48.884048461914" lon="2.8459618091583"><ele>104</ele><time>2026-4-30T21:26:52Z</time></trkpt>
<trkpt lat="48.884048461914" lon="2.8459618091583"><ele>104</ele><time>2026-4-30T21:26:55Z</time></trkpt>
<trkpt lat="48.884128570557" lon="2.8460040092468"><ele>104</ele><time>2026-4-30T21:26:58Z</time></trkpt>
<trkpt lat="48.884201049805" lon="2.846043586731"><ele>104</ele><time>2026-4-30T21:27:1Z</time></trkpt>
<trkpt lat="48.884273529053" lon="2.8460826873779"><ele>102</ele><time>2026-4-30T21:27:4Z</time></trkpt>
<trkpt lat="48.884273529053" lon="2.8460826873779"><ele>102</ele><time>2026-4-30T21:27:7Z</time></trkpt>
<trkpt lat="48.884353637695" lon="2.8461208343506"><ele>99</ele><time>2026-4-30T21:27:10Z</time></trkpt>
<trkpt lat="48.884433746338" lon="2.8461549282074"><ele>97</ele><time>2026-4-30T21:27:13Z</time></trkpt>
<trkpt lat="48.884494781494" lon="2.8461828231812"><ele>96</ele><time>2026-4-30T21:27:16Z</time></trkpt>
<trkpt lat="48.884494781494" lon="2.8461828231812"><ele>96</ele><time>2026-4-30T21:27:19Z</time></trkpt>
<trkpt lat="48.88455581665" lon="2.8462114334106"><ele>96</ele><time>2026-4-30T21:27:22Z</time></trkpt>
<trkpt lat="48.884628295898" lon="2.8462390899658"><ele>96</ele><time>2026-4-30T21:27:25Z</time></trkpt>
<trkpt lat="48.884704589844" lon="2.8462934494019"><ele>96</ele><time>2026-4-30T21:27:28Z</time></trkpt>
<trkpt lat="48.884704589844" lon="2.8462934494019"><ele>96</ele><time>2026-4-30T21:27:31Z</time></trkpt>
<trkpt lat="48.884784698486" lon="2.8463487625122"><ele>96</ele><time>2026-4-30T21:27:34Z</time></trkpt>
<trkpt lat="48.884876251221" lon="2.8464069366455"><ele>96</ele><time>2026-4-30T21:27:37Z</time></trkpt>
<trkpt lat="48.884986877441" lon="2.8464703559875"><ele>96</ele><time>2026-4-30T21:27:40Z</time></trkpt>
<trkpt lat="48.884986877441" lon="2.8464703559875"><ele>96</ele><time>2026-4-30T21:27:43Z</time></trkpt>
<trkpt lat="48.885078430176" lon="2.8465251922607"><ele>95</ele><time>2026-4-30T21:27:46Z</time></trkpt>
<trkpt lat="48.885166168213" lon="2.8465809822083"><ele>96</ele><time>2026-4-30T21:27:49Z</time></trkpt>
<trkpt lat="48.885265350342" lon="2.8466444015503"><ele>96</ele><time>2026-4-30T21:27:52Z</time></trkpt>
<trkpt lat="48.885265350342" lon="2.8466444015503"><ele>96</ele><time>2026-4-30T21:27:55Z</time></trkpt>
<trkpt lat="48.885360717773" lon="2.846709728241"><ele>95</ele><time>2026-4-30T21:27:58Z</time></trkpt>
<trkpt lat="48.885437011719" lon="2.8467545509338"><ele>94</ele><time>2026-4-30T21:28:1Z</time></trkpt>
<trkpt lat="48.88550567627" lon="2.846780538559"><ele>93</ele><time>2026-4-30T21:28:4Z</time></trkpt>
<trkpt lat="48.88550567627" lon="2.846780538559"><ele>93</ele><time>2026-4-30T21:28:7Z</time></trkpt>
<trkpt lat="48.885570526123" lon="2.8467588424683"><ele>93</ele><time>2026-4-30T21:28:10Z</time></trkpt>
<trkpt lat="48.885631561279" lon="2.846696138382"><ele>93</ele><time>2026-4-30T21:28:13Z</time></trkpt>
<trkpt lat="48.885688781738" lon="2.8466014862061"><ele>93</ele><time>2026-4-30T21:28:16Z</time></trkpt>
<trkpt lat="48.885688781738" lon="2.8466014862061"><ele>93</ele><time>2026-4-30T21:28:19Z</time></trkpt>
<trkpt lat="48.885749816895" lon="2.8465106487274"><ele>93</ele><time>2026-4-30T21:28:22Z</time></trkpt>
<trkpt lat="48.885814666748" lon="2.8463914394379"><ele>93</ele><time>2026-4-30T21:28:25Z</time></trkpt>
<trkpt lat="48.88586807251" lon="2.8462536334991"><ele>92</ele><time>2026-4-30T21:28:28Z</time></trkpt>
<trkpt lat="48.88586807251" lon="2.8462536334991"><ele>92</ele><time>2026-4-30T21:28:31Z</time></trkpt>
<trkpt lat="48.885917663574" lon="2.8461155891418"><ele>91</ele><time>2026-4-30T21:28:34Z</time></trkpt>
<trkpt lat="48.885963439941" lon="2.8459618091583"><ele>91</ele><time>2026-4-30T21:28:37Z</time></trkpt>
<trkpt lat="48.886001586914" lon="2.845819234848"><ele>92</ele><time>2026-4-30T21:28:40Z</time></trkpt>
<trkpt lat="48.886001586914" lon="2.845819234848"><ele>92</ele><time>2026-4-30T21:28:43Z</time></trkpt>
<trkpt lat="48.886013031006" lon="2.8456954956055"><ele>92</ele><time>2026-4-30T21:28:46Z</time></trkpt>
<trkpt lat="48.8860206604" lon="2.8456013202667"><ele>92</ele><time>2026-4-30T21:28:49Z</time></trkpt>
<trkpt lat="48.8860206604" lon="2.8456013202667"><ele>92</ele><time>2026-4-30T21:28:52Z</time></trkpt>
<trkpt lat="48.886047363281" lon="2.8454365730286"><ele>92</ele><time>2026-4-30T21:28:55Z</time></trkpt>
<trkpt lat="48.886047363281" lon="2.8454365730286"><ele>92</ele><time>2026-4-30T21:28:58Z</time></trkpt>
<trkpt lat="48.886096954346" lon="2.8453254699707"><ele>92</ele><time>2026-4-30T21:29:1Z</time></trkpt>
<trkpt lat="48.886096954346" lon="2.8453254699707"><ele>92</ele><time>2026-4-30T21:29:4Z</time></trkpt>
<trkpt lat="48.886184692383" lon="2.8453178405762"><ele>92</ele><time>2026-4-30T21:29:7Z</time></trkpt>
<trkpt lat="48.886253356934" lon="2.8453161716461"><ele>92</ele><time>2026-4-30T21:29:10Z</time></trkpt>
<trkpt lat="48.886306762695" lon="2.8452866077423"><ele>92</ele><time>2026-4-30T21:29:13Z</time></trkpt>
<trkpt lat="48.886363983154" lon="2.8452482223511"><ele>92</ele><time>2026-4-30T21:29:16Z</time></trkpt>
<trkpt lat="48.8864402771" lon="2.8452305793762"><ele>93</ele><time>2026-4-30T21:29:19Z</time></trkpt>
<trkpt lat="48.886547088623" lon="2.8452486991882"><ele>93</ele><time>2026-4-30T21:29:22Z</time></trkpt>
<trkpt lat="48.886615753174" lon="2.8452596664429"><ele>93</ele><time>2026-4-30T21:29:25Z</time></trkpt>
<trkpt lat="48.886615753174" lon="2.8452596664429"><ele>93</ele><time>2026-4-30T21:29:28Z</time></trkpt>
<trkpt lat="48.886615753174" lon="2.8452596664429"><ele>93</ele><time>2026-4-30T21:29:31Z</time></trkpt>
<trkpt lat="48.886615753174" lon="2.8452596664429"><ele>93</ele><time>2026-4-30T21:29:34Z</time></trkpt>
<trkpt lat="48.886516571045" lon="2.8452706336975"><ele>91</ele><time>2026-4-30T21:29:37Z</time></trkpt>
<trkpt lat="48.886516571045" lon="2.8452706336975"><ele>91</ele><time>2026-4-30T21:29:40Z</time></trkpt>
<trkpt lat="48.886451721191" lon="2.8452658653259"><ele>91</ele><time>2026-4-30T21:29:43Z</time></trkpt>
<trkpt lat="48.886451721191" lon="2.8452658653259"><ele>91</ele><time>2026-4-30T21:29:46Z</time></trkpt>
<trkpt lat="48.886451721191" lon="2.8452658653259"><ele>91</ele><time>2026-4-30T21:29:49Z</time></trkpt>
<trkpt lat="48.886383056641" lon="2.8452723026276"><ele>91</ele><time>2026-4-30T21:29:52Z</time></trkpt>
<trkpt lat="48.886383056641" lon="2.8452723026276"><ele>91</ele><time>2026-4-30T21:29:55Z</time></trkpt>
<trkpt lat="48.886383056641" lon="2.8452723026276"><ele>91</ele><time>2026-4-30T21:29:58Z</time></trkpt>
<trkpt lat="48.886306762695" lon="2.8453273773193"><ele>92</ele><time>2026-4-30T21:30:1Z</time></trkpt>
<trkpt lat="48.886253356934" lon="2.845367193222"><ele>92</ele><time>2026-4-30T21:30:4Z</time></trkpt>
<trkpt lat="48.886253356934" lon="2.845367193222"><ele>92</ele><time>2026-4-30T21:30:7Z</time></trkpt>
<trkpt lat="48.886184692383" lon="2.8453969955444"><ele>92</ele><time>2026-4-30T21:30:10Z</time></trkpt>
<trkpt lat="48.886123657227" lon="2.8453855514526"><ele>92</ele><time>2026-4-30T21:30:13Z</time></trkpt>
<trkpt lat="48.886123657227" lon="2.8453855514526"><ele>92</ele><time>2026-4-30T21:30:16Z</time></trkpt>
<trkpt lat="48.886043548584" lon="2.8453681468964"><ele>93</ele><time>2026-4-30T21:30:19Z</time></trkpt>
<trkpt lat="48.885986328125" lon="2.8453302383423"><ele>93</ele><time>2026-4-30T21:30:22Z</time></trkpt>
<trkpt lat="48.885986328125" lon="2.8453302383423"><ele>93</ele><time>2026-4-30T21:30:25Z</time></trkpt>
<trkpt lat="48.88591003418" lon="2.84525847435"><ele>93</ele><time>2026-4-30T21:30:28Z</time></trkpt>
<trkpt lat="48.885860443115" lon="2.8451790809631"><ele>93</ele><time>2026-4-30T21:30:31Z</time></trkpt>
<trkpt lat="48.885845184326" lon="2.8450756072998"><ele>93</ele><time>2026-4-30T21:30:34Z</time></trkpt>
<trkpt lat="48.885845184326" lon="2.8450756072998"><ele>93</ele><time>2026-4-30T21:30:37Z</time></trkpt>
<trkpt lat="48.885848999023" lon="2.8449547290802"><ele>93</ele><time>2026-4-30T21:30:40Z</time></trkpt>
<trkpt lat="48.885845184326" lon="2.8448603153229"><ele>93</ele><time>2026-4-30T21:30:43Z</time></trkpt>
<trkpt lat="48.885845184326" lon="2.8448603153229"><ele>93</ele><time>2026-4-30T21:30:46Z</time></trkpt>
<trkpt lat="48.885856628418" lon="2.8446736335754"><ele>92</ele><time>2026-4-30T21:30:49Z</time></trkpt>
<trkpt lat="48.885864257812" lon="2.8445701599121"><ele>93</ele><time>2026-4-30T21:30:52Z</time></trkpt>
<trkpt lat="48.885864257812" lon="2.8444762229919"><ele>93</ele><time>2026-4-30T21:30:55Z</time></trkpt>
<trkpt lat="48.885864257812" lon="2.8444762229919"><ele>93</ele><time>2026-4-30T21:30:58Z</time></trkpt>
<trkpt lat="48.885860443115" lon="2.8443796634674"><ele>93</ele><time>2026-4-30T21:31:1Z</time></trkpt>
<trkpt lat="48.88586807251" lon="2.8442780971527"><ele>93</ele><time>2026-4-30T21:31:4Z</time></trkpt>
<trkpt lat="48.885879516602" lon="2.8441731929779"><ele>93</ele><time>2026-4-30T21:31:7Z</time></trkpt>
<trkpt lat="48.885879516602" lon="2.8441731929779"><ele>93</ele><time>2026-4-30T21:31:10Z</time></trkpt>
<trkpt lat="48.885890960693" lon="2.8440825939178"><ele>93</ele><time>2026-4-30T21:31:13Z</time></trkpt>
<trkpt lat="48.885902404785" lon="2.8439784049988"><ele>93</ele><time>2026-4-30T21:31:16Z</time></trkpt>
<trkpt lat="48.885917663574" lon="2.843870639801"><ele>93</ele><time>2026-4-30T21:31:19Z</time></trkpt>
<trkpt lat="48.885917663574" lon="2.843870639801"><ele>93</ele><time>2026-4-30T21:31:22Z</time></trkpt>
<trkpt lat="48.885936737061" lon="2.8437685966492"><ele>93</ele><time>2026-4-30T21:31:25Z</time></trkpt>
<trkpt lat="48.885959625244" lon="2.8436415195465"><ele>94</ele><time>2026-4-30T21:31:28Z</time></trkpt>
<trkpt lat="48.88597869873" lon="2.8435325622559"><ele>94</ele><time>2026-4-30T21:31:31Z</time></trkpt>
<trkpt lat="48.88597869873" lon="2.8435325622559"><ele>94</ele><time>2026-4-30T21:31:34Z</time></trkpt>
<trkpt lat="48.886001586914" lon="2.8434133529663"><ele>94</ele><time>2026-4-30T21:31:37Z</time></trkpt>
<trkpt lat="48.886024475098" lon="2.8433213233948"><ele>94</ele><time>2026-4-30T21:31:40Z</time></trkpt>
<trkpt lat="48.886051177979" lon="2.8432137966156"><ele>94</ele><time>2026-4-30T21:31:43Z</time></trkpt>
<trkpt lat="48.886051177979" lon="2.8432137966156"><ele>94</ele><time>2026-4-30T21:31:46Z</time></trkpt>
<trkpt lat="48.886081695557" lon="2.843092918396"><ele>94</ele><time>2026-4-30T21:31:49Z</time></trkpt>
<trkpt lat="48.88610458374" lon="2.8429825305939"><ele>94</ele><time>2026-4-30T21:31:52Z</time></trkpt>
<trkpt lat="48.886123657227" lon="2.8428843021393"><ele>95</ele><time>2026-4-30T21:31:55Z</time></trkpt>
<trkpt lat="48.886138916016" lon="2.8427934646606"><ele>95</ele><time>2026-4-30T21:31:58Z</time></trkpt>
<trkpt lat="48.886157989502" lon="2.8426818847656"><ele>95</ele><time>2026-4-30T21:32:1Z</time></trkpt>
<trkpt lat="48.886169433594" lon="2.8425686359406"><ele>95</ele><time>2026-4-30T21:32:4Z</time></trkpt>
<trkpt lat="48.886169433594" lon="2.8425686359406"><ele>95</ele><time>2026-4-30T21:32:7Z</time></trkpt>
<trkpt lat="48.886177062988" lon="2.8424744606018"><ele>96</ele><time>2026-4-30T21:32:10Z</time></trkpt>
<trkpt lat="48.886184692383" lon="2.8423635959625"><ele>96</ele><time>2026-4-30T21:32:13Z</time></trkpt>
<trkpt lat="48.886180877686" lon="2.8422572612762"><ele>96</ele><time>2026-4-30T21:32:16Z</time></trkpt>
<trkpt lat="48.886180877686" lon="2.8422572612762"><ele>96</ele><time>2026-4-30T21:32:19Z</time></trkpt>
<trkpt lat="48.886169433594" lon="2.8421499729156"><ele>96</ele><time>2026-4-30T21:32:22Z</time></trkpt>
<trkpt lat="48.886157989502" lon="2.8420379161835"><ele>96</ele><time>2026-4-30T21:32:25Z</time></trkpt>
<trkpt lat="48.886138916016" lon="2.8419506549835"><ele>96</ele><time>2026-4-30T21:32:28Z</time></trkpt>
<trkpt lat="48.886138916016" lon="2.8419506549835"><ele>96</ele><time>2026-4-30T21:32:31Z</time></trkpt>
<trkpt lat="48.886123657227" lon="2.8418555259705"><ele>96</ele><time>2026-4-30T21:32:34Z</time></trkpt>
<trkpt lat="48.886100769043" lon="2.8417522907257"><ele>96</ele><time>2026-4-30T21:32:37Z</time></trkpt>
<trkpt lat="48.886074066162" lon="2.8416578769684"><ele>96</ele><time>2026-4-30T21:32:40Z</time></trkpt>
<trkpt lat="48.886074066162" lon="2.8416578769684"><ele>96</ele><time>2026-4-30T21:32:43Z</time></trkpt>
<trkpt lat="48.886032104492" lon="2.8415746688843"><ele>96</ele><time>2026-4-30T21:32:46Z</time></trkpt>
<trkpt lat="48.88599395752" lon="2.8414936065674"><ele>96</ele><time>2026-4-30T21:32:49Z</time></trkpt>
<trkpt lat="48.885955810547" lon="2.8414220809937"><ele>96</ele><time>2026-4-30T21:32:52Z</time></trkpt>
<trkpt lat="48.885955810547" lon="2.8414220809937"><ele>96</ele><time>2026-4-30T21:32:55Z</time></trkpt>
<trkpt lat="48.885906219482" lon="2.841343164444"><ele>96</ele><time>2026-4-30T21:32:58Z</time></trkpt>
<trkpt lat="48.885845184326" lon="2.8412685394287"><ele>96</ele><time>2026-4-30T21:33:1Z</time></trkpt>
<trkpt lat="48.885780334473" lon="2.8412089347839"><ele>96</ele><time>2026-4-30T21:33:4Z</time></trkpt>
<trkpt lat="48.885780334473" lon="2.8412089347839"><ele>96</ele><time>2026-4-30T21:33:7Z</time></trkpt>
<trkpt lat="48.885719299316" lon="2.8411514759064"><ele>96</ele><time>2026-4-30T21:33:10Z</time></trkpt>
<trkpt lat="48.885654449463" lon="2.8410911560059"><ele>96</ele><time>2026-4-30T21:33:13Z</time></trkpt>
<trkpt lat="48.885597229004" lon="2.8410449028015"><ele>96</ele><time>2026-4-30T21:33:16Z</time></trkpt>
<trkpt lat="48.885520935059" lon="2.841002702713"><ele>96</ele><time>2026-4-30T21:33:19Z</time></trkpt>
<trkpt lat="48.885448455811" lon="2.8409729003906"><ele>96</ele><time>2026-4-30T21:33:22Z</time></trkpt>
<trkpt lat="48.885383605957" lon="2.8409476280212"><ele>96</ele><time>2026-4-30T21:33:25Z</time></trkpt>
<trkpt lat="48.885322570801" lon="2.8409230709076"><ele>95</ele><time>2026-4-30T21:33:28Z</time></trkpt>
<trkpt lat="48.885250091553" lon="2.8408930301666"><ele>95</ele><time>2026-4-30T21:33:31Z</time></trkpt>
<trkpt lat="48.885196685791" lon="2.8408648967743"><ele>95</ele><time>2026-4-30T21:33:34Z</time></trkpt>
<trkpt lat="48.88512802124" lon="2.8408443927765"><ele>95</ele><time>2026-4-30T21:33:37Z</time></trkpt>
<trkpt lat="48.885059356689" lon="2.8408207893372"><ele>95</ele><time>2026-4-30T21:33:40Z</time></trkpt>
<trkpt lat="48.885059356689" lon="2.8408207893372"><ele>95</ele><time>2026-4-30T21:33:43Z</time></trkpt>
<trkpt lat="48.884990692139" lon="2.8407990932465"><ele>95</ele><time>2026-4-30T21:33:46Z</time></trkpt>
<trkpt lat="48.884918212891" lon="2.8407762050629"><ele>95</ele><time>2026-4-30T21:33:49Z</time></trkpt>
<trkpt lat="48.884841918945" lon="2.8407385349274"><ele>95</ele><time>2026-4-30T21:33:52Z</time></trkpt>
<trkpt lat="48.884777069092" lon="2.8406865596771"><ele>95</ele><time>2026-4-30T21:33:55Z</time></trkpt>
<trkpt lat="48.884712219238" lon="2.8406643867493"><ele>95</ele><time>2026-4-30T21:33:58Z</time></trkpt>
<trkpt lat="48.884647369385" lon="2.8406562805176"><ele>95</ele><time>2026-4-30T21:34:1Z</time></trkpt>
<trkpt lat="48.884586334229" lon="2.8406448364258"><ele>95</ele><time>2026-4-30T21:34:4Z</time></trkpt>
<trkpt lat="48.884586334229" lon="2.8406448364258"><ele>95</ele><time>2026-4-30T21:34:7Z</time></trkpt>
<trkpt lat="48.884506225586" lon="2.8405663967133"><ele>95</ele><time>2026-4-30T21:34:10Z</time></trkpt>
<trkpt lat="48.884464263916" lon="2.8404824733734"><ele>95</ele><time>2026-4-30T21:34:13Z</time></trkpt>
<trkpt lat="48.884452819824" lon="2.8403875827789"><ele>95</ele><time>2026-4-30T21:34:16Z</time></trkpt>
<trkpt lat="48.884460449219" lon="2.8402941226959"><ele>95</ele><time>2026-4-30T21:34:19Z</time></trkpt>
<trkpt lat="48.884479522705" lon="2.8401725292206"><ele>95</ele><time>2026-4-30T21:34:22Z</time></trkpt>
<trkpt lat="48.884498596191" lon="2.8400266170502"><ele>96</ele><time>2026-4-30T21:34:25Z</time></trkpt>
<trkpt lat="48.884521484375" lon="2.8398933410645"><ele>97</ele><time>2026-4-30T21:34:28Z</time></trkpt>
<trkpt lat="48.884540557861" lon="2.8397724628448"><ele>98</ele><time>2026-4-30T21:34:31Z</time></trkpt>
<trkpt lat="48.884559631348" lon="2.8396525382996"><ele>99</ele><time>2026-4-30T21:34:34Z</time></trkpt>
<trkpt lat="48.884578704834" lon="2.8395192623138"><ele>100</ele><time>2026-4-30T21:34:37Z</time></trkpt>
<trkpt lat="48.88459777832" lon="2.8393845558167"><ele>101</ele><time>2026-4-30T21:34:40Z</time></trkpt>
<trkpt lat="48.884613037109" lon="2.839252948761"><ele>101</ele><time>2026-4-30T21:34:43Z</time></trkpt>
<trkpt lat="48.884632110596" lon="2.8391065597534"><ele>101</ele><time>2026-4-30T21:34:46Z</time></trkpt>
<trkpt lat="48.884651184082" lon="2.8389549255371"><ele>102</ele><time>2026-4-30T21:34:49Z</time></trkpt>
<trkpt lat="48.884666442871" lon="2.8388104438782"><ele>102</ele><time>2026-4-30T21:34:52Z</time></trkpt>
<trkpt lat="48.88468170166" lon="2.8386776447296"><ele>102</ele><time>2026-4-30T21:34:55Z</time></trkpt>
<trkpt lat="48.884700775146" lon="2.8385207653046"><ele>102</ele><time>2026-4-30T21:34:58Z</time></trkpt>
<trkpt lat="48.884712219238" lon="2.8383817672729"><ele>102</ele><time>2026-4-30T21:35:1Z</time></trkpt>
<trkpt lat="48.884735107422" lon="2.8382427692413"><ele>102</ele><time>2026-4-30T21:35:4Z</time></trkpt>
<trkpt lat="48.884769439697" lon="2.838121175766"><ele>103</ele><time>2026-4-30T21:35:7Z</time></trkpt>
<trkpt lat="48.884788513184" lon="2.8380053043365"><ele>103</ele><time>2026-4-30T21:35:10Z</time></trkpt>
<trkpt lat="48.884811401367" lon="2.8378620147705"><ele>103</ele><time>2026-4-30T21:35:13Z</time></trkpt>
<trkpt lat="48.884834289551" lon="2.8377199172974"><ele>103</ele><time>2026-4-30T21:35:16Z</time></trkpt>
<trkpt lat="48.884857177734" lon="2.8375701904297"><ele>103</ele><time>2026-4-30T21:35:19Z</time></trkpt>
<trkpt lat="48.884883880615" lon="2.837409734726"><ele>103</ele><time>2026-4-30T21:35:22Z</time></trkpt>
<trkpt lat="48.884910583496" lon="2.8372449874878"><ele>103</ele><time>2026-4-30T21:35:25Z</time></trkpt>
<trkpt lat="48.884941101074" lon="2.8370821475983"><ele>104</ele><time>2026-4-30T21:35:28Z</time></trkpt>
<trkpt lat="48.884967803955" lon="2.8369238376617"><ele>104</ele><time>2026-4-30T21:35:31Z</time></trkpt>
<trkpt lat="48.884986877441" lon="2.8367817401886"><ele>104</ele><time>2026-4-30T21:35:34Z</time></trkpt>
<trkpt lat="48.885025024414" lon="2.836681842804"><ele>104</ele><time>2026-4-30T21:35:37Z</time></trkpt>
<trkpt lat="48.885112762451" lon="2.8366806507111"><ele>103</ele><time>2026-4-30T21:35:40Z</time></trkpt>
<trkpt lat="48.885200500488" lon="2.8367483615875"><ele>101</ele><time>2026-4-30T21:35:43Z</time></trkpt>
<trkpt lat="48.88529586792" lon="2.8368294239044"><ele>100</ele><time>2026-4-30T21:35:46Z</time></trkpt>
<trkpt lat="48.885368347168" lon="2.8368773460388"><ele>100</ele><time>2026-4-30T21:35:49Z</time></trkpt>
<trkpt lat="48.885368347168" lon="2.8368773460388"><ele>100</ele><time>2026-4-30T21:35:52Z</time></trkpt>
<trkpt lat="48.885467529297" lon="2.8369002342224"><ele>100</ele><time>2026-4-30T21:35:55Z</time></trkpt>
<trkpt lat="48.885540008545" lon="2.8368825912476"><ele>100</ele><time>2026-4-30T21:35:58Z</time></trkpt>
<trkpt lat="48.885612487793" lon="2.8368625640869"><ele>100</ele><time>2026-4-30T21:36:1Z</time></trkpt>
<trkpt lat="48.885704040527" lon="2.8368294239044"><ele>99</ele><time>2026-4-30T21:36:4Z</time></trkpt>
<trkpt lat="48.885803222656" lon="2.8367958068848"><ele>98</ele><time>2026-4-30T21:36:7Z</time></trkpt>
<trkpt lat="48.885894775391" lon="2.8367576599121"><ele>97</ele><time>2026-4-30T21:36:10Z</time></trkpt>
<trkpt lat="48.885997772217" lon="2.8367011547089"><ele>97</ele><time>2026-4-30T21:36:13Z</time></trkpt>
<trkpt lat="48.886070251465" lon="2.8366055488586"><ele>95</ele><time>2026-4-30T21:36:16Z</time></trkpt>
<trkpt lat="48.886119842529" lon="2.8364894390106"><ele>95</ele><time>2026-4-30T21:36:19Z</time></trkpt>
<trkpt lat="48.886173248291" lon="2.8363618850708"><ele>95</ele><time>2026-4-30T21:36:22Z</time></trkpt>
<trkpt lat="48.886211395264" lon="2.836225271225"><ele>96</ele><time>2026-4-30T21:36:25Z</time></trkpt>
<trkpt lat="48.886245727539" lon="2.8360979557037"><ele>97</ele><time>2026-4-30T21:36:28Z</time></trkpt>
<trkpt lat="48.886280059814" lon="2.8359761238098"><ele>97</ele><time>2026-4-30T21:36:31Z</time></trkpt>
<trkpt lat="48.886344909668" lon="2.8358933925629"><ele>98</ele><time>2026-4-30T21:36:34Z</time></trkpt>
<trkpt lat="48.886428833008" lon="2.8359146118164"><ele>98</ele><time>2026-4-30T21:36:37Z</time></trkpt>
<trkpt lat="48.886531829834" lon="2.8359775543213"><ele>98</ele><time>2026-4-30T21:36:40Z</time></trkpt>
<trkpt lat="48.886627197266" lon="2.8360505104065"><ele>97</ele><time>2026-4-30T21:36:43Z</time></trkpt>
<trkpt lat="48.886711120605" lon="2.8361096382141"><ele>97</ele><time>2026-4-30T21:36:46Z</time></trkpt>
<trkpt lat="48.88680267334" lon="2.8361723423004"><ele>97</ele><time>2026-4-30T21:36:49Z</time></trkpt>
<trkpt lat="48.886890411377" lon="2.8362216949463"><ele>97</ele><time>2026-4-30T21:36:52Z</time></trkpt>
<trkpt lat="48.886962890625" lon="2.83624792099"><ele>97</ele><time>2026-4-30T21:36:55Z</time></trkpt>
<trkpt lat="48.887016296387" lon="2.8362007141113"><ele>97</ele><time>2026-4-30T21:36:58Z</time></trkpt>
<trkpt lat="48.887065887451" lon="2.8360776901245"><ele>97</ele><time>2026-4-30T21:37:1Z</time></trkpt>
<trkpt lat="48.887104034424" lon="2.8359355926514"><ele>98</ele><time>2026-4-30T21:37:4Z</time></trkpt>
<trkpt lat="48.887142181396" lon="2.8357994556427"><ele>99</ele><time>2026-4-30T21:37:7Z</time></trkpt>
<trkpt lat="48.887180328369" lon="2.8356692790985"><ele>101</ele><time>2026-4-30T21:37:10Z</time></trkpt>
<trkpt lat="48.887226104736" lon="2.8355119228363"><ele>102</ele><time>2026-4-30T21:37:13Z</time></trkpt>
<trkpt lat="48.887275695801" lon="2.8353350162506"><ele>102</ele><time>2026-4-30T21:37:16Z</time></trkpt>
<trkpt lat="48.887321472168" lon="2.8351802825928"><ele>101</ele><time>2026-4-30T21:37:19Z</time></trkpt>
<trkpt lat="48.887363433838" lon="2.835052728653"><ele>101</ele><time>2026-4-30T21:37:22Z</time></trkpt>
<trkpt lat="48.887409210205" lon="2.8349022865295"><ele>101</ele><time>2026-4-30T21:37:25Z</time></trkpt>
<trkpt lat="48.887454986572" lon="2.834751367569"><ele>102</ele><time>2026-4-30T21:37:28Z</time></trkpt>
<trkpt lat="48.887500762939" lon="2.8346014022827"><ele>103</ele><time>2026-4-30T21:37:31Z</time></trkpt>
<trkpt lat="48.887550354004" lon="2.8344542980194"><ele>102</ele><time>2026-4-30T21:37:34Z</time></trkpt>
<trkpt lat="48.887607574463" lon="2.8342905044556"><ele>101</ele><time>2026-4-30T21:37:37Z</time></trkpt>
<trkpt lat="48.887668609619" lon="2.8341310024261"><ele>101</ele><time>2026-4-30T21:37:40Z</time></trkpt>
<trkpt lat="48.887722015381" lon="2.8339591026306"><ele>101</ele><time>2026-4-30T21:37:43Z</time></trkpt>
<trkpt lat="48.887767791748" lon="2.83380651474"><ele>102</ele><time>2026-4-30T21:37:46Z</time></trkpt>
<trkpt lat="48.887813568115" lon="2.8336627483368"><ele>102</ele><time>2026-4-30T21:37:49Z</time></trkpt>
<trkpt lat="48.887855529785" lon="2.8335137367249"><ele>103</ele><time>2026-4-30T21:37:52Z</time></trkpt>
<trkpt lat="48.887901306152" lon="2.8333740234375"><ele>103</ele><time>2026-4-30T21:37:55Z</time></trkpt>
<trkpt lat="48.887950897217" lon="2.833233833313"><ele>103</ele><time>2026-4-30T21:37:58Z</time></trkpt>
<trkpt lat="48.888000488281" lon="2.8330948352814"><ele>104</ele><time>2026-4-30T21:38:1Z</time></trkpt>
<trkpt lat="48.888069152832" lon="2.833016872406"><ele>104</ele><time>2026-4-30T21:38:4Z</time></trkpt>
<trkpt lat="48.888164520264" lon="2.8330404758453"><ele>105</ele><time>2026-4-30T21:38:7Z</time></trkpt>
<trkpt lat="48.888263702393" lon="2.8331079483032"><ele>104</ele><time>2026-4-30T21:38:10Z</time></trkpt>
<trkpt lat="48.888381958008" lon="2.8331875801086"><ele>103</ele><time>2026-4-30T21:38:13Z</time></trkpt>
<trkpt lat="48.88850402832" lon="2.8332824707031"><ele>102</ele><time>2026-4-30T21:38:16Z</time></trkpt>
<trkpt lat="48.888618469238" lon="2.8333704471588"><ele>101</ele><time>2026-4-30T21:38:19Z</time></trkpt>
<trkpt lat="48.888721466064" lon="2.8334505558014"><ele>100</ele><time>2026-4-30T21:38:22Z</time></trkpt>
<trkpt lat="48.888832092285" lon="2.8335309028625"><ele>100</ele><time>2026-4-30T21:38:25Z</time></trkpt>
<trkpt lat="48.888942718506" lon="2.8336071968079"><ele>100</ele><time>2026-4-30T21:38:28Z</time></trkpt>
<trkpt lat="48.888942718506" lon="2.8336071968079"><ele>100</ele><time>2026-4-30T21:38:31Z</time></trkpt>
<trkpt lat="48.889057159424" lon="2.8336796760559"><ele>100</ele><time>2026-4-30T21:38:34Z</time></trkpt>
<trkpt lat="48.889171600342" lon="2.833758354187"><ele>99</ele><time>2026-4-30T21:38:37Z</time></trkpt>
<trkpt lat="48.889289855957" lon="2.8338477611542"><ele>98</ele><time>2026-4-30T21:38:40Z</time></trkpt>
<trkpt lat="48.889289855957" lon="2.8338477611542"><ele>98</ele><time>2026-4-30T21:38:43Z</time></trkpt>
<trkpt lat="48.889381408691" lon="2.8339381217957"><ele>97</ele><time>2026-4-30T21:38:46Z</time></trkpt>
<trkpt lat="48.889472961426" lon="2.8340263366699"><ele>96</ele><time>2026-4-30T21:38:49Z</time></trkpt>
<trkpt lat="48.889560699463" lon="2.8341104984283"><ele>95</ele><time>2026-4-30T21:38:52Z</time></trkpt>
<trkpt lat="48.889560699463" lon="2.8341104984283"><ele>95</ele><time>2026-4-30T21:38:55Z</time></trkpt>
<trkpt lat="48.889659881592" lon="2.8341791629791"><ele>94</ele><time>2026-4-30T21:38:58Z</time></trkpt>
<trkpt lat="48.889751434326" lon="2.8341953754425"><ele>94</ele><time>2026-4-30T21:39:1Z</time></trkpt>
<trkpt lat="48.889797210693" lon="2.8341176509857"><ele>94</ele><time>2026-4-30T21:39:4Z</time></trkpt>
<trkpt lat="48.889797210693" lon="2.8341176509857"><ele>94</ele><time>2026-4-30T21:39:7Z</time></trkpt>
<trkpt lat="48.889831542969" lon="2.8340084552765"><ele>94</ele><time>2026-4-30T21:39:10Z</time></trkpt>
<trkpt lat="48.88988494873" lon="2.8339025974274"><ele>94</ele><time>2026-4-30T21:39:13Z</time></trkpt>
<trkpt lat="48.889934539795" lon="2.8338415622711"><ele>94</ele><time>2026-4-30T21:39:16Z</time></trkpt>
<trkpt lat="48.889934539795" lon="2.8338415622711"><ele>94</ele><time>2026-4-30T21:39:19Z</time></trkpt>
<trkpt lat="48.889934539795" lon="2.8338415622711"><ele>94</ele><time>2026-4-30T21:39:22Z</time></trkpt>
<trkpt lat="48.889999389648" lon="2.8336977958679"><ele>94</ele><time>2026-4-30T21:39:25Z</time></trkpt>
<trkpt lat="48.890037536621" lon="2.8335955142975"><ele>94</ele><time>2026-4-30T21:39:28Z</time></trkpt>
<trkpt lat="48.890037536621" lon="2.8335955142975"><ele>94</ele><time>2026-4-30T21:39:31Z</time></trkpt>
<trkpt lat="48.890083312988" lon="2.8334913253784"><ele>94</ele><time>2026-4-30T21:39:34Z</time></trkpt>
<trkpt lat="48.890129089355" lon="2.8333902359009"><ele>94</ele><time>2026-4-30T21:39:37Z</time></trkpt>
<trkpt lat="48.890163421631" lon="2.8333065509796"><ele>94</ele><time>2026-4-30T21:39:40Z</time></trkpt>
<trkpt lat="48.890163421631" lon="2.8333065509796"><ele>94</ele><time>2026-4-30T21:39:43Z</time></trkpt>
<trkpt lat="48.890163421631" lon="2.8333065509796"><ele>94</ele><time>2026-4-30T21:39:46Z</time></trkpt>
<trkpt lat="48.89022064209" lon="2.8331563472748"><ele>94</ele><time>2026-4-30T21:39:49Z</time></trkpt>
<trkpt lat="48.890258789062" lon="2.8330643177032"><ele>94</ele><time>2026-4-30T21:39:52Z</time></trkpt>
<trkpt lat="48.890258789062" lon="2.8330643177032"><ele>94</ele><time>2026-4-30T21:39:55Z</time></trkpt>
<trkpt lat="48.890293121338" lon="2.8329803943634"><ele>94</ele><time>2026-4-30T21:39:58Z</time></trkpt>
<trkpt lat="48.890338897705" lon="2.8328912258148"><ele>94</ele><time>2026-4-30T21:40:1Z</time></trkpt>
<trkpt lat="48.890380859375" lon="2.8328046798706"><ele>95</ele><time>2026-4-30T21:40:4Z</time></trkpt>
<trkpt lat="48.890380859375" lon="2.8328046798706"><ele>95</ele><time>2026-4-30T21:40:7Z</time></trkpt>
<trkpt lat="48.890407562256" lon="2.8327035903931"><ele>95</ele><time>2026-4-30T21:40:10Z</time></trkpt>
<trkpt lat="48.890441894531" lon="2.8326282501221"><ele>95</ele><time>2026-4-30T21:40:13Z</time></trkpt>
<trkpt lat="48.890495300293" lon="2.8325719833374"><ele>95</ele><time>2026-4-30T21:40:16Z</time></trkpt>
<trkpt lat="48.890495300293" lon="2.8325719833374"><ele>95</ele><time>2026-4-30T21:40:19Z</time></trkpt>
<trkpt lat="48.890495300293" lon="2.8325719833374"><ele>95</ele><time>2026-4-30T21:40:22Z</time></trkpt>
<trkpt lat="48.890563964844" lon="2.8324451446533"><ele>96</ele><time>2026-4-30T21:40:25Z</time></trkpt>
<trkpt lat="48.890609741211" lon="2.8323395252228"><ele>96</ele><time>2026-4-30T21:40:28Z</time></trkpt>
<trkpt lat="48.890609741211" lon="2.8323395252228"><ele>96</ele><time>2026-4-30T21:40:31Z</time></trkpt>
<trkpt lat="48.890644073486" lon="2.8322474956512"><ele>96</ele><time>2026-4-30T21:40:34Z</time></trkpt>
<trkpt lat="48.890678405762" lon="2.8321590423584"><ele>96</ele><time>2026-4-30T21:40:37Z</time></trkpt>
<trkpt lat="48.890724182129" lon="2.8320610523224"><ele>96</ele><time>2026-4-30T21:40:40Z</time></trkpt>
<trkpt lat="48.890724182129" lon="2.8320610523224"><ele>96</ele><time>2026-4-30T21:40:43Z</time></trkpt>
<trkpt lat="48.890773773193" lon="2.8319611549377"><ele>97</ele><time>2026-4-30T21:40:46Z</time></trkpt>
<trkpt lat="48.890808105469" lon="2.8318734169006"><ele>97</ele><time>2026-4-30T21:40:49Z</time></trkpt>
<trkpt lat="48.890846252441" lon="2.8317937850952"><ele>97</ele><time>2026-4-30T21:40:52Z</time></trkpt>
<trkpt lat="48.890846252441" lon="2.8317937850952"><ele>97</ele><time>2026-4-30T21:40:55Z</time></trkpt>
<trkpt lat="48.890892028809" lon="2.8316822052002"><ele>97</ele><time>2026-4-30T21:40:58Z</time></trkpt>
<trkpt lat="48.89094543457" lon="2.8315641880035"><ele>97</ele><time>2026-4-30T21:41:1Z</time></trkpt>
<trkpt lat="48.890998840332" lon="2.8314428329468"><ele>97</ele><time>2026-4-30T21:41:4Z</time></trkpt>
<trkpt lat="48.890998840332" lon="2.8314428329468"><ele>97</ele><time>2026-4-30T21:41:7Z</time></trkpt>
<trkpt lat="48.891052246094" lon="2.8313355445862"><ele>97</ele><time>2026-4-30T21:41:10Z</time></trkpt>
<trkpt lat="48.891086578369" lon="2.8312628269196"><ele>97</ele><time>2026-4-30T21:41:13Z</time></trkpt>
<trkpt lat="48.891117095947" lon="2.8311908245087"><ele>97</ele><time>2026-4-30T21:41:16Z</time></trkpt>
<trkpt lat="48.891117095947" lon="2.8311908245087"><ele>97</ele><time>2026-4-30T21:41:19Z</time></trkpt>
<trkpt lat="48.891162872314" lon="2.8311076164246"><ele>97</ele><time>2026-4-30T21:41:22Z</time></trkpt>
<trkpt lat="48.891216278076" lon="2.8310289382935"><ele>97</ele><time>2026-4-30T21:41:25Z</time></trkpt>
<trkpt lat="48.891265869141" lon="2.8309376239777"><ele>97</ele><time>2026-4-30T21:41:28Z</time></trkpt>
<trkpt lat="48.891265869141" lon="2.8309376239777"><ele>97</ele><time>2026-4-30T21:41:31Z</time></trkpt>
<trkpt lat="48.891307830811" lon="2.8308439254761"><ele>97</ele><time>2026-4-30T21:41:34Z</time></trkpt>
<trkpt lat="48.891342163086" lon="2.8307528495789"><ele>97</ele><time>2026-4-30T21:41:37Z</time></trkpt>
<trkpt lat="48.891342163086" lon="2.8307528495789"><ele>97</ele><time>2026-4-30T21:41:40Z</time></trkpt>
<trkpt lat="48.891342163086" lon="2.8307528495789"><ele>97</ele><time>2026-4-30T21:41:43Z</time></trkpt>
<trkpt lat="48.891410827637" lon="2.8306226730347"><ele>97</ele><time>2026-4-30T21:41:46Z</time></trkpt>
<trkpt lat="48.891471862793" lon="2.8305213451385"><ele>97</ele><time>2026-4-30T21:41:49Z</time></trkpt>
<trkpt lat="48.891521453857" lon="2.8304188251495"><ele>97</ele><time>2026-4-30T21:41:52Z</time></trkpt>
<trkpt lat="48.891563415527" lon="2.8303198814392"><ele>97</ele><time>2026-4-30T21:41:55Z</time></trkpt>
<trkpt lat="48.891593933105" lon="2.8302383422852"><ele>97</ele><time>2026-4-30T21:41:58Z</time></trkpt>
<trkpt lat="48.891593933105" lon="2.8302383422852"><ele>97</ele><time>2026-4-30T21:42:1Z</time></trkpt>
<trkpt lat="48.891628265381" lon="2.8301603794098"><ele>97</ele><time>2026-4-30T21:42:4Z</time></trkpt>
<trkpt lat="48.891658782959" lon="2.8300771713257"><ele>96</ele><time>2026-4-30T21:42:7Z</time></trkpt>
<trkpt lat="48.891696929932" lon="2.8299984931946"><ele>96</ele><time>2026-4-30T21:42:10Z</time></trkpt>
<trkpt lat="48.891696929932" lon="2.8299984931946"><ele>96</ele><time>2026-4-30T21:42:13Z</time></trkpt>
<trkpt lat="48.891746520996" lon="2.8299145698547"><ele>96</ele><time>2026-4-30T21:42:16Z</time></trkpt>
<trkpt lat="48.891792297363" lon="2.8298323154449"><ele>96</ele><time>2026-4-30T21:42:19Z</time></trkpt>
<trkpt lat="48.89183807373" lon="2.8297340869904"><ele>96</ele><time>2026-4-30T21:42:22Z</time></trkpt>
<trkpt lat="48.89183807373" lon="2.8297340869904"><ele>96</ele><time>2026-4-30T21:42:25Z</time></trkpt>
<trkpt lat="48.891872406006" lon="2.8296468257904"><ele>96</ele><time>2026-4-30T21:42:28Z</time></trkpt>
<trkpt lat="48.891902923584" lon="2.8295540809631"><ele>96</ele><time>2026-4-30T21:42:31Z</time></trkpt>
<trkpt lat="48.891937255859" lon="2.8294415473938"><ele>96</ele><time>2026-4-30T21:42:34Z</time></trkpt>
<trkpt lat="48.891937255859" lon="2.8294415473938"><ele>96</ele><time>2026-4-30T21:42:37Z</time></trkpt>
<trkpt lat="48.891983032227" lon="2.8293402194977"><ele>96</ele><time>2026-4-30T21:42:40Z</time></trkpt>
<trkpt lat="48.892028808594" lon="2.8292582035065"><ele>96</ele><time>2026-4-30T21:42:43Z</time></trkpt>
<trkpt lat="48.892066955566" lon="2.8291783332825"><ele>96</ele><time>2026-4-30T21:42:46Z</time></trkpt>
<trkpt lat="48.892066955566" lon="2.8291783332825"><ele>96</ele><time>2026-4-30T21:42:49Z</time></trkpt>
<trkpt lat="48.892116546631" lon="2.8290784358978"><ele>96</ele><time>2026-4-30T21:42:52Z</time></trkpt>
<trkpt lat="48.892147064209" lon="2.8290073871613"><ele>96</ele><time>2026-4-30T21:42:55Z</time></trkpt>
<trkpt lat="48.892185211182" lon="2.8289322853088"><ele>96</ele><time>2026-4-30T21:42:58Z</time></trkpt>
<trkpt lat="48.892185211182" lon="2.8289322853088"><ele>96</ele><time>2026-4-30T21:43:1Z</time></trkpt>
<trkpt lat="48.892219543457" lon="2.8288564682007"><ele>96</ele><time>2026-4-30T21:43:4Z</time></trkpt>
<trkpt lat="48.892272949219" lon="2.8287494182587"><ele>96</ele><time>2026-4-30T21:43:7Z</time></trkpt>
<trkpt lat="48.892318725586" lon="2.8286280632019"><ele>96</ele><time>2026-4-30T21:43:10Z</time></trkpt>
<trkpt lat="48.892318725586" lon="2.8286280632019"><ele>96</ele><time>2026-4-30T21:43:13Z</time></trkpt>
<trkpt lat="48.892349243164" lon="2.8285548686981"><ele>96</ele><time>2026-4-30T21:43:16Z</time></trkpt>
<trkpt lat="48.892395019531" lon="2.8284511566162"><ele>97</ele><time>2026-4-30T21:43:19Z</time></trkpt>
<trkpt lat="48.892448425293" lon="2.8283331394196"><ele>97</ele><time>2026-4-30T21:43:22Z</time></trkpt>
<trkpt lat="48.892448425293" lon="2.8283331394196"><ele>97</ele><time>2026-4-30T21:43:25Z</time></trkpt>
<trkpt lat="48.89249420166" lon="2.8282372951508"><ele>97</ele><time>2026-4-30T21:43:28Z</time></trkpt>
<trkpt lat="48.892539978027" lon="2.8281705379486"><ele>97</ele><time>2026-4-30T21:43:31Z</time></trkpt>
<trkpt lat="48.892539978027" lon="2.8281705379486"><ele>97</ele><time>2026-4-30T21:43:34Z</time></trkpt>
<trkpt lat="48.892539978027" lon="2.8281705379486"><ele>97</ele><time>2026-4-30T21:43:37Z</time></trkpt>
<trkpt lat="48.892616271973" lon="2.8280498981476"><ele>97</ele><time>2026-4-30T21:43:40Z</time></trkpt>
<trkpt lat="48.892616271973" lon="2.8280498981476"><ele>97</ele><time>2026-4-30T21:43:43Z</time></trkpt>
<trkpt lat="48.892677307129" lon="2.8279225826263"><ele>97</ele><time>2026-4-30T21:43:46Z</time></trkpt>
<trkpt lat="48.892677307129" lon="2.8279225826263"><ele>97</ele><time>2026-4-30T21:43:49Z</time></trkpt>
<trkpt lat="48.892715454102" lon="2.827837228775"><ele>97</ele><time>2026-4-30T21:43:52Z</time></trkpt>
<trkpt lat="48.892761230469" lon="2.8277368545532"><ele>97</ele><time>2026-4-30T21:43:55Z</time></trkpt>
<trkpt lat="48.89281463623" lon="2.8276317119598"><ele>97</ele><time>2026-4-30T21:43:58Z</time></trkpt>
<trkpt lat="48.89281463623" lon="2.8276317119598"><ele>97</ele><time>2026-4-30T21:44:1Z</time></trkpt>
<trkpt lat="48.892868041992" lon="2.8275065422058"><ele>97</ele><time>2026-4-30T21:44:4Z</time></trkpt>
<trkpt lat="48.892910003662" lon="2.8274075984955"><ele>97</ele><time>2026-4-30T21:44:7Z</time></trkpt>
<trkpt lat="48.892948150635" lon="2.8273251056671"><ele>97</ele><time>2026-4-30T21:44:10Z</time></trkpt>
<trkpt lat="48.892948150635" lon="2.8273251056671"><ele>97</ele><time>2026-4-30T21:44:13Z</time></trkpt>
<trkpt lat="48.892990112305" lon="2.8272380828857"><ele>97</ele><time>2026-4-30T21:44:16Z</time></trkpt>
<trkpt lat="48.893028259277" lon="2.8271477222443"><ele>96</ele><time>2026-4-30T21:44:19Z</time></trkpt>
<trkpt lat="48.893070220947" lon="2.8270585536957"><ele>96</ele><time>2026-4-30T21:44:22Z</time></trkpt>
<trkpt lat="48.893070220947" lon="2.8270585536957"><ele>96</ele><time>2026-4-30T21:44:25Z</time></trkpt>
<trkpt lat="48.89310836792" lon="2.8269560337067"><ele>96</ele><time>2026-4-30T21:44:28Z</time></trkpt>
<trkpt lat="48.893146514893" lon="2.8268456459045"><ele>96</ele><time>2026-4-30T21:44:31Z</time></trkpt>
<trkpt lat="48.893177032471" lon="2.8267550468445"><ele>96</ele><time>2026-4-30T21:44:34Z</time></trkpt>
<trkpt lat="48.893177032471" lon="2.8267550468445"><ele>96</ele><time>2026-4-30T21:44:37Z</time></trkpt>
<trkpt lat="48.893222808838" lon="2.8266642093658"><ele>96</ele><time>2026-4-30T21:44:40Z</time></trkpt>
<trkpt lat="48.893257141113" lon="2.8265872001648"><ele>96</ele><time>2026-4-30T21:44:43Z</time></trkpt>
<trkpt lat="48.893257141113" lon="2.8265872001648"><ele>96</ele><time>2026-4-30T21:44:46Z</time></trkpt>
<trkpt lat="48.893306732178" lon="2.8265218734741"><ele>95</ele><time>2026-4-30T21:44:49Z</time></trkpt>
<trkpt lat="48.893306732178" lon="2.8265218734741"><ele>95</ele><time>2026-4-30T21:44:52Z</time></trkpt>
<trkpt lat="48.893409729004" lon="2.8265595436096"><ele>95</ele><time>2026-4-30T21:44:55Z</time></trkpt>
<trkpt lat="48.893474578857" lon="2.8265759944916"><ele>96</ele><time>2026-4-30T21:44:58Z</time></trkpt>
<trkpt lat="48.893531799316" lon="2.8265898227692"><ele>96</ele><time>2026-4-30T21:45:1Z</time></trkpt>
<trkpt lat="48.893604278564" lon="2.826621055603"><ele>96</ele><time>2026-4-30T21:45:4Z</time></trkpt>
<trkpt lat="48.89368057251" lon="2.8266606330872"><ele>96</ele><time>2026-4-30T21:45:7Z</time></trkpt>
<trkpt lat="48.893775939941" lon="2.8266973495483"><ele>96</ele><time>2026-4-30T21:45:10Z</time></trkpt>
<trkpt lat="48.893867492676" lon="2.826740026474"><ele>99</ele><time>2026-4-30T21:45:13Z</time></trkpt>
<trkpt lat="48.893981933594" lon="2.826788187027"><ele>101</ele><time>2026-4-30T21:45:16Z</time></trkpt>
<trkpt lat="48.894088745117" lon="2.8268413543701"><ele>102</ele><time>2026-4-30T21:45:19Z</time></trkpt>
<trkpt lat="48.894199371338" lon="2.8269047737122"><ele>102</ele><time>2026-4-30T21:45:22Z</time></trkpt>
<trkpt lat="48.894332885742" lon="2.8269672393799"><ele>102</ele><time>2026-4-30T21:45:25Z</time></trkpt>
<trkpt lat="48.894439697266" lon="2.8270094394684"><ele>101</ele><time>2026-4-30T21:45:28Z</time></trkpt>
<trkpt lat="48.894542694092" lon="2.8270471096039"><ele>99</ele><time>2026-4-30T21:45:31Z</time></trkpt>
<trkpt lat="48.894649505615" lon="2.8270795345306"><ele>97</ele><time>2026-4-30T21:45:34Z</time></trkpt>
<trkpt lat="48.894737243652" lon="2.8270967006683"><ele>96</ele><time>2026-4-30T21:45:37Z</time></trkpt>
<trkpt lat="48.894832611084" lon="2.8271265029907"><ele>95</ele><time>2026-4-30T21:45:40Z</time></trkpt>
<trkpt lat="48.894927978516" lon="2.8271732330322"><ele>95</ele><time>2026-4-30T21:45:43Z</time></trkpt>
<trkpt lat="48.895015716553" lon="2.8272149562836"><ele>95</ele><time>2026-4-30T21:45:46Z</time></trkpt>
<trkpt lat="48.89510345459" lon="2.8272535800934"><ele>95</ele><time>2026-4-30T21:45:49Z</time></trkpt>
<trkpt lat="48.895168304443" lon="2.8272738456726"><ele>95</ele><time>2026-4-30T21:45:52Z</time></trkpt>
<trkpt lat="48.895244598389" lon="2.8272967338562"><ele>96</ele><time>2026-4-30T21:45:55Z</time></trkpt>
<trkpt lat="48.89533996582" lon="2.8273329734802"><ele>96</ele><time>2026-4-30T21:45:58Z</time></trkpt>
<trkpt lat="48.895404815674" lon="2.8273513317108"><ele>96</ele><time>2026-4-30T21:46:1Z</time></trkpt>
<trkpt lat="48.895473480225" lon="2.8273491859436"><ele>96</ele><time>2026-4-30T21:46:4Z</time></trkpt>
<trkpt lat="48.895473480225" lon="2.8273491859436"><ele>96</ele><time>2026-4-30T21:46:7Z</time></trkpt>
<trkpt lat="48.89559173584" lon="2.8274040222168"><ele>96</ele><time>2026-4-30T21:46:10Z</time></trkpt>
<trkpt lat="48.895694732666" lon="2.8274278640747"><ele>97</ele><time>2026-4-30T21:46:13Z</time></trkpt>
<trkpt lat="48.895809173584" lon="2.8274500370026"><ele>97</ele><time>2026-4-30T21:46:16Z</time></trkpt>
<trkpt lat="48.895893096924" lon="2.8274626731873"><ele>97</ele><time>2026-4-30T21:46:19Z</time></trkpt>
<trkpt lat="48.895977020264" lon="2.8274886608124"><ele>97</ele><time>2026-4-30T21:46:22Z</time></trkpt>
<trkpt lat="48.896064758301" lon="2.8275213241577"><ele>99</ele><time>2026-4-30T21:46:25Z</time></trkpt>
<trkpt lat="48.896160125732" lon="2.8275535106659"><ele>99</ele><time>2026-4-30T21:46:28Z</time></trkpt>
<trkpt lat="48.89624786377" lon="2.8276057243347"><ele>99</ele><time>2026-4-30T21:46:31Z</time></trkpt>
<trkpt lat="48.896335601807" lon="2.8277478218079"><ele>99</ele><time>2026-4-30T21:46:34Z</time></trkpt>
<trkpt lat="48.896377563477" lon="2.8279311656952"><ele>98</ele><time>2026-4-30T21:46:37Z</time></trkpt>
<trkpt lat="48.896404266357" lon="2.8280827999115"><ele>95</ele><time>2026-4-30T21:46:40Z</time></trkpt>
<trkpt lat="48.896427154541" lon="2.8282256126404"><ele>93</ele><time>2026-4-30T21:46:43Z</time></trkpt>
<trkpt lat="48.896450042725" lon="2.8283746242523"><ele>93</ele><time>2026-4-30T21:46:46Z</time></trkpt>
<trkpt lat="48.896472930908" lon="2.8285059928894"><ele>93</ele><time>2026-4-30T21:46:49Z</time></trkpt>
<trkpt lat="48.896499633789" lon="2.8286159038544"><ele>92</ele><time>2026-4-30T21:46:52Z</time></trkpt>
<trkpt lat="48.896545410156" lon="2.8287200927734"><ele>92</ele><time>2026-4-30T21:46:55Z</time></trkpt>
<trkpt lat="48.896602630615" lon="2.8288192749023"><ele>91</ele><time>2026-4-30T21:46:58Z</time></trkpt>
<trkpt lat="48.896663665771" lon="2.8288984298706"><ele>91</ele><time>2026-4-30T21:47:1Z</time></trkpt>
<trkpt lat="48.896728515625" lon="2.8289566040039"><ele>91</ele><time>2026-4-30T21:47:4Z</time></trkpt>
<trkpt lat="48.896781921387" lon="2.8289852142334"><ele>91</ele><time>2026-4-30T21:47:7Z</time></trkpt>
<trkpt lat="48.896854400635" lon="2.829033613205"><ele>91</ele><time>2026-4-30T21:47:10Z</time></trkpt>
<trkpt lat="48.896934509277" lon="2.8290667533875"><ele>91</ele><time>2026-4-30T21:47:13Z</time></trkpt>
<trkpt lat="48.897033691406" lon="2.8291084766388"><ele>90</ele><time>2026-4-30T21:47:16Z</time></trkpt>
<trkpt lat="48.897117614746" lon="2.8291411399841"><ele>90</ele><time>2026-4-30T21:47:19Z</time></trkpt>
<trkpt lat="48.897205352783" lon="2.8291726112366"><ele>91</ele><time>2026-4-30T21:47:22Z</time></trkpt>
<trkpt lat="48.897296905518" lon="2.8292117118835"><ele>92</ele><time>2026-4-30T21:47:25Z</time></trkpt>
<trkpt lat="48.897396087646" lon="2.8292472362518"><ele>93</ele><time>2026-4-30T21:47:28Z</time></trkpt>
<trkpt lat="48.89750289917" lon="2.8292908668518"><ele>94</ele><time>2026-4-30T21:47:31Z</time></trkpt>
<trkpt lat="48.897590637207" lon="2.8293271064758"><ele>95</ele><time>2026-4-30T21:47:34Z</time></trkpt>
<trkpt lat="48.897666931152" lon="2.8293616771698"><ele>96</ele><time>2026-4-30T21:47:37Z</time></trkpt>
<trkpt lat="48.897747039795" lon="2.8293931484222"><ele>96</ele><time>2026-4-30T21:47:40Z</time></trkpt>
<trkpt lat="48.89782333374" lon="2.8294332027435"><ele>96</ele><time>2026-4-30T21:47:43Z</time></trkpt>
<trkpt lat="48.897895812988" lon="2.8294670581818"><ele>96</ele><time>2026-4-30T21:47:46Z</time></trkpt>
<trkpt lat="48.897956848145" lon="2.8294928073883"><ele>96</ele><time>2026-4-30T21:47:49Z</time></trkpt>
<trkpt lat="48.898025512695" lon="2.8295195102692"><ele>96</ele><time>2026-4-30T21:47:52Z</time></trkpt>
<trkpt lat="48.898094177246" lon="2.82954621315"><ele>96</ele><time>2026-4-30T21:47:55Z</time></trkpt>
<trkpt lat="48.898155212402" lon="2.8295707702637"><ele>96</ele><time>2026-4-30T21:47:58Z</time></trkpt>
<trkpt lat="48.89822769165" lon="2.8295955657959"><ele>96</ele><time>2026-4-30T21:48:1Z</time></trkpt>
<trkpt lat="48.89831161499" lon="2.8296287059784"><ele>95</ele><time>2026-4-30T21:48:4Z</time></trkpt>
<trkpt lat="48.898418426514" lon="2.8296778202057"><ele>94</ele><time>2026-4-30T21:48:7Z</time></trkpt>
<trkpt lat="48.898555755615" lon="2.8297295570374"><ele>94</ele><time>2026-4-30T21:48:10Z</time></trkpt>
<trkpt lat="48.898685455322" lon="2.829794883728"><ele>94</ele><time>2026-4-30T21:48:13Z</time></trkpt>
<trkpt lat="48.898807525635" lon="2.8299050331116"><ele>93</ele><time>2026-4-30T21:48:16Z</time></trkpt>
<trkpt lat="48.898906707764" lon="2.8300044536591"><ele>92</ele><time>2026-4-30T21:48:19Z</time></trkpt>
<trkpt lat="48.898990631104" lon="2.8300676345825"><ele>91</ele><time>2026-4-30T21:48:22Z</time></trkpt>
<trkpt lat="48.899082183838" lon="2.8301131725311"><ele>90</ele><time>2026-4-30T21:48:25Z</time></trkpt>
<trkpt lat="48.899188995361" lon="2.830150604248"><ele>90</ele><time>2026-4-30T21:48:28Z</time></trkpt>
<trkpt lat="48.899291992188" lon="2.830203294754"><ele>89</ele><time>2026-4-30T21:48:31Z</time></trkpt>
<trkpt lat="48.89937210083" lon="2.8302772045135"><ele>89</ele><time>2026-4-30T21:48:34Z</time></trkpt>
<trkpt lat="48.899410247803" lon="2.8303828239441"><ele>90</ele><time>2026-4-30T21:48:37Z</time></trkpt>
<trkpt lat="48.899379730225" lon="2.8305275440216"><ele>90</ele><time>2026-4-30T21:48:40Z</time></trkpt>
<trkpt lat="48.89933013916" lon="2.8306503295898"><ele>90</ele><time>2026-4-30T21:48:43Z</time></trkpt>
<trkpt lat="48.899299621582" lon="2.8307325839996"><ele>90</ele><time>2026-4-30T21:48:46Z</time></trkpt>
<trkpt lat="48.899272918701" lon="2.8308291435242"><ele>90</ele><time>2026-4-30T21:48:49Z</time></trkpt>
<trkpt lat="48.899238586426" lon="2.8309366703033"><ele>90</ele><time>2026-4-30T21:48:52Z</time></trkpt>
<trkpt lat="48.89920425415" lon="2.831036567688"><ele>90</ele><time>2026-4-30T21:48:55Z</time></trkpt>
<trkpt lat="48.899169921875" lon="2.8311383724213"><ele>90</ele><time>2026-4-30T21:48:58Z</time></trkpt>
<trkpt lat="48.899143218994" lon="2.8312442302704"><ele>91</ele><time>2026-4-30T21:49:1Z</time></trkpt>
<trkpt lat="48.899112701416" lon="2.8313493728638"><ele>91</ele><time>2026-4-30T21:49:4Z</time></trkpt>
<trkpt lat="48.899112701416" lon="2.8313493728638"><ele>91</ele><time>2026-4-30T21:49:7Z</time></trkpt>
<trkpt lat="48.899089813232" lon="2.8314497470856"><ele>91</ele><time>2026-4-30T21:49:10Z</time></trkpt>
<trkpt lat="48.899063110352" lon="2.8315446376801"><ele>91</ele><time>2026-4-30T21:49:13Z</time></trkpt>
<trkpt lat="48.899040222168" lon="2.8316338062286"><ele>91</ele><time>2026-4-30T21:49:16Z</time></trkpt>
<trkpt lat="48.899040222168" lon="2.8316338062286"><ele>91</ele><time>2026-4-30T21:49:19Z</time></trkpt>
<trkpt lat="48.898986816406" lon="2.8317654132843"><ele>91</ele><time>2026-4-30T21:49:22Z</time></trkpt>
<trkpt lat="48.898986816406" lon="2.8317654132843"><ele>91</ele><time>2026-4-30T21:49:25Z</time></trkpt>
<trkpt lat="48.898929595947" lon="2.8318800926208"><ele>91</ele><time>2026-4-30T21:49:28Z</time></trkpt>
<trkpt lat="48.898906707764" lon="2.8319625854492"><ele>92</ele><time>2026-4-30T21:49:31Z</time></trkpt>
<trkpt lat="48.898891448975" lon="2.8320467472076"><ele>92</ele><time>2026-4-30T21:49:34Z</time></trkpt>
<trkpt lat="48.898868560791" lon="2.8321433067322"><ele>92</ele><time>2026-4-30T21:49:37Z</time></trkpt>
<trkpt lat="48.898857116699" lon="2.8322606086731"><ele>92</ele><time>2026-4-30T21:49:40Z</time></trkpt>
<trkpt lat="48.89884185791" lon="2.8324055671692"><ele>92</ele><time>2026-4-30T21:49:43Z</time></trkpt>
<trkpt lat="48.898818969727" lon="2.8325877189636"><ele>92</ele><time>2026-4-30T21:49:46Z</time></trkpt>
<trkpt lat="48.898796081543" lon="2.8327848911285"><ele>93</ele><time>2026-4-30T21:49:49Z</time></trkpt>
<trkpt lat="48.898765563965" lon="2.8330311775208"><ele>92</ele><time>2026-4-30T21:49:52Z</time></trkpt>
<trkpt lat="48.898746490479" lon="2.8332161903381"><ele>92</ele><time>2026-4-30T21:49:55Z</time></trkpt>
<trkpt lat="48.898735046387" lon="2.8333899974823"><ele>92</ele><time>2026-4-30T21:49:58Z</time></trkpt>
<trkpt lat="48.8987159729" lon="2.8335523605347"><ele>92</ele><time>2026-4-30T21:50:1Z</time></trkpt>
<trkpt lat="48.898700714111" lon="2.8337109088898"><ele>92</ele><time>2026-4-30T21:50:4Z</time></trkpt>
<trkpt lat="48.898685455322" lon="2.8338675498962"><ele>92</ele><time>2026-4-30T21:50:7Z</time></trkpt>
<trkpt lat="48.898685455322" lon="2.8338675498962"><ele>92</ele><time>2026-4-30T21:50:10Z</time></trkpt>
<trkpt lat="48.898670196533" lon="2.8340275287628"><ele>91</ele><time>2026-4-30T21:50:13Z</time></trkpt>
<trkpt lat="48.898654937744" lon="2.8341717720032"><ele>91</ele><time>2026-4-30T21:50:16Z</time></trkpt>
<trkpt lat="48.898643493652" lon="2.8343105316162"><ele>90</ele><time>2026-4-30T21:50:19Z</time></trkpt>
<trkpt lat="48.898643493652" lon="2.8343105316162"><ele>90</ele><time>2026-4-30T21:50:22Z</time></trkpt>
<trkpt lat="48.898632049561" lon="2.8344452381134"><ele>90</ele><time>2026-4-30T21:50:25Z</time></trkpt>
<trkpt lat="48.898632049561" lon="2.8344452381134"><ele>90</ele><time>2026-4-30T21:50:28Z</time></trkpt>
<trkpt lat="48.898632049561" lon="2.8344452381134"><ele>90</ele><time>2026-4-30T21:50:31Z</time></trkpt>
<trkpt lat="48.898632049561" lon="2.8344452381134"><ele>90</ele><time>2026-4-30T21:50:34Z</time></trkpt>
<trkpt lat="48.898662567139" lon="2.8350775241852"><ele>89</ele><time>2026-4-30T21:50:37Z</time></trkpt>
<trkpt lat="48.898635864258" lon="2.8354177474976"><ele>89</ele><time>2026-4-30T21:50:40Z</time></trkpt>
<trkpt lat="48.898635864258" lon="2.8354177474976"><ele>89</ele><time>2026-4-30T21:50:43Z</time></trkpt>
<trkpt lat="48.898620605469" lon="2.835590839386"><ele>90</ele><time>2026-4-30T21:50:46Z</time></trkpt>
<trkpt lat="48.89860534668" lon="2.8357486724854"><ele>90</ele><time>2026-4-30T21:50:49Z</time></trkpt>
<trkpt lat="48.898590087891" lon="2.8358826637268"><ele>88</ele><time>2026-4-30T21:50:52Z</time></trkpt>
<trkpt lat="48.898590087891" lon="2.8358826637268"><ele>88</ele><time>2026-4-30T21:50:55Z</time></trkpt>
<trkpt lat="48.898582458496" lon="2.8360214233398"><ele>87</ele><time>2026-4-30T21:50:58Z</time></trkpt>
<trkpt lat="48.898586273193" lon="2.8361744880676"><ele>86</ele><time>2026-4-30T21:51:1Z</time></trkpt>
<trkpt lat="48.898590087891" lon="2.836345911026"><ele>85</ele><time>2026-4-30T21:51:4Z</time></trkpt>
<trkpt lat="48.898593902588" lon="2.8364853858948"><ele>85</ele><time>2026-4-30T21:51:7Z</time></trkpt>
<trkpt lat="48.898593902588" lon="2.8366234302521"><ele>84</ele><time>2026-4-30T21:51:10Z</time></trkpt>
<trkpt lat="48.898593902588" lon="2.8366234302521"><ele>84</ele><time>2026-4-30T21:51:13Z</time></trkpt>
<trkpt lat="48.898597717285" lon="2.8367507457733"><ele>83</ele><time>2026-4-30T21:51:16Z</time></trkpt>
<trkpt lat="48.898601531982" lon="2.8368990421295"><ele>83</ele><time>2026-4-30T21:51:19Z</time></trkpt>
<trkpt lat="48.898601531982" lon="2.8370349407196"><ele>82</ele><time>2026-4-30T21:51:22Z</time></trkpt>
<trkpt lat="48.898601531982" lon="2.8370349407196"><ele>82</ele><time>2026-4-30T21:51:25Z</time></trkpt>
<trkpt lat="48.898609161377" lon="2.8371706008911"><ele>83</ele><time>2026-4-30T21:51:28Z</time></trkpt>
<trkpt lat="48.898609161377" lon="2.837278842926"><ele>82</ele><time>2026-4-30T21:51:31Z</time></trkpt>
<trkpt lat="48.898616790771" lon="2.8374195098877"><ele>81</ele><time>2026-4-30T21:51:34Z</time></trkpt>
<trkpt lat="48.898616790771" lon="2.8374195098877"><ele>81</ele><time>2026-4-30T21:51:37Z</time></trkpt>
<trkpt lat="48.898628234863" lon="2.8375639915466"><ele>83</ele><time>2026-4-30T21:51:40Z</time></trkpt>
<trkpt lat="48.898635864258" lon="2.837709903717"><ele>85</ele><time>2026-4-30T21:51:43Z</time></trkpt>
<trkpt lat="48.898651123047" lon="2.837860584259"><ele>86</ele><time>2026-4-30T21:51:46Z</time></trkpt>
<trkpt lat="48.898651123047" lon="2.837860584259"><ele>86</ele><time>2026-4-30T21:51:49Z</time></trkpt>
<trkpt lat="48.898662567139" lon="2.8380024433136"><ele>87</ele><time>2026-4-30T21:51:52Z</time></trkpt>
<trkpt lat="48.898677825928" lon="2.8381502628326"><ele>88</ele><time>2026-4-30T21:51:55Z</time></trkpt>
<trkpt lat="48.898693084717" lon="2.8383016586304"><ele>88</ele><time>2026-4-30T21:51:58Z</time></trkpt>
<trkpt lat="48.898693084717" lon="2.8383016586304"><ele>88</ele><time>2026-4-30T21:52:1Z</time></trkpt>
<trkpt lat="48.8987159729" lon="2.8384294509888"><ele>88</ele><time>2026-4-30T21:52:4Z</time></trkpt>
<trkpt lat="48.898742675781" lon="2.8385581970215"><ele>88</ele><time>2026-4-30T21:52:7Z</time></trkpt>
<trkpt lat="48.898777008057" lon="2.8387081623077"><ele>88</ele><time>2026-4-30T21:52:10Z</time></trkpt>
<trkpt lat="48.898777008057" lon="2.8387081623077"><ele>88</ele><time>2026-4-30T21:52:13Z</time></trkpt>
<trkpt lat="48.898815155029" lon="2.8388600349426"><ele>89</ele><time>2026-4-30T21:52:16Z</time></trkpt>
<trkpt lat="48.898857116699" lon="2.8390169143677"><ele>91</ele><time>2026-4-30T21:52:19Z</time></trkpt>
<trkpt lat="48.898891448975" lon="2.8391733169556"><ele>92</ele><time>2026-4-30T21:52:22Z</time></trkpt>
<trkpt lat="48.898891448975" lon="2.8391733169556"><ele>92</ele><time>2026-4-30T21:52:25Z</time></trkpt>
<trkpt lat="48.89892578125" lon="2.839325428009"><ele>92</ele><time>2026-4-30T21:52:28Z</time></trkpt>
<trkpt lat="48.898963928223" lon="2.8394680023193"><ele>91</ele><time>2026-4-30T21:52:31Z</time></trkpt>
<trkpt lat="48.899002075195" lon="2.8395969867706"><ele>90</ele><time>2026-4-30T21:52:34Z</time></trkpt>
<trkpt lat="48.899002075195" lon="2.8395969867706"><ele>90</ele><time>2026-4-30T21:52:37Z</time></trkpt>
<trkpt lat="48.899044036865" lon="2.8397388458252"><ele>90</ele><time>2026-4-30T21:52:40Z</time></trkpt>
<trkpt lat="48.899085998535" lon="2.8398973941803"><ele>88</ele><time>2026-4-30T21:52:43Z</time></trkpt>
<trkpt lat="48.899127960205" lon="2.8400332927704"><ele>88</ele><time>2026-4-30T21:52:46Z</time></trkpt>
<trkpt lat="48.899127960205" lon="2.8400332927704"><ele>88</ele><time>2026-4-30T21:52:49Z</time></trkpt>
<trkpt lat="48.899169921875" lon="2.8401741981506"><ele>87</ele><time>2026-4-30T21:52:52Z</time></trkpt>
<trkpt lat="48.899215698242" lon="2.8403234481812"><ele>87</ele><time>2026-4-30T21:52:55Z</time></trkpt>
<trkpt lat="48.899257659912" lon="2.840473651886"><ele>87</ele><time>2026-4-30T21:52:58Z</time></trkpt>
<trkpt lat="48.899295806885" lon="2.8406076431274"><ele>87</ele><time>2026-4-30T21:53:1Z</time></trkpt>
<trkpt lat="48.899341583252" lon="2.8407325744629"><ele>87</ele><time>2026-4-30T21:53:4Z</time></trkpt>
<trkpt lat="48.899387359619" lon="2.8408653736115"><ele>87</ele><time>2026-4-30T21:53:7Z</time></trkpt>
<trkpt lat="48.899387359619" lon="2.8408653736115"><ele>87</ele><time>2026-4-30T21:53:10Z</time></trkpt>
<trkpt lat="48.899433135986" lon="2.8410077095032"><ele>88</ele><time>2026-4-30T21:53:13Z</time></trkpt>
<trkpt lat="48.899478912354" lon="2.8411514759064"><ele>87</ele><time>2026-4-30T21:53:16Z</time></trkpt>
<trkpt lat="48.899520874023" lon="2.8412706851959"><ele>87</ele><time>2026-4-30T21:53:19Z</time></trkpt>
<trkpt lat="48.899520874023" lon="2.8412706851959"><ele>87</ele><time>2026-4-30T21:53:22Z</time></trkpt>
<trkpt lat="48.899570465088" lon="2.8413994312286"><ele>87</ele><time>2026-4-30T21:53:25Z</time></trkpt>
<trkpt lat="48.899620056152" lon="2.8415322303772"><ele>88</ele><time>2026-4-30T21:53:28Z</time></trkpt>
<trkpt lat="48.899669647217" lon="2.8416731357574"><ele>88</ele><time>2026-4-30T21:53:31Z</time></trkpt>
<trkpt lat="48.899669647217" lon="2.8416731357574"><ele>88</ele><time>2026-4-30T21:53:34Z</time></trkpt>
<trkpt lat="48.899719238281" lon="2.8417973518372"><ele>87</ele><time>2026-4-30T21:53:37Z</time></trkpt>
<trkpt lat="48.899772644043" lon="2.8419423103333"><ele>87</ele><time>2026-4-30T21:53:40Z</time></trkpt>
<trkpt lat="48.899822235107" lon="2.8420879840851"><ele>87</ele><time>2026-4-30T21:53:43Z</time></trkpt>
<trkpt lat="48.899822235107" lon="2.8420879840851"><ele>87</ele><time>2026-4-30T21:53:46Z</time></trkpt>
<trkpt lat="48.899887084961" lon="2.8422517776489"><ele>89</ele><time>2026-4-30T21:53:49Z</time></trkpt>
<trkpt lat="48.899948120117" lon="2.8423855304718"><ele>90</ele><time>2026-4-30T21:53:52Z</time></trkpt>
<trkpt lat="48.900012969971" lon="2.842485666275"><ele>90</ele><time>2026-4-30T21:53:55Z</time></trkpt>
<trkpt lat="48.900012969971" lon="2.842485666275"><ele>90</ele><time>2026-4-30T21:53:58Z</time></trkpt>
<trkpt lat="48.900074005127" lon="2.8425893783569"><ele>89</ele><time>2026-4-30T21:54:1Z</time></trkpt>
<trkpt lat="48.90013885498" lon="2.8427267074585"><ele>89</ele><time>2026-4-30T21:54:4Z</time></trkpt>
<trkpt lat="48.900196075439" lon="2.8428616523743"><ele>90</ele><time>2026-4-30T21:54:7Z</time></trkpt>
<trkpt lat="48.900196075439" lon="2.8428616523743"><ele>90</ele><time>2026-4-30T21:54:10Z</time></trkpt>
<trkpt lat="48.900249481201" lon="2.8429806232452"><ele>90</ele><time>2026-4-30T21:54:13Z</time></trkpt>
<trkpt lat="48.900310516357" lon="2.8431024551392"><ele>89</ele><time>2026-4-30T21:54:16Z</time></trkpt>
<trkpt lat="48.900382995605" lon="2.84321808815"><ele>88</ele><time>2026-4-30T21:54:19Z</time></trkpt>
<trkpt lat="48.900382995605" lon="2.84321808815"><ele>88</ele><time>2026-4-30T21:54:22Z</time></trkpt>
<trkpt lat="48.900459289551" lon="2.8433384895325"><ele>88</ele><time>2026-4-30T21:54:25Z</time></trkpt>
<trkpt lat="48.900527954102" lon="2.8434498310089"><ele>88</ele><time>2026-4-30T21:54:28Z</time></trkpt>
<trkpt lat="48.900592803955" lon="2.8435652256012"><ele>88</ele><time>2026-4-30T21:54:31Z</time></trkpt>
<trkpt lat="48.900592803955" lon="2.8435652256012"><ele>88</ele><time>2026-4-30T21:54:34Z</time></trkpt>
<trkpt lat="48.900661468506" lon="2.8436784744263"><ele>88</ele><time>2026-4-30T21:54:37Z</time></trkpt>
<trkpt lat="48.900733947754" lon="2.8437840938568"><ele>88</ele><time>2026-4-30T21:54:40Z</time></trkpt>
<trkpt lat="48.900817871094" lon="2.8438973426819"><ele>87</ele><time>2026-4-30T21:54:43Z</time></trkpt>
<trkpt lat="48.900817871094" lon="2.8438973426819"><ele>87</ele><time>2026-4-30T21:54:46Z</time></trkpt>
<trkpt lat="48.900894165039" lon="2.8439884185791"><ele>86</ele><time>2026-4-30T21:54:49Z</time></trkpt>
<trkpt lat="48.900974273682" lon="2.8440744876862"><ele>86</ele><time>2026-4-30T21:54:52Z</time></trkpt>
<trkpt lat="48.901050567627" lon="2.8441660404205"><ele>86</ele><time>2026-4-30T21:54:55Z</time></trkpt>
<trkpt lat="48.901050567627" lon="2.8441660404205"><ele>86</ele><time>2026-4-30T21:54:58Z</time></trkpt>
<trkpt lat="48.90113067627" lon="2.8442759513855"><ele>86</ele><time>2026-4-30T21:55:1Z</time></trkpt>
<trkpt lat="48.901206970215" lon="2.8443884849548"><ele>86</ele><time>2026-4-30T21:55:4Z</time></trkpt>
<trkpt lat="48.901294708252" lon="2.844496011734"><ele>85</ele><time>2026-4-30T21:55:7Z</time></trkpt>
<trkpt lat="48.901294708252" lon="2.844496011734"><ele>85</ele><time>2026-4-30T21:55:10Z</time></trkpt>
<trkpt lat="48.901386260986" lon="2.8446063995361"><ele>85</ele><time>2026-4-30T21:55:13Z</time></trkpt>
<trkpt lat="48.901473999023" lon="2.8447058200836"><ele>85</ele><time>2026-4-30T21:55:16Z</time></trkpt>
<trkpt lat="48.901557922363" lon="2.8448050022125"><ele>85</ele><time>2026-4-30T21:55:19Z</time></trkpt>
<trkpt lat="48.901557922363" lon="2.8448050022125"><ele>85</ele><time>2026-4-30T21:55:22Z</time></trkpt>
<trkpt lat="48.901649475098" lon="2.8449039459229"><ele>85</ele><time>2026-4-30T21:55:25Z</time></trkpt>
<trkpt lat="48.901725769043" lon="2.8450021743774"><ele>85</ele><time>2026-4-30T21:55:28Z</time></trkpt>
<trkpt lat="48.90181350708" lon="2.8451013565063"><ele>85</ele><time>2026-4-30T21:55:31Z</time></trkpt>
<trkpt lat="48.90181350708" lon="2.8451013565063"><ele>85</ele><time>2026-4-30T21:55:34Z</time></trkpt>
<trkpt lat="48.901905059814" lon="2.8451993465424"><ele>85</ele><time>2026-4-30T21:55:37Z</time></trkpt>
<trkpt lat="48.902000427246" lon="2.8452625274658"><ele>85</ele><time>2026-4-30T21:55:40Z</time></trkpt>
<trkpt lat="48.902099609375" lon="2.8453316688538"><ele>85</ele><time>2026-4-30T21:55:43Z</time></trkpt>
<trkpt lat="48.902198791504" lon="2.845400094986"><ele>85</ele><time>2026-4-30T21:55:46Z</time></trkpt>
<trkpt lat="48.902290344238" lon="2.8454546928406"><ele>86</ele><time>2026-4-30T21:55:49Z</time></trkpt>
<trkpt lat="48.902389526367" lon="2.8455264568329"><ele>86</ele><time>2026-4-30T21:55:52Z</time></trkpt>
<trkpt lat="48.902484893799" lon="2.8455908298492"><ele>87</ele><time>2026-4-30T21:55:55Z</time></trkpt>
<trkpt lat="48.902576446533" lon="2.8456606864929"><ele>88</ele><time>2026-4-30T21:55:58Z</time></trkpt>
<trkpt lat="48.902679443359" lon="2.8457343578339"><ele>88</ele><time>2026-4-30T21:56:1Z</time></trkpt>
<trkpt lat="48.902679443359" lon="2.8457343578339"><ele>88</ele><time>2026-4-30T21:56:4Z</time></trkpt>
<trkpt lat="48.902770996094" lon="2.8457968235016"><ele>88</ele><time>2026-4-30T21:56:7Z</time></trkpt>
<trkpt lat="48.90287399292" lon="2.8458592891693"><ele>89</ele><time>2026-4-30T21:56:10Z</time></trkpt>
<trkpt lat="48.902961730957" lon="2.8459470272064"><ele>89</ele><time>2026-4-30T21:56:13Z</time></trkpt>
<trkpt lat="48.903049468994" lon="2.8460438251495"><ele>89</ele><time>2026-4-30T21:56:16Z</time></trkpt>
<trkpt lat="48.903148651123" lon="2.846138715744"><ele>88</ele><time>2026-4-30T21:56:19Z</time></trkpt>
<trkpt lat="48.903240203857" lon="2.8462188243866"><ele>88</ele><time>2026-4-30T21:56:22Z</time></trkpt>
<trkpt lat="48.903331756592" lon="2.8462781906128"><ele>87</ele><time>2026-4-30T21:56:25Z</time></trkpt>
<trkpt lat="48.903430938721" lon="2.8463413715363"><ele>87</ele><time>2026-4-30T21:56:28Z</time></trkpt>
<trkpt lat="48.90353012085" lon="2.8463938236237"><ele>86</ele><time>2026-4-30T21:56:31Z</time></trkpt>
<trkpt lat="48.903621673584" lon="2.8464488983154"><ele>87</ele><time>2026-4-30T21:56:34Z</time></trkpt>
<trkpt lat="48.90372467041" lon="2.8465032577515"><ele>88</ele><time>2026-4-30T21:56:37Z</time></trkpt>
<trkpt lat="48.903823852539" lon="2.8465812206268"><ele>90</ele><time>2026-4-30T21:56:40Z</time></trkpt>
<trkpt lat="48.903911590576" lon="2.8466591835022"><ele>91</ele><time>2026-4-30T21:56:43Z</time></trkpt>
<trkpt lat="48.904006958008" lon="2.8467237949371"><ele>92</ele><time>2026-4-30T21:56:46Z</time></trkpt>
<trkpt lat="48.904102325439" lon="2.8467864990234"><ele>91</ele><time>2026-4-30T21:56:49Z</time></trkpt>
<trkpt lat="48.904201507568" lon="2.8468461036682"><ele>90</ele><time>2026-4-30T21:56:52Z</time></trkpt>
<trkpt lat="48.904300689697" lon="2.8469197750092"><ele>90</ele><time>2026-4-30T21:56:55Z</time></trkpt>
<trkpt lat="48.904403686523" lon="2.8470067977905"><ele>90</ele><time>2026-4-30T21:56:58Z</time></trkpt>
<trkpt lat="48.904495239258" lon="2.8470842838287"><ele>89</ele><time>2026-4-30T21:57:1Z</time></trkpt>
<trkpt lat="48.904582977295" lon="2.8471531867981"><ele>88</ele><time>2026-4-30T21:57:4Z</time></trkpt>
<trkpt lat="48.904682159424" lon="2.8472378253937"><ele>88</ele><time>2026-4-30T21:57:7Z</time></trkpt>
<trkpt lat="48.904766082764" lon="2.8473260402679"><ele>89</ele><time>2026-4-30T21:57:10Z</time></trkpt>
<trkpt lat="48.904838562012" lon="2.8474020957947"><ele>89</ele><time>2026-4-30T21:57:13Z</time></trkpt>
<trkpt lat="48.904922485352" lon="2.8474841117859"><ele>90</ele><time>2026-4-30T21:57:16Z</time></trkpt>
<trkpt lat="48.90502166748" lon="2.8475682735443"><ele>91</ele><time>2026-4-30T21:57:19Z</time></trkpt>
<trkpt lat="48.905117034912" lon="2.8476412296295"><ele>91</ele><time>2026-4-30T21:57:22Z</time></trkpt>
<trkpt lat="48.905216217041" lon="2.8477175235748"><ele>91</ele><time>2026-4-30T21:57:25Z</time></trkpt>
<trkpt lat="48.905323028564" lon="2.8477969169617"><ele>91</ele><time>2026-4-30T21:57:28Z</time></trkpt>
<trkpt lat="48.905418395996" lon="2.8478646278381"><ele>92</ele><time>2026-4-30T21:57:31Z</time></trkpt>
<trkpt lat="48.90550994873" lon="2.8479373455048"><ele>93</ele><time>2026-4-30T21:57:34Z</time></trkpt>
<trkpt lat="48.905597686768" lon="2.8480033874512"><ele>94</ele><time>2026-4-30T21:57:37Z</time></trkpt>
<trkpt lat="48.905696868896" lon="2.8480734825134"><ele>95</ele><time>2026-4-30T21:57:40Z</time></trkpt>
<trkpt lat="48.90580368042" lon="2.8481502532959"><ele>95</ele><time>2026-4-30T21:57:43Z</time></trkpt>
<trkpt lat="48.905914306641" lon="2.8482298851013"><ele>94</ele><time>2026-4-30T21:57:46Z</time></trkpt>
<trkpt lat="48.90601348877" lon="2.8482980728149"><ele>93</ele><time>2026-4-30T21:57:49Z</time></trkpt>
<trkpt lat="48.906108856201" lon="2.8483500480652"><ele>93</ele><time>2026-4-30T21:57:52Z</time></trkpt>
<trkpt lat="48.906204223633" lon="2.8484199047089"><ele>94</ele><time>2026-4-30T21:57:55Z</time></trkpt>
<trkpt lat="48.906299591064" lon="2.8485033512115"><ele>91</ele><time>2026-4-30T21:57:58Z</time></trkpt>
<trkpt lat="48.906387329102" lon="2.8485827445984"><ele>89</ele><time>2026-4-30T21:58:1Z</time></trkpt>
<trkpt lat="48.906387329102" lon="2.8485827445984"><ele>89</ele><time>2026-4-30T21:58:4Z</time></trkpt>
<trkpt lat="48.906471252441" lon="2.8486526012421"><ele>89</ele><time>2026-4-30T21:58:7Z</time></trkpt>
<trkpt lat="48.906547546387" lon="2.8487093448639"><ele>90</ele><time>2026-4-30T21:58:10Z</time></trkpt>
<trkpt lat="48.906627655029" lon="2.8487610816956"><ele>90</ele><time>2026-4-30T21:58:13Z</time></trkpt>
<trkpt lat="48.906726837158" lon="2.8488228321075"><ele>91</ele><time>2026-4-30T21:58:16Z</time></trkpt>
<trkpt lat="48.906826019287" lon="2.8488676548004"><ele>90</ele><time>2026-4-30T21:58:19Z</time></trkpt>
<trkpt lat="48.906913757324" lon="2.8488998413086"><ele>89</ele><time>2026-4-30T21:58:22Z</time></trkpt>
<trkpt lat="48.907012939453" lon="2.8489396572113"><ele>88</ele><time>2026-4-30T21:58:25Z</time></trkpt>
<trkpt lat="48.907104492188" lon="2.8489694595337"><ele>88</ele><time>2026-4-30T21:58:28Z</time></trkpt>
<trkpt lat="48.907203674316" lon="2.8489999771118"><ele>89</ele><time>2026-4-30T21:58:31Z</time></trkpt>
<trkpt lat="48.90731048584" lon="2.8490405082703"><ele>90</ele><time>2026-4-30T21:58:34Z</time></trkpt>
<trkpt lat="48.907421112061" lon="2.8490781784058"><ele>91</ele><time>2026-4-30T21:58:37Z</time></trkpt>
<trkpt lat="48.907421112061" lon="2.8490781784058"><ele>91</ele><time>2026-4-30T21:58:40Z</time></trkpt>
<trkpt lat="48.907516479492" lon="2.8491053581238"><ele>92</ele><time>2026-4-30T21:58:43Z</time></trkpt>
<trkpt lat="48.907642364502" lon="2.8491444587708"><ele>94</ele><time>2026-4-30T21:58:46Z</time></trkpt>
<trkpt lat="48.907760620117" lon="2.8491926193237"><ele>95</ele><time>2026-4-30T21:58:49Z</time></trkpt>
<trkpt lat="48.907890319824" lon="2.8492727279663"><ele>96</ele><time>2026-4-30T21:58:52Z</time></trkpt>
<trkpt lat="48.90799331665" lon="2.8493356704712"><ele>95</ele><time>2026-4-30T21:58:55Z</time></trkpt>
<trkpt lat="48.908111572266" lon="2.8494031429291"><ele>94</ele><time>2026-4-30T21:58:58Z</time></trkpt>
<trkpt lat="48.908172607422" lon="2.8494987487793"><ele>94</ele><time>2026-4-30T21:59:1Z</time></trkpt>
<trkpt lat="48.908172607422" lon="2.8494987487793"><ele>94</ele><time>2026-4-30T21:59:4Z</time></trkpt>
<trkpt lat="48.908267974854" lon="2.8494825363159"><ele>94</ele><time>2026-4-30T21:59:7Z</time></trkpt>
<trkpt lat="48.908294677734" lon="2.8493971824646"><ele>94</ele><time>2026-4-30T21:59:10Z</time></trkpt>
<trkpt lat="48.908302307129" lon="2.8492982387543"><ele>94</ele><time>2026-4-30T21:59:13Z</time></trkpt>
<trkpt lat="48.908306121826" lon="2.8491735458374"><ele>94</ele><time>2026-4-30T21:59:16Z</time></trkpt>
<trkpt lat="48.908309936523" lon="2.8490600585938"><ele>94</ele><time>2026-4-30T21:59:19Z</time></trkpt>
<trkpt lat="48.908325195312" lon="2.8489577770233"><ele>94</ele><time>2026-4-30T21:59:22Z</time></trkpt>
<trkpt lat="48.908325195312" lon="2.8489577770233"><ele>94</ele><time>2026-4-30T21:59:25Z</time></trkpt>
<trkpt lat="48.908325195312" lon="2.8489577770233"><ele>94</ele><time>2026-4-30T21:59:28Z</time></trkpt>
<trkpt lat="48.908325195312" lon="2.8489577770233"><ele>94</ele><time>2026-4-30T21:59:31Z</time></trkpt>
<trkpt lat="48.908325195312" lon="2.8489577770233"><ele>94</ele><time>2026-4-30T21:59:34Z</time></trkpt>
<trkpt lat="48.908325195312" lon="2.8489577770233"><ele>94</ele><time>2026-4-30T21:59:37Z</time></trkpt>
<trkpt lat="48.908260345459" lon="2.8489375114441"><ele>95</ele><time>2026-4-30T21:59:40Z</time></trkpt>
<trkpt lat="48.908264160156" lon="2.8489308357239"><ele>97</ele><time>2026-4-30T21:59:43Z</time></trkpt>
<trkpt lat="48.908264160156" lon="2.8489308357239"><ele>97</ele><time>2026-4-30T21:59:46Z</time></trkpt>
<trkpt lat="48.908264160156" lon="2.8489308357239"><ele>97</ele><time>2026-4-30T21:59:49Z</time></trkpt>
<trkpt lat="48.908264160156" lon="2.8489308357239"><ele>97</ele><time>2026-4-30T21:59:52Z</time></trkpt>
<trkpt lat="48.908676147461" lon="2.8492000102997"><ele>94</ele><time>2026-4-30T21:59:55Z</time></trkpt>
<trkpt lat="48.908866882324" lon="2.8492650985718"><ele>93</ele><time>2026-4-30T21:59:58Z</time></trkpt>
<trkpt lat="48.908973693848" lon="2.8493001461029"><ele>92</ele><time>2026-4-30T22:0:1Z</time></trkpt>
<trkpt lat="48.909072875977" lon="2.8493330478668"><ele>90</ele><time>2026-4-30T22:0:4Z</time></trkpt>
<trkpt lat="48.909168243408" lon="2.8493685722351"><ele>91</ele><time>2026-4-30T22:0:7Z</time></trkpt>
<trkpt lat="48.909259796143" lon="2.8493986129761"><ele>90</ele><time>2026-4-30T22:0:10Z</time></trkpt>
<trkpt lat="48.909336090088" lon="2.8494222164154"><ele>90</ele><time>2026-4-30T22:0:13Z</time></trkpt>
<trkpt lat="48.909412384033" lon="2.8494560718536"><ele>90</ele><time>2026-4-30T22:0:16Z</time></trkpt>
<trkpt lat="48.909473419189" lon="2.8494787216187"><ele>90</ele><time>2026-4-30T22:0:19Z</time></trkpt>
<trkpt lat="48.909549713135" lon="2.8494982719421"><ele>90</ele><time>2026-4-30T22:0:22Z</time></trkpt>
<trkpt lat="48.909603118896" lon="2.8495335578918"><ele>90</ele><time>2026-4-30T22:0:25Z</time></trkpt>
<trkpt lat="48.909671783447" lon="2.8495755195618"><ele>90</ele><time>2026-4-30T22:0:28Z</time></trkpt>
<trkpt lat="48.909671783447" lon="2.8495755195618"><ele>90</ele><time>2026-4-30T22:0:31Z</time></trkpt>
<trkpt lat="48.909778594971" lon="2.8495991230011"><ele>90</ele><time>2026-4-30T22:0:34Z</time></trkpt>
<trkpt lat="48.909847259521" lon="2.8496220111847"><ele>90</ele><time>2026-4-30T22:0:37Z</time></trkpt>
<trkpt lat="48.909847259521" lon="2.8496220111847"><ele>90</ele><time>2026-4-30T22:0:40Z</time></trkpt>
<trkpt lat="48.909938812256" lon="2.8496544361115"><ele>90</ele><time>2026-4-30T22:0:43Z</time></trkpt>
<trkpt lat="48.909938812256" lon="2.8496544361115"><ele>90</ele><time>2026-4-30T22:0:46Z</time></trkpt>
<trkpt lat="48.910053253174" lon="2.8497014045715"><ele>90</ele><time>2026-4-30T22:0:49Z</time></trkpt>
<trkpt lat="48.910125732422" lon="2.8497397899628"><ele>90</ele><time>2026-4-30T22:0:52Z</time></trkpt>
<trkpt lat="48.910190582275" lon="2.8497614860535"><ele>90</ele><time>2026-4-30T22:0:55Z</time></trkpt>
<trkpt lat="48.910259246826" lon="2.8497817516327"><ele>90</ele><time>2026-4-30T22:0:58Z</time></trkpt>
<trkpt lat="48.910335540771" lon="2.8498022556305"><ele>90</ele><time>2026-4-30T22:1:1Z</time></trkpt>
<trkpt lat="48.91040802002" lon="2.8498175144196"><ele>90</ele><time>2026-4-30T22:1:4Z</time></trkpt>
<trkpt lat="48.910472869873" lon="2.8498284816742"><ele>90</ele><time>2026-4-30T22:1:7Z</time></trkpt>
<trkpt lat="48.910537719727" lon="2.849844455719"><ele>90</ele><time>2026-4-30T22:1:10Z</time></trkpt>
<trkpt lat="48.910537719727" lon="2.849844455719"><ele>90</ele><time>2026-4-30T22:1:13Z</time></trkpt>
<trkpt lat="48.910648345947" lon="2.8498847484589"><ele>90</ele><time>2026-4-30T22:1:16Z</time></trkpt>
<trkpt lat="48.910713195801" lon="2.8499166965485"><ele>90</ele><time>2026-4-30T22:1:19Z</time></trkpt>
<trkpt lat="48.910713195801" lon="2.8499166965485"><ele>90</ele><time>2026-4-30T22:1:22Z</time></trkpt>
<trkpt lat="48.910778045654" lon="2.8499481678009"><ele>90</ele><time>2026-4-30T22:1:25Z</time></trkpt>
<trkpt lat="48.910842895508" lon="2.8499758243561"><ele>90</ele><time>2026-4-30T22:1:28Z</time></trkpt>
<trkpt lat="48.910911560059" lon="2.8500018119812"><ele>90</ele><time>2026-4-30T22:1:31Z</time></trkpt>
<trkpt lat="48.910911560059" lon="2.8500018119812"><ele>90</ele><time>2026-4-30T22:1:34Z</time></trkpt>
<trkpt lat="48.910987854004" lon="2.8500337600708"><ele>90</ele><time>2026-4-30T22:1:37Z</time></trkpt>
<trkpt lat="48.911064147949" lon="2.8500680923462"><ele>90</ele><time>2026-4-30T22:1:40Z</time></trkpt>
<trkpt lat="48.9111328125" lon="2.8500921726227"><ele>90</ele><time>2026-4-30T22:1:43Z</time></trkpt>
<trkpt lat="48.9111328125" lon="2.8500921726227"><ele>90</ele><time>2026-4-30T22:1:46Z</time></trkpt>
<trkpt lat="48.911193847656" lon="2.8501136302948"><ele>90</ele><time>2026-4-30T22:1:49Z</time></trkpt>
<trkpt lat="48.911266326904" lon="2.8501372337341"><ele>90</ele><time>2026-4-30T22:1:52Z</time></trkpt>
<trkpt lat="48.911334991455" lon="2.8501629829407"><ele>90</ele><time>2026-4-30T22:1:55Z</time></trkpt>
<trkpt lat="48.911334991455" lon="2.8501629829407"><ele>90</ele><time>2026-4-30T22:1:58Z</time></trkpt>
<trkpt lat="48.911457061768" lon="2.8501982688904"><ele>90</ele><time>2026-4-30T22:2:1Z</time></trkpt>
<trkpt lat="48.911544799805" lon="2.8502135276794"><ele>91</ele><time>2026-4-30T22:2:4Z</time></trkpt>
<trkpt lat="48.911544799805" lon="2.8502135276794"><ele>91</ele><time>2026-4-30T22:2:7Z</time></trkpt>
<trkpt lat="48.911613464355" lon="2.8502395153046"><ele>91</ele><time>2026-4-30T22:2:10Z</time></trkpt>
<trkpt lat="48.911689758301" lon="2.8502652645111"><ele>91</ele><time>2026-4-30T22:2:13Z</time></trkpt>
<trkpt lat="48.911769866943" lon="2.8502914905548"><ele>91</ele><time>2026-4-30T22:2:16Z</time></trkpt>
<trkpt lat="48.911769866943" lon="2.8502914905548"><ele>91</ele><time>2026-4-30T22:2:19Z</time></trkpt>
<trkpt lat="48.911842346191" lon="2.85032081604"><ele>91</ele><time>2026-4-30T22:2:22Z</time></trkpt>
<trkpt lat="48.911907196045" lon="2.8503475189209"><ele>91</ele><time>2026-4-30T22:2:25Z</time></trkpt>
<trkpt lat="48.911975860596" lon="2.8503756523132"><ele>91</ele><time>2026-4-30T22:2:28Z</time></trkpt>
<trkpt lat="48.911975860596" lon="2.8503756523132"><ele>91</ele><time>2026-4-30T22:2:31Z</time></trkpt>
<trkpt lat="48.912040710449" lon="2.8504042625427"><ele>92</ele><time>2026-4-30T22:2:34Z</time></trkpt>
<trkpt lat="48.912101745605" lon="2.8504278659821"><ele>92</ele><time>2026-4-30T22:2:37Z</time></trkpt>
<trkpt lat="48.912174224854" lon="2.8504610061646"><ele>92</ele><time>2026-4-30T22:2:40Z</time></trkpt>
<trkpt lat="48.912174224854" lon="2.8504610061646"><ele>92</ele><time>2026-4-30T22:2:43Z</time></trkpt>
<trkpt lat="48.912239074707" lon="2.8504872322083"><ele>93</ele><time>2026-4-30T22:2:46Z</time></trkpt>
<trkpt lat="48.912315368652" lon="2.8505032062531"><ele>93</ele><time>2026-4-30T22:2:49Z</time></trkpt>
<trkpt lat="48.912384033203" lon="2.8505232334137"><ele>93</ele><time>2026-4-30T22:2:52Z</time></trkpt>
<trkpt lat="48.912384033203" lon="2.8505232334137"><ele>93</ele><time>2026-4-30T22:2:55Z</time></trkpt>
<trkpt lat="48.912384033203" lon="2.8505232334137"><ele>93</ele><time>2026-4-30T22:2:58Z</time></trkpt>
<trkpt lat="48.91251373291" lon="2.8505449295044"><ele>94</ele><time>2026-4-30T22:3:1Z</time></trkpt>
<trkpt lat="48.912578582764" lon="2.8505752086639"><ele>94</ele><time>2026-4-30T22:3:4Z</time></trkpt>
<trkpt lat="48.912578582764" lon="2.8505752086639"><ele>94</ele><time>2026-4-30T22:3:7Z</time></trkpt>
<trkpt lat="48.91263961792" lon="2.8506112098694"><ele>94</ele><time>2026-4-30T22:3:10Z</time></trkpt>
<trkpt lat="48.912700653076" lon="2.8506453037262"><ele>94</ele><time>2026-4-30T22:3:13Z</time></trkpt>
<trkpt lat="48.912780761719" lon="2.8506844043732"><ele>94</ele><time>2026-4-30T22:3:16Z</time></trkpt>
<trkpt lat="48.912780761719" lon="2.8506844043732"><ele>94</ele><time>2026-4-30T22:3:19Z</time></trkpt>
<trkpt lat="48.912841796875" lon="2.850713968277"><ele>94</ele><time>2026-4-30T22:3:22Z</time></trkpt>
<trkpt lat="48.912925720215" lon="2.8507597446442"><ele>94</ele><time>2026-4-30T22:3:25Z</time></trkpt>
<trkpt lat="48.913021087646" lon="2.8507993221283"><ele>93</ele><time>2026-4-30T22:3:28Z</time></trkpt>
<trkpt lat="48.913021087646" lon="2.8507993221283"><ele>93</ele><time>2026-4-30T22:3:31Z</time></trkpt>
<trkpt lat="48.913101196289" lon="2.8508224487305"><ele>93</ele><time>2026-4-30T22:3:34Z</time></trkpt>
<trkpt lat="48.913173675537" lon="2.8508455753326"><ele>93</ele><time>2026-4-30T22:3:37Z</time></trkpt>
<trkpt lat="48.913261413574" lon="2.8508763313293"><ele>93</ele><time>2026-4-30T22:3:40Z</time></trkpt>
<trkpt lat="48.913330078125" lon="2.850893497467"><ele>93</ele><time>2026-4-30T22:3:43Z</time></trkpt>
<trkpt lat="48.913402557373" lon="2.8509182929993"><ele>93</ele><time>2026-4-30T22:3:46Z</time></trkpt>
<trkpt lat="48.913478851318" lon="2.8509459495544"><ele>93</ele><time>2026-4-30T22:3:49Z</time></trkpt>
<trkpt lat="48.913478851318" lon="2.8509459495544"><ele>93</ele><time>2026-4-30T22:3:52Z</time></trkpt>
<trkpt lat="48.913539886475" lon="2.850962638855"><ele>93</ele><time>2026-4-30T22:3:55Z</time></trkpt>
<trkpt lat="48.913612365723" lon="2.85098695755"><ele>93</ele><time>2026-4-30T22:3:58Z</time></trkpt>
<trkpt lat="48.913673400879" lon="2.8510026931763"><ele>93</ele><time>2026-4-30T22:4:1Z</time></trkpt>
<trkpt lat="48.913673400879" lon="2.8510026931763"><ele>93</ele><time>2026-4-30T22:4:4Z</time></trkpt>
<trkpt lat="48.91374206543" lon="2.8510131835938"><ele>93</ele><time>2026-4-30T22:4:7Z</time></trkpt>
<trkpt lat="48.913822174072" lon="2.8510320186615"><ele>94</ele><time>2026-4-30T22:4:10Z</time></trkpt>
<trkpt lat="48.913906097412" lon="2.8510608673096"><ele>94</ele><time>2026-4-30T22:4:13Z</time></trkpt>
<trkpt lat="48.913906097412" lon="2.8510608673096"><ele>94</ele><time>2026-4-30T22:4:16Z</time></trkpt>
<trkpt lat="48.91397857666" lon="2.851095199585"><ele>94</ele><time>2026-4-30T22:4:19Z</time></trkpt>
<trkpt lat="48.914043426514" lon="2.8511211872101"><ele>94</ele><time>2026-4-30T22:4:22Z</time></trkpt>
<trkpt lat="48.914108276367" lon="2.8511459827423"><ele>94</ele><time>2026-4-30T22:4:25Z</time></trkpt>
<trkpt lat="48.914108276367" lon="2.8511459827423"><ele>94</ele><time>2026-4-30T22:4:28Z</time></trkpt>
<trkpt lat="48.91418838501" lon="2.851170539856"><ele>94</ele><time>2026-4-30T22:4:31Z</time></trkpt>
<trkpt lat="48.914257049561" lon="2.8511936664581"><ele>94</ele><time>2026-4-30T22:4:34Z</time></trkpt>
<trkpt lat="48.914325714111" lon="2.8512210845947"><ele>94</ele><time>2026-4-30T22:4:37Z</time></trkpt>
<trkpt lat="48.914325714111" lon="2.8512210845947"><ele>94</ele><time>2026-4-30T22:4:40Z</time></trkpt>
<trkpt lat="48.914402008057" lon="2.8512480258942"><ele>94</ele><time>2026-4-30T22:4:43Z</time></trkpt>
<trkpt lat="48.914478302002" lon="2.8512718677521"><ele>95</ele><time>2026-4-30T22:4:46Z</time></trkpt>
<trkpt lat="48.914539337158" lon="2.8512885570526"><ele>95</ele><time>2026-4-30T22:4:49Z</time></trkpt>
<trkpt lat="48.914539337158" lon="2.8512885570526"><ele>95</ele><time>2026-4-30T22:4:52Z</time></trkpt>
<trkpt lat="48.914623260498" lon="2.8513131141663"><ele>95</ele><time>2026-4-30T22:4:55Z</time></trkpt>
<trkpt lat="48.914707183838" lon="2.8513417243958"><ele>95</ele><time>2026-4-30T22:4:58Z</time></trkpt>
<trkpt lat="48.914783477783" lon="2.8513629436493"><ele>95</ele><time>2026-4-30T22:5:1Z</time></trkpt>
<trkpt lat="48.914783477783" lon="2.8513629436493"><ele>95</ele><time>2026-4-30T22:5:4Z</time></trkpt>
<trkpt lat="48.914855957031" lon="2.8513872623444"><ele>95</ele><time>2026-4-30T22:5:7Z</time></trkpt>
<trkpt lat="48.914916992188" lon="2.8514115810394"><ele>95</ele><time>2026-4-30T22:5:10Z</time></trkpt>
<trkpt lat="48.914974212646" lon="2.8514404296875"><ele>95</ele><time>2026-4-30T22:5:13Z</time></trkpt>
<trkpt lat="48.914974212646" lon="2.8514404296875"><ele>95</ele><time>2026-4-30T22:5:16Z</time></trkpt>
<trkpt lat="48.9150390625" lon="2.8514733314514"><ele>95</ele><time>2026-4-30T22:5:19Z</time></trkpt>
<trkpt lat="48.91512298584" lon="2.8515179157257"><ele>95</ele><time>2026-4-30T22:5:22Z</time></trkpt>
<trkpt lat="48.915199279785" lon="2.8515546321869"><ele>95</ele><time>2026-4-30T22:5:25Z</time></trkpt>
<trkpt lat="48.915199279785" lon="2.8515546321869"><ele>95</ele><time>2026-4-30T22:5:28Z</time></trkpt>
<trkpt lat="48.915256500244" lon="2.8515858650208"><ele>95</ele><time>2026-4-30T22:5:31Z</time></trkpt>
<trkpt lat="48.915332794189" lon="2.8516211509705"><ele>95</ele><time>2026-4-30T22:5:34Z</time></trkpt>
<trkpt lat="48.915405273438" lon="2.8516485691071"><ele>95</ele><time>2026-4-30T22:5:37Z</time></trkpt>
<trkpt lat="48.915405273438" lon="2.8516485691071"><ele>95</ele><time>2026-4-30T22:5:40Z</time></trkpt>
<trkpt lat="48.915489196777" lon="2.8516757488251"><ele>95</ele><time>2026-4-30T22:5:43Z</time></trkpt>
<trkpt lat="48.91556930542" lon="2.8517026901245"><ele>94</ele><time>2026-4-30T22:5:46Z</time></trkpt>
<trkpt lat="48.915645599365" lon="2.8517260551453"><ele>94</ele><time>2026-4-30T22:5:49Z</time></trkpt>
<trkpt lat="48.915645599365" lon="2.8517260551453"><ele>94</ele><time>2026-4-30T22:5:52Z</time></trkpt>
<trkpt lat="48.915718078613" lon="2.8517525196075"><ele>94</ele><time>2026-4-30T22:5:55Z</time></trkpt>
<trkpt lat="48.915798187256" lon="2.8517813682556"><ele>94</ele><time>2026-4-30T22:5:58Z</time></trkpt>
<trkpt lat="48.915874481201" lon="2.851811170578"><ele>94</ele><time>2026-4-30T22:6:1Z</time></trkpt>
<trkpt lat="48.915874481201" lon="2.851811170578"><ele>94</ele><time>2026-4-30T22:6:4Z</time></trkpt>
<trkpt lat="48.915946960449" lon="2.8518369197845"><ele>94</ele><time>2026-4-30T22:6:7Z</time></trkpt>
<trkpt lat="48.916038513184" lon="2.8518626689911"><ele>94</ele><time>2026-4-30T22:6:10Z</time></trkpt>
<trkpt lat="48.916114807129" lon="2.8518874645233"><ele>94</ele><time>2026-4-30T22:6:13Z</time></trkpt>
<trkpt lat="48.916114807129" lon="2.8518874645233"><ele>94</ele><time>2026-4-30T22:6:16Z</time></trkpt>
<trkpt lat="48.916187286377" lon="2.8519129753113"><ele>94</ele><time>2026-4-30T22:6:19Z</time></trkpt>
<trkpt lat="48.916271209717" lon="2.8519270420074"><ele>95</ele><time>2026-4-30T22:6:22Z</time></trkpt>
<trkpt lat="48.916358947754" lon="2.8519616127014"><ele>95</ele><time>2026-4-30T22:6:25Z</time></trkpt>
<trkpt lat="48.916358947754" lon="2.8519616127014"><ele>95</ele><time>2026-4-30T22:6:28Z</time></trkpt>
<trkpt lat="48.916427612305" lon="2.8520042896271"><ele>95</ele><time>2026-4-30T22:6:31Z</time></trkpt>
<trkpt lat="48.916553497314" lon="2.8520619869232"><ele>95</ele><time>2026-4-30T22:6:34Z</time></trkpt>
<trkpt lat="48.916553497314" lon="2.8520619869232"><ele>95</ele><time>2026-4-30T22:6:37Z</time></trkpt>
<trkpt lat="48.916641235352" lon="2.8520994186401"><ele>95</ele><time>2026-4-30T22:6:40Z</time></trkpt>
<trkpt lat="48.916728973389" lon="2.8521339893341"><ele>95</ele><time>2026-4-30T22:6:43Z</time></trkpt>
<trkpt lat="48.916820526123" lon="2.8521683216095"><ele>96</ele><time>2026-4-30T22:6:46Z</time></trkpt>
<trkpt lat="48.916820526123" lon="2.8521683216095"><ele>96</ele><time>2026-4-30T22:6:49Z</time></trkpt>
<trkpt lat="48.916915893555" lon="2.8521900177002"><ele>96</ele><time>2026-4-30T22:6:52Z</time></trkpt>
<trkpt lat="48.916988372803" lon="2.8522083759308"><ele>96</ele><time>2026-4-30T22:6:55Z</time></trkpt>
<trkpt lat="48.917053222656" lon="2.8522202968597"><ele>96</ele><time>2026-4-30T22:6:58Z</time></trkpt>
<trkpt lat="48.917053222656" lon="2.8522202968597"><ele>96</ele><time>2026-4-30T22:7:1Z</time></trkpt>
<trkpt lat="48.917133331299" lon="2.8522503376007"><ele>96</ele><time>2026-4-30T22:7:4Z</time></trkpt>
<trkpt lat="48.917217254639" lon="2.8522827625275"><ele>96</ele><time>2026-4-30T22:7:7Z</time></trkpt>
<trkpt lat="48.917278289795" lon="2.8523101806641"><ele>96</ele><time>2026-4-30T22:7:10Z</time></trkpt>
<trkpt lat="48.917278289795" lon="2.8523101806641"><ele>96</ele><time>2026-4-30T22:7:13Z</time></trkpt>
<trkpt lat="48.917419433594" lon="2.8523528575897"><ele>95</ele><time>2026-4-30T22:7:16Z</time></trkpt>
<trkpt lat="48.917510986328" lon="2.852382183075"><ele>96</ele><time>2026-4-30T22:7:19Z</time></trkpt>
<trkpt lat="48.917510986328" lon="2.852382183075"><ele>96</ele><time>2026-4-30T22:7:22Z</time></trkpt>
<trkpt lat="48.91760635376" lon="2.8524191379547"><ele>96</ele><time>2026-4-30T22:7:25Z</time></trkpt>
<trkpt lat="48.917682647705" lon="2.852432012558"><ele>95</ele><time>2026-4-30T22:7:28Z</time></trkpt>
<trkpt lat="48.917755126953" lon="2.8524544239044"><ele>95</ele><time>2026-4-30T22:7:31Z</time></trkpt>
<trkpt lat="48.917755126953" lon="2.8524544239044"><ele>95</ele><time>2026-4-30T22:7:34Z</time></trkpt>
<trkpt lat="48.917835235596" lon="2.8524823188782"><ele>95</ele><time>2026-4-30T22:7:37Z</time></trkpt>
<trkpt lat="48.917919158936" lon="2.8525283336639"><ele>95</ele><time>2026-4-30T22:7:40Z</time></trkpt>
<trkpt lat="48.917980194092" lon="2.8525674343109"><ele>95</ele><time>2026-4-30T22:7:43Z</time></trkpt>
<trkpt lat="48.917980194092" lon="2.8525674343109"><ele>95</ele><time>2026-4-30T22:7:46Z</time></trkpt>
<trkpt lat="48.91805267334" lon="2.8526022434235"><ele>95</ele><time>2026-4-30T22:7:49Z</time></trkpt>
<trkpt lat="48.918144226074" lon="2.8526446819305"><ele>95</ele><time>2026-4-30T22:7:52Z</time></trkpt>
<trkpt lat="48.918224334717" lon="2.852677822113"><ele>95</ele><time>2026-4-30T22:7:55Z</time></trkpt>
<trkpt lat="48.918224334717" lon="2.852677822113"><ele>95</ele><time>2026-4-30T22:7:58Z</time></trkpt>
<trkpt lat="48.918312072754" lon="2.8526997566223"><ele>94</ele><time>2026-4-30T22:8:1Z</time></trkpt>
<trkpt lat="48.918380737305" lon="2.8527336120605"><ele>94</ele><time>2026-4-30T22:8:4Z</time></trkpt>
<trkpt lat="48.918380737305" lon="2.8527336120605"><ele>94</ele><time>2026-4-30T22:8:7Z</time></trkpt>
<trkpt lat="48.918380737305" lon="2.8527336120605"><ele>94</ele><time>2026-4-30T22:8:10Z</time></trkpt>
<trkpt lat="48.918514251709" lon="2.8527817726135"><ele>94</ele><time>2026-4-30T22:8:13Z</time></trkpt>
<trkpt lat="48.918598175049" lon="2.8528156280518"><ele>94</ele><time>2026-4-30T22:8:16Z</time></trkpt>
<trkpt lat="48.918674468994" lon="2.8528504371643"><ele>94</ele><time>2026-4-30T22:8:19Z</time></trkpt>
<trkpt lat="48.918674468994" lon="2.8528504371643"><ele>94</ele><time>2026-4-30T22:8:22Z</time></trkpt>
<trkpt lat="48.918754577637" lon="2.8528871536255"><ele>93</ele><time>2026-4-30T22:8:25Z</time></trkpt>
<trkpt lat="48.918842315674" lon="2.8529295921326"><ele>93</ele><time>2026-4-30T22:8:28Z</time></trkpt>
<trkpt lat="48.918918609619" lon="2.8529629707336"><ele>92</ele><time>2026-4-30T22:8:31Z</time></trkpt>
<trkpt lat="48.918983459473" lon="2.8530037403107"><ele>92</ele><time>2026-4-30T22:8:34Z</time></trkpt>
<trkpt lat="48.919055938721" lon="2.853040933609"><ele>92</ele><time>2026-4-30T22:8:37Z</time></trkpt>
<trkpt lat="48.919124603271" lon="2.8530895709991"><ele>92</ele><time>2026-4-30T22:8:40Z</time></trkpt>
<trkpt lat="48.919124603271" lon="2.8530895709991"><ele>92</ele><time>2026-4-30T22:8:43Z</time></trkpt>
<trkpt lat="48.919250488281" lon="2.8531312942505"><ele>92</ele><time>2026-4-30T22:8:46Z</time></trkpt>
<trkpt lat="48.919345855713" lon="2.8531312942505"><ele>92</ele><time>2026-4-30T22:8:49Z</time></trkpt>
<trkpt lat="48.919425964355" lon="2.8531134128571"><ele>92</ele><time>2026-4-30T22:8:52Z</time></trkpt>
<trkpt lat="48.919425964355" lon="2.8531134128571"><ele>92</ele><time>2026-4-30T22:8:55Z</time></trkpt>
<trkpt lat="48.91951751709" lon="2.8531167507172"><ele>92</ele><time>2026-4-30T22:8:58Z</time></trkpt>
<trkpt lat="48.919586181641" lon="2.8531351089478"><ele>92</ele><time>2026-4-30T22:9:1Z</time></trkpt>
<trkpt lat="48.919666290283" lon="2.8531606197357"><ele>93</ele><time>2026-4-30T22:9:4Z</time></trkpt>
<trkpt lat="48.91975402832" lon="2.8531911373138"><ele>93</ele><time>2026-4-30T22:9:7Z</time></trkpt>
<trkpt lat="48.919845581055" lon="2.8532159328461"><ele>92</ele><time>2026-4-30T22:9:10Z</time></trkpt>
<trkpt lat="48.919921875" lon="2.8532428741455"><ele>92</ele><time>2026-4-30T22:9:13Z</time></trkpt>
<trkpt lat="48.919994354248" lon="2.8532657623291"><ele>92</ele><time>2026-4-30T22:9:16Z</time></trkpt>
<trkpt lat="48.920066833496" lon="2.853283405304"><ele>92</ele><time>2026-4-30T22:9:19Z</time></trkpt>
<trkpt lat="48.920135498047" lon="2.8533027172089"><ele>92</ele><time>2026-4-30T22:9:22Z</time></trkpt>
<trkpt lat="48.920207977295" lon="2.8533267974854"><ele>92</ele><time>2026-4-30T22:9:25Z</time></trkpt>
<trkpt lat="48.920276641846" lon="2.8533492088318"><ele>92</ele><time>2026-4-30T22:9:28Z</time></trkpt>
<trkpt lat="48.920341491699" lon="2.8533735275269"><ele>92</ele><time>2026-4-30T22:9:31Z</time></trkpt>
<trkpt lat="48.92041015625" lon="2.8534033298492"><ele>92</ele><time>2026-4-30T22:9:34Z</time></trkpt>
<trkpt lat="48.92049407959" lon="2.8534259796143"><ele>92</ele><time>2026-4-30T22:9:37Z</time></trkpt>
<trkpt lat="48.92057800293" lon="2.8534512519836"><ele>92</ele><time>2026-4-30T22:9:40Z</time></trkpt>
<trkpt lat="48.920650482178" lon="2.8534758090973"><ele>91</ele><time>2026-4-30T22:9:43Z</time></trkpt>
<trkpt lat="48.920711517334" lon="2.8535060882568"><ele>91</ele><time>2026-4-30T22:9:46Z</time></trkpt>
<trkpt lat="48.920780181885" lon="2.8535375595093"><ele>91</ele><time>2026-4-30T22:9:49Z</time></trkpt>
<trkpt lat="48.920841217041" lon="2.8535647392273"><ele>91</ele><time>2026-4-30T22:9:52Z</time></trkpt>
<trkpt lat="48.920841217041" lon="2.8535647392273"><ele>91</ele><time>2026-4-30T22:9:55Z</time></trkpt>
<trkpt lat="48.920967102051" lon="2.8536067008972"><ele>91</ele><time>2026-4-30T22:9:58Z</time></trkpt>
<trkpt lat="48.921051025391" lon="2.8536319732666"><ele>91</ele><time>2026-4-30T22:10:1Z</time></trkpt>
<trkpt lat="48.92110824585" lon="2.8536505699158"><ele>91</ele><time>2026-4-30T22:10:4Z</time></trkpt>
<trkpt lat="48.921169281006" lon="2.8536727428436"><ele>91</ele><time>2026-4-30T22:10:7Z</time></trkpt>
<trkpt lat="48.921234130859" lon="2.8537006378174"><ele>91</ele><time>2026-4-30T22:10:10Z</time></trkpt>
<trkpt lat="48.921298980713" lon="2.8537290096283"><ele>90</ele><time>2026-4-30T22:10:13Z</time></trkpt>
<trkpt lat="48.921371459961" lon="2.8537549972534"><ele>90</ele><time>2026-4-30T22:10:16Z</time></trkpt>
<trkpt lat="48.921451568604" lon="2.8537783622742"><ele>90</ele><time>2026-4-30T22:10:19Z</time></trkpt>
<trkpt lat="48.921524047852" lon="2.8538043498993"><ele>90</ele><time>2026-4-30T22:10:22Z</time></trkpt>
<trkpt lat="48.9215965271" lon="2.853832244873"><ele>90</ele><time>2026-4-30T22:10:25Z</time></trkpt>
<trkpt lat="48.92166519165" lon="2.8538603782654"><ele>90</ele><time>2026-4-30T22:10:28Z</time></trkpt>
<trkpt lat="48.921733856201" lon="2.8538880348206"><ele>90</ele><time>2026-4-30T22:10:31Z</time></trkpt>
<trkpt lat="48.921810150146" lon="2.8539159297943"><ele>90</ele><time>2026-4-30T22:10:34Z</time></trkpt>
<trkpt lat="48.921878814697" lon="2.8539369106293"><ele>90</ele><time>2026-4-30T22:10:37Z</time></trkpt>
<trkpt lat="48.921947479248" lon="2.8539621829987"><ele>90</ele><time>2026-4-30T22:10:40Z</time></trkpt>
<trkpt lat="48.922023773193" lon="2.8539881706238"><ele>90</ele><time>2026-4-30T22:10:43Z</time></trkpt>
<trkpt lat="48.922096252441" lon="2.8540136814117"><ele>90</ele><time>2026-4-30T22:10:46Z</time></trkpt>
<trkpt lat="48.922168731689" lon="2.8540441989899"><ele>90</ele><time>2026-4-30T22:10:49Z</time></trkpt>
<trkpt lat="48.922233581543" lon="2.8540742397308"><ele>90</ele><time>2026-4-30T22:10:52Z</time></trkpt>
<trkpt lat="48.922298431396" lon="2.8541021347046"><ele>90</ele><time>2026-4-30T22:10:55Z</time></trkpt>
<trkpt lat="48.922359466553" lon="2.8541271686554"><ele>90</ele><time>2026-4-30T22:10:58Z</time></trkpt>
<trkpt lat="48.922424316406" lon="2.8541522026062"><ele>90</ele><time>2026-4-30T22:11:1Z</time></trkpt>
<trkpt lat="48.922496795654" lon="2.8541882038116"><ele>90</ele><time>2026-4-30T22:11:4Z</time></trkpt>
<trkpt lat="48.922576904297" lon="2.8542122840881"><ele>90</ele><time>2026-4-30T22:11:7Z</time></trkpt>
<trkpt lat="48.922649383545" lon="2.8542323112488"><ele>90</ele><time>2026-4-30T22:11:10Z</time></trkpt>
<trkpt lat="48.922721862793" lon="2.8542544841766"><ele>90</ele><time>2026-4-30T22:11:13Z</time></trkpt>
<trkpt lat="48.922794342041" lon="2.854282617569"><ele>90</ele><time>2026-4-30T22:11:16Z</time></trkpt>
<trkpt lat="48.922863006592" lon="2.8543148040771"><ele>90</ele><time>2026-4-30T22:11:19Z</time></trkpt>
<trkpt lat="48.92293548584" lon="2.8543393611908"><ele>90</ele><time>2026-4-30T22:11:22Z</time></trkpt>
<trkpt lat="48.923004150391" lon="2.8543601036072"><ele>90</ele><time>2026-4-30T22:11:25Z</time></trkpt>
<trkpt lat="48.923076629639" lon="2.8543808460236"><ele>90</ele><time>2026-4-30T22:11:28Z</time></trkpt>
<trkpt lat="48.923145294189" lon="2.8544013500214"><ele>90</ele><time>2026-4-30T22:11:31Z</time></trkpt>
<trkpt lat="48.92321395874" lon="2.8544251918793"><ele>90</ele><time>2026-4-30T22:11:34Z</time></trkpt>
<trkpt lat="48.923274993896" lon="2.8544507026672"><ele>90</ele><time>2026-4-30T22:11:37Z</time></trkpt>
<trkpt lat="48.923343658447" lon="2.8544733524323"><ele>90</ele><time>2026-4-30T22:11:40Z</time></trkpt>
<trkpt lat="48.923412322998" lon="2.8544986248016"><ele>90</ele><time>2026-4-30T22:11:43Z</time></trkpt>
<trkpt lat="48.923480987549" lon="2.8545219898224"><ele>90</ele><time>2026-4-30T22:11:46Z</time></trkpt>
<trkpt lat="48.923561096191" lon="2.8545455932617"><ele>90</ele><time>2026-4-30T22:11:49Z</time></trkpt>
<trkpt lat="48.923625946045" lon="2.8545672893524"><ele>90</ele><time>2026-4-30T22:11:52Z</time></trkpt>
<trkpt lat="48.923690795898" lon="2.8545913696289"><ele>90</ele><time>2026-4-30T22:11:55Z</time></trkpt>
<trkpt lat="48.923763275146" lon="2.8546166419983"><ele>90</ele><time>2026-4-30T22:11:58Z</time></trkpt>
<trkpt lat="48.923831939697" lon="2.8546407222748"><ele>90</ele><time>2026-4-30T22:12:1Z</time></trkpt>
<trkpt lat="48.923892974854" lon="2.8546667098999"><ele>90</ele><time>2026-4-30T22:12:4Z</time></trkpt>
<trkpt lat="48.92395401001" lon="2.8546929359436"><ele>90</ele><time>2026-4-30T22:12:7Z</time></trkpt>
<trkpt lat="48.924026489258" lon="2.8547253608704"><ele>90</ele><time>2026-4-30T22:12:10Z</time></trkpt>
<trkpt lat="48.924095153809" lon="2.8547546863556"><ele>90</ele><time>2026-4-30T22:12:13Z</time></trkpt>
<trkpt lat="48.924156188965" lon="2.8547794818878"><ele>90</ele><time>2026-4-30T22:12:16Z</time></trkpt>
<trkpt lat="48.924221038818" lon="2.8547987937927"><ele>90</ele><time>2026-4-30T22:12:19Z</time></trkpt>
<trkpt lat="48.924289703369" lon="2.854823589325"><ele>90</ele><time>2026-4-30T22:12:22Z</time></trkpt>
<trkpt lat="48.924362182617" lon="2.8548469543457"><ele>91</ele><time>2026-4-30T22:12:25Z</time></trkpt>
<trkpt lat="48.924434661865" lon="2.8548762798309"><ele>91</ele><time>2026-4-30T22:12:28Z</time></trkpt>
<trkpt lat="48.924518585205" lon="2.8549118041992"><ele>91</ele><time>2026-4-30T22:12:31Z</time></trkpt>
<trkpt lat="48.924587249756" lon="2.8549385070801"><ele>91</ele><time>2026-4-30T22:12:34Z</time></trkpt>
<trkpt lat="48.924659729004" lon="2.8549563884735"><ele>91</ele><time>2026-4-30T22:12:37Z</time></trkpt>
<trkpt lat="48.924732208252" lon="2.8549737930298"><ele>91</ele><time>2026-4-30T22:12:40Z</time></trkpt>
<trkpt lat="48.9248046875" lon="2.8550086021423"><ele>91</ele><time>2026-4-30T22:12:43Z</time></trkpt>
<trkpt lat="48.924873352051" lon="2.8550441265106"><ele>91</ele><time>2026-4-30T22:12:46Z</time></trkpt>
<trkpt lat="48.924934387207" lon="2.8550717830658"><ele>90</ele><time>2026-4-30T22:12:49Z</time></trkpt>
<trkpt lat="48.924995422363" lon="2.8550975322723"><ele>90</ele><time>2026-4-30T22:12:52Z</time></trkpt>
<trkpt lat="48.925060272217" lon="2.8551208972931"><ele>90</ele><time>2026-4-30T22:12:55Z</time></trkpt>
<trkpt lat="48.925121307373" lon="2.8551445007324"><ele>90</ele><time>2026-4-30T22:12:58Z</time></trkpt>
<trkpt lat="48.925121307373" lon="2.8551445007324"><ele>90</ele><time>2026-4-30T22:13:1Z</time></trkpt>
<trkpt lat="48.925121307373" lon="2.8551445007324"><ele>90</ele><time>2026-4-30T22:13:4Z</time></trkpt>
<trkpt lat="48.925205230713" lon="2.8551316261292"><ele>90</ele><time>2026-4-30T22:13:7Z</time></trkpt>
<trkpt lat="48.925266265869" lon="2.8551268577576"><ele>90</ele><time>2026-4-30T22:13:10Z</time></trkpt>
<trkpt lat="48.925266265869" lon="2.8551268577576"><ele>90</ele><time>2026-4-30T22:13:13Z</time></trkpt>
<trkpt lat="48.925342559814" lon="2.8551728725433"><ele>90</ele><time>2026-4-30T22:13:16Z</time></trkpt>
<trkpt lat="48.925342559814" lon="2.8551728725433"><ele>90</ele><time>2026-4-30T22:13:19Z</time></trkpt>
<trkpt lat="48.925422668457" lon="2.8552458286285"><ele>90</ele><time>2026-4-30T22:13:22Z</time></trkpt>
<trkpt lat="48.925422668457" lon="2.8552458286285"><ele>90</ele><time>2026-4-30T22:13:25Z</time></trkpt>
<trkpt lat="48.925422668457" lon="2.8552458286285"><ele>90</ele><time>2026-4-30T22:13:28Z</time></trkpt>
<trkpt lat="48.925445556641" lon="2.855354309082"><ele>90</ele><time>2026-4-30T22:13:31Z</time></trkpt>
<trkpt lat="48.925445556641" lon="2.855354309082"><ele>90</ele><time>2026-4-30T22:13:34Z</time></trkpt>
<trkpt lat="48.925445556641" lon="2.855354309082"><ele>90</ele><time>2026-4-30T22:13:37Z</time></trkpt>
<trkpt lat="48.92541885376" lon="2.8554875850677"><ele>90</ele><time>2026-4-30T22:13:40Z</time></trkpt>
<trkpt lat="48.925411224365" lon="2.8555793762207"><ele>91</ele><time>2026-4-30T22:13:43Z</time></trkpt>
<trkpt lat="48.925411224365" lon="2.8555793762207"><ele>91</ele><time>2026-4-30T22:13:46Z</time></trkpt>
<trkpt lat="48.925411224365" lon="2.8555793762207"><ele>91</ele><time>2026-4-30T22:13:49Z</time></trkpt>
<trkpt lat="48.925403594971" lon="2.8556911945343"><ele>91</ele><time>2026-4-30T22:13:52Z</time></trkpt>
<trkpt lat="48.925403594971" lon="2.8556911945343"><ele>91</ele><time>2026-4-30T22:13:55Z</time></trkpt>
<trkpt lat="48.925403594971" lon="2.8556911945343"><ele>91</ele><time>2026-4-30T22:13:58Z</time></trkpt>
<trkpt lat="48.925392150879" lon="2.8557846546173"><ele>91</ele><time>2026-4-30T22:14:1Z</time></trkpt>
<trkpt lat="48.925392150879" lon="2.8557846546173"><ele>91</ele><time>2026-4-30T22:14:4Z</time></trkpt>
<trkpt lat="48.925369262695" lon="2.8559057712555"><ele>92</ele><time>2026-4-30T22:14:7Z</time></trkpt>
<trkpt lat="48.925369262695" lon="2.8559057712555"><ele>92</ele><time>2026-4-30T22:14:10Z</time></trkpt>
<trkpt lat="48.925369262695" lon="2.8559057712555"><ele>92</ele><time>2026-4-30T22:14:13Z</time></trkpt>
<trkpt lat="48.925369262695" lon="2.8559057712555"><ele>92</ele><time>2026-4-30T22:14:16Z</time></trkpt>
<trkpt lat="48.925365447998" lon="2.855771780014"><ele>92</ele><time>2026-4-30T22:14:19Z</time></trkpt>
<trkpt lat="48.925365447998" lon="2.855771780014"><ele>92</ele><time>2026-4-30T22:14:22Z</time></trkpt>
<trkpt lat="48.925365447998" lon="2.855771780014"><ele>92</ele><time>2026-4-30T22:14:25Z</time></trkpt>
<trkpt lat="48.925388336182" lon="2.8556432723999"><ele>93</ele><time>2026-4-30T22:14:28Z</time></trkpt>
<trkpt lat="48.925395965576" lon="2.8555481433868"><ele>93</ele><time>2026-4-30T22:14:31Z</time></trkpt>
<trkpt lat="48.92541885376" lon="2.8554430007935"><ele>93</ele><time>2026-4-30T22:14:34Z</time></trkpt>
<trkpt lat="48.92541885376" lon="2.8554430007935"><ele>93</ele><time>2026-4-30T22:14:37Z</time></trkpt>
<trkpt lat="48.925441741943" lon="2.855297088623"><ele>93</ele><time>2026-4-30T22:14:40Z</time></trkpt>
<trkpt lat="48.925498962402" lon="2.85529255867"><ele>93</ele><time>2026-4-30T22:14:43Z</time></trkpt>
<trkpt lat="48.925563812256" lon="2.8553643226624"><ele>93</ele><time>2026-4-30T22:14:46Z</time></trkpt>
<trkpt lat="48.925563812256" lon="2.8553643226624"><ele>93</ele><time>2026-4-30T22:14:49Z</time></trkpt>
<trkpt lat="48.925640106201" lon="2.8554308414459"><ele>93</ele><time>2026-4-30T22:14:52Z</time></trkpt>
<trkpt lat="48.925735473633" lon="2.8555006980896"><ele>92</ele><time>2026-4-30T22:14:55Z</time></trkpt>
<trkpt lat="48.925849914551" lon="2.8555600643158"><ele>91</ele><time>2026-4-30T22:14:58Z</time></trkpt>
<trkpt lat="48.92594909668" lon="2.8556118011475"><ele>91</ele><time>2026-4-30T22:15:1Z</time></trkpt>
<trkpt lat="48.926055908203" lon="2.8556733131409"><ele>92</ele><time>2026-4-30T22:15:4Z</time></trkpt>
<trkpt lat="48.926158905029" lon="2.8557431697845"><ele>91</ele><time>2026-4-30T22:15:7Z</time></trkpt>
<trkpt lat="48.926254272461" lon="2.8558032512665"><ele>91</ele><time>2026-4-30T22:15:10Z</time></trkpt>
<trkpt lat="48.926349639893" lon="2.85586810112"><ele>91</ele><time>2026-4-30T22:15:13Z</time></trkpt>
<trkpt lat="48.926441192627" lon="2.855936050415"><ele>92</ele><time>2026-4-30T22:15:16Z</time></trkpt>
<trkpt lat="48.926528930664" lon="2.8560099601746"><ele>91</ele><time>2026-4-30T22:15:19Z</time></trkpt>
<trkpt lat="48.926605224609" lon="2.8560743331909"><ele>92</ele><time>2026-4-30T22:15:22Z</time></trkpt>
<trkpt lat="48.926700592041" lon="2.8561475276947"><ele>92</ele><time>2026-4-30T22:15:25Z</time></trkpt>
<trkpt lat="48.926780700684" lon="2.8562211990356"><ele>90</ele><time>2026-4-30T22:15:28Z</time></trkpt>
<trkpt lat="48.926853179932" lon="2.8562879562378"><ele>90</ele><time>2026-4-30T22:15:31Z</time></trkpt>
<trkpt lat="48.92692565918" lon="2.856348991394"><ele>90</ele><time>2026-4-30T22:15:34Z</time></trkpt>
<trkpt lat="48.926998138428" lon="2.8564085960388"><ele>90</ele><time>2026-4-30T22:15:37Z</time></trkpt>
<trkpt lat="48.927070617676" lon="2.8564705848694"><ele>90</ele><time>2026-4-30T22:15:40Z</time></trkpt>
<trkpt lat="48.927146911621" lon="2.8565413951874"><ele>90</ele><time>2026-4-30T22:15:43Z</time></trkpt>
<trkpt lat="48.927211761475" lon="2.8566043376923"><ele>90</ele><time>2026-4-30T22:15:46Z</time></trkpt>
<trkpt lat="48.927272796631" lon="2.8566534519196"><ele>90</ele><time>2026-4-30T22:15:49Z</time></trkpt>
<trkpt lat="48.927337646484" lon="2.8566882610321"><ele>90</ele><time>2026-4-30T22:15:52Z</time></trkpt>
<trkpt lat="48.927391052246" lon="2.8567264080048"><ele>90</ele><time>2026-4-30T22:15:55Z</time></trkpt>
<trkpt lat="48.927444458008" lon="2.8567633628845"><ele>90</ele><time>2026-4-30T22:15:58Z</time></trkpt>
<trkpt lat="48.927444458008" lon="2.8567633628845"><ele>90</ele><time>2026-4-30T22:16:1Z</time></trkpt>
<trkpt lat="48.927539825439" lon="2.8568172454834"><ele>90</ele><time>2026-4-30T22:16:4Z</time></trkpt>
<trkpt lat="48.927539825439" lon="2.8568172454834"><ele>90</ele><time>2026-4-30T22:16:7Z</time></trkpt>
<trkpt lat="48.927616119385" lon="2.8568601608276"><ele>89</ele><time>2026-4-30T22:16:10Z</time></trkpt>
<trkpt lat="48.927616119385" lon="2.8568601608276"><ele>89</ele><time>2026-4-30T22:16:13Z</time></trkpt>
<trkpt lat="48.927677154541" lon="2.8569016456604"><ele>89</ele><time>2026-4-30T22:16:16Z</time></trkpt>
<trkpt lat="48.927677154541" lon="2.8569016456604"><ele>89</ele><time>2026-4-30T22:16:19Z</time></trkpt>
<trkpt lat="48.927726745605" lon="2.8569595813751"><ele>89</ele><time>2026-4-30T22:16:22Z</time></trkpt>
<trkpt lat="48.927726745605" lon="2.8569595813751"><ele>89</ele><time>2026-4-30T22:16:25Z</time></trkpt>
<trkpt lat="48.927772521973" lon="2.8570437431335"><ele>89</ele><time>2026-4-30T22:16:28Z</time></trkpt>
<trkpt lat="48.927806854248" lon="2.8571379184723"><ele>90</ele><time>2026-4-30T22:16:31Z</time></trkpt>
<trkpt lat="48.927867889404" lon="2.857221364975"><ele>90</ele><time>2026-4-30T22:16:34Z</time></trkpt>
<trkpt lat="48.927913665771" lon="2.8572797775269"><ele>90</ele><time>2026-4-30T22:16:37Z</time></trkpt>
<trkpt lat="48.927978515625" lon="2.8573620319366"><ele>90</ele><time>2026-4-30T22:16:40Z</time></trkpt>
<trkpt lat="48.92805480957" lon="2.8574402332306"><ele>90</ele><time>2026-4-30T22:16:43Z</time></trkpt>
<trkpt lat="48.92813873291" lon="2.8575189113617"><ele>90</ele><time>2026-4-30T22:16:46Z</time></trkpt>
<trkpt lat="48.928234100342" lon="2.8576102256775"><ele>90</ele><time>2026-4-30T22:16:49Z</time></trkpt>
<trkpt lat="48.928318023682" lon="2.8576757907867"><ele>90</ele><time>2026-4-30T22:16:52Z</time></trkpt>
<trkpt lat="48.92839050293" lon="2.8577480316162"><ele>89</ele><time>2026-4-30T22:16:55Z</time></trkpt>
<trkpt lat="48.928455352783" lon="2.8578135967255"><ele>89</ele><time>2026-4-30T22:16:58Z</time></trkpt>
<trkpt lat="48.928512573242" lon="2.8578643798828"><ele>89</ele><time>2026-4-30T22:17:1Z</time></trkpt>
<trkpt lat="48.928588867188" lon="2.8579180240631"><ele>89</ele><time>2026-4-30T22:17:4Z</time></trkpt>
<trkpt lat="48.928646087646" lon="2.8579733371735"><ele>89</ele><time>2026-4-30T22:17:7Z</time></trkpt>
<trkpt lat="48.928718566895" lon="2.8580372333527"><ele>89</ele><time>2026-4-30T22:17:10Z</time></trkpt>
<trkpt lat="48.928779602051" lon="2.8581182956696"><ele>89</ele><time>2026-4-30T22:17:13Z</time></trkpt>
<trkpt lat="48.928848266602" lon="2.8581869602203"><ele>89</ele><time>2026-4-30T22:17:16Z</time></trkpt>
<trkpt lat="48.92892074585" lon="2.8582451343536"><ele>89</ele><time>2026-4-30T22:17:19Z</time></trkpt>
<trkpt lat="48.92892074585" lon="2.8582451343536"><ele>89</ele><time>2026-4-30T22:17:22Z</time></trkpt>
<trkpt lat="48.928981781006" lon="2.8582844734192"><ele>89</ele><time>2026-4-30T22:17:25Z</time></trkpt>
<trkpt lat="48.929039001465" lon="2.858362197876"><ele>89</ele><time>2026-4-30T22:17:28Z</time></trkpt>
<trkpt lat="48.929107666016" lon="2.858437538147"><ele>89</ele><time>2026-4-30T22:17:31Z</time></trkpt>
<trkpt lat="48.929183959961" lon="2.8585231304169"><ele>89</ele><time>2026-4-30T22:17:34Z</time></trkpt>
<trkpt lat="48.929248809814" lon="2.8585789203644"><ele>89</ele><time>2026-4-30T22:17:37Z</time></trkpt>
<trkpt lat="48.929302215576" lon="2.8586478233337"><ele>89</ele><time>2026-4-30T22:17:40Z</time></trkpt>
<trkpt lat="48.929302215576" lon="2.8586478233337"><ele>89</ele><time>2026-4-30T22:17:43Z</time></trkpt>
<trkpt lat="48.929336547852" lon="2.8587071895599"><ele>89</ele><time>2026-4-30T22:17:46Z</time></trkpt>
<trkpt lat="48.929393768311" lon="2.8587765693665"><ele>89</ele><time>2026-4-30T22:17:49Z</time></trkpt>
<trkpt lat="48.929470062256" lon="2.8588395118713"><ele>89</ele><time>2026-4-30T22:17:52Z</time></trkpt>
<trkpt lat="48.929557800293" lon="2.8589129447937"><ele>89</ele><time>2026-4-30T22:17:55Z</time></trkpt>
<trkpt lat="48.929637908936" lon="2.8589806556702"><ele>89</ele><time>2026-4-30T22:17:58Z</time></trkpt>
<trkpt lat="48.929790496826" lon="2.8591277599335"><ele>89</ele><time>2026-4-30T22:18:1Z</time></trkpt>
<trkpt lat="48.92985534668" lon="2.8592014312744"><ele>90</ele><time>2026-4-30T22:18:4Z</time></trkpt>
<trkpt lat="48.929920196533" lon="2.859281539917"><ele>90</ele><time>2026-4-30T22:18:7Z</time></trkpt>
<trkpt lat="48.93000793457" lon="2.8593778610229"><ele>90</ele><time>2026-4-30T22:18:10Z</time></trkpt>
<trkpt lat="48.930084228516" lon="2.859477519989"><ele>90</ele><time>2026-4-30T22:18:13Z</time></trkpt>
<trkpt lat="48.93013381958" lon="2.8595478534698"><ele>90</ele><time>2026-4-30T22:18:16Z</time></trkpt>
<trkpt lat="48.930191040039" lon="2.8596162796021"><ele>90</ele><time>2026-4-30T22:18:19Z</time></trkpt>
<trkpt lat="48.930191040039" lon="2.8596162796021"><ele>90</ele><time>2026-4-30T22:18:22Z</time></trkpt>
<trkpt lat="48.930278778076" lon="2.8597314357758"><ele>90</ele><time>2026-4-30T22:18:25Z</time></trkpt>
<trkpt lat="48.930278778076" lon="2.8597314357758"><ele>90</ele><time>2026-4-30T22:18:28Z</time></trkpt>
<trkpt lat="48.930366516113" lon="2.8598296642303"><ele>90</ele><time>2026-4-30T22:18:31Z</time></trkpt>
<trkpt lat="48.930366516113" lon="2.8598296642303"><ele>90</ele><time>2026-4-30T22:18:34Z</time></trkpt>
<trkpt lat="48.930438995361" lon="2.8599364757538"><ele>89</ele><time>2026-4-30T22:18:37Z</time></trkpt>
<trkpt lat="48.930438995361" lon="2.8599364757538"><ele>89</ele><time>2026-4-30T22:18:40Z</time></trkpt>
<trkpt lat="48.930522918701" lon="2.8600480556488"><ele>89</ele><time>2026-4-30T22:18:43Z</time></trkpt>
<trkpt lat="48.930572509766" lon="2.8601214885712"><ele>89</ele><time>2026-4-30T22:18:46Z</time></trkpt>
<trkpt lat="48.930572509766" lon="2.8601214885712"><ele>89</ele><time>2026-4-30T22:18:49Z</time></trkpt>
<trkpt lat="48.930660247803" lon="2.8602283000946"><ele>89</ele><time>2026-4-30T22:18:52Z</time></trkpt>
<trkpt lat="48.930713653564" lon="2.8602912425995"><ele>89</ele><time>2026-4-30T22:18:55Z</time></trkpt>
<trkpt lat="48.930778503418" lon="2.8603389263153"><ele>89</ele><time>2026-4-30T22:18:58Z</time></trkpt>
<trkpt lat="48.930778503418" lon="2.8603389263153"><ele>89</ele><time>2026-4-30T22:19:1Z</time></trkpt>
<trkpt lat="48.930835723877" lon="2.8604125976562"><ele>88</ele><time>2026-4-30T22:19:4Z</time></trkpt>
<trkpt lat="48.9309425354" lon="2.8605895042419"><ele>88</ele><time>2026-4-30T22:19:7Z</time></trkpt>
<trkpt lat="48.9309425354" lon="2.8605895042419"><ele>88</ele><time>2026-4-30T22:19:10Z</time></trkpt>
<trkpt lat="48.931030273438" lon="2.8607153892517"><ele>87</ele><time>2026-4-30T22:19:13Z</time></trkpt>
<trkpt lat="48.931030273438" lon="2.8607153892517"><ele>87</ele><time>2026-4-30T22:19:16Z</time></trkpt>
<trkpt lat="48.931030273438" lon="2.8607153892517"><ele>87</ele><time>2026-4-30T22:19:19Z</time></trkpt>
<trkpt lat="48.931140899658" lon="2.8608334064484"><ele>85</ele><time>2026-4-30T22:19:22Z</time></trkpt>
<trkpt lat="48.931198120117" lon="2.8608868122101"><ele>85</ele><time>2026-4-30T22:19:25Z</time></trkpt>
<trkpt lat="48.931198120117" lon="2.8608868122101"><ele>85</ele><time>2026-4-30T22:19:28Z</time></trkpt>
<trkpt lat="48.931343078613" lon="2.8610203266144"><ele>83</ele><time>2026-4-30T22:19:31Z</time></trkpt>
<trkpt lat="48.931427001953" lon="2.8611288070679"><ele>83</ele><time>2026-4-30T22:19:34Z</time></trkpt>
<trkpt lat="48.931427001953" lon="2.8611288070679"><ele>83</ele><time>2026-4-30T22:19:37Z</time></trkpt>
<trkpt lat="48.931427001953" lon="2.8611288070679"><ele>83</ele><time>2026-4-30T22:19:40Z</time></trkpt>
<trkpt lat="48.931491851807" lon="2.8612351417542"><ele>83</ele><time>2026-4-30T22:19:43Z</time></trkpt>
<trkpt lat="48.931491851807" lon="2.8612351417542"><ele>83</ele><time>2026-4-30T22:19:46Z</time></trkpt>
<trkpt lat="48.931491851807" lon="2.8612351417542"><ele>83</ele><time>2026-4-30T22:19:49Z</time></trkpt>
<trkpt lat="48.931541442871" lon="2.8613488674164"><ele>83</ele><time>2026-4-30T22:19:52Z</time></trkpt>
<trkpt lat="48.931541442871" lon="2.8613488674164"><ele>83</ele><time>2026-4-30T22:19:55Z</time></trkpt>
<trkpt lat="48.931659698486" lon="2.8614830970764"><ele>83</ele><time>2026-4-30T22:19:58Z</time></trkpt>
<trkpt lat="48.931659698486" lon="2.8614830970764"><ele>83</ele><time>2026-4-30T22:20:1Z</time></trkpt>
<trkpt lat="48.931728363037" lon="2.8615772724152"><ele>83</ele><time>2026-4-30T22:20:4Z</time></trkpt>
<trkpt lat="48.931800842285" lon="2.8616647720337"><ele>83</ele><time>2026-4-30T22:20:7Z</time></trkpt>
<trkpt lat="48.93187713623" lon="2.8617503643036"><ele>83</ele><time>2026-4-30T22:20:10Z</time></trkpt>
<trkpt lat="48.93187713623" lon="2.8617503643036"><ele>83</ele><time>2026-4-30T22:20:13Z</time></trkpt>
<trkpt lat="48.932456970215" lon="2.8621716499329"><ele>85</ele><time>2026-4-30T22:20:16Z</time></trkpt>
<trkpt lat="48.932456970215" lon="2.8621716499329"><ele>85</ele><time>2026-4-30T22:20:19Z</time></trkpt>
<trkpt lat="48.932632446289" lon="2.8622672557831"><ele>85</ele><time>2026-4-30T22:20:22Z</time></trkpt>
<trkpt lat="48.932800292969" lon="2.8623857498169"><ele>86</ele><time>2026-4-30T22:20:25Z</time></trkpt>
<trkpt lat="48.932899475098" lon="2.8624529838562"><ele>86</ele><time>2026-4-30T22:20:28Z</time></trkpt>
<trkpt lat="48.932994842529" lon="2.8625226020813"><ele>87</ele><time>2026-4-30T22:20:31Z</time></trkpt>
<trkpt lat="48.933086395264" lon="2.8626024723053"><ele>87</ele><time>2026-4-30T22:20:34Z</time></trkpt>
<trkpt lat="48.933181762695" lon="2.8626797199249"><ele>87</ele><time>2026-4-30T22:20:37Z</time></trkpt>
<trkpt lat="48.933265686035" lon="2.8627710342407"><ele>88</ele><time>2026-4-30T22:20:40Z</time></trkpt>
<trkpt lat="48.933334350586" lon="2.8628482818604"><ele>88</ele><time>2026-4-30T22:20:43Z</time></trkpt>
<trkpt lat="48.933403015137" lon="2.8629081249237"><ele>88</ele><time>2026-4-30T22:20:46Z</time></trkpt>
<trkpt lat="48.933475494385" lon="2.8629713058472"><ele>89</ele><time>2026-4-30T22:20:49Z</time></trkpt>
<trkpt lat="48.933567047119" lon="2.8630201816559"><ele>89</ele><time>2026-4-30T22:20:52Z</time></trkpt>
<trkpt lat="48.933650970459" lon="2.8630874156952"><ele>89</ele><time>2026-4-30T22:20:55Z</time></trkpt>
<trkpt lat="48.933753967285" lon="2.8631629943848"><ele>91</ele><time>2026-4-30T22:20:58Z</time></trkpt>
<trkpt lat="48.933834075928" lon="2.8632342815399"><ele>91</ele><time>2026-4-30T22:21:1Z</time></trkpt>
<trkpt lat="48.933925628662" lon="2.8633131980896"><ele>91</ele><time>2026-4-30T22:21:4Z</time></trkpt>
<trkpt lat="48.934001922607" lon="2.8633742332458"><ele>91</ele><time>2026-4-30T22:21:7Z</time></trkpt>
<trkpt lat="48.934055328369" lon="2.8634221553802"><ele>92</ele><time>2026-4-30T22:21:10Z</time></trkpt>
<trkpt lat="48.934112548828" lon="2.8634643554688"><ele>92</ele><time>2026-4-30T22:21:13Z</time></trkpt>
<trkpt lat="48.934196472168" lon="2.8635175228119"><ele>92</ele><time>2026-4-30T22:21:16Z</time></trkpt>
<trkpt lat="48.934253692627" lon="2.8635749816895"><ele>92</ele><time>2026-4-30T22:21:19Z</time></trkpt>
<trkpt lat="48.934322357178" lon="2.8636486530304"><ele>91</ele><time>2026-4-30T22:21:22Z</time></trkpt>
<trkpt lat="48.934322357178" lon="2.8636486530304"><ele>91</ele><time>2026-4-30T22:21:25Z</time></trkpt>
<trkpt lat="48.934383392334" lon="2.8637135028839"><ele>91</ele><time>2026-4-30T22:21:28Z</time></trkpt>
<trkpt lat="48.934436798096" lon="2.8637688159943"><ele>91</ele><time>2026-4-30T22:21:31Z</time></trkpt>
<trkpt lat="48.934509277344" lon="2.8638527393341"><ele>91</ele><time>2026-4-30T22:21:34Z</time></trkpt>
<trkpt lat="48.934581756592" lon="2.8639535903931"><ele>91</ele><time>2026-4-30T22:21:37Z</time></trkpt>
<trkpt lat="48.934658050537" lon="2.8640294075012"><ele>91</ele><time>2026-4-30T22:21:40Z</time></trkpt>
<trkpt lat="48.934715270996" lon="2.8640794754028"><ele>91</ele><time>2026-4-30T22:21:43Z</time></trkpt>
<trkpt lat="48.934772491455" lon="2.8641250133514"><ele>91</ele><time>2026-4-30T22:21:46Z</time></trkpt>
<trkpt lat="48.93482208252" lon="2.864203453064"><ele>91</ele><time>2026-4-30T22:21:49Z</time></trkpt>
<trkpt lat="48.934879302979" lon="2.864248752594"><ele>91</ele><time>2026-4-30T22:21:52Z</time></trkpt>
<trkpt lat="48.93493270874" lon="2.8642926216125"><ele>91</ele><time>2026-4-30T22:21:55Z</time></trkpt>
<trkpt lat="48.934978485107" lon="2.8643488883972"><ele>91</ele><time>2026-4-30T22:21:58Z</time></trkpt>
<trkpt lat="48.935035705566" lon="2.864399433136"><ele>91</ele><time>2026-4-30T22:22:1Z</time></trkpt>
<trkpt lat="48.935092926025" lon="2.864453792572"><ele>91</ele><time>2026-4-30T22:22:4Z</time></trkpt>
<trkpt lat="48.935092926025" lon="2.864453792572"><ele>91</ele><time>2026-4-30T22:22:7Z</time></trkpt>
<trkpt lat="48.935176849365" lon="2.8645718097687"><ele>92</ele><time>2026-4-30T22:22:10Z</time></trkpt>
<trkpt lat="48.935176849365" lon="2.8645718097687"><ele>92</ele><time>2026-4-30T22:22:13Z</time></trkpt>
<trkpt lat="48.935279846191" lon="2.8646776676178"><ele>92</ele><time>2026-4-30T22:22:16Z</time></trkpt>
<trkpt lat="48.935317993164" lon="2.8647494316101"><ele>93</ele><time>2026-4-30T22:22:19Z</time></trkpt>
<trkpt lat="48.935363769531" lon="2.864821434021"><ele>93</ele><time>2026-4-30T22:22:22Z</time></trkpt>
<trkpt lat="48.935428619385" lon="2.8648746013641"><ele>93</ele><time>2026-4-30T22:22:25Z</time></trkpt>
<trkpt lat="48.93550491333" lon="2.8649201393127"><ele>95</ele><time>2026-4-30T22:22:28Z</time></trkpt>
<trkpt lat="48.935565948486" lon="2.8649814128876"><ele>94</ele><time>2026-4-30T22:22:31Z</time></trkpt>
<trkpt lat="48.935611724854" lon="2.8650362491608"><ele>93</ele><time>2026-4-30T22:22:34Z</time></trkpt>
<trkpt lat="48.935611724854" lon="2.8650362491608"><ele>93</ele><time>2026-4-30T22:22:37Z</time></trkpt>
<trkpt lat="48.935684204102" lon="2.8651497364044"><ele>93</ele><time>2026-4-30T22:22:40Z</time></trkpt>
<trkpt lat="48.935684204102" lon="2.8651497364044"><ele>93</ele><time>2026-4-30T22:22:43Z</time></trkpt>
<trkpt lat="48.935741424561" lon="2.8652451038361"><ele>93</ele><time>2026-4-30T22:22:46Z</time></trkpt>
<trkpt lat="48.935741424561" lon="2.8652451038361"><ele>93</ele><time>2026-4-30T22:22:49Z</time></trkpt>
<trkpt lat="48.935741424561" lon="2.8652451038361"><ele>93</ele><time>2026-4-30T22:22:52Z</time></trkpt>
<trkpt lat="48.935741424561" lon="2.8652451038361"><ele>93</ele><time>2026-4-30T22:22:55Z</time></trkpt>
<trkpt lat="48.935836791992" lon="2.8653199672699"><ele>92</ele><time>2026-4-30T22:22:58Z</time></trkpt>
<trkpt lat="48.935913085938" lon="2.8654057979584"><ele>92</ele><time>2026-4-30T22:23:1Z</time></trkpt>
<trkpt lat="48.936023712158" lon="2.8655111789703"><ele>92</ele><time>2026-4-30T22:23:4Z</time></trkpt>
<trkpt lat="48.936023712158" lon="2.8655111789703"><ele>92</ele><time>2026-4-30T22:23:7Z</time></trkpt>
<trkpt lat="48.93611907959" lon="2.8656194210052"><ele>91</ele><time>2026-4-30T22:23:10Z</time></trkpt>
<trkpt lat="48.93611907959" lon="2.8656194210052"><ele>91</ele><time>2026-4-30T22:23:13Z</time></trkpt>
<trkpt lat="48.936229705811" lon="2.865743637085"><ele>91</ele><time>2026-4-30T22:23:16Z</time></trkpt>
<trkpt lat="48.936332702637" lon="2.8658525943756"><ele>90</ele><time>2026-4-30T22:23:19Z</time></trkpt>
<trkpt lat="48.936431884766" lon="2.8659796714783"><ele>90</ele><time>2026-4-30T22:23:22Z</time></trkpt>
<trkpt lat="48.936431884766" lon="2.8659796714783"><ele>90</ele><time>2026-4-30T22:23:25Z</time></trkpt>
<trkpt lat="48.936882019043" lon="2.8662939071655"><ele>90</ele><time>2026-4-30T22:23:28Z</time></trkpt>
<trkpt lat="48.936882019043" lon="2.8662939071655"><ele>90</ele><time>2026-4-30T22:23:31Z</time></trkpt>
<trkpt lat="48.937046051025" lon="2.8664193153381"><ele>90</ele><time>2026-4-30T22:23:34Z</time></trkpt>
<trkpt lat="48.937110900879" lon="2.8664591312408"><ele>90</ele><time>2026-4-30T22:23:37Z</time></trkpt>
<trkpt lat="48.937110900879" lon="2.8664591312408"><ele>90</ele><time>2026-4-30T22:23:40Z</time></trkpt>
<trkpt lat="48.937110900879" lon="2.8664591312408"><ele>90</ele><time>2026-4-30T22:23:43Z</time></trkpt>
<trkpt lat="48.937217712402" lon="2.8665437698364"><ele>90</ele><time>2026-4-30T22:23:46Z</time></trkpt>
<trkpt lat="48.937286376953" lon="2.8666124343872"><ele>90</ele><time>2026-4-30T22:23:49Z</time></trkpt>
<trkpt lat="48.937286376953" lon="2.8666124343872"><ele>90</ele><time>2026-4-30T22:23:52Z</time></trkpt>
<trkpt lat="48.937351226807" lon="2.8666577339172"><ele>90</ele><time>2026-4-30T22:23:55Z</time></trkpt>
<trkpt lat="48.93741607666" lon="2.8667042255402"><ele>90</ele><time>2026-4-30T22:23:58Z</time></trkpt>
<trkpt lat="48.937473297119" lon="2.8667619228363"><ele>90</ele><time>2026-4-30T22:24:1Z</time></trkpt>
<trkpt lat="48.937473297119" lon="2.8667619228363"><ele>90</ele><time>2026-4-30T22:24:4Z</time></trkpt>
<trkpt lat="48.93754196167" lon="2.8668313026428"><ele>90</ele><time>2026-4-30T22:24:7Z</time></trkpt>
<trkpt lat="48.937614440918" lon="2.8668925762177"><ele>90</ele><time>2026-4-30T22:24:10Z</time></trkpt>
<trkpt lat="48.937679290771" lon="2.866947889328"><ele>90</ele><time>2026-4-30T22:24:13Z</time></trkpt>
<trkpt lat="48.937679290771" lon="2.866947889328"><ele>90</ele><time>2026-4-30T22:24:16Z</time></trkpt>
<trkpt lat="48.937732696533" lon="2.8670065402985"><ele>90</ele><time>2026-4-30T22:24:19Z</time></trkpt>
<trkpt lat="48.937805175781" lon="2.8670976161957"><ele>90</ele><time>2026-4-30T22:24:22Z</time></trkpt>
<trkpt lat="48.937873840332" lon="2.8671779632568"><ele>90</ele><time>2026-4-30T22:24:25Z</time></trkpt>
<trkpt lat="48.937942504883" lon="2.8672535419464"><ele>90</ele><time>2026-4-30T22:24:28Z</time></trkpt>
<trkpt lat="48.938022613525" lon="2.8673281669617"><ele>90</ele><time>2026-4-30T22:24:31Z</time></trkpt>
<trkpt lat="48.938087463379" lon="2.867381811142"><ele>90</ele><time>2026-4-30T22:24:34Z</time></trkpt>
<trkpt lat="48.938148498535" lon="2.8674385547638"><ele>90</ele><time>2026-4-30T22:24:37Z</time></trkpt>
<trkpt lat="48.93822479248" lon="2.8675169944763"><ele>90</ele><time>2026-4-30T22:24:40Z</time></trkpt>
<trkpt lat="48.93822479248" lon="2.8675169944763"><ele>90</ele><time>2026-4-30T22:24:43Z</time></trkpt>
<trkpt lat="48.938301086426" lon="2.8675768375397"><ele>90</ele><time>2026-4-30T22:24:46Z</time></trkpt>
<trkpt lat="48.938369750977" lon="2.8676424026489"><ele>90</ele><time>2026-4-30T22:24:49Z</time></trkpt>
<trkpt lat="48.938426971436" lon="2.8677070140839"><ele>90</ele><time>2026-4-30T22:24:52Z</time></trkpt>
<trkpt lat="48.938426971436" lon="2.8677070140839"><ele>90</ele><time>2026-4-30T22:24:55Z</time></trkpt>
<trkpt lat="48.938488006592" lon="2.8677694797516"><ele>90</ele><time>2026-4-30T22:24:58Z</time></trkpt>
<trkpt lat="48.938552856445" lon="2.8678262233734"><ele>90</ele><time>2026-4-30T22:25:1Z</time></trkpt>
<trkpt lat="48.938613891602" lon="2.8678870201111"><ele>90</ele><time>2026-4-30T22:25:4Z</time></trkpt>
<trkpt lat="48.938613891602" lon="2.8678870201111"><ele>90</ele><time>2026-4-30T22:25:7Z</time></trkpt>
<trkpt lat="48.938671112061" lon="2.8679478168488"><ele>90</ele><time>2026-4-30T22:25:10Z</time></trkpt>
<trkpt lat="48.938724517822" lon="2.8679926395416"><ele>90</ele><time>2026-4-30T22:25:13Z</time></trkpt>
<trkpt lat="48.938724517822" lon="2.8679926395416"><ele>90</ele><time>2026-4-30T22:25:16Z</time></trkpt>
<trkpt lat="48.938812255859" lon="2.8680572509766"><ele>90</ele><time>2026-4-30T22:25:19Z</time></trkpt>
<trkpt lat="48.938812255859" lon="2.8680572509766"><ele>90</ele><time>2026-4-30T22:25:22Z</time></trkpt>
<trkpt lat="48.938903808594" lon="2.8681573867798"><ele>90</ele><time>2026-4-30T22:25:25Z</time></trkpt>
<trkpt lat="48.938957214355" lon="2.8682272434235"><ele>91</ele><time>2026-4-30T22:25:28Z</time></trkpt>
<trkpt lat="48.939033508301" lon="2.8682651519775"><ele>91</ele><time>2026-4-30T22:25:31Z</time></trkpt>
<trkpt lat="48.939033508301" lon="2.8682651519775"><ele>91</ele><time>2026-4-30T22:25:34Z</time></trkpt>
<trkpt lat="48.939033508301" lon="2.8682651519775"><ele>91</ele><time>2026-4-30T22:25:37Z</time></trkpt>
<trkpt lat="48.939086914062" lon="2.8683085441589"><ele>91</ele><time>2026-4-30T22:25:40Z</time></trkpt>
<trkpt lat="48.939144134521" lon="2.8683576583862"><ele>91</ele><time>2026-4-30T22:25:43Z</time></trkpt>
<trkpt lat="48.939193725586" lon="2.8684084415436"><ele>92</ele><time>2026-4-30T22:25:46Z</time></trkpt>
<trkpt lat="48.939247131348" lon="2.8684749603271"><ele>92</ele><time>2026-4-30T22:25:49Z</time></trkpt>
<trkpt lat="48.939304351807" lon="2.8685538768768"><ele>92</ele><time>2026-4-30T22:25:52Z</time></trkpt>
<trkpt lat="48.939407348633" lon="2.8686857223511"><ele>92</ele><time>2026-4-30T22:25:55Z</time></trkpt>
<trkpt lat="48.939407348633" lon="2.8686857223511"><ele>92</ele><time>2026-4-30T22:25:58Z</time></trkpt>
<trkpt lat="48.939407348633" lon="2.8686857223511"><ele>92</ele><time>2026-4-30T22:26:1Z</time></trkpt>
<trkpt lat="48.939498901367" lon="2.868757724762"><ele>93</ele><time>2026-4-30T22:26:4Z</time></trkpt>
<trkpt lat="48.939552307129" lon="2.8688149452209"><ele>93</ele><time>2026-4-30T22:26:7Z</time></trkpt>
<trkpt lat="48.939552307129" lon="2.8688149452209"><ele>93</ele><time>2026-4-30T22:26:10Z</time></trkpt>
<trkpt lat="48.93966293335" lon="2.8688905239105"><ele>93</ele><time>2026-4-30T22:26:13Z</time></trkpt>
<trkpt lat="48.93970489502" lon="2.8689496517181"><ele>93</ele><time>2026-4-30T22:26:16Z</time></trkpt>
<trkpt lat="48.939754486084" lon="2.8690159320831"><ele>93</ele><time>2026-4-30T22:26:19Z</time></trkpt>
<trkpt lat="48.939754486084" lon="2.8690159320831"><ele>93</ele><time>2026-4-30T22:26:22Z</time></trkpt>
<trkpt lat="48.939849853516" lon="2.8690938949585"><ele>93</ele><time>2026-4-30T22:26:25Z</time></trkpt>
<trkpt lat="48.939910888672" lon="2.869145154953"><ele>93</ele><time>2026-4-30T22:26:28Z</time></trkpt>
<trkpt lat="48.939975738525" lon="2.8692367076874"><ele>94</ele><time>2026-4-30T22:26:31Z</time></trkpt>
<trkpt lat="48.940048217773" lon="2.8693175315857"><ele>94</ele><time>2026-4-30T22:26:34Z</time></trkpt>
<trkpt lat="48.940048217773" lon="2.8693175315857"><ele>94</ele><time>2026-4-30T22:26:37Z</time></trkpt>
<trkpt lat="48.940113067627" lon="2.8693830966949"><ele>94</ele><time>2026-4-30T22:26:40Z</time></trkpt>
<trkpt lat="48.940170288086" lon="2.8694512844086"><ele>94</ele><time>2026-4-30T22:26:43Z</time></trkpt>
<trkpt lat="48.940242767334" lon="2.8695139884949"><ele>94</ele><time>2026-4-30T22:26:46Z</time></trkpt>
<trkpt lat="48.940242767334" lon="2.8695139884949"><ele>94</ele><time>2026-4-30T22:26:49Z</time></trkpt>
<trkpt lat="48.940307617188" lon="2.8695757389069"><ele>94</ele><time>2026-4-30T22:26:52Z</time></trkpt>
<trkpt lat="48.940368652344" lon="2.8696274757385"><ele>94</ele><time>2026-4-30T22:26:55Z</time></trkpt>
<trkpt lat="48.940422058105" lon="2.8696701526642"><ele>94</ele><time>2026-4-30T22:26:58Z</time></trkpt>
<trkpt lat="48.940483093262" lon="2.8697309494019"><ele>94</ele><time>2026-4-30T22:27:1Z</time></trkpt>
<trkpt lat="48.940532684326" lon="2.86980676651"><ele>94</ele><time>2026-4-30T22:27:4Z</time></trkpt>
<trkpt lat="48.940589904785" lon="2.8698892593384"><ele>94</ele><time>2026-4-30T22:27:7Z</time></trkpt>
<trkpt lat="48.940654754639" lon="2.8699560165405"><ele>94</ele><time>2026-4-30T22:27:10Z</time></trkpt>
<trkpt lat="48.940731048584" lon="2.870044708252"><ele>93</ele><time>2026-4-30T22:27:13Z</time></trkpt>
<trkpt lat="48.940731048584" lon="2.870044708252"><ele>93</ele><time>2026-4-30T22:27:16Z</time></trkpt>
<trkpt lat="48.940807342529" lon="2.8700881004333"><ele>93</ele><time>2026-4-30T22:27:19Z</time></trkpt>
<trkpt lat="48.940883636475" lon="2.8701374530792"><ele>93</ele><time>2026-4-30T22:27:22Z</time></trkpt>
<trkpt lat="48.940883636475" lon="2.8701374530792"><ele>93</ele><time>2026-4-30T22:27:25Z</time></trkpt>
<trkpt lat="48.940883636475" lon="2.8701374530792"><ele>93</ele><time>2026-4-30T22:27:28Z</time></trkpt>
<trkpt lat="48.940952301025" lon="2.8701694011688"><ele>93</ele><time>2026-4-30T22:27:31Z</time></trkpt>
<trkpt lat="48.940952301025" lon="2.8701694011688"><ele>93</ele><time>2026-4-30T22:27:34Z</time></trkpt>
<trkpt lat="48.941032409668" lon="2.8702039718628"><ele>94</ele><time>2026-4-30T22:27:37Z</time></trkpt>
<trkpt lat="48.941032409668" lon="2.8702039718628"><ele>94</ele><time>2026-4-30T22:27:40Z</time></trkpt>
<trkpt lat="48.941032409668" lon="2.8702039718628"><ele>94</ele><time>2026-4-30T22:27:43Z</time></trkpt>
<trkpt lat="48.941032409668" lon="2.8702039718628"><ele>94</ele><time>2026-4-30T22:27:46Z</time></trkpt>
<trkpt lat="48.941032409668" lon="2.8702039718628"><ele>94</ele><time>2026-4-30T22:27:49Z</time></trkpt>
<trkpt lat="48.941093444824" lon="2.8702936172485"><ele>93</ele><time>2026-4-30T22:27:52Z</time></trkpt>
<trkpt lat="48.941093444824" lon="2.8702936172485"><ele>93</ele><time>2026-4-30T22:27:55Z</time></trkpt>
<trkpt lat="48.941093444824" lon="2.8702936172485"><ele>93</ele><time>2026-4-30T22:27:58Z</time></trkpt>
<trkpt lat="48.941093444824" lon="2.8702936172485"><ele>93</ele><time>2026-4-30T22:28:1Z</time></trkpt>
<trkpt lat="48.941093444824" lon="2.8702936172485"><ele>93</ele><time>2026-4-30T22:28:4Z</time></trkpt>
<trkpt lat="48.941051483154" lon="2.8703331947327"><ele>90</ele><time>2026-4-30T22:28:7Z</time></trkpt>
<trkpt lat="48.941051483154" lon="2.8703331947327"><ele>90</ele><time>2026-4-30T22:28:10Z</time></trkpt>
<trkpt lat="48.941184997559" lon="2.8703389167786"><ele>93</ele><time>2026-4-30T22:28:13Z</time></trkpt>
<trkpt lat="48.941234588623" lon="2.8704290390015"><ele>93</ele><time>2026-4-30T22:28:16Z</time></trkpt>
<trkpt lat="48.941234588623" lon="2.8704290390015"><ele>93</ele><time>2026-4-30T22:28:19Z</time></trkpt>
<trkpt lat="48.94128036499" lon="2.8704969882965"><ele>94</ele><time>2026-4-30T22:28:22Z</time></trkpt>
<trkpt lat="48.941352844238" lon="2.870591878891"><ele>94</ele><time>2026-4-30T22:28:25Z</time></trkpt>
<trkpt lat="48.941352844238" lon="2.870591878891"><ele>94</ele><time>2026-4-30T22:28:28Z</time></trkpt>
<trkpt lat="48.941402435303" lon="2.8706498146057"><ele>94</ele><time>2026-4-30T22:28:31Z</time></trkpt>
<trkpt lat="48.941459655762" lon="2.8707208633423"><ele>94</ele><time>2026-4-30T22:28:34Z</time></trkpt>
<trkpt lat="48.941513061523" lon="2.8707826137543"><ele>95</ele><time>2026-4-30T22:28:37Z</time></trkpt>
<trkpt lat="48.941513061523" lon="2.8707826137543"><ele>95</ele><time>2026-4-30T22:28:40Z</time></trkpt>
<trkpt lat="48.941619873047" lon="2.8708810806274"><ele>95</ele><time>2026-4-30T22:28:43Z</time></trkpt>
<trkpt lat="48.941619873047" lon="2.8708810806274"><ele>95</ele><time>2026-4-30T22:28:46Z</time></trkpt>
<trkpt lat="48.941677093506" lon="2.8709349632263"><ele>95</ele><time>2026-4-30T22:28:49Z</time></trkpt>
<trkpt lat="48.941730499268" lon="2.8709924221039"><ele>95</ele><time>2026-4-30T22:28:52Z</time></trkpt>
<trkpt lat="48.941791534424" lon="2.8710558414459"><ele>95</ele><time>2026-4-30T22:28:55Z</time></trkpt>
<trkpt lat="48.941791534424" lon="2.8710558414459"><ele>95</ele><time>2026-4-30T22:28:58Z</time></trkpt>
<trkpt lat="48.941860198975" lon="2.871114730835"><ele>95</ele><time>2026-4-30T22:29:1Z</time></trkpt>
<trkpt lat="48.941925048828" lon="2.8711698055267"><ele>95</ele><time>2026-4-30T22:29:4Z</time></trkpt>
<trkpt lat="48.941986083984" lon="2.871237039566"><ele>95</ele><time>2026-4-30T22:29:7Z</time></trkpt>
<trkpt lat="48.941986083984" lon="2.871237039566"><ele>95</ele><time>2026-4-30T22:29:10Z</time></trkpt>
<trkpt lat="48.941986083984" lon="2.871237039566"><ele>95</ele><time>2026-4-30T22:29:13Z</time></trkpt>
<trkpt lat="48.942073822021" lon="2.8713455200195"><ele>96</ele><time>2026-4-30T22:29:16Z</time></trkpt>
<trkpt lat="48.942073822021" lon="2.8713455200195"><ele>96</ele><time>2026-4-30T22:29:19Z</time></trkpt>
<trkpt lat="48.94214630127" lon="2.8714194297791"><ele>95</ele><time>2026-4-30T22:29:22Z</time></trkpt>
<trkpt lat="48.942218780518" lon="2.8714900016785"><ele>95</ele><time>2026-4-30T22:29:25Z</time></trkpt>
<trkpt lat="48.942291259766" lon="2.8715491294861"><ele>95</ele><time>2026-4-30T22:29:28Z</time></trkpt>
<trkpt lat="48.942291259766" lon="2.8715491294861"><ele>95</ele><time>2026-4-30T22:29:31Z</time></trkpt>
<trkpt lat="48.942359924316" lon="2.8716189861298"><ele>95</ele><time>2026-4-30T22:29:34Z</time></trkpt>
<trkpt lat="48.94242477417" lon="2.8716716766357"><ele>95</ele><time>2026-4-30T22:29:37Z</time></trkpt>
<trkpt lat="48.942497253418" lon="2.8717188835144"><ele>95</ele><time>2026-4-30T22:29:40Z</time></trkpt>
<trkpt lat="48.942497253418" lon="2.8717188835144"><ele>95</ele><time>2026-4-30T22:29:43Z</time></trkpt>
<trkpt lat="48.942573547363" lon="2.8717851638794"><ele>95</ele><time>2026-4-30T22:29:46Z</time></trkpt>
<trkpt lat="48.942642211914" lon="2.8718731403351"><ele>95</ele><time>2026-4-30T22:29:49Z</time></trkpt>
<trkpt lat="48.942726135254" lon="2.8719804286957"><ele>96</ele><time>2026-4-30T22:29:52Z</time></trkpt>
<trkpt lat="48.942726135254" lon="2.8719804286957"><ele>96</ele><time>2026-4-30T22:29:55Z</time></trkpt>
<trkpt lat="48.942779541016" lon="2.8720610141754"><ele>96</ele><time>2026-4-30T22:29:58Z</time></trkpt>
<trkpt lat="48.942840576172" lon="2.8721024990082"><ele>96</ele><time>2026-4-30T22:30:1Z</time></trkpt>
<trkpt lat="48.942901611328" lon="2.8721542358398"><ele>96</ele><time>2026-4-30T22:30:4Z</time></trkpt>
<trkpt lat="48.942901611328" lon="2.8721542358398"><ele>96</ele><time>2026-4-30T22:30:7Z</time></trkpt>
<trkpt lat="48.942966461182" lon="2.8722162246704"><ele>96</ele><time>2026-4-30T22:30:10Z</time></trkpt>
<trkpt lat="48.943031311035" lon="2.8722867965698"><ele>96</ele><time>2026-4-30T22:30:13Z</time></trkpt>
<trkpt lat="48.943092346191" lon="2.872323513031"><ele>96</ele><time>2026-4-30T22:30:16Z</time></trkpt>
<trkpt lat="48.943092346191" lon="2.872323513031"><ele>96</ele><time>2026-4-30T22:30:19Z</time></trkpt>
<trkpt lat="48.943183898926" lon="2.8724226951599"><ele>96</ele><time>2026-4-30T22:30:22Z</time></trkpt>
<trkpt lat="48.94323348999" lon="2.8724842071533"><ele>96</ele><time>2026-4-30T22:30:25Z</time></trkpt>
<trkpt lat="48.94323348999" lon="2.8724842071533"><ele>96</ele><time>2026-4-30T22:30:28Z</time></trkpt>
<trkpt lat="48.943286895752" lon="2.8725409507751"><ele>96</ele><time>2026-4-30T22:30:31Z</time></trkpt>
<trkpt lat="48.943347930908" lon="2.8725967407227"><ele>96</ele><time>2026-4-30T22:30:34Z</time></trkpt>
<trkpt lat="48.943416595459" lon="2.8726449012756"><ele>96</ele><time>2026-4-30T22:30:37Z</time></trkpt>
<trkpt lat="48.943473815918" lon="2.8726997375488"><ele>95</ele><time>2026-4-30T22:30:40Z</time></trkpt>
<trkpt lat="48.943534851074" lon="2.8727641105652"><ele>95</ele><time>2026-4-30T22:30:43Z</time></trkpt>
<trkpt lat="48.943584442139" lon="2.8728129863739"><ele>95</ele><time>2026-4-30T22:30:46Z</time></trkpt>
<trkpt lat="48.943584442139" lon="2.8728129863739"><ele>95</ele><time>2026-4-30T22:30:49Z</time></trkpt>
<trkpt lat="48.943645477295" lon="2.8728654384613"><ele>95</ele><time>2026-4-30T22:30:52Z</time></trkpt>
<trkpt lat="48.943717956543" lon="2.8729205131531"><ele>95</ele><time>2026-4-30T22:30:55Z</time></trkpt>
<trkpt lat="48.943778991699" lon="2.8729815483093"><ele>95</ele><time>2026-4-30T22:30:58Z</time></trkpt>
<trkpt lat="48.94384765625" lon="2.8730511665344"><ele>95</ele><time>2026-4-30T22:31:1Z</time></trkpt>
<trkpt lat="48.943912506104" lon="2.8731229305267"><ele>95</ele><time>2026-4-30T22:31:4Z</time></trkpt>
<trkpt lat="48.943912506104" lon="2.8731229305267"><ele>95</ele><time>2026-4-30T22:31:7Z</time></trkpt>
<trkpt lat="48.943984985352" lon="2.8731851577759"><ele>95</ele><time>2026-4-30T22:31:10Z</time></trkpt>
<trkpt lat="48.944049835205" lon="2.8732545375824"><ele>95</ele><time>2026-4-30T22:31:13Z</time></trkpt>
<trkpt lat="48.944110870361" lon="2.8733174800873"><ele>95</ele><time>2026-4-30T22:31:16Z</time></trkpt>
<trkpt lat="48.944171905518" lon="2.8733901977539"><ele>95</ele><time>2026-4-30T22:31:19Z</time></trkpt>
<trkpt lat="48.944240570068" lon="2.8734548091888"><ele>95</ele><time>2026-4-30T22:31:22Z</time></trkpt>
<trkpt lat="48.944309234619" lon="2.873505115509"><ele>95</ele><time>2026-4-30T22:31:25Z</time></trkpt>
<trkpt lat="48.944370269775" lon="2.8735630512238"><ele>95</ele><time>2026-4-30T22:31:28Z</time></trkpt>
<trkpt lat="48.944431304932" lon="2.8736302852631"><ele>96</ele><time>2026-4-30T22:31:31Z</time></trkpt>
<trkpt lat="48.944477081299" lon="2.8736798763275"><ele>96</ele><time>2026-4-30T22:31:34Z</time></trkpt>
<trkpt lat="48.944477081299" lon="2.8736798763275"><ele>96</ele><time>2026-4-30T22:31:37Z</time></trkpt>
<trkpt lat="48.944549560547" lon="2.8737428188324"><ele>96</ele><time>2026-4-30T22:31:40Z</time></trkpt>
<trkpt lat="48.944618225098" lon="2.8738222122192"><ele>96</ele><time>2026-4-30T22:31:43Z</time></trkpt>
<trkpt lat="48.94469833374" lon="2.8738932609558"><ele>96</ele><time>2026-4-30T22:31:46Z</time></trkpt>
<trkpt lat="48.94469833374" lon="2.8738932609558"><ele>96</ele><time>2026-4-30T22:31:49Z</time></trkpt>
<trkpt lat="48.944755554199" lon="2.8739440441132"><ele>96</ele><time>2026-4-30T22:31:52Z</time></trkpt>
<trkpt lat="48.94482421875" lon="2.8740236759186"><ele>96</ele><time>2026-4-30T22:31:55Z</time></trkpt>
<trkpt lat="48.944900512695" lon="2.8741056919098"><ele>96</ele><time>2026-4-30T22:31:58Z</time></trkpt>
<trkpt lat="48.944900512695" lon="2.8741056919098"><ele>96</ele><time>2026-4-30T22:32:1Z</time></trkpt>
<trkpt lat="48.944965362549" lon="2.8741636276245"><ele>96</ele><time>2026-4-30T22:32:4Z</time></trkpt>
<trkpt lat="48.945026397705" lon="2.874213218689"><ele>96</ele><time>2026-4-30T22:32:7Z</time></trkpt>
<trkpt lat="48.945091247559" lon="2.8742742538452"><ele>96</ele><time>2026-4-30T22:32:10Z</time></trkpt>
<trkpt lat="48.945156097412" lon="2.8743324279785"><ele>96</ele><time>2026-4-30T22:32:13Z</time></trkpt>
<trkpt lat="48.945220947266" lon="2.8744056224823"><ele>96</ele><time>2026-4-30T22:32:16Z</time></trkpt>
<trkpt lat="48.945293426514" lon="2.8744893074036"><ele>96</ele><time>2026-4-30T22:32:19Z</time></trkpt>
<trkpt lat="48.945293426514" lon="2.8744893074036"><ele>96</ele><time>2026-4-30T22:32:22Z</time></trkpt>
<trkpt lat="48.945358276367" lon="2.87455701828"><ele>96</ele><time>2026-4-30T22:32:25Z</time></trkpt>
<trkpt lat="48.945423126221" lon="2.8746228218079"><ele>96</ele><time>2026-4-30T22:32:28Z</time></trkpt>
<trkpt lat="48.945491790771" lon="2.8746902942657"><ele>94</ele><time>2026-4-30T22:32:31Z</time></trkpt>
<trkpt lat="48.945491790771" lon="2.8746902942657"><ele>94</ele><time>2026-4-30T22:32:34Z</time></trkpt>
<trkpt lat="48.945560455322" lon="2.8747544288635"><ele>93</ele><time>2026-4-30T22:32:37Z</time></trkpt>
<trkpt lat="48.945625305176" lon="2.8748145103455"><ele>93</ele><time>2026-4-30T22:32:40Z</time></trkpt>
<trkpt lat="48.945693969727" lon="2.8748826980591"><ele>93</ele><time>2026-4-30T22:32:43Z</time></trkpt>
<trkpt lat="48.945693969727" lon="2.8748826980591"><ele>93</ele><time>2026-4-30T22:32:46Z</time></trkpt>
<trkpt lat="48.945762634277" lon="2.8749492168427"><ele>93</ele><time>2026-4-30T22:32:49Z</time></trkpt>
<trkpt lat="48.945835113525" lon="2.875020980835"><ele>93</ele><time>2026-4-30T22:32:52Z</time></trkpt>
<trkpt lat="48.945899963379" lon="2.8750848770142"><ele>93</ele><time>2026-4-30T22:32:55Z</time></trkpt>
<trkpt lat="48.945899963379" lon="2.8750848770142"><ele>93</ele><time>2026-4-30T22:32:58Z</time></trkpt>
<trkpt lat="48.945972442627" lon="2.8751676082611"><ele>93</ele><time>2026-4-30T22:33:1Z</time></trkpt>
<trkpt lat="48.946041107178" lon="2.8752362728119"><ele>91</ele><time>2026-4-30T22:33:4Z</time></trkpt>
<trkpt lat="48.94612121582" lon="2.8753187656403"><ele>90</ele><time>2026-4-30T22:33:7Z</time></trkpt>
<trkpt lat="48.94612121582" lon="2.8753187656403"><ele>90</ele><time>2026-4-30T22:33:10Z</time></trkpt>
<trkpt lat="48.946186065674" lon="2.8753793239594"><ele>90</ele><time>2026-4-30T22:33:13Z</time></trkpt>
<trkpt lat="48.946262359619" lon="2.8754546642303"><ele>90</ele><time>2026-4-30T22:33:16Z</time></trkpt>
<trkpt lat="48.946334838867" lon="2.8755276203156"><ele>90</ele><time>2026-4-30T22:33:19Z</time></trkpt>
<trkpt lat="48.946334838867" lon="2.8755276203156"><ele>90</ele><time>2026-4-30T22:33:22Z</time></trkpt>
<trkpt lat="48.946399688721" lon="2.8755931854248"><ele>90</ele><time>2026-4-30T22:33:25Z</time></trkpt>
<trkpt lat="48.946475982666" lon="2.8756663799286"><ele>89</ele><time>2026-4-30T22:33:28Z</time></trkpt>
<trkpt lat="48.946552276611" lon="2.8757424354553"><ele>89</ele><time>2026-4-30T22:33:31Z</time></trkpt>
<trkpt lat="48.946552276611" lon="2.8757424354553"><ele>89</ele><time>2026-4-30T22:33:34Z</time></trkpt>
<trkpt lat="48.946624755859" lon="2.8758218288422"><ele>89</ele><time>2026-4-30T22:33:37Z</time></trkpt>
<trkpt lat="48.94669342041" lon="2.8758947849274"><ele>89</ele><time>2026-4-30T22:33:40Z</time></trkpt>
<trkpt lat="48.946769714355" lon="2.8759632110596"><ele>89</ele><time>2026-4-30T22:33:43Z</time></trkpt>
<trkpt lat="48.946769714355" lon="2.8759632110596"><ele>89</ele><time>2026-4-30T22:33:46Z</time></trkpt>
<trkpt lat="48.946846008301" lon="2.8760361671448"><ele>88</ele><time>2026-4-30T22:33:49Z</time></trkpt>
<trkpt lat="48.946907043457" lon="2.8761003017426"><ele>88</ele><time>2026-4-30T22:33:52Z</time></trkpt>
<trkpt lat="48.946975708008" lon="2.8761761188507"><ele>89</ele><time>2026-4-30T22:33:55Z</time></trkpt>
<trkpt lat="48.946975708008" lon="2.8761761188507"><ele>89</ele><time>2026-4-30T22:33:58Z</time></trkpt>
<trkpt lat="48.947040557861" lon="2.8762395381927"><ele>89</ele><time>2026-4-30T22:34:1Z</time></trkpt>
<trkpt lat="48.947116851807" lon="2.8763010501862"><ele>89</ele><time>2026-4-30T22:34:4Z</time></trkpt>
<trkpt lat="48.947193145752" lon="2.8763630390167"><ele>89</ele><time>2026-4-30T22:34:7Z</time></trkpt>
<trkpt lat="48.947193145752" lon="2.8763630390167"><ele>89</ele><time>2026-4-30T22:34:10Z</time></trkpt>
<trkpt lat="48.947273254395" lon="2.8764238357544"><ele>89</ele><time>2026-4-30T22:34:13Z</time></trkpt>
<trkpt lat="48.947353363037" lon="2.8764827251434"><ele>90</ele><time>2026-4-30T22:34:16Z</time></trkpt>
<trkpt lat="48.947429656982" lon="2.8765358924866"><ele>91</ele><time>2026-4-30T22:34:19Z</time></trkpt>
<trkpt lat="48.947429656982" lon="2.8765358924866"><ele>91</ele><time>2026-4-30T22:34:22Z</time></trkpt>
<trkpt lat="48.947509765625" lon="2.8765864372253"><ele>91</ele><time>2026-4-30T22:34:25Z</time></trkpt>
<trkpt lat="48.947589874268" lon="2.8766450881958"><ele>91</ele><time>2026-4-30T22:34:28Z</time></trkpt>
<trkpt lat="48.947666168213" lon="2.8767011165619"><ele>91</ele><time>2026-4-30T22:34:31Z</time></trkpt>
<trkpt lat="48.947666168213" lon="2.8767011165619"><ele>91</ele><time>2026-4-30T22:34:34Z</time></trkpt>
<trkpt lat="48.947746276855" lon="2.8767421245575"><ele>92</ele><time>2026-4-30T22:34:37Z</time></trkpt>
<trkpt lat="48.947834014893" lon="2.8767874240875"><ele>93</ele><time>2026-4-30T22:34:40Z</time></trkpt>
<trkpt lat="48.947914123535" lon="2.8768258094788"><ele>93</ele><time>2026-4-30T22:34:43Z</time></trkpt>
<trkpt lat="48.947914123535" lon="2.8768258094788"><ele>93</ele><time>2026-4-30T22:34:46Z</time></trkpt>
<trkpt lat="48.948001861572" lon="2.8768680095673"><ele>93</ele><time>2026-4-30T22:34:49Z</time></trkpt>
<trkpt lat="48.948097229004" lon="2.8769135475159"><ele>93</ele><time>2026-4-30T22:34:52Z</time></trkpt>
<trkpt lat="48.94820022583" lon="2.8769626617432"><ele>93</ele><time>2026-4-30T22:34:55Z</time></trkpt>
<trkpt lat="48.94820022583" lon="2.8769626617432"><ele>93</ele><time>2026-4-30T22:34:58Z</time></trkpt>
<trkpt lat="48.948299407959" lon="2.8770077228546"><ele>92</ele><time>2026-4-30T22:35:1Z</time></trkpt>
<trkpt lat="48.948394775391" lon="2.877049446106"><ele>93</ele><time>2026-4-30T22:35:4Z</time></trkpt>
<trkpt lat="48.94847869873" lon="2.8770928382874"><ele>93</ele><time>2026-4-30T22:35:7Z</time></trkpt>
<trkpt lat="48.94847869873" lon="2.8770928382874"><ele>93</ele><time>2026-4-30T22:35:10Z</time></trkpt>
<trkpt lat="48.948581695557" lon="2.8771398067474"><ele>93</ele><time>2026-4-30T22:35:13Z</time></trkpt>
<trkpt lat="48.948684692383" lon="2.8771913051605"><ele>93</ele><time>2026-4-30T22:35:16Z</time></trkpt>
<trkpt lat="48.948783874512" lon="2.8772373199463"><ele>93</ele><time>2026-4-30T22:35:19Z</time></trkpt>
<trkpt lat="48.948783874512" lon="2.8772373199463"><ele>93</ele><time>2026-4-30T22:35:22Z</time></trkpt>
<trkpt lat="48.948875427246" lon="2.8772730827332"><ele>94</ele><time>2026-4-30T22:35:25Z</time></trkpt>
<trkpt lat="48.948974609375" lon="2.8773143291473"><ele>95</ele><time>2026-4-30T22:35:28Z</time></trkpt>
<trkpt lat="48.949069976807" lon="2.8773498535156"><ele>95</ele><time>2026-4-30T22:35:31Z</time></trkpt>
<trkpt lat="48.949069976807" lon="2.8773498535156"><ele>95</ele><time>2026-4-30T22:35:34Z</time></trkpt>
<trkpt lat="48.949161529541" lon="2.8773908615112"><ele>94</ele><time>2026-4-30T22:35:37Z</time></trkpt>
<trkpt lat="48.949264526367" lon="2.8774390220642"><ele>94</ele><time>2026-4-30T22:35:40Z</time></trkpt>
<trkpt lat="48.949359893799" lon="2.8774900436401"><ele>94</ele><time>2026-4-30T22:35:43Z</time></trkpt>
<trkpt lat="48.949359893799" lon="2.8774900436401"><ele>94</ele><time>2026-4-30T22:35:46Z</time></trkpt>
<trkpt lat="48.94945526123" lon="2.8775384426117"><ele>93</ele><time>2026-4-30T22:35:49Z</time></trkpt>
<trkpt lat="48.949550628662" lon="2.8775928020477"><ele>93</ele><time>2026-4-30T22:35:52Z</time></trkpt>
<trkpt lat="48.949645996094" lon="2.8776450157166"><ele>93</ele><time>2026-4-30T22:35:55Z</time></trkpt>
<trkpt lat="48.949645996094" lon="2.8776450157166"><ele>93</ele><time>2026-4-30T22:35:58Z</time></trkpt>
<trkpt lat="48.94974899292" lon="2.8776950836182"><ele>93</ele><time>2026-4-30T22:36:1Z</time></trkpt>
<trkpt lat="48.949844360352" lon="2.8777465820312"><ele>92</ele><time>2026-4-30T22:36:4Z</time></trkpt>
<trkpt lat="48.94994354248" lon="2.8777935504913"><ele>92</ele><time>2026-4-30T22:36:7Z</time></trkpt>
<trkpt lat="48.950050354004" lon="2.8778455257416"><ele>91</ele><time>2026-4-30T22:36:10Z</time></trkpt>
<trkpt lat="48.950149536133" lon="2.8778910636902"><ele>91</ele><time>2026-4-30T22:36:13Z</time></trkpt>
<trkpt lat="48.950244903564" lon="2.8779301643372"><ele>91</ele><time>2026-4-30T22:36:16Z</time></trkpt>
<trkpt lat="48.950332641602" lon="2.8779654502869"><ele>91</ele><time>2026-4-30T22:36:19Z</time></trkpt>
<trkpt lat="48.95043182373" lon="2.8779947757721"><ele>92</ele><time>2026-4-30T22:36:22Z</time></trkpt>
<trkpt lat="48.950534820557" lon="2.8780176639557"><ele>92</ele><time>2026-4-30T22:36:25Z</time></trkpt>
<trkpt lat="48.950611114502" lon="2.8780167102814"><ele>92</ele><time>2026-4-30T22:36:28Z</time></trkpt>
<trkpt lat="48.950710296631" lon="2.8780097961426"><ele>93</ele><time>2026-4-30T22:36:31Z</time></trkpt>
<trkpt lat="48.950794219971" lon="2.8780028820038"><ele>93</ele><time>2026-4-30T22:36:34Z</time></trkpt>
<trkpt lat="48.950874328613" lon="2.8780341148376"><ele>94</ele><time>2026-4-30T22:36:37Z</time></trkpt>
<trkpt lat="48.950942993164" lon="2.8781116008759"><ele>94</ele><time>2026-4-30T22:36:40Z</time></trkpt>
<trkpt lat="48.950981140137" lon="2.878217458725"><ele>93</ele><time>2026-4-30T22:36:43Z</time></trkpt>
<trkpt lat="48.950981140137" lon="2.878217458725"><ele>93</ele><time>2026-4-30T22:36:46Z</time></trkpt>
<trkpt lat="48.95100402832" lon="2.8783206939697"><ele>93</ele><time>2026-4-30T22:36:49Z</time></trkpt>
<trkpt lat="48.95100402832" lon="2.8783206939697"><ele>93</ele><time>2026-4-30T22:36:52Z</time></trkpt>
<trkpt lat="48.951026916504" lon="2.8784930706024"><ele>93</ele><time>2026-4-30T22:36:55Z</time></trkpt>
<trkpt lat="48.951026916504" lon="2.8784930706024"><ele>93</ele><time>2026-4-30T22:36:58Z</time></trkpt>
<trkpt lat="48.951026916504" lon="2.8784930706024"><ele>93</ele><time>2026-4-30T22:37:1Z</time></trkpt>
<trkpt lat="48.951034545898" lon="2.8786356449127"><ele>93</ele><time>2026-4-30T22:37:4Z</time></trkpt>
<trkpt lat="48.951065063477" lon="2.8787167072296"><ele>93</ele><time>2026-4-30T22:37:7Z</time></trkpt>
<trkpt lat="48.951065063477" lon="2.8787167072296"><ele>93</ele><time>2026-4-30T22:37:10Z</time></trkpt>
<trkpt lat="48.951118469238" lon="2.8788282871246"><ele>93</ele><time>2026-4-30T22:37:13Z</time></trkpt>
<trkpt lat="48.951164245605" lon="2.8788986206055"><ele>93</ele><time>2026-4-30T22:37:16Z</time></trkpt>
<trkpt lat="48.951206207275" lon="2.8789594173431"><ele>93</ele><time>2026-4-30T22:37:19Z</time></trkpt>
<trkpt lat="48.951206207275" lon="2.8789594173431"><ele>93</ele><time>2026-4-30T22:37:22Z</time></trkpt>
<trkpt lat="48.951206207275" lon="2.8789594173431"><ele>93</ele><time>2026-4-30T22:37:25Z</time></trkpt>
<trkpt lat="48.951293945312" lon="2.8790636062622"><ele>93</ele><time>2026-4-30T22:37:28Z</time></trkpt>
<trkpt lat="48.951293945312" lon="2.8790636062622"><ele>93</ele><time>2026-4-30T22:37:31Z</time></trkpt>
<trkpt lat="48.951366424561" lon="2.8791754245758"><ele>94</ele><time>2026-4-30T22:37:34Z</time></trkpt>
<trkpt lat="48.951366424561" lon="2.8791754245758"><ele>94</ele><time>2026-4-30T22:37:37Z</time></trkpt>
<trkpt lat="48.951431274414" lon="2.8792750835419"><ele>94</ele><time>2026-4-30T22:37:40Z</time></trkpt>
<trkpt lat="48.951431274414" lon="2.8792750835419"><ele>94</ele><time>2026-4-30T22:37:43Z</time></trkpt>
<trkpt lat="48.95149230957" lon="2.879387140274"><ele>95</ele><time>2026-4-30T22:37:46Z</time></trkpt>
<trkpt lat="48.95149230957" lon="2.879387140274"><ele>95</ele><time>2026-4-30T22:37:49Z</time></trkpt>
<trkpt lat="48.951549530029" lon="2.8794569969177"><ele>95</ele><time>2026-4-30T22:37:52Z</time></trkpt>
<trkpt lat="48.951549530029" lon="2.8794569969177"><ele>95</ele><time>2026-4-30T22:37:55Z</time></trkpt>
<trkpt lat="48.951637268066" lon="2.8794357776642"><ele>96</ele><time>2026-4-30T22:37:58Z</time></trkpt>
<trkpt lat="48.951637268066" lon="2.8794357776642"><ele>96</ele><time>2026-4-30T22:38:1Z</time></trkpt>
<trkpt lat="48.951728820801" lon="2.8793940544128"><ele>97</ele><time>2026-4-30T22:38:4Z</time></trkpt>
<trkpt lat="48.951835632324" lon="2.8794441223145"><ele>97</ele><time>2026-4-30T22:38:7Z</time></trkpt>
<trkpt lat="48.951934814453" lon="2.8794708251953"><ele>98</ele><time>2026-4-30T22:38:10Z</time></trkpt>
<trkpt lat="48.951934814453" lon="2.8794708251953"><ele>98</ele><time>2026-4-30T22:38:13Z</time></trkpt>
<trkpt lat="48.952053070068" lon="2.8794548511505"><ele>98</ele><time>2026-4-30T22:38:16Z</time></trkpt>
<trkpt lat="48.952136993408" lon="2.8794350624084"><ele>98</ele><time>2026-4-30T22:38:19Z</time></trkpt>
<trkpt lat="48.952224731445" lon="2.8794255256653"><ele>98</ele><time>2026-4-30T22:38:22Z</time></trkpt>
<trkpt lat="48.952320098877" lon="2.8794286251068"><ele>99</ele><time>2026-4-30T22:38:25Z</time></trkpt>
<trkpt lat="48.95240020752" lon="2.8794417381287"><ele>100</ele><time>2026-4-30T22:38:28Z</time></trkpt>
<trkpt lat="48.952476501465" lon="2.8794403076172"><ele>100</ele><time>2026-4-30T22:38:31Z</time></trkpt>
<trkpt lat="48.952575683594" lon="2.8794252872467"><ele>102</ele><time>2026-4-30T22:38:34Z</time></trkpt>
<trkpt lat="48.95267868042" lon="2.8794066905975"><ele>103</ele><time>2026-4-30T22:38:37Z</time></trkpt>
<trkpt lat="48.952793121338" lon="2.8793904781342"><ele>103</ele><time>2026-4-30T22:38:40Z</time></trkpt>
<trkpt lat="48.95288848877" lon="2.8793807029724"><ele>102</ele><time>2026-4-30T22:38:43Z</time></trkpt>
<trkpt lat="48.95295715332" lon="2.8793604373932"><ele>102</ele><time>2026-4-30T22:38:46Z</time></trkpt>
<trkpt lat="48.95295715332" lon="2.8793604373932"><ele>102</ele><time>2026-4-30T22:38:49Z</time></trkpt>
<trkpt lat="48.953037261963" lon="2.8793320655823"><ele>102</ele><time>2026-4-30T22:38:52Z</time></trkpt>
<trkpt lat="48.953037261963" lon="2.8793320655823"><ele>102</ele><time>2026-4-30T22:38:55Z</time></trkpt>
<trkpt lat="48.953037261963" lon="2.8793320655823"><ele>102</ele><time>2026-4-30T22:38:58Z</time></trkpt>
<trkpt lat="48.953037261963" lon="2.8793320655823"><ele>102</ele><time>2026-4-30T22:39:1Z</time></trkpt>
<trkpt lat="48.953037261963" lon="2.8793320655823"><ele>102</ele><time>2026-4-30T22:39:4Z</time></trkpt>
<trkpt lat="48.953037261963" lon="2.8793320655823"><ele>102</ele><time>2026-4-30T22:39:7Z</time></trkpt>
<trkpt lat="48.952976226807" lon="2.8795976638794"><ele>102</ele><time>2026-4-30T22:39:10Z</time></trkpt>
<trkpt lat="48.953033447266" lon="2.8797812461853"><ele>102</ele><time>2026-4-30T22:39:13Z</time></trkpt>
<trkpt lat="48.953071594238" lon="2.8799011707306"><ele>102</ele><time>2026-4-30T22:39:16Z</time></trkpt>
<trkpt lat="48.953071594238" lon="2.8799011707306"><ele>102</ele><time>2026-4-30T22:39:19Z</time></trkpt>
<trkpt lat="48.953094482422" lon="2.8800196647644"><ele>102</ele><time>2026-4-30T22:39:22Z</time></trkpt>
<trkpt lat="48.953113555908" lon="2.8801536560059"><ele>102</ele><time>2026-4-30T22:39:25Z</time></trkpt>
<trkpt lat="48.953128814697" lon="2.8802759647369"><ele>100</ele><time>2026-4-30T22:39:28Z</time></trkpt>
<trkpt lat="48.953144073486" lon="2.8803906440735"><ele>100</ele><time>2026-4-30T22:39:31Z</time></trkpt>
<trkpt lat="48.953151702881" lon="2.8804867267609"><ele>100</ele><time>2026-4-30T22:39:34Z</time></trkpt>
<trkpt lat="48.953155517578" lon="2.8805956840515"><ele>100</ele><time>2026-4-30T22:39:37Z</time></trkpt>
<trkpt lat="48.953155517578" lon="2.8805956840515"><ele>100</ele><time>2026-4-30T22:39:40Z</time></trkpt>
<trkpt lat="48.953151702881" lon="2.8806970119476"><ele>100</ele><time>2026-4-30T22:39:43Z</time></trkpt>
<trkpt lat="48.953140258789" lon="2.8808212280273"><ele>99</ele><time>2026-4-30T22:39:46Z</time></trkpt>
<trkpt lat="48.953128814697" lon="2.8809385299683"><ele>99</ele><time>2026-4-30T22:39:49Z</time></trkpt>
<trkpt lat="48.953128814697" lon="2.8809385299683"><ele>99</ele><time>2026-4-30T22:39:52Z</time></trkpt>
<trkpt lat="48.953117370605" lon="2.8810560703278"><ele>99</ele><time>2026-4-30T22:39:55Z</time></trkpt>
<trkpt lat="48.953105926514" lon="2.8811690807343"><ele>98</ele><time>2026-4-30T22:39:58Z</time></trkpt>
<trkpt lat="48.95308303833" lon="2.881276845932"><ele>98</ele><time>2026-4-30T22:40:1Z</time></trkpt>
<trkpt lat="48.953071594238" lon="2.8813834190369"><ele>98</ele><time>2026-4-30T22:40:4Z</time></trkpt>
<trkpt lat="48.953067779541" lon="2.8815178871155"><ele>98</ele><time>2026-4-30T22:40:7Z</time></trkpt>
<trkpt lat="48.953067779541" lon="2.8816215991974"><ele>97</ele><time>2026-4-30T22:40:10Z</time></trkpt>
<trkpt lat="48.953067779541" lon="2.8816215991974"><ele>97</ele><time>2026-4-30T22:40:13Z</time></trkpt>
<trkpt lat="48.953063964844" lon="2.8817846775055"><ele>97</ele><time>2026-4-30T22:40:16Z</time></trkpt>
<trkpt lat="48.953063964844" lon="2.8817846775055"><ele>97</ele><time>2026-4-30T22:40:19Z</time></trkpt>
<trkpt lat="48.953063964844" lon="2.8819508552551"><ele>97</ele><time>2026-4-30T22:40:22Z</time></trkpt>
<trkpt lat="48.953060150146" lon="2.882045507431"><ele>97</ele><time>2026-4-30T22:40:25Z</time></trkpt>
<trkpt lat="48.953052520752" lon="2.8821339607239"><ele>97</ele><time>2026-4-30T22:40:28Z</time></trkpt>
<trkpt lat="48.953044891357" lon="2.8822400569916"><ele>97</ele><time>2026-4-30T22:40:31Z</time></trkpt>
<trkpt lat="48.953037261963" lon="2.8823373317719"><ele>97</ele><time>2026-4-30T22:40:34Z</time></trkpt>
<trkpt lat="48.953022003174" lon="2.882440328598"><ele>97</ele><time>2026-4-30T22:40:37Z</time></trkpt>
<trkpt lat="48.953014373779" lon="2.8825666904449"><ele>95</ele><time>2026-4-30T22:40:40Z</time></trkpt>
<trkpt lat="48.953002929688" lon="2.8826997280121"><ele>94</ele><time>2026-4-30T22:40:43Z</time></trkpt>
<trkpt lat="48.952995300293" lon="2.8828349113464"><ele>94</ele><time>2026-4-30T22:40:46Z</time></trkpt>
<trkpt lat="48.952980041504" lon="2.8829483985901"><ele>94</ele><time>2026-4-30T22:40:49Z</time></trkpt>
<trkpt lat="48.952938079834" lon="2.8830153942108"><ele>94</ele><time>2026-4-30T22:40:52Z</time></trkpt>
<trkpt lat="48.952938079834" lon="2.8830153942108"><ele>94</ele><time>2026-4-30T22:40:55Z</time></trkpt>
<trkpt lat="48.952831268311" lon="2.8830628395081"><ele>94</ele><time>2026-4-30T22:40:58Z</time></trkpt>
<trkpt lat="48.952739715576" lon="2.8830761909485"><ele>96</ele><time>2026-4-30T22:41:1Z</time></trkpt>
<trkpt lat="48.952640533447" lon="2.8830878734589"><ele>96</ele><time>2026-4-30T22:41:4Z</time></trkpt>
<trkpt lat="48.952537536621" lon="2.8831129074097"><ele>96</ele><time>2026-4-30T22:41:7Z</time></trkpt>
<trkpt lat="48.952449798584" lon="2.8831472396851"><ele>94</ele><time>2026-4-30T22:41:10Z</time></trkpt>
<trkpt lat="48.952365875244" lon="2.8831722736359"><ele>93</ele><time>2026-4-30T22:41:13Z</time></trkpt>
<trkpt lat="48.952289581299" lon="2.8831925392151"><ele>92</ele><time>2026-4-30T22:41:16Z</time></trkpt>
<trkpt lat="48.952217102051" lon="2.8832156658173"><ele>92</ele><time>2026-4-30T22:41:19Z</time></trkpt>
<trkpt lat="48.952144622803" lon="2.8832385540009"><ele>92</ele><time>2026-4-30T22:41:22Z</time></trkpt>
<trkpt lat="48.952072143555" lon="2.8832643032074"><ele>92</ele><time>2026-4-30T22:41:25Z</time></trkpt>
<trkpt lat="48.951999664307" lon="2.8832893371582"><ele>92</ele><time>2026-4-30T22:41:28Z</time></trkpt>
<trkpt lat="48.95191192627" lon="2.8833193778992"><ele>92</ele><time>2026-4-30T22:41:31Z</time></trkpt>
<trkpt lat="48.95191192627" lon="2.8833193778992"><ele>92</ele><time>2026-4-30T22:41:34Z</time></trkpt>
<trkpt lat="48.95182800293" lon="2.8833570480347"><ele>92</ele><time>2026-4-30T22:41:37Z</time></trkpt>
<trkpt lat="48.951755523682" lon="2.8833899497986"><ele>92</ele><time>2026-4-30T22:41:40Z</time></trkpt>
<trkpt lat="48.951698303223" lon="2.8834331035614"><ele>92</ele><time>2026-4-30T22:41:43Z</time></trkpt>
<trkpt lat="48.951637268066" lon="2.8834660053253"><ele>92</ele><time>2026-4-30T22:41:46Z</time></trkpt>
<trkpt lat="48.951637268066" lon="2.8834660053253"><ele>92</ele><time>2026-4-30T22:41:49Z</time></trkpt>
<trkpt lat="48.951522827148" lon="2.8834989070892"><ele>92</ele><time>2026-4-30T22:41:52Z</time></trkpt>
<trkpt lat="48.951461791992" lon="2.8835163116455"><ele>92</ele><time>2026-4-30T22:41:55Z</time></trkpt>
<trkpt lat="48.951393127441" lon="2.8835408687592"><ele>92</ele><time>2026-4-30T22:41:58Z</time></trkpt>
<trkpt lat="48.951328277588" lon="2.8835608959198"><ele>92</ele><time>2026-4-30T22:42:1Z</time></trkpt>
<trkpt lat="48.951259613037" lon="2.883584022522"><ele>92</ele><time>2026-4-30T22:42:4Z</time></trkpt>
<trkpt lat="48.951175689697" lon="2.8836276531219"><ele>92</ele><time>2026-4-30T22:42:7Z</time></trkpt>
<trkpt lat="48.951103210449" lon="2.8836631774902"><ele>92</ele><time>2026-4-30T22:42:10Z</time></trkpt>
<trkpt lat="48.951103210449" lon="2.8836631774902"><ele>92</ele><time>2026-4-30T22:42:13Z</time></trkpt>
<trkpt lat="48.951023101807" lon="2.8836994171143"><ele>92</ele><time>2026-4-30T22:42:16Z</time></trkpt>
<trkpt lat="48.950939178467" lon="2.8837397098541"><ele>92</ele><time>2026-4-30T22:42:19Z</time></trkpt>
<trkpt lat="48.95085144043" lon="2.8837742805481"><ele>92</ele><time>2026-4-30T22:42:22Z</time></trkpt>
<trkpt lat="48.950759887695" lon="2.8838095664978"><ele>91</ele><time>2026-4-30T22:42:25Z</time></trkpt>
<trkpt lat="48.950675964355" lon="2.8838379383087"><ele>91</ele><time>2026-4-30T22:42:28Z</time></trkpt>
<trkpt lat="48.950588226318" lon="2.8838641643524"><ele>91</ele><time>2026-4-30T22:42:31Z</time></trkpt>
<trkpt lat="48.950466156006" lon="2.8838992118835"><ele>91</ele><time>2026-4-30T22:42:34Z</time></trkpt>
<trkpt lat="48.950347900391" lon="2.883939743042"><ele>91</ele><time>2026-4-30T22:42:37Z</time></trkpt>
<trkpt lat="48.950218200684" lon="2.8839933872223"><ele>91</ele><time>2026-4-30T22:42:40Z</time></trkpt>
<trkpt lat="48.950103759766" lon="2.8840599060059"><ele>91</ele><time>2026-4-30T22:42:43Z</time></trkpt>
<trkpt lat="48.950008392334" lon="2.884131193161"><ele>91</ele><time>2026-4-30T22:42:46Z</time></trkpt>
<trkpt lat="48.949913024902" lon="2.8841972351074"><ele>90</ele><time>2026-4-30T22:42:49Z</time></trkpt>
<trkpt lat="48.949825286865" lon="2.8842508792877"><ele>89</ele><time>2026-4-30T22:42:52Z</time></trkpt>
<trkpt lat="48.949741363525" lon="2.8842966556549"><ele>88</ele><time>2026-4-30T22:42:55Z</time></trkpt>
<trkpt lat="48.94966506958" lon="2.8843379020691"><ele>88</ele><time>2026-4-30T22:42:58Z</time></trkpt>
<trkpt lat="48.949607849121" lon="2.8843722343445"><ele>88</ele><time>2026-4-30T22:43:1Z</time></trkpt>
<trkpt lat="48.949546813965" lon="2.8844020366669"><ele>88</ele><time>2026-4-30T22:43:4Z</time></trkpt>
<trkpt lat="48.949546813965" lon="2.8844020366669"><ele>88</ele><time>2026-4-30T22:43:7Z</time></trkpt>
<trkpt lat="48.949466705322" lon="2.8844249248505"><ele>88</ele><time>2026-4-30T22:43:10Z</time></trkpt>
<trkpt lat="48.949466705322" lon="2.8844249248505"><ele>88</ele><time>2026-4-30T22:43:13Z</time></trkpt>
<trkpt lat="48.949394226074" lon="2.884361743927"><ele>88</ele><time>2026-4-30T22:43:16Z</time></trkpt>
<trkpt lat="48.949394226074" lon="2.884361743927"><ele>88</ele><time>2026-4-30T22:43:19Z</time></trkpt>
<trkpt lat="48.949375152588" lon="2.8842723369598"><ele>88</ele><time>2026-4-30T22:43:22Z</time></trkpt>
<trkpt lat="48.949375152588" lon="2.8842723369598"><ele>88</ele><time>2026-4-30T22:43:25Z</time></trkpt>
<trkpt lat="48.949375152588" lon="2.8842723369598"><ele>88</ele><time>2026-4-30T22:43:28Z</time></trkpt>
<trkpt lat="48.949375152588" lon="2.8842723369598"><ele>88</ele><time>2026-4-30T22:43:31Z</time></trkpt>
<trkpt lat="48.949375152588" lon="2.8842723369598"><ele>88</ele><time>2026-4-30T22:43:34Z</time></trkpt>
<trkpt lat="48.94934463501" lon="2.8841664791107"><ele>89</ele><time>2026-4-30T22:43:37Z</time></trkpt>
<trkpt lat="48.94934463501" lon="2.8841664791107"><ele>89</ele><time>2026-4-30T22:43:40Z</time></trkpt>
<trkpt lat="48.94934463501" lon="2.8841664791107"><ele>89</ele><time>2026-4-30T22:43:43Z</time></trkpt>
<trkpt lat="48.94934463501" lon="2.8841664791107"><ele>89</ele><time>2026-4-30T22:43:46Z</time></trkpt>
<trkpt lat="48.94934463501" lon="2.8841664791107"><ele>89</ele><time>2026-4-30T22:43:49Z</time></trkpt>
<trkpt lat="48.94934463501" lon="2.8841664791107"><ele>89</ele><time>2026-4-30T22:43:52Z</time></trkpt>
<trkpt lat="48.94934463501" lon="2.8841664791107"><ele>89</ele><time>2026-4-30T22:43:55Z</time></trkpt>
<trkpt lat="48.94934463501" lon="2.8841664791107"><ele>89</ele><time>2026-4-30T22:43:58Z</time></trkpt>
<trkpt lat="48.94926071167" lon="2.8840885162354"><ele>89</ele><time>2026-4-30T22:44:1Z</time></trkpt>
<trkpt lat="48.94926071167" lon="2.8840885162354"><ele>89</ele><time>2026-4-30T22:44:4Z</time></trkpt>
<trkpt lat="48.94926071167" lon="2.8840885162354"><ele>89</ele><time>2026-4-30T22:44:7Z</time></trkpt>
<trkpt lat="48.94926071167" lon="2.8840885162354"><ele>89</ele><time>2026-4-30T22:44:10Z</time></trkpt>
<trkpt lat="48.949195861816" lon="2.8840353488922"><ele>90</ele><time>2026-4-30T22:44:13Z</time></trkpt>
<trkpt lat="48.949119567871" lon="2.8839952945709"><ele>90</ele><time>2026-4-30T22:44:16Z</time></trkpt>
<trkpt lat="48.949012756348" lon="2.8839588165283"><ele>90</ele><time>2026-4-30T22:44:19Z</time></trkpt>
<trkpt lat="48.948947906494" lon="2.8839802742004"><ele>90</ele><time>2026-4-30T22:44:22Z</time></trkpt>
<trkpt lat="48.948947906494" lon="2.8839802742004"><ele>90</ele><time>2026-4-30T22:44:25Z</time></trkpt>
<trkpt lat="48.948947906494" lon="2.8839802742004"><ele>90</ele><time>2026-4-30T22:44:28Z</time></trkpt>
<trkpt lat="48.948879241943" lon="2.8839600086212"><ele>90</ele><time>2026-4-30T22:44:31Z</time></trkpt>
<trkpt lat="48.948810577393" lon="2.8839821815491"><ele>90</ele><time>2026-4-30T22:44:34Z</time></trkpt>
<trkpt lat="48.948757171631" lon="2.8840088844299"><ele>90</ele><time>2026-4-30T22:44:37Z</time></trkpt>
<trkpt lat="48.948669433594" lon="2.884094953537"><ele>89</ele><time>2026-4-30T22:44:40Z</time></trkpt>
<trkpt lat="48.948616027832" lon="2.8841605186462"><ele>89</ele><time>2026-4-30T22:44:43Z</time></trkpt>
<trkpt lat="48.948558807373" lon="2.8842122554779"><ele>89</ele><time>2026-4-30T22:44:46Z</time></trkpt>
<trkpt lat="48.948501586914" lon="2.8842508792877"><ele>89</ele><time>2026-4-30T22:44:49Z</time></trkpt>
<trkpt lat="48.948448181152" lon="2.8842916488647"><ele>89</ele><time>2026-4-30T22:44:52Z</time></trkpt>
<trkpt lat="48.948390960693" lon="2.884387254715"><ele>89</ele><time>2026-4-30T22:44:55Z</time></trkpt>
<trkpt lat="48.948390960693" lon="2.884387254715"><ele>89</ele><time>2026-4-30T22:44:58Z</time></trkpt>
<trkpt lat="48.948329925537" lon="2.8844361305237"><ele>89</ele><time>2026-4-30T22:45:1Z</time></trkpt>
<trkpt lat="48.948329925537" lon="2.8844361305237"><ele>89</ele><time>2026-4-30T22:45:4Z</time></trkpt>
<trkpt lat="48.9482421875" lon="2.8845090866089"><ele>89</ele><time>2026-4-30T22:45:7Z</time></trkpt>
<trkpt lat="48.9482421875" lon="2.8845090866089"><ele>89</ele><time>2026-4-30T22:45:10Z</time></trkpt>
<trkpt lat="48.948162078857" lon="2.8845944404602"><ele>89</ele><time>2026-4-30T22:45:13Z</time></trkpt>
<trkpt lat="48.948162078857" lon="2.8845944404602"><ele>89</ele><time>2026-4-30T22:45:16Z</time></trkpt>
<trkpt lat="48.948101043701" lon="2.8846657276154"><ele>89</ele><time>2026-4-30T22:45:19Z</time></trkpt>
<trkpt lat="48.948101043701" lon="2.8846657276154"><ele>89</ele><time>2026-4-30T22:45:22Z</time></trkpt>
<trkpt lat="48.948028564453" lon="2.884747505188"><ele>89</ele><time>2026-4-30T22:45:25Z</time></trkpt>
<trkpt lat="48.947978973389" lon="2.8847868442535"><ele>89</ele><time>2026-4-30T22:45:28Z</time></trkpt>
<trkpt lat="48.947906494141" lon="2.8848457336426"><ele>89</ele><time>2026-4-30T22:45:31Z</time></trkpt>
<trkpt lat="48.947822570801" lon="2.8849241733551"><ele>89</ele><time>2026-4-30T22:45:34Z</time></trkpt>
<trkpt lat="48.947822570801" lon="2.8849241733551"><ele>89</ele><time>2026-4-30T22:45:37Z</time></trkpt>
<trkpt lat="48.947761535645" lon="2.8849880695343"><ele>89</ele><time>2026-4-30T22:45:40Z</time></trkpt>
<trkpt lat="48.94771194458" lon="2.8850424289703"><ele>89</ele><time>2026-4-30T22:45:43Z</time></trkpt>
<trkpt lat="48.94771194458" lon="2.8850424289703"><ele>89</ele><time>2026-4-30T22:45:46Z</time></trkpt>
<trkpt lat="48.947612762451" lon="2.8851194381714"><ele>89</ele><time>2026-4-30T22:45:49Z</time></trkpt>
<trkpt lat="48.947547912598" lon="2.8851609230042"><ele>89</ele><time>2026-4-30T22:45:52Z</time></trkpt>
<trkpt lat="48.94747543335" lon="2.88520860672"><ele>89</ele><time>2026-4-30T22:45:55Z</time></trkpt>
<trkpt lat="48.947418212891" lon="2.8852589130402"><ele>89</ele><time>2026-4-30T22:45:58Z</time></trkpt>
<trkpt lat="48.947360992432" lon="2.8853042125702"><ele>89</ele><time>2026-4-30T22:46:1Z</time></trkpt>
<trkpt lat="48.947299957275" lon="2.88534116745"><ele>90</ele><time>2026-4-30T22:46:4Z</time></trkpt>
<trkpt lat="48.947231292725" lon="2.8853843212128"><ele>90</ele><time>2026-4-30T22:46:7Z</time></trkpt>
<trkpt lat="48.947162628174" lon="2.8854162693024"><ele>90</ele><time>2026-4-30T22:46:10Z</time></trkpt>
<trkpt lat="48.947090148926" lon="2.8854420185089"><ele>90</ele><time>2026-4-30T22:46:13Z</time></trkpt>
<trkpt lat="48.947025299072" lon="2.8854763507843"><ele>90</ele><time>2026-4-30T22:46:16Z</time></trkpt>
<trkpt lat="48.946971893311" lon="2.8855156898499"><ele>90</ele><time>2026-4-30T22:46:19Z</time></trkpt>
<trkpt lat="48.946914672852" lon="2.8855674266815"><ele>90</ele><time>2026-4-30T22:46:22Z</time></trkpt>
<trkpt lat="48.946849822998" lon="2.8856205940247"><ele>89</ele><time>2026-4-30T22:46:25Z</time></trkpt>
<trkpt lat="48.946792602539" lon="2.8856897354126"><ele>89</ele><time>2026-4-30T22:46:28Z</time></trkpt>
<trkpt lat="48.946727752686" lon="2.8857414722443"><ele>89</ele><time>2026-4-30T22:46:31Z</time></trkpt>
<trkpt lat="48.946659088135" lon="2.8857707977295"><ele>89</ele><time>2026-4-30T22:46:34Z</time></trkpt>
<trkpt lat="48.946582794189" lon="2.8858060836792"><ele>89</ele><time>2026-4-30T22:46:37Z</time></trkpt>
<trkpt lat="48.946582794189" lon="2.8858060836792"><ele>89</ele><time>2026-4-30T22:46:40Z</time></trkpt>
<trkpt lat="48.946521759033" lon="2.8858654499054"><ele>89</ele><time>2026-4-30T22:46:43Z</time></trkpt>
<trkpt lat="48.946521759033" lon="2.8858654499054"><ele>89</ele><time>2026-4-30T22:46:46Z</time></trkpt>
<trkpt lat="48.946521759033" lon="2.8858654499054"><ele>89</ele><time>2026-4-30T22:46:49Z</time></trkpt>
<trkpt lat="48.946521759033" lon="2.8858654499054"><ele>89</ele><time>2026-4-30T22:46:52Z</time></trkpt>
<trkpt lat="48.946407318115" lon="2.8858766555786"><ele>89</ele><time>2026-4-30T22:46:55Z</time></trkpt>
<trkpt lat="48.946342468262" lon="2.8858933448792"><ele>89</ele><time>2026-4-30T22:46:58Z</time></trkpt>
<trkpt lat="48.946285247803" lon="2.8859117031097"><ele>89</ele><time>2026-4-30T22:47:1Z</time></trkpt>
<trkpt lat="48.946285247803" lon="2.8859117031097"><ele>89</ele><time>2026-4-30T22:47:4Z</time></trkpt>
<trkpt lat="48.946155548096" lon="2.8859510421753"><ele>90</ele><time>2026-4-30T22:47:7Z</time></trkpt>
<trkpt lat="48.946063995361" lon="2.8859834671021"><ele>90</ele><time>2026-4-30T22:47:10Z</time></trkpt>
<trkpt lat="48.945991516113" lon="2.8860204219818"><ele>90</ele><time>2026-4-30T22:47:13Z</time></trkpt>
<trkpt lat="48.945991516113" lon="2.8860204219818"><ele>90</ele><time>2026-4-30T22:47:16Z</time></trkpt>
<trkpt lat="48.945915222168" lon="2.8860626220703"><ele>90</ele><time>2026-4-30T22:47:19Z</time></trkpt>
<trkpt lat="48.945850372314" lon="2.8860967159271"><ele>91</ele><time>2026-4-30T22:47:22Z</time></trkpt>
<trkpt lat="48.945793151855" lon="2.8861269950867"><ele>91</ele><time>2026-4-30T22:47:25Z</time></trkpt>
<trkpt lat="48.945724487305" lon="2.8861644268036"><ele>91</ele><time>2026-4-30T22:47:28Z</time></trkpt>
<trkpt lat="48.945663452148" lon="2.8861927986145"><ele>91</ele><time>2026-4-30T22:47:31Z</time></trkpt>
<trkpt lat="48.945602416992" lon="2.8862295150757"><ele>91</ele><time>2026-4-30T22:47:34Z</time></trkpt>
<trkpt lat="48.945602416992" lon="2.8862295150757"><ele>91</ele><time>2026-4-30T22:47:37Z</time></trkpt>
<trkpt lat="48.945526123047" lon="2.8862564563751"><ele>91</ele><time>2026-4-30T22:47:40Z</time></trkpt>
<trkpt lat="48.945526123047" lon="2.8862564563751"><ele>91</ele><time>2026-4-30T22:47:43Z</time></trkpt>
<trkpt lat="48.945419311523" lon="2.8862798213959"><ele>92</ele><time>2026-4-30T22:47:46Z</time></trkpt>
<trkpt lat="48.945346832275" lon="2.8862874507904"><ele>92</ele><time>2026-4-30T22:47:49Z</time></trkpt>
<trkpt lat="48.945266723633" lon="2.8863070011139"><ele>92</ele><time>2026-4-30T22:47:52Z</time></trkpt>
<trkpt lat="48.945266723633" lon="2.8863070011139"><ele>92</ele><time>2026-4-30T22:47:55Z</time></trkpt>
<trkpt lat="48.945194244385" lon="2.8863365650177"><ele>92</ele><time>2026-4-30T22:47:58Z</time></trkpt>
<trkpt lat="48.945095062256" lon="2.8863723278046"><ele>93</ele><time>2026-4-30T22:48:1Z</time></trkpt>
<trkpt lat="48.94499206543" lon="2.8864092826843"><ele>93</ele><time>2026-4-30T22:48:4Z</time></trkpt>
<trkpt lat="48.94499206543" lon="2.8864092826843"><ele>93</ele><time>2026-4-30T22:48:7Z</time></trkpt>
<trkpt lat="48.944892883301" lon="2.8864579200745"><ele>93</ele><time>2026-4-30T22:48:10Z</time></trkpt>
<trkpt lat="48.944808959961" lon="2.8865246772766"><ele>93</ele><time>2026-4-30T22:48:13Z</time></trkpt>
<trkpt lat="48.944744110107" lon="2.8865892887115"><ele>93</ele><time>2026-4-30T22:48:16Z</time></trkpt>
<trkpt lat="48.944744110107" lon="2.8865892887115"><ele>93</ele><time>2026-4-30T22:48:19Z</time></trkpt>
<trkpt lat="48.944683074951" lon="2.8866529464722"><ele>93</ele><time>2026-4-30T22:48:22Z</time></trkpt>
<trkpt lat="48.944622039795" lon="2.8867065906525"><ele>93</ele><time>2026-4-30T22:48:25Z</time></trkpt>
<trkpt lat="48.944549560547" lon="2.886786699295"><ele>93</ele><time>2026-4-30T22:48:28Z</time></trkpt>
<trkpt lat="48.944549560547" lon="2.886786699295"><ele>93</ele><time>2026-4-30T22:48:31Z</time></trkpt>
<trkpt lat="48.944473266602" lon="2.8868663311005"><ele>93</ele><time>2026-4-30T22:48:34Z</time></trkpt>
<trkpt lat="48.944385528564" lon="2.8869428634644"><ele>93</ele><time>2026-4-30T22:48:37Z</time></trkpt>
<trkpt lat="48.944301605225" lon="2.8869650363922"><ele>94</ele><time>2026-4-30T22:48:40Z</time></trkpt>
<trkpt lat="48.944301605225" lon="2.8869650363922"><ele>94</ele><time>2026-4-30T22:48:43Z</time></trkpt>
<trkpt lat="48.944194793701" lon="2.8869779109955"><ele>93</ele><time>2026-4-30T22:48:46Z</time></trkpt>
<trkpt lat="48.944118499756" lon="2.8870215415955"><ele>93</ele><time>2026-4-30T22:48:49Z</time></trkpt>
<trkpt lat="48.944046020508" lon="2.8870992660522"><ele>93</ele><time>2026-4-30T22:48:52Z</time></trkpt>
<trkpt lat="48.943954467773" lon="2.8872106075287"><ele>93</ele><time>2026-4-30T22:48:55Z</time></trkpt>
<trkpt lat="48.943878173828" lon="2.8872666358948"><ele>93</ele><time>2026-4-30T22:48:58Z</time></trkpt>
<trkpt lat="48.943809509277" lon="2.8873233795166"><ele>94</ele><time>2026-4-30T22:49:1Z</time></trkpt>
<trkpt lat="48.943752288818" lon="2.8873934745789"><ele>94</ele><time>2026-4-30T22:49:4Z</time></trkpt>
<trkpt lat="48.943695068359" lon="2.887526512146"><ele>94</ele><time>2026-4-30T22:49:7Z</time></trkpt>
<trkpt lat="48.9436378479" lon="2.8876965045929"><ele>94</ele><time>2026-4-30T22:49:10Z</time></trkpt>
<trkpt lat="48.943607330322" lon="2.8878383636475"><ele>94</ele><time>2026-4-30T22:49:13Z</time></trkpt>
<trkpt lat="48.943561553955" lon="2.8879053592682"><ele>94</ele><time>2026-4-30T22:49:16Z</time></trkpt>
<trkpt lat="48.943561553955" lon="2.8879053592682"><ele>94</ele><time>2026-4-30T22:49:19Z</time></trkpt>
<trkpt lat="48.943504333496" lon="2.8879764080048"><ele>94</ele><time>2026-4-30T22:49:22Z</time></trkpt>
<trkpt lat="48.943439483643" lon="2.8880910873413"><ele>94</ele><time>2026-4-30T22:49:25Z</time></trkpt>
<trkpt lat="48.943378448486" lon="2.8881962299347"><ele>94</ele><time>2026-4-30T22:49:28Z</time></trkpt>
<trkpt lat="48.943344116211" lon="2.8882706165314"><ele>94</ele><time>2026-4-30T22:49:31Z</time></trkpt>
<trkpt lat="48.943283081055" lon="2.8883275985718"><ele>94</ele><time>2026-4-30T22:49:34Z</time></trkpt>
<trkpt lat="48.943210601807" lon="2.8883943557739"><ele>94</ele><time>2026-4-30T22:49:37Z</time></trkpt>
<trkpt lat="48.943210601807" lon="2.8883943557739"><ele>94</ele><time>2026-4-30T22:49:40Z</time></trkpt>
<trkpt lat="48.943138122559" lon="2.8884766101837"><ele>94</ele><time>2026-4-30T22:49:43Z</time></trkpt>
<trkpt lat="48.943050384521" lon="2.8885638713837"><ele>94</ele><time>2026-4-30T22:49:46Z</time></trkpt>
<trkpt lat="48.942970275879" lon="2.8886575698853"><ele>94</ele><time>2026-4-30T22:49:49Z</time></trkpt>
<trkpt lat="48.942970275879" lon="2.8886575698853"><ele>94</ele><time>2026-4-30T22:49:52Z</time></trkpt>
<trkpt lat="48.942893981934" lon="2.8887598514557"><ele>94</ele><time>2026-4-30T22:49:55Z</time></trkpt>
<trkpt lat="48.94282913208" lon="2.8888335227966"><ele>94</ele><time>2026-4-30T22:49:58Z</time></trkpt>
<trkpt lat="48.942768096924" lon="2.8889143466949"><ele>95</ele><time>2026-4-30T22:50:1Z</time></trkpt>
<trkpt lat="48.942722320557" lon="2.8889918327332"><ele>95</ele><time>2026-4-30T22:50:4Z</time></trkpt>
<trkpt lat="48.942680358887" lon="2.88907289505"><ele>95</ele><time>2026-4-30T22:50:7Z</time></trkpt>
<trkpt lat="48.942630767822" lon="2.8891549110413"><ele>95</ele><time>2026-4-30T22:50:10Z</time></trkpt>
<trkpt lat="48.942554473877" lon="2.8892242908478"><ele>95</ele><time>2026-4-30T22:50:13Z</time></trkpt>
<trkpt lat="48.94246673584" lon="2.8892862796783"><ele>95</ele><time>2026-4-30T22:50:16Z</time></trkpt>
<trkpt lat="48.942375183105" lon="2.8893618583679"><ele>95</ele><time>2026-4-30T22:50:19Z</time></trkpt>
<trkpt lat="48.942375183105" lon="2.8893618583679"><ele>95</ele><time>2026-4-30T22:50:22Z</time></trkpt>
<trkpt lat="48.942314147949" lon="2.8893916606903"><ele>94</ele><time>2026-4-30T22:50:25Z</time></trkpt>
<trkpt lat="48.942314147949" lon="2.8893916606903"><ele>94</ele><time>2026-4-30T22:50:28Z</time></trkpt>
<trkpt lat="48.942314147949" lon="2.8893916606903"><ele>94</ele><time>2026-4-30T22:50:31Z</time></trkpt>
<trkpt lat="48.942314147949" lon="2.8893916606903"><ele>94</ele><time>2026-4-30T22:50:34Z</time></trkpt>
<trkpt lat="48.942314147949" lon="2.8893916606903"><ele>94</ele><time>2026-4-30T22:50:37Z</time></trkpt>
<trkpt lat="48.942314147949" lon="2.8893916606903"><ele>94</ele><time>2026-4-30T22:50:40Z</time></trkpt>
<trkpt lat="48.942260742188" lon="2.8894517421722"><ele>92</ele><time>2026-4-30T22:50:43Z</time></trkpt>
<trkpt lat="48.942260742188" lon="2.8894517421722"><ele>92</ele><time>2026-4-30T22:50:46Z</time></trkpt>
<trkpt lat="48.942260742188" lon="2.8894517421722"><ele>92</ele><time>2026-4-30T22:50:49Z</time></trkpt>
<trkpt lat="48.942268371582" lon="2.8895175457001"><ele>93</ele><time>2026-4-30T22:50:52Z</time></trkpt>
<trkpt lat="48.942268371582" lon="2.8895175457001"><ele>93</ele><time>2026-4-30T22:50:55Z</time></trkpt>
<trkpt lat="48.942268371582" lon="2.8895175457001"><ele>93</ele><time>2026-4-30T22:50:58Z</time></trkpt>
<trkpt lat="48.942268371582" lon="2.8895175457001"><ele>93</ele><time>2026-4-30T22:51:1Z</time></trkpt>
<trkpt lat="48.942268371582" lon="2.8895175457001"><ele>93</ele><time>2026-4-30T22:51:4Z</time></trkpt>
<trkpt lat="48.942317962646" lon="2.8894882202148"><ele>93</ele><time>2026-4-30T22:51:7Z</time></trkpt>
<trkpt lat="48.942317962646" lon="2.8894882202148"><ele>93</ele><time>2026-4-30T22:51:10Z</time></trkpt>
<trkpt lat="48.942317962646" lon="2.8894882202148"><ele>93</ele><time>2026-4-30T22:51:13Z</time></trkpt>
<trkpt lat="48.942409515381" lon="2.8892416954041"><ele>87</ele><time>2026-4-30T22:51:16Z</time></trkpt>
<trkpt lat="48.942409515381" lon="2.8892416954041"><ele>87</ele><time>2026-4-30T22:51:19Z</time></trkpt>
<trkpt lat="48.942409515381" lon="2.8892416954041"><ele>87</ele><time>2026-4-30T22:51:22Z</time></trkpt>
<trkpt lat="48.942409515381" lon="2.8892416954041"><ele>87</ele><time>2026-4-30T22:51:25Z</time></trkpt>
<trkpt lat="48.9423828125" lon="2.8892459869385"><ele>89</ele><time>2026-4-30T22:51:28Z</time></trkpt>
<trkpt lat="48.9423828125" lon="2.8892459869385"><ele>89</ele><time>2026-4-30T22:51:31Z</time></trkpt>
<trkpt lat="48.942317962646" lon="2.889280796051"><ele>89</ele><time>2026-4-30T22:51:34Z</time></trkpt>
<trkpt lat="48.942317962646" lon="2.889280796051"><ele>89</ele><time>2026-4-30T22:51:37Z</time></trkpt>
<trkpt lat="48.942317962646" lon="2.889280796051"><ele>89</ele><time>2026-4-30T22:51:40Z</time></trkpt>
<trkpt lat="48.942317962646" lon="2.8894662857056"><ele>93</ele><time>2026-4-30T22:51:43Z</time></trkpt>
<trkpt lat="48.942317962646" lon="2.8894662857056"><ele>93</ele><time>2026-4-30T22:51:46Z</time></trkpt>
<trkpt lat="48.942317962646" lon="2.8894662857056"><ele>93</ele><time>2026-4-30T22:51:49Z</time></trkpt>
<trkpt lat="48.942321777344" lon="2.8894350528717"><ele>90</ele><time>2026-4-30T22:51:52Z</time></trkpt>
<trkpt lat="48.942321777344" lon="2.8894350528717"><ele>90</ele><time>2026-4-30T22:51:55Z</time></trkpt>
<trkpt lat="48.942321777344" lon="2.8894350528717"><ele>90</ele><time>2026-4-30T22:51:58Z</time></trkpt>
<trkpt lat="48.942287445068" lon="2.8894674777985"><ele>89</ele><time>2026-4-30T22:52:1Z</time></trkpt>
<trkpt lat="48.942188262939" lon="2.8895599842072"><ele>89</ele><time>2026-4-30T22:52:4Z</time></trkpt>
<trkpt lat="48.942188262939" lon="2.8895599842072"><ele>89</ele><time>2026-4-30T22:52:7Z</time></trkpt>
<trkpt lat="48.942134857178" lon="2.8896155357361"><ele>89</ele><time>2026-4-30T22:52:10Z</time></trkpt>
<trkpt lat="48.942039489746" lon="2.8897070884705"><ele>89</ele><time>2026-4-30T22:52:13Z</time></trkpt>
<trkpt lat="48.942039489746" lon="2.8897070884705"><ele>89</ele><time>2026-4-30T22:52:16Z</time></trkpt>
<trkpt lat="48.941982269287" lon="2.8897643089294"><ele>89</ele><time>2026-4-30T22:52:19Z</time></trkpt>
<trkpt lat="48.941925048828" lon="2.8898067474365"><ele>89</ele><time>2026-4-30T22:52:22Z</time></trkpt>
<trkpt lat="48.941867828369" lon="2.8898324966431"><ele>89</ele><time>2026-4-30T22:52:25Z</time></trkpt>
<trkpt lat="48.941867828369" lon="2.8898324966431"><ele>89</ele><time>2026-4-30T22:52:28Z</time></trkpt>
<trkpt lat="48.941806793213" lon="2.8898360729218"><ele>89</ele><time>2026-4-30T22:52:31Z</time></trkpt>
<trkpt lat="48.941741943359" lon="2.8898453712463"><ele>89</ele><time>2026-4-30T22:52:34Z</time></trkpt>
<trkpt lat="48.941741943359" lon="2.8898453712463"><ele>89</ele><time>2026-4-30T22:52:37Z</time></trkpt>
<trkpt lat="48.941638946533" lon="2.8899087905884"><ele>89</ele><time>2026-4-30T22:52:40Z</time></trkpt>
<trkpt lat="48.941585540771" lon="2.8899483680725"><ele>89</ele><time>2026-4-30T22:52:43Z</time></trkpt>
<trkpt lat="48.941535949707" lon="2.8900008201599"><ele>89</ele><time>2026-4-30T22:52:46Z</time></trkpt>
<trkpt lat="48.941535949707" lon="2.8900008201599"><ele>89</ele><time>2026-4-30T22:52:49Z</time></trkpt>
<trkpt lat="48.941478729248" lon="2.8900637626648"><ele>89</ele><time>2026-4-30T22:52:52Z</time></trkpt>
<trkpt lat="48.941478729248" lon="2.8900637626648"><ele>89</ele><time>2026-4-30T22:52:55Z</time></trkpt>
<trkpt lat="48.941383361816" lon="2.8901522159576"><ele>89</ele><time>2026-4-30T22:52:58Z</time></trkpt>
<trkpt lat="48.941383361816" lon="2.8901522159576"><ele>89</ele><time>2026-4-30T22:53:1Z</time></trkpt>
<trkpt lat="48.941333770752" lon="2.8902049064636"><ele>89</ele><time>2026-4-30T22:53:4Z</time></trkpt>
<trkpt lat="48.941284179688" lon="2.8902580738068"><ele>89</ele><time>2026-4-30T22:53:7Z</time></trkpt>
<trkpt lat="48.941284179688" lon="2.8902580738068"><ele>89</ele><time>2026-4-30T22:53:10Z</time></trkpt>
<trkpt lat="48.941207885742" lon="2.8903107643127"><ele>90</ele><time>2026-4-30T22:53:13Z</time></trkpt>
<trkpt lat="48.941207885742" lon="2.8903107643127"><ele>90</ele><time>2026-4-30T22:53:16Z</time></trkpt>
<trkpt lat="48.941135406494" lon="2.8904118537903"><ele>90</ele><time>2026-4-30T22:53:19Z</time></trkpt>
<trkpt lat="48.941135406494" lon="2.8904118537903"><ele>90</ele><time>2026-4-30T22:53:22Z</time></trkpt>
<trkpt lat="48.941135406494" lon="2.8904118537903"><ele>90</ele><time>2026-4-30T22:53:25Z</time></trkpt>
<trkpt lat="48.941055297852" lon="2.8905394077301"><ele>91</ele><time>2026-4-30T22:53:28Z</time></trkpt>
<trkpt lat="48.941055297852" lon="2.8905394077301"><ele>91</ele><time>2026-4-30T22:53:31Z</time></trkpt>
<trkpt lat="48.940956115723" lon="2.8906121253967"><ele>91</ele><time>2026-4-30T22:53:34Z</time></trkpt>
<trkpt lat="48.940902709961" lon="2.8906698226929"><ele>91</ele><time>2026-4-30T22:53:37Z</time></trkpt>
<trkpt lat="48.940853118896" lon="2.8907141685486"><ele>92</ele><time>2026-4-30T22:53:40Z</time></trkpt>
<trkpt lat="48.940784454346" lon="2.8907442092896"><ele>92</ele><time>2026-4-30T22:53:43Z</time></trkpt>
<trkpt lat="48.940719604492" lon="2.8907606601715"><ele>92</ele><time>2026-4-30T22:53:46Z</time></trkpt>
<trkpt lat="48.940601348877" lon="2.8907830715179"><ele>93</ele><time>2026-4-30T22:53:49Z</time></trkpt>
<trkpt lat="48.940498352051" lon="2.8908064365387"><ele>93</ele><time>2026-4-30T22:53:52Z</time></trkpt>
<trkpt lat="48.940498352051" lon="2.8908064365387"><ele>93</ele><time>2026-4-30T22:53:55Z</time></trkpt>
<trkpt lat="48.940402984619" lon="2.8908362388611"><ele>93</ele><time>2026-4-30T22:53:58Z</time></trkpt>
<trkpt lat="48.940402984619" lon="2.8908362388611"><ele>93</ele><time>2026-4-30T22:54:1Z</time></trkpt>
<trkpt lat="48.940402984619" lon="2.8908362388611"><ele>93</ele><time>2026-4-30T22:54:4Z</time></trkpt>
<trkpt lat="48.940334320068" lon="2.8909997940063"><ele>93</ele><time>2026-4-30T22:54:7Z</time></trkpt>
<trkpt lat="48.940299987793" lon="2.8910789489746"><ele>93</ele><time>2026-4-30T22:54:10Z</time></trkpt>
<trkpt lat="48.940238952637" lon="2.8911738395691"><ele>93</ele><time>2026-4-30T22:54:13Z</time></trkpt>
<trkpt lat="48.94017791748" lon="2.8912618160248"><ele>93</ele><time>2026-4-30T22:54:16Z</time></trkpt>
<trkpt lat="48.940124511719" lon="2.8913247585297"><ele>92</ele><time>2026-4-30T22:54:19Z</time></trkpt>
<trkpt lat="48.94006729126" lon="2.8913733959198"><ele>92</ele><time>2026-4-30T22:54:22Z</time></trkpt>
<trkpt lat="48.940010070801" lon="2.8914244174957"><ele>92</ele><time>2026-4-30T22:54:25Z</time></trkpt>
<trkpt lat="48.939949035645" lon="2.8914730548859"><ele>92</ele><time>2026-4-30T22:54:28Z</time></trkpt>
<trkpt lat="48.939895629883" lon="2.891517162323"><ele>92</ele><time>2026-4-30T22:54:31Z</time></trkpt>
<trkpt lat="48.939842224121" lon="2.891569852829"><ele>92</ele><time>2026-4-30T22:54:34Z</time></trkpt>
<trkpt lat="48.939788818359" lon="2.8916268348694"><ele>92</ele><time>2026-4-30T22:54:37Z</time></trkpt>
<trkpt lat="48.939735412598" lon="2.8917009830475"><ele>92</ele><time>2026-4-30T22:54:40Z</time></trkpt>
<trkpt lat="48.939682006836" lon="2.8917753696442"><ele>92</ele><time>2026-4-30T22:54:43Z</time></trkpt>
<trkpt lat="48.939624786377" lon="2.8918433189392"><ele>91</ele><time>2026-4-30T22:54:46Z</time></trkpt>
<trkpt lat="48.93957901001" lon="2.8919200897217"><ele>91</ele><time>2026-4-30T22:54:49Z</time></trkpt>
<trkpt lat="48.939540863037" lon="2.8919956684113"><ele>91</ele><time>2026-4-30T22:54:52Z</time></trkpt>
<trkpt lat="48.939483642578" lon="2.8920502662659"><ele>91</ele><time>2026-4-30T22:54:55Z</time></trkpt>
<trkpt lat="48.939426422119" lon="2.8920903205872"><ele>91</ele><time>2026-4-30T22:54:58Z</time></trkpt>
<trkpt lat="48.939426422119" lon="2.8920903205872"><ele>91</ele><time>2026-4-30T22:55:1Z</time></trkpt>
<trkpt lat="48.939376831055" lon="2.8921287059784"><ele>91</ele><time>2026-4-30T22:55:4Z</time></trkpt>
<trkpt lat="48.939319610596" lon="2.8921566009521"><ele>91</ele><time>2026-4-30T22:55:7Z</time></trkpt>
<trkpt lat="48.939319610596" lon="2.8921566009521"><ele>91</ele><time>2026-4-30T22:55:10Z</time></trkpt>
<trkpt lat="48.939254760742" lon="2.892254114151"><ele>91</ele><time>2026-4-30T22:55:13Z</time></trkpt>
<trkpt lat="48.939254760742" lon="2.892254114151"><ele>91</ele><time>2026-4-30T22:55:16Z</time></trkpt>
<trkpt lat="48.939193725586" lon="2.8923926353455"><ele>91</ele><time>2026-4-30T22:55:19Z</time></trkpt>
<trkpt lat="48.939151763916" lon="2.8924722671509"><ele>91</ele><time>2026-4-30T22:55:22Z</time></trkpt>
<trkpt lat="48.939117431641" lon="2.8925468921661"><ele>91</ele><time>2026-4-30T22:55:25Z</time></trkpt>
<trkpt lat="48.939083099365" lon="2.8926203250885"><ele>91</ele><time>2026-4-30T22:55:28Z</time></trkpt>
<trkpt lat="48.939083099365" lon="2.8926203250885"><ele>91</ele><time>2026-4-30T22:55:31Z</time></trkpt>
<trkpt lat="48.939041137695" lon="2.8927025794983"><ele>91</ele><time>2026-4-30T22:55:34Z</time></trkpt>
<trkpt lat="48.939002990723" lon="2.892781496048"><ele>91</ele><time>2026-4-30T22:55:37Z</time></trkpt>
<trkpt lat="48.938961029053" lon="2.8928701877594"><ele>91</ele><time>2026-4-30T22:55:40Z</time></trkpt>
<trkpt lat="48.938915252686" lon="2.8929619789124"><ele>91</ele><time>2026-4-30T22:55:43Z</time></trkpt>
<trkpt lat="48.93888092041" lon="2.8930463790894"><ele>91</ele><time>2026-4-30T22:55:46Z</time></trkpt>
<trkpt lat="48.938846588135" lon="2.8931205272675"><ele>91</ele><time>2026-4-30T22:55:49Z</time></trkpt>
<trkpt lat="48.938804626465" lon="2.8931918144226"><ele>91</ele><time>2026-4-30T22:55:52Z</time></trkpt>
<trkpt lat="48.938766479492" lon="2.8932673931122"><ele>91</ele><time>2026-4-30T22:55:55Z</time></trkpt>
<trkpt lat="48.938716888428" lon="2.8933658599854"><ele>91</ele><time>2026-4-30T22:55:58Z</time></trkpt>
<trkpt lat="48.938667297363" lon="2.893456697464"><ele>91</ele><time>2026-4-30T22:56:1Z</time></trkpt>
<trkpt lat="48.938629150391" lon="2.8935387134552"><ele>90</ele><time>2026-4-30T22:56:4Z</time></trkpt>
<trkpt lat="48.938591003418" lon="2.8936324119568"><ele>90</ele><time>2026-4-30T22:56:7Z</time></trkpt>
<trkpt lat="48.938549041748" lon="2.8937067985535"><ele>90</ele><time>2026-4-30T22:56:10Z</time></trkpt>
<trkpt lat="48.938503265381" lon="2.8937864303589"><ele>90</ele><time>2026-4-30T22:56:13Z</time></trkpt>
<trkpt lat="48.938449859619" lon="2.8938717842102"><ele>90</ele><time>2026-4-30T22:56:16Z</time></trkpt>
<trkpt lat="48.938404083252" lon="2.893951177597"><ele>90</ele><time>2026-4-30T22:56:19Z</time></trkpt>
<trkpt lat="48.938358306885" lon="2.8940370082855"><ele>90</ele><time>2026-4-30T22:56:22Z</time></trkpt>
<trkpt lat="48.938316345215" lon="2.8941118717194"><ele>90</ele><time>2026-4-30T22:56:25Z</time></trkpt>
<trkpt lat="48.938278198242" lon="2.8941810131073"><ele>90</ele><time>2026-4-30T22:56:28Z</time></trkpt>
<trkpt lat="48.938232421875" lon="2.8942637443542"><ele>90</ele><time>2026-4-30T22:56:31Z</time></trkpt>
<trkpt lat="48.938186645508" lon="2.8943338394165"><ele>90</ele><time>2026-4-30T22:56:34Z</time></trkpt>
<trkpt lat="48.938144683838" lon="2.8944187164307"><ele>90</ele><time>2026-4-30T22:56:37Z</time></trkpt>
<trkpt lat="48.938098907471" lon="2.8945088386536"><ele>90</ele><time>2026-4-30T22:56:40Z</time></trkpt>
<trkpt lat="48.938060760498" lon="2.8945918083191"><ele>89</ele><time>2026-4-30T22:56:43Z</time></trkpt>
<trkpt lat="48.938060760498" lon="2.8945918083191"><ele>89</ele><time>2026-4-30T22:56:46Z</time></trkpt>
<trkpt lat="48.938026428223" lon="2.8946719169617"><ele>89</ele><time>2026-4-30T22:56:49Z</time></trkpt>
<trkpt lat="48.937995910645" lon="2.8947515487671"><ele>89</ele><time>2026-4-30T22:56:52Z</time></trkpt>
<trkpt lat="48.937961578369" lon="2.8948276042938"><ele>89</ele><time>2026-4-30T22:56:55Z</time></trkpt>
<trkpt lat="48.937923431396" lon="2.8948993682861"><ele>89</ele><time>2026-4-30T22:56:58Z</time></trkpt>
<trkpt lat="48.937881469727" lon="2.8949763774872"><ele>89</ele><time>2026-4-30T22:57:1Z</time></trkpt>
<trkpt lat="48.937839508057" lon="2.8950567245483"><ele>89</ele><time>2026-4-30T22:57:4Z</time></trkpt>
<trkpt lat="48.937805175781" lon="2.8951303958893"><ele>89</ele><time>2026-4-30T22:57:7Z</time></trkpt>
<trkpt lat="48.937767028809" lon="2.8952052593231"><ele>89</ele><time>2026-4-30T22:57:10Z</time></trkpt>
<trkpt lat="48.937725067139" lon="2.8952877521515"><ele>89</ele><time>2026-4-30T22:57:13Z</time></trkpt>
<trkpt lat="48.937686920166" lon="2.8953609466553"><ele>89</ele><time>2026-4-30T22:57:16Z</time></trkpt>
<trkpt lat="48.937644958496" lon="2.895441532135"><ele>89</ele><time>2026-4-30T22:57:19Z</time></trkpt>
<trkpt lat="48.937606811523" lon="2.895530462265"><ele>89</ele><time>2026-4-30T22:57:22Z</time></trkpt>
<trkpt lat="48.937564849854" lon="2.8956084251404"><ele>89</ele><time>2026-4-30T22:57:25Z</time></trkpt>
<trkpt lat="48.937564849854" lon="2.8956084251404"><ele>89</ele><time>2026-4-30T22:57:28Z</time></trkpt>
<trkpt lat="48.937480926514" lon="2.8957493305206"><ele>89</ele><time>2026-4-30T22:57:31Z</time></trkpt>
<trkpt lat="48.937438964844" lon="2.8958280086517"><ele>89</ele><time>2026-4-30T22:57:34Z</time></trkpt>
<trkpt lat="48.937404632568" lon="2.8958990573883"><ele>89</ele><time>2026-4-30T22:57:37Z</time></trkpt>
<trkpt lat="48.937370300293" lon="2.8959681987762"><ele>89</ele><time>2026-4-30T22:57:40Z</time></trkpt>
<trkpt lat="48.937370300293" lon="2.8959681987762"><ele>89</ele><time>2026-4-30T22:57:43Z</time></trkpt>
<trkpt lat="48.937320709229" lon="2.8961045742035"><ele>89</ele><time>2026-4-30T22:57:46Z</time></trkpt>
<trkpt lat="48.937320709229" lon="2.8961045742035"><ele>89</ele><time>2026-4-30T22:57:49Z</time></trkpt>
<trkpt lat="48.937252044678" lon="2.8962309360504"><ele>89</ele><time>2026-4-30T22:57:52Z</time></trkpt>
<trkpt lat="48.937252044678" lon="2.8962309360504"><ele>89</ele><time>2026-4-30T22:57:55Z</time></trkpt>
<trkpt lat="48.937171936035" lon="2.8963527679443"><ele>89</ele><time>2026-4-30T22:57:58Z</time></trkpt>
<trkpt lat="48.93713760376" lon="2.8964259624481"><ele>89</ele><time>2026-4-30T22:58:1Z</time></trkpt>
<trkpt lat="48.937107086182" lon="2.896500825882"><ele>89</ele><time>2026-4-30T22:58:4Z</time></trkpt>
<trkpt lat="48.937076568604" lon="2.8966021537781"><ele>89</ele><time>2026-4-30T22:58:7Z</time></trkpt>
<trkpt lat="48.937034606934" lon="2.8967351913452"><ele>89</ele><time>2026-4-30T22:58:10Z</time></trkpt>
<trkpt lat="48.936992645264" lon="2.8968374729156"><ele>89</ele><time>2026-4-30T22:58:13Z</time></trkpt>
<trkpt lat="48.936958312988" lon="2.8969218730927"><ele>90</ele><time>2026-4-30T22:58:16Z</time></trkpt>
<trkpt lat="48.936882019043" lon="2.8970830440521"><ele>90</ele><time>2026-4-30T22:58:19Z</time></trkpt>
<trkpt lat="48.93684387207" lon="2.8971703052521"><ele>90</ele><time>2026-4-30T22:58:22Z</time></trkpt>
<trkpt lat="48.936805725098" lon="2.897248506546"><ele>90</ele><time>2026-4-30T22:58:25Z</time></trkpt>
<trkpt lat="48.936767578125" lon="2.8973269462585"><ele>90</ele><time>2026-4-30T22:58:28Z</time></trkpt>
<trkpt lat="48.936721801758" lon="2.8974051475525"><ele>90</ele><time>2026-4-30T22:58:31Z</time></trkpt>
<trkpt lat="48.936721801758" lon="2.8974051475525"><ele>90</ele><time>2026-4-30T22:58:34Z</time></trkpt>
<trkpt lat="48.936687469482" lon="2.8974833488464"><ele>90</ele><time>2026-4-30T22:58:37Z</time></trkpt>
<trkpt lat="48.936641693115" lon="2.8975691795349"><ele>90</ele><time>2026-4-30T22:58:40Z</time></trkpt>
<trkpt lat="48.93660736084" lon="2.8976488113403"><ele>89</ele><time>2026-4-30T22:58:43Z</time></trkpt>
<trkpt lat="48.936573028564" lon="2.8977301120758"><ele>89</ele><time>2026-4-30T22:58:46Z</time></trkpt>
<trkpt lat="48.936546325684" lon="2.8978097438812"><ele>89</ele><time>2026-4-30T22:58:49Z</time></trkpt>
<trkpt lat="48.936508178711" lon="2.8979051113129"><ele>89</ele><time>2026-4-30T22:58:52Z</time></trkpt>
<trkpt lat="48.936477661133" lon="2.8979885578156"><ele>89</ele><time>2026-4-30T22:58:55Z</time></trkpt>
<trkpt lat="48.936447143555" lon="2.8980746269226"><ele>89</ele><time>2026-4-30T22:58:58Z</time></trkpt>
<trkpt lat="48.936420440674" lon="2.8981549739838"><ele>89</ele><time>2026-4-30T22:59:1Z</time></trkpt>
<trkpt lat="48.936389923096" lon="2.898232460022"><ele>89</ele><time>2026-4-30T22:59:4Z</time></trkpt>
<trkpt lat="48.936363220215" lon="2.8983170986176"><ele>89</ele><time>2026-4-30T22:59:7Z</time></trkpt>
<trkpt lat="48.936336517334" lon="2.8984150886536"><ele>89</ele><time>2026-4-30T22:59:10Z</time></trkpt>
<trkpt lat="48.936309814453" lon="2.8985118865967"><ele>88</ele><time>2026-4-30T22:59:13Z</time></trkpt>
<trkpt lat="48.936290740967" lon="2.8986008167267"><ele>88</ele><time>2026-4-30T22:59:16Z</time></trkpt>
<trkpt lat="48.936264038086" lon="2.898708820343"><ele>88</ele><time>2026-4-30T22:59:19Z</time></trkpt>
<trkpt lat="48.936241149902" lon="2.8988151550293"><ele>88</ele><time>2026-4-30T22:59:22Z</time></trkpt>
<trkpt lat="48.936218261719" lon="2.8989231586456"><ele>88</ele><time>2026-4-30T22:59:25Z</time></trkpt>
<trkpt lat="48.936195373535" lon="2.8990197181702"><ele>88</ele><time>2026-4-30T22:59:28Z</time></trkpt>
<trkpt lat="48.93616104126" lon="2.8991227149963"><ele>88</ele><time>2026-4-30T22:59:31Z</time></trkpt>
<trkpt lat="48.936122894287" lon="2.8992161750793"><ele>88</ele><time>2026-4-30T22:59:34Z</time></trkpt>
<trkpt lat="48.936092376709" lon="2.8992943763733"><ele>88</ele><time>2026-4-30T22:59:37Z</time></trkpt>
<trkpt lat="48.936080932617" lon="2.8993966579437"><ele>88</ele><time>2026-4-30T22:59:40Z</time></trkpt>
<trkpt lat="48.936069488525" lon="2.8995015621185"><ele>88</ele><time>2026-4-30T22:59:43Z</time></trkpt>
<trkpt lat="48.936069488525" lon="2.8995015621185"><ele>88</ele><time>2026-4-30T22:59:46Z</time></trkpt>
<trkpt lat="48.93603515625" lon="2.8996737003326"><ele>88</ele><time>2026-4-30T22:59:49Z</time></trkpt>
<trkpt lat="48.93603515625" lon="2.8996737003326"><ele>88</ele><time>2026-4-30T22:59:52Z</time></trkpt>
<trkpt lat="48.936004638672" lon="2.8998458385468"><ele>88</ele><time>2026-4-30T22:59:55Z</time></trkpt>
<trkpt lat="48.936004638672" lon="2.8998458385468"><ele>88</ele><time>2026-4-30T22:59:58Z</time></trkpt>
<trkpt lat="48.935997009277" lon="2.899995803833"><ele>88</ele><time>2026-4-30T23:0:1Z</time></trkpt>
<trkpt lat="48.935997009277" lon="2.899995803833"><ele>88</ele><time>2026-4-30T23:0:4Z</time></trkpt>
<trkpt lat="48.935989379883" lon="2.9001429080963"><ele>89</ele><time>2026-4-30T23:0:7Z</time></trkpt>
<trkpt lat="48.935989379883" lon="2.9001429080963"><ele>89</ele><time>2026-4-30T23:0:10Z</time></trkpt>
<trkpt lat="48.936004638672" lon="2.9002821445465"><ele>89</ele><time>2026-4-30T23:0:13Z</time></trkpt>
<trkpt lat="48.936016082764" lon="2.900378704071"><ele>89</ele><time>2026-4-30T23:0:16Z</time></trkpt>
<trkpt lat="48.93603515625" lon="2.9004685878754"><ele>89</ele><time>2026-4-30T23:0:19Z</time></trkpt>
<trkpt lat="48.936058044434" lon="2.9005513191223"><ele>89</ele><time>2026-4-30T23:0:22Z</time></trkpt>
<trkpt lat="48.936096191406" lon="2.9007394313812"><ele>90</ele><time>2026-4-30T23:0:25Z</time></trkpt>
<trkpt lat="48.936111450195" lon="2.9008357524872"><ele>90</ele><time>2026-4-30T23:0:28Z</time></trkpt>
<trkpt lat="48.936122894287" lon="2.9009215831757"><ele>90</ele><time>2026-4-30T23:0:31Z</time></trkpt>
<trkpt lat="48.936122894287" lon="2.9009215831757"><ele>90</ele><time>2026-4-30T23:0:34Z</time></trkpt>
<trkpt lat="48.93616104126" lon="2.9010920524597"><ele>90</ele><time>2026-4-30T23:0:37Z</time></trkpt>
<trkpt lat="48.936172485352" lon="2.9011766910553"><ele>90</ele><time>2026-4-30T23:0:40Z</time></trkpt>
<trkpt lat="48.936187744141" lon="2.9012637138367"><ele>91</ele><time>2026-4-30T23:0:43Z</time></trkpt>
<trkpt lat="48.936187744141" lon="2.9012637138367"><ele>91</ele><time>2026-4-30T23:0:46Z</time></trkpt>
<trkpt lat="48.936206817627" lon="2.9014506340027"><ele>91</ele><time>2026-4-30T23:0:49Z</time></trkpt>
<trkpt lat="48.936218261719" lon="2.9015522003174"><ele>91</ele><time>2026-4-30T23:0:52Z</time></trkpt>
<trkpt lat="48.936229705811" lon="2.9016416072845"><ele>91</ele><time>2026-4-30T23:0:55Z</time></trkpt>
<trkpt lat="48.936241149902" lon="2.9017488956451"><ele>91</ele><time>2026-4-30T23:0:58Z</time></trkpt>
<trkpt lat="48.936248779297" lon="2.9018492698669"><ele>91</ele><time>2026-4-30T23:1:1Z</time></trkpt>
<trkpt lat="48.936260223389" lon="2.9019532203674"><ele>91</ele><time>2026-4-30T23:1:4Z</time></trkpt>
<trkpt lat="48.936267852783" lon="2.9020648002625"><ele>91</ele><time>2026-4-30T23:1:7Z</time></trkpt>
<trkpt lat="48.936275482178" lon="2.9021718502045"><ele>91</ele><time>2026-4-30T23:1:10Z</time></trkpt>
<trkpt lat="48.936283111572" lon="2.9022841453552"><ele>91</ele><time>2026-4-30T23:1:13Z</time></trkpt>
<trkpt lat="48.93628692627" lon="2.9023776054382"><ele>91</ele><time>2026-4-30T23:1:16Z</time></trkpt>
<trkpt lat="48.936290740967" lon="2.9024798870087"><ele>91</ele><time>2026-4-30T23:1:19Z</time></trkpt>
<trkpt lat="48.936294555664" lon="2.9025783538818"><ele>91</ele><time>2026-4-30T23:1:22Z</time></trkpt>
<trkpt lat="48.936298370361" lon="2.9026882648468"><ele>91</ele><time>2026-4-30T23:1:25Z</time></trkpt>
<trkpt lat="48.936309814453" lon="2.9027798175812"><ele>91</ele><time>2026-4-30T23:1:28Z</time></trkpt>
<trkpt lat="48.936321258545" lon="2.9028763771057"><ele>91</ele><time>2026-4-30T23:1:31Z</time></trkpt>
<trkpt lat="48.936340332031" lon="2.9029922485352"><ele>91</ele><time>2026-4-30T23:1:34Z</time></trkpt>
<trkpt lat="48.936351776123" lon="2.9030914306641"><ele>91</ele><time>2026-4-30T23:1:37Z</time></trkpt>
<trkpt lat="48.936363220215" lon="2.9031941890717"><ele>91</ele><time>2026-4-30T23:1:40Z</time></trkpt>
<trkpt lat="48.936374664307" lon="2.9032964706421"><ele>91</ele><time>2026-4-30T23:1:43Z</time></trkpt>
<trkpt lat="48.936389923096" lon="2.9033937454224"><ele>91</ele><time>2026-4-30T23:1:46Z</time></trkpt>
<trkpt lat="48.936405181885" lon="2.9034852981567"><ele>91</ele><time>2026-4-30T23:1:49Z</time></trkpt>
<trkpt lat="48.936424255371" lon="2.9035861492157"><ele>91</ele><time>2026-4-30T23:1:52Z</time></trkpt>
<trkpt lat="48.936443328857" lon="2.9036867618561"><ele>91</ele><time>2026-4-30T23:1:55Z</time></trkpt>
<trkpt lat="48.936466217041" lon="2.9037787914276"><ele>91</ele><time>2026-4-30T23:1:58Z</time></trkpt>
<trkpt lat="48.93648147583" lon="2.903874874115"><ele>91</ele><time>2026-4-30T23:2:1Z</time></trkpt>
<trkpt lat="48.936489105225" lon="2.9039702415466"><ele>91</ele><time>2026-4-30T23:2:4Z</time></trkpt>
<trkpt lat="48.936489105225" lon="2.9039702415466"><ele>91</ele><time>2026-4-30T23:2:7Z</time></trkpt>
<trkpt lat="48.936489105225" lon="2.9039702415466"><ele>91</ele><time>2026-4-30T23:2:10Z</time></trkpt>
<trkpt lat="48.936511993408" lon="2.9041504859924"><ele>92</ele><time>2026-4-30T23:2:13Z</time></trkpt>
<trkpt lat="48.936527252197" lon="2.9042630195618"><ele>92</ele><time>2026-4-30T23:2:16Z</time></trkpt>
<trkpt lat="48.936527252197" lon="2.9042630195618"><ele>92</ele><time>2026-4-30T23:2:19Z</time></trkpt>
<trkpt lat="48.936538696289" lon="2.9043827056885"><ele>92</ele><time>2026-4-30T23:2:22Z</time></trkpt>
<trkpt lat="48.936550140381" lon="2.9044861793518"><ele>92</ele><time>2026-4-30T23:2:25Z</time></trkpt>
<trkpt lat="48.936550140381" lon="2.9044861793518"><ele>92</ele><time>2026-4-30T23:2:28Z</time></trkpt>
<trkpt lat="48.936550140381" lon="2.9044861793518"><ele>92</ele><time>2026-4-30T23:2:31Z</time></trkpt>
<trkpt lat="48.936573028564" lon="2.904581785202"><ele>92</ele><time>2026-4-30T23:2:34Z</time></trkpt>
<trkpt lat="48.936573028564" lon="2.904581785202"><ele>92</ele><time>2026-4-30T23:2:37Z</time></trkpt>
<trkpt lat="48.936592102051" lon="2.9046401977539"><ele>92</ele><time>2026-4-30T23:2:40Z</time></trkpt>
<trkpt lat="48.936592102051" lon="2.9046401977539"><ele>92</ele><time>2026-4-30T23:2:43Z</time></trkpt>
<trkpt lat="48.936611175537" lon="2.9047076702118"><ele>93</ele><time>2026-4-30T23:2:46Z</time></trkpt>
<trkpt lat="48.936630249023" lon="2.9047756195068"><ele>93</ele><time>2026-4-30T23:2:49Z</time></trkpt>
<trkpt lat="48.936656951904" lon="2.9048609733582"><ele>93</ele><time>2026-4-30T23:2:52Z</time></trkpt>
<trkpt lat="48.936656951904" lon="2.9048609733582"><ele>93</ele><time>2026-4-30T23:2:55Z</time></trkpt>
<trkpt lat="48.936683654785" lon="2.9049606323242"><ele>93</ele><time>2026-4-30T23:2:58Z</time></trkpt>
<trkpt lat="48.936725616455" lon="2.905177116394"><ele>94</ele><time>2026-4-30T23:3:1Z</time></trkpt>
<trkpt lat="48.936725616455" lon="2.905177116394"><ele>94</ele><time>2026-4-30T23:3:4Z</time></trkpt>
<trkpt lat="48.936752319336" lon="2.9053783416748"><ele>94</ele><time>2026-4-30T23:3:7Z</time></trkpt>
<trkpt lat="48.936767578125" lon="2.9054908752441"><ele>94</ele><time>2026-4-30T23:3:10Z</time></trkpt>
<trkpt lat="48.936779022217" lon="2.9056005477905"><ele>94</ele><time>2026-4-30T23:3:13Z</time></trkpt>
<trkpt lat="48.936794281006" lon="2.9057056903839"><ele>94</ele><time>2026-4-30T23:3:16Z</time></trkpt>
<trkpt lat="48.936813354492" lon="2.9058222770691"><ele>94</ele><time>2026-4-30T23:3:19Z</time></trkpt>
<trkpt lat="48.936813354492" lon="2.9058222770691"><ele>94</ele><time>2026-4-30T23:3:22Z</time></trkpt>
<trkpt lat="48.936840057373" lon="2.9059371948242"><ele>94</ele><time>2026-4-30T23:3:25Z</time></trkpt>
<trkpt lat="48.936859130859" lon="2.9060347080231"><ele>94</ele><time>2026-4-30T23:3:28Z</time></trkpt>
<trkpt lat="48.936878204346" lon="2.9061372280121"><ele>94</ele><time>2026-4-30T23:3:31Z</time></trkpt>
<trkpt lat="48.936901092529" lon="2.9062397480011"><ele>94</ele><time>2026-4-30T23:3:34Z</time></trkpt>
<trkpt lat="48.936923980713" lon="2.9063405990601"><ele>94</ele><time>2026-4-30T23:3:37Z</time></trkpt>
<trkpt lat="48.936946868896" lon="2.9064242839813"><ele>94</ele><time>2026-4-30T23:3:40Z</time></trkpt>
<trkpt lat="48.936962127686" lon="2.9065341949463"><ele>94</ele><time>2026-4-30T23:3:43Z</time></trkpt>
<trkpt lat="48.936992645264" lon="2.906626701355"><ele>94</ele><time>2026-4-30T23:3:46Z</time></trkpt>
<trkpt lat="48.937023162842" lon="2.9067087173462"><ele>94</ele><time>2026-4-30T23:3:49Z</time></trkpt>
<trkpt lat="48.937023162842" lon="2.9067087173462"><ele>94</ele><time>2026-4-30T23:3:52Z</time></trkpt>
<trkpt lat="48.937072753906" lon="2.9067749977112"><ele>94</ele><time>2026-4-30T23:3:55Z</time></trkpt>
<trkpt lat="48.937118530273" lon="2.9068508148193"><ele>94</ele><time>2026-4-30T23:3:58Z</time></trkpt>
<trkpt lat="48.937168121338" lon="2.9069268703461"><ele>94</ele><time>2026-4-30T23:4:1Z</time></trkpt>
<trkpt lat="48.937202453613" lon="2.9069945812225"><ele>94</ele><time>2026-4-30T23:4:4Z</time></trkpt>
<trkpt lat="48.937232971191" lon="2.9070706367493"><ele>95</ele><time>2026-4-30T23:4:7Z</time></trkpt>
<trkpt lat="48.937232971191" lon="2.9070706367493"><ele>95</ele><time>2026-4-30T23:4:10Z</time></trkpt>
<trkpt lat="48.937267303467" lon="2.9072453975677"><ele>95</ele><time>2026-4-30T23:4:13Z</time></trkpt>
<trkpt lat="48.937267303467" lon="2.9073400497437"><ele>95</ele><time>2026-4-30T23:4:16Z</time></trkpt>
<trkpt lat="48.937286376953" lon="2.9074289798737"><ele>95</ele><time>2026-4-30T23:4:19Z</time></trkpt>
<trkpt lat="48.937286376953" lon="2.9074289798737"><ele>95</ele><time>2026-4-30T23:4:22Z</time></trkpt>
<trkpt lat="48.937320709229" lon="2.9075236320496"><ele>96</ele><time>2026-4-30T23:4:25Z</time></trkpt>
<trkpt lat="48.937320709229" lon="2.9075236320496"><ele>96</ele><time>2026-4-30T23:4:28Z</time></trkpt>
<trkpt lat="48.937381744385" lon="2.907613992691"><ele>96</ele><time>2026-4-30T23:4:31Z</time></trkpt>
<trkpt lat="48.937381744385" lon="2.907613992691"><ele>96</ele><time>2026-4-30T23:4:34Z</time></trkpt>
<trkpt lat="48.937461853027" lon="2.9076895713806"><ele>96</ele><time>2026-4-30T23:4:37Z</time></trkpt>
<trkpt lat="48.937461853027" lon="2.9076895713806"><ele>96</ele><time>2026-4-30T23:4:40Z</time></trkpt>
<trkpt lat="48.937461853027" lon="2.9076895713806"><ele>96</ele><time>2026-4-30T23:4:43Z</time></trkpt>
<trkpt lat="48.937515258789" lon="2.9077956676483"><ele>96</ele><time>2026-4-30T23:4:46Z</time></trkpt>
<trkpt lat="48.937526702881" lon="2.9078936576843"><ele>96</ele><time>2026-4-30T23:4:49Z</time></trkpt>
<trkpt lat="48.937557220459" lon="2.908020734787"><ele>96</ele><time>2026-4-30T23:4:52Z</time></trkpt>
<trkpt lat="48.93758392334" lon="2.9081137180328"><ele>96</ele><time>2026-4-30T23:4:55Z</time></trkpt>
<trkpt lat="48.937633514404" lon="2.9082036018372"><ele>96</ele><time>2026-4-30T23:4:58Z</time></trkpt>
<trkpt lat="48.937671661377" lon="2.9083037376404"><ele>96</ele><time>2026-4-30T23:5:1Z</time></trkpt>
<trkpt lat="48.937671661377" lon="2.9083037376404"><ele>96</ele><time>2026-4-30T23:5:4Z</time></trkpt>
<trkpt lat="48.937702178955" lon="2.9083814620972"><ele>96</ele><time>2026-4-30T23:5:7Z</time></trkpt>
<trkpt lat="48.937740325928" lon="2.9084613323212"><ele>96</ele><time>2026-4-30T23:5:10Z</time></trkpt>
<trkpt lat="48.937782287598" lon="2.9085600376129"><ele>96</ele><time>2026-4-30T23:5:13Z</time></trkpt>
<trkpt lat="48.937782287598" lon="2.9085600376129"><ele>96</ele><time>2026-4-30T23:5:16Z</time></trkpt>
<trkpt lat="48.937828063965" lon="2.9086647033691"><ele>96</ele><time>2026-4-30T23:5:19Z</time></trkpt>
<trkpt lat="48.937866210938" lon="2.9087386131287"><ele>96</ele><time>2026-4-30T23:5:22Z</time></trkpt>
<trkpt lat="48.937866210938" lon="2.9087386131287"><ele>96</ele><time>2026-4-30T23:5:25Z</time></trkpt>
<trkpt lat="48.93794631958" lon="2.9088788032532"><ele>96</ele><time>2026-4-30T23:5:28Z</time></trkpt>
<trkpt lat="48.938003540039" lon="2.9089243412018"><ele>96</ele><time>2026-4-30T23:5:31Z</time></trkpt>
<trkpt lat="48.938060760498" lon="2.908942937851"><ele>96</ele><time>2026-4-30T23:5:34Z</time></trkpt>
<trkpt lat="48.938060760498" lon="2.908942937851"><ele>96</ele><time>2026-4-30T23:5:37Z</time></trkpt>
<trkpt lat="48.93815612793" lon="2.9089214801788"><ele>96</ele><time>2026-4-30T23:5:40Z</time></trkpt>
<trkpt lat="48.938220977783" lon="2.9088969230652"><ele>95</ele><time>2026-4-30T23:5:43Z</time></trkpt>
<trkpt lat="48.938220977783" lon="2.9088969230652"><ele>95</ele><time>2026-4-30T23:5:46Z</time></trkpt>
<trkpt lat="48.938282012939" lon="2.9088726043701"><ele>95</ele><time>2026-4-30T23:5:49Z</time></trkpt>
<trkpt lat="48.938343048096" lon="2.9088687896729"><ele>95</ele><time>2026-4-30T23:5:52Z</time></trkpt>
<trkpt lat="48.938343048096" lon="2.9088687896729"><ele>95</ele><time>2026-4-30T23:5:55Z</time></trkpt>
<trkpt lat="48.938343048096" lon="2.9088687896729"><ele>95</ele><time>2026-4-30T23:5:58Z</time></trkpt>
<trkpt lat="48.938343048096" lon="2.9088687896729"><ele>95</ele><time>2026-4-30T23:6:1Z</time></trkpt>
<trkpt lat="48.938343048096" lon="2.9088687896729"><ele>95</ele><time>2026-4-30T23:6:4Z</time></trkpt>
<trkpt lat="48.938343048096" lon="2.9088687896729"><ele>95</ele><time>2026-4-30T23:6:7Z</time></trkpt>
<trkpt lat="48.938453674316" lon="2.9088218212128"><ele>93</ele><time>2026-4-30T23:6:10Z</time></trkpt>
<trkpt lat="48.938552856445" lon="2.9087977409363"><ele>93</ele><time>2026-4-30T23:6:13Z</time></trkpt>
<trkpt lat="48.938552856445" lon="2.9087977409363"><ele>93</ele><time>2026-4-30T23:6:16Z</time></trkpt>
<trkpt lat="48.938617706299" lon="2.9087798595428"><ele>93</ele><time>2026-4-30T23:6:19Z</time></trkpt>
<trkpt lat="48.938690185547" lon="2.9087624549866"><ele>93</ele><time>2026-4-30T23:6:22Z</time></trkpt>
<trkpt lat="48.938774108887" lon="2.9087383747101"><ele>93</ele><time>2026-4-30T23:6:25Z</time></trkpt>
<trkpt lat="48.938877105713" lon="2.9087016582489"><ele>93</ele><time>2026-4-30T23:6:28Z</time></trkpt>
<trkpt lat="48.938972473145" lon="2.908670425415"><ele>93</ele><time>2026-4-30T23:6:31Z</time></trkpt>
<trkpt lat="48.939075469971" lon="2.9086265563965"><ele>93</ele><time>2026-4-30T23:6:34Z</time></trkpt>
<trkpt lat="48.939167022705" lon="2.908588886261"><ele>93</ele><time>2026-4-30T23:6:37Z</time></trkpt>
<trkpt lat="48.939224243164" lon="2.9085681438446"><ele>93</ele><time>2026-4-30T23:6:40Z</time></trkpt>
<trkpt lat="48.939289093018" lon="2.9085464477539"><ele>93</ele><time>2026-4-30T23:6:43Z</time></trkpt>
<trkpt lat="48.939350128174" lon="2.9085211753845"><ele>93</ele><time>2026-4-30T23:6:46Z</time></trkpt>
<trkpt lat="48.939449310303" lon="2.9084808826447"><ele>93</ele><time>2026-4-30T23:6:49Z</time></trkpt>
<trkpt lat="48.939510345459" lon="2.9084634780884"><ele>93</ele><time>2026-4-30T23:6:52Z</time></trkpt>
<trkpt lat="48.939586639404" lon="2.908429145813"><ele>93</ele><time>2026-4-30T23:6:55Z</time></trkpt>
<trkpt lat="48.939666748047" lon="2.9083955287933"><ele>93</ele><time>2026-4-30T23:6:58Z</time></trkpt>
<trkpt lat="48.939666748047" lon="2.9083955287933"><ele>93</ele><time>2026-4-30T23:7:1Z</time></trkpt>
<trkpt lat="48.939743041992" lon="2.9083623886108"><ele>93</ele><time>2026-4-30T23:7:4Z</time></trkpt>
<trkpt lat="48.93981552124" lon="2.9083471298218"><ele>93</ele><time>2026-4-30T23:7:7Z</time></trkpt>
<trkpt lat="48.939876556396" lon="2.9083125591278"><ele>93</ele><time>2026-4-30T23:7:10Z</time></trkpt>
<trkpt lat="48.939876556396" lon="2.9083125591278"><ele>93</ele><time>2026-4-30T23:7:13Z</time></trkpt>
<trkpt lat="48.939952850342" lon="2.9082798957825"><ele>93</ele><time>2026-4-30T23:7:16Z</time></trkpt>
<trkpt lat="48.94002532959" lon="2.9082264900208"><ele>93</ele><time>2026-4-30T23:7:19Z</time></trkpt>
<trkpt lat="48.940093994141" lon="2.9081802368164"><ele>93</ele><time>2026-4-30T23:7:22Z</time></trkpt>
<trkpt lat="48.940162658691" lon="2.9081335067749"><ele>93</ele><time>2026-4-30T23:7:25Z</time></trkpt>
<trkpt lat="48.940227508545" lon="2.9080858230591"><ele>93</ele><time>2026-4-30T23:7:28Z</time></trkpt>
<trkpt lat="48.940280914307" lon="2.9080412387848"><ele>92</ele><time>2026-4-30T23:7:31Z</time></trkpt>
<trkpt lat="48.94030380249" lon="2.9079303741455"><ele>92</ele><time>2026-4-30T23:7:34Z</time></trkpt>
<trkpt lat="48.940288543701" lon="2.9078209400177"><ele>92</ele><time>2026-4-30T23:7:37Z</time></trkpt>
<trkpt lat="48.940269470215" lon="2.9076552391052"><ele>93</ele><time>2026-4-30T23:7:40Z</time></trkpt>
<trkpt lat="48.940235137939" lon="2.9074995517731"><ele>92</ele><time>2026-4-30T23:7:43Z</time></trkpt>
<trkpt lat="48.940200805664" lon="2.9073894023895"><ele>92</ele><time>2026-4-30T23:7:46Z</time></trkpt>
<trkpt lat="48.940166473389" lon="2.9072675704956"><ele>93</ele><time>2026-4-30T23:7:49Z</time></trkpt>
<trkpt lat="48.940166473389" lon="2.9072675704956"><ele>93</ele><time>2026-4-30T23:7:52Z</time></trkpt>
<trkpt lat="48.940166473389" lon="2.907154083252"><ele>93</ele><time>2026-4-30T23:7:55Z</time></trkpt>
<trkpt lat="48.940200805664" lon="2.9070689678192"><ele>93</ele><time>2026-4-30T23:7:58Z</time></trkpt>
<trkpt lat="48.940265655518" lon="2.9069683551788"><ele>93</ele><time>2026-4-30T23:8:1Z</time></trkpt>
<trkpt lat="48.94030380249" lon="2.9068741798401"><ele>93</ele><time>2026-4-30T23:8:4Z</time></trkpt>
<trkpt lat="48.940330505371" lon="2.9067771434784"><ele>92</ele><time>2026-4-30T23:8:7Z</time></trkpt>
<trkpt lat="48.940368652344" lon="2.9066469669342"><ele>92</ele><time>2026-4-30T23:8:10Z</time></trkpt>
<trkpt lat="48.940406799316" lon="2.9065306186676"><ele>92</ele><time>2026-4-30T23:8:13Z</time></trkpt>
<trkpt lat="48.940452575684" lon="2.9064204692841"><ele>92</ele><time>2026-4-30T23:8:16Z</time></trkpt>
<trkpt lat="48.940502166748" lon="2.9063267707825"><ele>92</ele><time>2026-4-30T23:8:19Z</time></trkpt>
<trkpt lat="48.940567016602" lon="2.9062063694"><ele>92</ele><time>2026-4-30T23:8:22Z</time></trkpt>
<trkpt lat="48.940647125244" lon="2.9061183929443"><ele>92</ele><time>2026-4-30T23:8:25Z</time></trkpt>
<trkpt lat="48.940723419189" lon="2.9060246944427"><ele>92</ele><time>2026-4-30T23:8:28Z</time></trkpt>
<trkpt lat="48.940803527832" lon="2.9059731960297"><ele>92</ele><time>2026-4-30T23:8:31Z</time></trkpt>
<trkpt lat="48.940887451172" lon="2.9059400558472"><ele>92</ele><time>2026-4-30T23:8:34Z</time></trkpt>
<trkpt lat="48.940979003906" lon="2.9059174060822"><ele>92</ele><time>2026-4-30T23:8:37Z</time></trkpt>
<trkpt lat="48.941074371338" lon="2.9058873653412"><ele>92</ele><time>2026-4-30T23:8:40Z</time></trkpt>
<trkpt lat="48.941158294678" lon="2.9058613777161"><ele>92</ele><time>2026-4-30T23:8:43Z</time></trkpt>
<trkpt lat="48.941257476807" lon="2.9058396816254"><ele>92</ele><time>2026-4-30T23:8:46Z</time></trkpt>
<trkpt lat="48.941352844238" lon="2.905814409256"><ele>92</ele><time>2026-4-30T23:8:49Z</time></trkpt>
<trkpt lat="48.941429138184" lon="2.905775308609"><ele>92</ele><time>2026-4-30T23:8:52Z</time></trkpt>
<trkpt lat="48.941486358643" lon="2.9057083129883"><ele>92</ele><time>2026-4-30T23:8:55Z</time></trkpt>
<trkpt lat="48.941497802734" lon="2.9056169986725"><ele>92</ele><time>2026-4-30T23:8:58Z</time></trkpt>
<trkpt lat="48.941482543945" lon="2.9054992198944"><ele>92</ele><time>2026-4-30T23:9:1Z</time></trkpt>
<trkpt lat="48.941471099854" lon="2.90540599823"><ele>92</ele><time>2026-4-30T23:9:4Z</time></trkpt>
<trkpt lat="48.941463470459" lon="2.9053008556366"><ele>92</ele><time>2026-4-30T23:9:7Z</time></trkpt>
<trkpt lat="48.941467285156" lon="2.9051532745361"><ele>92</ele><time>2026-4-30T23:9:10Z</time></trkpt>
<trkpt lat="48.941478729248" lon="2.9050114154816"><ele>92</ele><time>2026-4-30T23:9:13Z</time></trkpt>
<trkpt lat="48.94149017334" lon="2.9048833847046"><ele>92</ele><time>2026-4-30T23:9:16Z</time></trkpt>
<trkpt lat="48.94149017334" lon="2.9048833847046"><ele>92</ele><time>2026-4-30T23:9:19Z</time></trkpt>
<trkpt lat="48.94149017334" lon="2.9048833847046"><ele>92</ele><time>2026-4-30T23:9:22Z</time></trkpt>
<trkpt lat="48.941501617432" lon="2.9047913551331"><ele>92</ele><time>2026-4-30T23:9:25Z</time></trkpt>
<trkpt lat="48.941501617432" lon="2.9047913551331"><ele>92</ele><time>2026-4-30T23:9:28Z</time></trkpt>
<trkpt lat="48.941501617432" lon="2.9047913551331"><ele>92</ele><time>2026-4-30T23:9:31Z</time></trkpt>
<trkpt lat="48.941501617432" lon="2.9047913551331"><ele>92</ele><time>2026-4-30T23:9:34Z</time></trkpt>
<trkpt lat="48.941501617432" lon="2.9047913551331"><ele>92</ele><time>2026-4-30T23:9:37Z</time></trkpt>
<trkpt lat="48.941501617432" lon="2.9047913551331"><ele>92</ele><time>2026-4-30T23:9:40Z</time></trkpt>
<trkpt lat="48.94149017334" lon="2.9046087265015"><ele>91</ele><time>2026-4-30T23:9:43Z</time></trkpt>
<trkpt lat="48.94149017334" lon="2.9046087265015"><ele>91</ele><time>2026-4-30T23:9:46Z</time></trkpt>
<trkpt lat="48.94149017334" lon="2.9044721126556"><ele>91</ele><time>2026-4-30T23:9:49Z</time></trkpt>
<trkpt lat="48.941520690918" lon="2.9043464660645"><ele>91</ele><time>2026-4-30T23:9:52Z</time></trkpt>
<trkpt lat="48.941547393799" lon="2.9042482376099"><ele>91</ele><time>2026-4-30T23:9:55Z</time></trkpt>
<trkpt lat="48.941547393799" lon="2.9042482376099"><ele>91</ele><time>2026-4-30T23:9:58Z</time></trkpt>
<trkpt lat="48.94157409668" lon="2.9041380882263"><ele>91</ele><time>2026-4-30T23:10:1Z</time></trkpt>
<trkpt lat="48.941608428955" lon="2.9039924144745"><ele>91</ele><time>2026-4-30T23:10:4Z</time></trkpt>
<trkpt lat="48.941661834717" lon="2.9038519859314"><ele>92</ele><time>2026-4-30T23:10:7Z</time></trkpt>
<trkpt lat="48.941661834717" lon="2.9038519859314"><ele>92</ele><time>2026-4-30T23:10:10Z</time></trkpt>
<trkpt lat="48.941741943359" lon="2.9037029743195"><ele>94</ele><time>2026-4-30T23:10:13Z</time></trkpt>
<trkpt lat="48.941791534424" lon="2.9035785198212"><ele>95</ele><time>2026-4-30T23:10:16Z</time></trkpt>
<trkpt lat="48.941844940186" lon="2.9034745693207"><ele>95</ele><time>2026-4-30T23:10:19Z</time></trkpt>
<trkpt lat="48.941844940186" lon="2.9034745693207"><ele>95</ele><time>2026-4-30T23:10:22Z</time></trkpt>
<trkpt lat="48.94189453125" lon="2.9033749103546"><ele>94</ele><time>2026-4-30T23:10:25Z</time></trkpt>
<trkpt lat="48.941932678223" lon="2.9032726287842"><ele>94</ele><time>2026-4-30T23:10:28Z</time></trkpt>
<trkpt lat="48.941967010498" lon="2.9031596183777"><ele>94</ele><time>2026-4-30T23:10:31Z</time></trkpt>
<trkpt lat="48.941989898682" lon="2.9030230045319"><ele>94</ele><time>2026-4-30T23:10:34Z</time></trkpt>
<trkpt lat="48.942043304443" lon="2.9028978347778"><ele>94</ele><time>2026-4-30T23:10:37Z</time></trkpt>
<trkpt lat="48.942089080811" lon="2.9027836322784"><ele>95</ele><time>2026-4-30T23:10:40Z</time></trkpt>
<trkpt lat="48.942089080811" lon="2.9027836322784"><ele>95</ele><time>2026-4-30T23:10:43Z</time></trkpt>
<trkpt lat="48.942119598389" lon="2.9026730060577"><ele>95</ele><time>2026-4-30T23:10:46Z</time></trkpt>
<trkpt lat="48.942150115967" lon="2.9025657176971"><ele>94</ele><time>2026-4-30T23:10:49Z</time></trkpt>
<trkpt lat="48.942195892334" lon="2.9024555683136"><ele>93</ele><time>2026-4-30T23:10:52Z</time></trkpt>
<trkpt lat="48.942195892334" lon="2.9024555683136"><ele>93</ele><time>2026-4-30T23:10:55Z</time></trkpt>
<trkpt lat="48.942237854004" lon="2.9023387432098"><ele>93</ele><time>2026-4-30T23:10:58Z</time></trkpt>
<trkpt lat="48.942279815674" lon="2.9022657871246"><ele>93</ele><time>2026-4-30T23:11:1Z</time></trkpt>
<trkpt lat="48.942321777344" lon="2.9021530151367"><ele>93</ele><time>2026-4-30T23:11:4Z</time></trkpt>
<trkpt lat="48.942348480225" lon="2.9020366668701"><ele>93</ele><time>2026-4-30T23:11:7Z</time></trkpt>
<trkpt lat="48.942367553711" lon="2.9019303321838"><ele>93</ele><time>2026-4-30T23:11:10Z</time></trkpt>
<trkpt lat="48.942367553711" lon="2.9019303321838"><ele>93</ele><time>2026-4-30T23:11:13Z</time></trkpt>
<trkpt lat="48.942367553711" lon="2.9019303321838"><ele>93</ele><time>2026-4-30T23:11:16Z</time></trkpt>
<trkpt lat="48.942367553711" lon="2.9019303321838"><ele>93</ele><time>2026-4-30T23:11:19Z</time></trkpt>
<trkpt lat="48.942367553711" lon="2.9019303321838"><ele>93</ele><time>2026-4-30T23:11:22Z</time></trkpt>
<trkpt lat="48.942367553711" lon="2.9019303321838"><ele>93</ele><time>2026-4-30T23:11:25Z</time></trkpt>
<trkpt lat="48.942367553711" lon="2.9019303321838"><ele>93</ele><time>2026-4-30T23:11:28Z</time></trkpt>
<trkpt lat="48.942367553711" lon="2.9019303321838"><ele>93</ele><time>2026-4-30T23:11:31Z</time></trkpt>
<trkpt lat="48.942367553711" lon="2.9019303321838"><ele>93</ele><time>2026-4-30T23:11:34Z</time></trkpt>
<trkpt lat="48.942447662354" lon="2.9016506671906"><ele>93</ele><time>2026-4-30T23:11:37Z</time></trkpt>
<trkpt lat="48.942470550537" lon="2.9015686511993"><ele>93</ele><time>2026-4-30T23:11:40Z</time></trkpt>
<trkpt lat="48.942497253418" lon="2.9014883041382"><ele>93</ele><time>2026-4-30T23:11:43Z</time></trkpt>
<trkpt lat="48.942523956299" lon="2.9013984203339"><ele>93</ele><time>2026-4-30T23:11:46Z</time></trkpt>
<trkpt lat="48.942546844482" lon="2.9012930393219"><ele>93</ele><time>2026-4-30T23:11:49Z</time></trkpt>
<trkpt lat="48.942565917969" lon="2.9012014865875"><ele>93</ele><time>2026-4-30T23:11:52Z</time></trkpt>
<trkpt lat="48.94259262085" lon="2.9011008739471"><ele>93</ele><time>2026-4-30T23:11:55Z</time></trkpt>
<trkpt lat="48.942615509033" lon="2.9010202884674"><ele>93</ele><time>2026-4-30T23:11:58Z</time></trkpt>
<trkpt lat="48.942649841309" lon="2.9009130001068"><ele>93</ele><time>2026-4-30T23:12:1Z</time></trkpt>
<trkpt lat="48.942684173584" lon="2.9008061885834"><ele>93</ele><time>2026-4-30T23:12:4Z</time></trkpt>
<trkpt lat="48.942684173584" lon="2.9008061885834"><ele>93</ele><time>2026-4-30T23:12:7Z</time></trkpt>
<trkpt lat="48.942714691162" lon="2.9007000923157"><ele>93</ele><time>2026-4-30T23:12:10Z</time></trkpt>
<trkpt lat="48.942726135254" lon="2.9005906581879"><ele>93</ele><time>2026-4-30T23:12:13Z</time></trkpt>
<trkpt lat="48.942691802979" lon="2.9005043506622"><ele>93</ele><time>2026-4-30T23:12:16Z</time></trkpt>
<trkpt lat="48.942691802979" lon="2.9005043506622"><ele>93</ele><time>2026-4-30T23:12:19Z</time></trkpt>
<trkpt lat="48.942630767822" lon="2.9004580974579"><ele>93</ele><time>2026-4-30T23:12:22Z</time></trkpt>
<trkpt lat="48.942573547363" lon="2.9004247188568"><ele>93</ele><time>2026-4-30T23:12:25Z</time></trkpt>
<trkpt lat="48.94250869751" lon="2.900365114212"><ele>93</ele><time>2026-4-30T23:12:28Z</time></trkpt>
<trkpt lat="48.942443847656" lon="2.900315284729"><ele>93</ele><time>2026-4-30T23:12:31Z</time></trkpt>
<trkpt lat="48.942367553711" lon="2.9002566337585"><ele>93</ele><time>2026-4-30T23:12:34Z</time></trkpt>
<trkpt lat="48.942283630371" lon="2.9001998901367"><ele>93</ele><time>2026-4-30T23:12:37Z</time></trkpt>
<trkpt lat="48.942226409912" lon="2.9001593589783"><ele>94</ele><time>2026-4-30T23:12:40Z</time></trkpt>
<trkpt lat="48.942226409912" lon="2.9001593589783"><ele>94</ele><time>2026-4-30T23:12:43Z</time></trkpt>
<trkpt lat="48.942169189453" lon="2.9001111984253"><ele>94</ele><time>2026-4-30T23:12:46Z</time></trkpt>
<trkpt lat="48.942169189453" lon="2.9001111984253"><ele>94</ele><time>2026-4-30T23:12:49Z</time></trkpt>
<trkpt lat="48.942085266113" lon="2.9000287055969"><ele>94</ele><time>2026-4-30T23:12:52Z</time></trkpt>
<trkpt lat="48.942085266113" lon="2.9000287055969"><ele>94</ele><time>2026-4-30T23:12:55Z</time></trkpt>
<trkpt lat="48.942085266113" lon="2.9000287055969"><ele>94</ele><time>2026-4-30T23:12:58Z</time></trkpt>
<trkpt lat="48.941993713379" lon="2.8999664783478"><ele>94</ele><time>2026-4-30T23:13:1Z</time></trkpt>
<trkpt lat="48.941993713379" lon="2.8999664783478"><ele>94</ele><time>2026-4-30T23:13:4Z</time></trkpt>
<trkpt lat="48.941913604736" lon="2.8999199867249"><ele>94</ele><time>2026-4-30T23:13:7Z</time></trkpt>
<trkpt lat="48.941913604736" lon="2.8999199867249"><ele>94</ele><time>2026-4-30T23:13:10Z</time></trkpt>
<trkpt lat="48.941841125488" lon="2.8998675346375"><ele>94</ele><time>2026-4-30T23:13:13Z</time></trkpt>
<trkpt lat="48.941841125488" lon="2.8998675346375"><ele>94</ele><time>2026-4-30T23:13:16Z</time></trkpt>
<trkpt lat="48.941776275635" lon="2.8998184204102"><ele>94</ele><time>2026-4-30T23:13:19Z</time></trkpt>
<trkpt lat="48.941776275635" lon="2.8998184204102"><ele>94</ele><time>2026-4-30T23:13:22Z</time></trkpt>
<trkpt lat="48.941776275635" lon="2.8998184204102"><ele>94</ele><time>2026-4-30T23:13:25Z</time></trkpt>
<trkpt lat="48.941696166992" lon="2.8997490406036"><ele>94</ele><time>2026-4-30T23:13:28Z</time></trkpt>
<trkpt lat="48.941696166992" lon="2.8997490406036"><ele>94</ele><time>2026-4-30T23:13:31Z</time></trkpt>
<trkpt lat="48.941608428955" lon="2.8996760845184"><ele>94</ele><time>2026-4-30T23:13:34Z</time></trkpt>
<trkpt lat="48.941509246826" lon="2.8995952606201"><ele>94</ele><time>2026-4-30T23:13:37Z</time></trkpt>
<trkpt lat="48.941509246826" lon="2.8995952606201"><ele>94</ele><time>2026-4-30T23:13:40Z</time></trkpt>
<trkpt lat="48.941509246826" lon="2.8995952606201"><ele>94</ele><time>2026-4-30T23:13:43Z</time></trkpt>
<trkpt lat="48.941509246826" lon="2.8995952606201"><ele>94</ele><time>2026-4-30T23:13:46Z</time></trkpt>
<trkpt lat="48.941509246826" lon="2.8995952606201"><ele>94</ele><time>2026-4-30T23:13:49Z</time></trkpt>
<trkpt lat="48.941551208496" lon="2.8996708393097"><ele>94</ele><time>2026-4-30T23:13:52Z</time></trkpt>
<trkpt lat="48.94161605835" lon="2.8997163772583"><ele>94</ele><time>2026-4-30T23:13:55Z</time></trkpt>
<trkpt lat="48.941677093506" lon="2.8997604846954"><ele>94</ele><time>2026-4-30T23:13:58Z</time></trkpt>
<trkpt lat="48.941677093506" lon="2.8997604846954"><ele>94</ele><time>2026-4-30T23:14:1Z</time></trkpt>
<trkpt lat="48.941677093506" lon="2.8997604846954"><ele>94</ele><time>2026-4-30T23:14:4Z</time></trkpt>
<trkpt lat="48.941734313965" lon="2.8998203277588"><ele>94</ele><time>2026-4-30T23:14:7Z</time></trkpt>
<trkpt lat="48.941734313965" lon="2.8998203277588"><ele>94</ele><time>2026-4-30T23:14:10Z</time></trkpt>
<trkpt lat="48.941734313965" lon="2.8998203277588"><ele>94</ele><time>2026-4-30T23:14:13Z</time></trkpt>
<trkpt lat="48.941734313965" lon="2.8998203277588"><ele>94</ele><time>2026-4-30T23:14:16Z</time></trkpt>
<trkpt lat="48.941734313965" lon="2.8998203277588"><ele>94</ele><time>2026-4-30T23:14:19Z</time></trkpt>
<trkpt lat="48.941734313965" lon="2.8998203277588"><ele>94</ele><time>2026-4-30T23:14:22Z</time></trkpt>
<trkpt lat="48.941734313965" lon="2.8998203277588"><ele>94</ele><time>2026-4-30T23:14:25Z</time></trkpt>
<trkpt lat="48.941635131836" lon="2.8999855518341"><ele>94</ele><time>2026-4-30T23:14:28Z</time></trkpt>
<trkpt lat="48.941596984863" lon="2.900062084198"><ele>95</ele><time>2026-4-30T23:14:31Z</time></trkpt>
<trkpt lat="48.941596984863" lon="2.900062084198"><ele>95</ele><time>2026-4-30T23:14:34Z</time></trkpt>
<trkpt lat="48.941547393799" lon="2.9001359939575"><ele>95</ele><time>2026-4-30T23:14:37Z</time></trkpt>
<trkpt lat="48.941493988037" lon="2.9002084732056"><ele>95</ele><time>2026-4-30T23:14:40Z</time></trkpt>
<trkpt lat="48.941413879395" lon="2.9003064632416"><ele>95</ele><time>2026-4-30T23:14:43Z</time></trkpt>
<trkpt lat="48.94136428833" lon="2.9003636837006"><ele>95</ele><time>2026-4-30T23:14:46Z</time></trkpt>
<trkpt lat="48.941314697266" lon="2.900411605835"><ele>95</ele><time>2026-4-30T23:14:49Z</time></trkpt>
<trkpt lat="48.941230773926" lon="2.9004962444305"><ele>95</ele><time>2026-4-30T23:14:52Z</time></trkpt>
<trkpt lat="48.941184997559" lon="2.9005496501923"><ele>95</ele><time>2026-4-30T23:14:55Z</time></trkpt>
<trkpt lat="48.941131591797" lon="2.900604724884"><ele>95</ele><time>2026-4-30T23:14:58Z</time></trkpt>
<trkpt lat="48.941131591797" lon="2.900604724884"><ele>95</ele><time>2026-4-30T23:15:1Z</time></trkpt>
<trkpt lat="48.941078186035" lon="2.9006595611572"><ele>95</ele><time>2026-4-30T23:15:4Z</time></trkpt>
<trkpt lat="48.941028594971" lon="2.9007158279419"><ele>95</ele><time>2026-4-30T23:15:7Z</time></trkpt>
<trkpt lat="48.940975189209" lon="2.9007790088654"><ele>95</ele><time>2026-4-30T23:15:10Z</time></trkpt>
<trkpt lat="48.940975189209" lon="2.9007790088654"><ele>95</ele><time>2026-4-30T23:15:13Z</time></trkpt>
<trkpt lat="48.940921783447" lon="2.9008386135101"><ele>95</ele><time>2026-4-30T23:15:16Z</time></trkpt>
<trkpt lat="48.940868377686" lon="2.9008901119232"><ele>95</ele><time>2026-4-30T23:15:19Z</time></trkpt>
<trkpt lat="48.940780639648" lon="2.9009692668915"><ele>95</ele><time>2026-4-30T23:15:22Z</time></trkpt>
<trkpt lat="48.940715789795" lon="2.9010109901428"><ele>95</ele><time>2026-4-30T23:15:25Z</time></trkpt>
<trkpt lat="48.940658569336" lon="2.9010534286499"><ele>95</ele><time>2026-4-30T23:15:28Z</time></trkpt>
<trkpt lat="48.94059753418" lon="2.9010891914368"><ele>95</ele><time>2026-4-30T23:15:31Z</time></trkpt>
<trkpt lat="48.940540313721" lon="2.9011216163635"><ele>95</ele><time>2026-4-30T23:15:34Z</time></trkpt>
<trkpt lat="48.940483093262" lon="2.9011495113373"><ele>95</ele><time>2026-4-30T23:15:37Z</time></trkpt>
<trkpt lat="48.940425872803" lon="2.9011609554291"><ele>95</ele><time>2026-4-30T23:15:40Z</time></trkpt>
<trkpt lat="48.940425872803" lon="2.9011609554291"><ele>95</ele><time>2026-4-30T23:15:43Z</time></trkpt>
<trkpt lat="48.940322875977" lon="2.9011869430542"><ele>95</ele><time>2026-4-30T23:15:46Z</time></trkpt>
<trkpt lat="48.940322875977" lon="2.9011869430542"><ele>95</ele><time>2026-4-30T23:15:49Z</time></trkpt>
<trkpt lat="48.94021987915" lon="2.9012274742126"><ele>95</ele><time>2026-4-30T23:15:52Z</time></trkpt>
<trkpt lat="48.940166473389" lon="2.9012730121613"><ele>95</ele><time>2026-4-30T23:15:55Z</time></trkpt>
<trkpt lat="48.940166473389" lon="2.9012730121613"><ele>95</ele><time>2026-4-30T23:15:58Z</time></trkpt>
<trkpt lat="48.940120697021" lon="2.9013259410858"><ele>95</ele><time>2026-4-30T23:16:1Z</time></trkpt>
<trkpt lat="48.940078735352" lon="2.9013915061951"><ele>95</ele><time>2026-4-30T23:16:4Z</time></trkpt>
<trkpt lat="48.940036773682" lon="2.901468038559"><ele>95</ele><time>2026-4-30T23:16:7Z</time></trkpt>
<trkpt lat="48.940036773682" lon="2.901468038559"><ele>95</ele><time>2026-4-30T23:16:10Z</time></trkpt>
<trkpt lat="48.939998626709" lon="2.9015426635742"><ele>95</ele><time>2026-4-30T23:16:13Z</time></trkpt>
<trkpt lat="48.939998626709" lon="2.9015426635742"><ele>95</ele><time>2026-4-30T23:16:16Z</time></trkpt>
<trkpt lat="48.939933776855" lon="2.9016673564911"><ele>95</ele><time>2026-4-30T23:16:19Z</time></trkpt>
<trkpt lat="48.939933776855" lon="2.9016673564911"><ele>95</ele><time>2026-4-30T23:16:22Z</time></trkpt>
<trkpt lat="48.939891815186" lon="2.9017372131348"><ele>94</ele><time>2026-4-30T23:16:25Z</time></trkpt>
<trkpt lat="48.939849853516" lon="2.9018120765686"><ele>94</ele><time>2026-4-30T23:16:28Z</time></trkpt>
<trkpt lat="48.939811706543" lon="2.9018785953522"><ele>94</ele><time>2026-4-30T23:16:31Z</time></trkpt>
<trkpt lat="48.939765930176" lon="2.901956319809"><ele>94</ele><time>2026-4-30T23:16:34Z</time></trkpt>
<trkpt lat="48.9397315979" lon="2.9020268917084"><ele>94</ele><time>2026-4-30T23:16:37Z</time></trkpt>
<trkpt lat="48.939693450928" lon="2.9021039009094"><ele>94</ele><time>2026-4-30T23:16:40Z</time></trkpt>
<trkpt lat="48.939647674561" lon="2.9021925926208"><ele>94</ele><time>2026-4-30T23:16:43Z</time></trkpt>
<trkpt lat="48.939571380615" lon="2.9023249149323"><ele>94</ele><time>2026-4-30T23:16:46Z</time></trkpt>
<trkpt lat="48.939571380615" lon="2.9023249149323"><ele>94</ele><time>2026-4-30T23:16:49Z</time></trkpt>
<trkpt lat="48.939517974854" lon="2.9023792743683"><ele>94</ele><time>2026-4-30T23:16:52Z</time></trkpt>
<trkpt lat="48.939464569092" lon="2.9024248123169"><ele>94</ele><time>2026-4-30T23:16:55Z</time></trkpt>
<trkpt lat="48.939464569092" lon="2.9024248123169"><ele>94</ele><time>2026-4-30T23:16:58Z</time></trkpt>
<trkpt lat="48.939373016357" lon="2.9025082588196"><ele>94</ele><time>2026-4-30T23:17:1Z</time></trkpt>
<trkpt lat="48.93932723999" lon="2.9025557041168"><ele>94</ele><time>2026-4-30T23:17:4Z</time></trkpt>
<trkpt lat="48.93932723999" lon="2.9025557041168"><ele>94</ele><time>2026-4-30T23:17:7Z</time></trkpt>
<trkpt lat="48.93932723999" lon="2.9025557041168"><ele>94</ele><time>2026-4-30T23:17:10Z</time></trkpt>
<trkpt lat="48.939208984375" lon="2.9025189876556"><ele>94</ele><time>2026-4-30T23:17:13Z</time></trkpt>
<trkpt lat="48.939136505127" lon="2.9024772644043"><ele>94</ele><time>2026-4-30T23:17:16Z</time></trkpt>
<trkpt lat="48.939067840576" lon="2.9024195671082"><ele>94</ele><time>2026-4-30T23:17:19Z</time></trkpt>
<trkpt lat="48.939067840576" lon="2.9024195671082"><ele>94</ele><time>2026-4-30T23:17:22Z</time></trkpt>
<trkpt lat="48.939018249512" lon="2.9023523330688"><ele>94</ele><time>2026-4-30T23:17:25Z</time></trkpt>
<trkpt lat="48.938976287842" lon="2.9022791385651"><ele>94</ele><time>2026-4-30T23:17:28Z</time></trkpt>
<trkpt lat="48.938926696777" lon="2.9021966457367"><ele>94</ele><time>2026-4-30T23:17:31Z</time></trkpt>
<trkpt lat="48.938926696777" lon="2.9021966457367"><ele>94</ele><time>2026-4-30T23:17:34Z</time></trkpt>
<trkpt lat="48.938865661621" lon="2.902037858963"><ele>94</ele><time>2026-4-30T23:17:37Z</time></trkpt>
<trkpt lat="48.938865661621" lon="2.902037858963"><ele>94</ele><time>2026-4-30T23:17:40Z</time></trkpt>
<trkpt lat="48.938816070557" lon="2.9018805027008"><ele>94</ele><time>2026-4-30T23:17:43Z</time></trkpt>
<trkpt lat="48.938793182373" lon="2.9017670154572"><ele>94</ele><time>2026-4-30T23:17:46Z</time></trkpt>
<trkpt lat="48.938789367676" lon="2.9016623497009"><ele>94</ele><time>2026-4-30T23:17:49Z</time></trkpt>
<trkpt lat="48.938789367676" lon="2.9016623497009"><ele>94</ele><time>2026-4-30T23:17:52Z</time></trkpt>
<trkpt lat="48.938789367676" lon="2.9016623497009"><ele>94</ele><time>2026-4-30T23:17:55Z</time></trkpt>
<trkpt lat="48.938774108887" lon="2.9014892578125"><ele>94</ele><time>2026-4-30T23:17:58Z</time></trkpt>
<trkpt lat="48.938762664795" lon="2.9013955593109"><ele>94</ele><time>2026-4-30T23:18:1Z</time></trkpt>
<trkpt lat="48.938762664795" lon="2.9012892246246"><ele>94</ele><time>2026-4-30T23:18:4Z</time></trkpt>
<trkpt lat="48.938766479492" lon="2.9012002944946"><ele>94</ele><time>2026-4-30T23:18:7Z</time></trkpt>
<trkpt lat="48.938781738281" lon="2.9010901451111"><ele>94</ele><time>2026-4-30T23:18:10Z</time></trkpt>
<trkpt lat="48.938781738281" lon="2.9010901451111"><ele>94</ele><time>2026-4-30T23:18:13Z</time></trkpt>
<trkpt lat="48.938793182373" lon="2.9010019302368"><ele>94</ele><time>2026-4-30T23:18:16Z</time></trkpt>
<trkpt lat="48.938793182373" lon="2.9010019302368"><ele>94</ele><time>2026-4-30T23:18:19Z</time></trkpt>
<trkpt lat="48.938812255859" lon="2.9008331298828"><ele>94</ele><time>2026-4-30T23:18:22Z</time></trkpt>
<trkpt lat="48.938812255859" lon="2.9008331298828"><ele>94</ele><time>2026-4-30T23:18:25Z</time></trkpt>
<trkpt lat="48.938793182373" lon="2.900680065155"><ele>94</ele><time>2026-4-30T23:18:28Z</time></trkpt>
<trkpt lat="48.938766479492" lon="2.9005808830261"><ele>94</ele><time>2026-4-30T23:18:31Z</time></trkpt>
<trkpt lat="48.938766479492" lon="2.9005808830261"><ele>94</ele><time>2026-4-30T23:18:34Z</time></trkpt>
<trkpt lat="48.93872833252" lon="2.9004857540131"><ele>94</ele><time>2026-4-30T23:18:37Z</time></trkpt>
<trkpt lat="48.938697814941" lon="2.9003653526306"><ele>94</ele><time>2026-4-30T23:18:40Z</time></trkpt>
<trkpt lat="48.938655853271" lon="2.9002277851105"><ele>94</ele><time>2026-4-30T23:18:43Z</time></trkpt>
<trkpt lat="48.938655853271" lon="2.9002277851105"><ele>94</ele><time>2026-4-30T23:18:46Z</time></trkpt>
<trkpt lat="48.938621520996" lon="2.9001092910767"><ele>94</ele><time>2026-4-30T23:18:49Z</time></trkpt>
<trkpt lat="48.938591003418" lon="2.8999977111816"><ele>93</ele><time>2026-4-30T23:18:52Z</time></trkpt>
<trkpt lat="48.938564300537" lon="2.8998854160309"><ele>93</ele><time>2026-4-30T23:18:55Z</time></trkpt>
<trkpt lat="48.938564300537" lon="2.8998854160309"><ele>93</ele><time>2026-4-30T23:18:58Z</time></trkpt>
<trkpt lat="48.938533782959" lon="2.8997707366943"><ele>93</ele><time>2026-4-30T23:19:1Z</time></trkpt>
<trkpt lat="48.938510894775" lon="2.8996555805206"><ele>93</ele><time>2026-4-30T23:19:4Z</time></trkpt>
<trkpt lat="48.938488006592" lon="2.8995506763458"><ele>93</ele><time>2026-4-30T23:19:7Z</time></trkpt>
<trkpt lat="48.938488006592" lon="2.8995506763458"><ele>93</ele><time>2026-4-30T23:19:10Z</time></trkpt>
<trkpt lat="48.938468933105" lon="2.8994400501251"><ele>93</ele><time>2026-4-30T23:19:13Z</time></trkpt>
<trkpt lat="48.938446044922" lon="2.8993332386017"><ele>93</ele><time>2026-4-30T23:19:16Z</time></trkpt>
<trkpt lat="48.938415527344" lon="2.8992083072662"><ele>93</ele><time>2026-4-30T23:19:19Z</time></trkpt>
<trkpt lat="48.938385009766" lon="2.8990797996521"><ele>93</ele><time>2026-4-30T23:19:22Z</time></trkpt>
<trkpt lat="48.938362121582" lon="2.8989808559418"><ele>93</ele><time>2026-4-30T23:19:25Z</time></trkpt>
<trkpt lat="48.93835067749" lon="2.8988893032074"><ele>93</ele><time>2026-4-30T23:19:28Z</time></trkpt>
<trkpt lat="48.93835067749" lon="2.8988893032074"><ele>93</ele><time>2026-4-30T23:19:31Z</time></trkpt>
<trkpt lat="48.938339233398" lon="2.8987934589386"><ele>93</ele><time>2026-4-30T23:19:34Z</time></trkpt>
<trkpt lat="48.938316345215" lon="2.8986904621124"><ele>93</ele><time>2026-4-30T23:19:37Z</time></trkpt>
<trkpt lat="48.938301086426" lon="2.8985953330994"><ele>93</ele><time>2026-4-30T23:19:40Z</time></trkpt>
<trkpt lat="48.938301086426" lon="2.8985953330994"><ele>93</ele><time>2026-4-30T23:19:43Z</time></trkpt>
<trkpt lat="48.938282012939" lon="2.8984837532043"><ele>93</ele><time>2026-4-30T23:19:46Z</time></trkpt>
<trkpt lat="48.93826675415" lon="2.8983700275421"><ele>93</ele><time>2026-4-30T23:19:49Z</time></trkpt>
<trkpt lat="48.938259124756" lon="2.8982784748077"><ele>93</ele><time>2026-4-30T23:19:52Z</time></trkpt>
<trkpt lat="48.938259124756" lon="2.8982784748077"><ele>93</ele><time>2026-4-30T23:19:55Z</time></trkpt>
<trkpt lat="48.938243865967" lon="2.8981730937958"><ele>93</ele><time>2026-4-30T23:19:58Z</time></trkpt>
<trkpt lat="48.938228607178" lon="2.8980753421783"><ele>93</ele><time>2026-4-30T23:20:1Z</time></trkpt>
<trkpt lat="48.938228607178" lon="2.8980753421783"><ele>93</ele><time>2026-4-30T23:20:4Z</time></trkpt>
<trkpt lat="48.938217163086" lon="2.8979816436768"><ele>93</ele><time>2026-4-30T23:20:7Z</time></trkpt>
<trkpt lat="48.9381980896" lon="2.8978779315948"><ele>93</ele><time>2026-4-30T23:20:10Z</time></trkpt>
<trkpt lat="48.9381980896" lon="2.8978779315948"><ele>93</ele><time>2026-4-30T23:20:13Z</time></trkpt>
<trkpt lat="48.938175201416" lon="2.8977067470551"><ele>93</ele><time>2026-4-30T23:20:16Z</time></trkpt>
<trkpt lat="48.938175201416" lon="2.8977067470551"><ele>93</ele><time>2026-4-30T23:20:19Z</time></trkpt>
<trkpt lat="48.938152313232" lon="2.8975570201874"><ele>93</ele><time>2026-4-30T23:20:22Z</time></trkpt>
<trkpt lat="48.938152313232" lon="2.8975570201874"><ele>93</ele><time>2026-4-30T23:20:25Z</time></trkpt>
<trkpt lat="48.938137054443" lon="2.8974413871765"><ele>93</ele><time>2026-4-30T23:20:28Z</time></trkpt>
<trkpt lat="48.938137054443" lon="2.897313117981"><ele>93</ele><time>2026-4-30T23:20:31Z</time></trkpt>
<trkpt lat="48.938167572021" lon="2.8972356319427"><ele>93</ele><time>2026-4-30T23:20:34Z</time></trkpt>
<trkpt lat="48.938167572021" lon="2.8972356319427"><ele>93</ele><time>2026-4-30T23:20:37Z</time></trkpt>
<trkpt lat="48.938247680664" lon="2.8971738815308"><ele>93</ele><time>2026-4-30T23:20:40Z</time></trkpt>
<trkpt lat="48.938247680664" lon="2.8971738815308"><ele>93</ele><time>2026-4-30T23:20:43Z</time></trkpt>
<trkpt lat="48.938247680664" lon="2.8971738815308"><ele>93</ele><time>2026-4-30T23:20:46Z</time></trkpt>
<trkpt lat="48.938247680664" lon="2.8971738815308"><ele>93</ele><time>2026-4-30T23:20:49Z</time></trkpt>
<trkpt lat="48.938179016113" lon="2.897280216217"><ele>92</ele><time>2026-4-30T23:20:52Z</time></trkpt>
<trkpt lat="48.938179016113" lon="2.897280216217"><ele>92</ele><time>2026-4-30T23:20:55Z</time></trkpt>
<trkpt lat="48.938209533691" lon="2.897412776947"><ele>92</ele><time>2026-4-30T23:20:58Z</time></trkpt>
<trkpt lat="48.938209533691" lon="2.897412776947"><ele>92</ele><time>2026-4-30T23:21:1Z</time></trkpt>
<trkpt lat="48.938293457031" lon="2.8974225521088"><ele>92</ele><time>2026-4-30T23:21:4Z</time></trkpt>
<trkpt lat="48.938293457031" lon="2.8974225521088"><ele>92</ele><time>2026-4-30T23:21:7Z</time></trkpt>
<trkpt lat="48.938388824463" lon="2.8973777294159"><ele>92</ele><time>2026-4-30T23:21:10Z</time></trkpt>
<trkpt lat="48.938388824463" lon="2.8973777294159"><ele>92</ele><time>2026-4-30T23:21:13Z</time></trkpt>
<trkpt lat="48.938388824463" lon="2.8973777294159"><ele>92</ele><time>2026-4-30T23:21:16Z</time></trkpt>
<trkpt lat="48.93843460083" lon="2.8973083496094"><ele>92</ele><time>2026-4-30T23:21:19Z</time></trkpt>
<trkpt lat="48.93843460083" lon="2.8973083496094"><ele>92</ele><time>2026-4-30T23:21:22Z</time></trkpt>
<trkpt lat="48.938327789307" lon="2.897392988205"><ele>92</ele><time>2026-4-30T23:21:25Z</time></trkpt>
<trkpt lat="48.938251495361" lon="2.8973989486694"><ele>92</ele><time>2026-4-30T23:21:28Z</time></trkpt>
<trkpt lat="48.938251495361" lon="2.8973989486694"><ele>92</ele><time>2026-4-30T23:21:31Z</time></trkpt>
<trkpt lat="48.938228607178" lon="2.89723777771"><ele>92</ele><time>2026-4-30T23:21:34Z</time></trkpt>
<trkpt lat="48.938270568848" lon="2.8971350193024"><ele>92</ele><time>2026-4-30T23:21:37Z</time></trkpt>
<trkpt lat="48.938270568848" lon="2.8971350193024"><ele>92</ele><time>2026-4-30T23:21:40Z</time></trkpt>
<trkpt lat="48.938323974609" lon="2.8970410823822"><ele>92</ele><time>2026-4-30T23:21:43Z</time></trkpt>
<trkpt lat="48.938396453857" lon="2.8969390392303"><ele>90</ele><time>2026-4-30T23:21:46Z</time></trkpt>
<trkpt lat="48.938484191895" lon="2.8968250751495"><ele>90</ele><time>2026-4-30T23:21:49Z</time></trkpt>
<trkpt lat="48.938556671143" lon="2.8967242240906"><ele>90</ele><time>2026-4-30T23:21:52Z</time></trkpt>
<trkpt lat="48.938606262207" lon="2.8966474533081"><ele>89</ele><time>2026-4-30T23:21:55Z</time></trkpt>
<trkpt lat="48.938655853271" lon="2.8965902328491"><ele>89</ele><time>2026-4-30T23:21:58Z</time></trkpt>
<trkpt lat="48.938655853271" lon="2.8965902328491"><ele>89</ele><time>2026-4-30T23:22:1Z</time></trkpt>
<trkpt lat="48.938655853271" lon="2.8965902328491"><ele>89</ele><time>2026-4-30T23:22:4Z</time></trkpt>
<trkpt lat="48.938655853271" lon="2.8965902328491"><ele>89</ele><time>2026-4-30T23:22:7Z</time></trkpt>
<trkpt lat="48.938598632812" lon="2.896665096283"><ele>89</ele><time>2026-4-30T23:22:10Z</time></trkpt>
<trkpt lat="48.938598632812" lon="2.896665096283"><ele>89</ele><time>2026-4-30T23:22:13Z</time></trkpt>
<trkpt lat="48.938549041748" lon="2.8967349529266"><ele>89</ele><time>2026-4-30T23:22:16Z</time></trkpt>
<trkpt lat="48.938549041748" lon="2.8967349529266"><ele>89</ele><time>2026-4-30T23:22:19Z</time></trkpt>
<trkpt lat="48.938549041748" lon="2.8967349529266"><ele>89</ele><time>2026-4-30T23:22:22Z</time></trkpt>
<trkpt lat="48.938613891602" lon="2.8966205120087"><ele>89</ele><time>2026-4-30T23:22:25Z</time></trkpt>
<trkpt lat="48.938663482666" lon="2.8965537548065"><ele>89</ele><time>2026-4-30T23:22:28Z</time></trkpt>
<trkpt lat="48.938735961914" lon="2.8964462280273"><ele>89</ele><time>2026-4-30T23:22:31Z</time></trkpt>
<trkpt lat="48.938785552979" lon="2.896377325058"><ele>89</ele><time>2026-4-30T23:22:34Z</time></trkpt>
<trkpt lat="48.938827514648" lon="2.8963224887848"><ele>89</ele><time>2026-4-30T23:22:37Z</time></trkpt>
<trkpt lat="48.938827514648" lon="2.8963224887848"><ele>89</ele><time>2026-4-30T23:22:40Z</time></trkpt>
<trkpt lat="48.938873291016" lon="2.8962647914886"><ele>89</ele><time>2026-4-30T23:22:43Z</time></trkpt>
<trkpt lat="48.938919067383" lon="2.896210193634"><ele>89</ele><time>2026-4-30T23:22:46Z</time></trkpt>
<trkpt lat="48.93896484375" lon="2.8961465358734"><ele>89</ele><time>2026-4-30T23:22:49Z</time></trkpt>
<trkpt lat="48.939010620117" lon="2.8960838317871"><ele>89</ele><time>2026-4-30T23:22:52Z</time></trkpt>
<trkpt lat="48.939064025879" lon="2.8960151672363"><ele>89</ele><time>2026-4-30T23:22:55Z</time></trkpt>
<trkpt lat="48.939064025879" lon="2.8960151672363"><ele>89</ele><time>2026-4-30T23:22:58Z</time></trkpt>
<trkpt lat="48.939121246338" lon="2.8959400653839"><ele>89</ele><time>2026-4-30T23:23:1Z</time></trkpt>
<trkpt lat="48.939163208008" lon="2.8958797454834"><ele>89</ele><time>2026-4-30T23:23:4Z</time></trkpt>
<trkpt lat="48.93924331665" lon="2.8957629203796"><ele>89</ele><time>2026-4-30T23:23:7Z</time></trkpt>
<trkpt lat="48.93932723999" lon="2.8956441879272"><ele>89</ele><time>2026-4-30T23:23:10Z</time></trkpt>
<trkpt lat="48.93932723999" lon="2.8956441879272"><ele>89</ele><time>2026-4-30T23:23:13Z</time></trkpt>
<trkpt lat="48.939373016357" lon="2.8955843448639"><ele>89</ele><time>2026-4-30T23:23:16Z</time></trkpt>
<trkpt lat="48.939422607422" lon="2.8955109119415"><ele>89</ele><time>2026-4-30T23:23:19Z</time></trkpt>
<trkpt lat="48.939468383789" lon="2.8954362869263"><ele>89</ele><time>2026-4-30T23:23:22Z</time></trkpt>
<trkpt lat="48.939510345459" lon="2.8953731060028"><ele>89</ele><time>2026-4-30T23:23:25Z</time></trkpt>
<trkpt lat="48.939559936523" lon="2.8952927589417"><ele>89</ele><time>2026-4-30T23:23:28Z</time></trkpt>
<trkpt lat="48.939559936523" lon="2.8952927589417"><ele>89</ele><time>2026-4-30T23:23:31Z</time></trkpt>
<trkpt lat="48.939559936523" lon="2.8952927589417"><ele>89</ele><time>2026-4-30T23:23:34Z</time></trkpt>
<trkpt lat="48.93962097168" lon="2.8951737880707"><ele>89</ele><time>2026-4-30T23:23:37Z</time></trkpt>
<trkpt lat="48.93962097168" lon="2.8951737880707"><ele>89</ele><time>2026-4-30T23:23:40Z</time></trkpt>
<trkpt lat="48.939716339111" lon="2.8950550556183"><ele>88</ele><time>2026-4-30T23:23:43Z</time></trkpt>
<trkpt lat="48.939762115479" lon="2.8950006961823"><ele>88</ele><time>2026-4-30T23:23:46Z</time></trkpt>
<trkpt lat="48.939819335938" lon="2.8949289321899"><ele>88</ele><time>2026-4-30T23:23:49Z</time></trkpt>
<trkpt lat="48.939868927002" lon="2.8948500156403"><ele>88</ele><time>2026-4-30T23:23:52Z</time></trkpt>
<trkpt lat="48.939868927002" lon="2.8948500156403"><ele>88</ele><time>2026-4-30T23:23:55Z</time></trkpt>
<trkpt lat="48.939918518066" lon="2.8947536945343"><ele>88</ele><time>2026-4-30T23:23:58Z</time></trkpt>
<trkpt lat="48.939960479736" lon="2.8946833610535"><ele>89</ele><time>2026-4-30T23:24:1Z</time></trkpt>
<trkpt lat="48.940010070801" lon="2.8946077823639"><ele>89</ele><time>2026-4-30T23:24:4Z</time></trkpt>
<trkpt lat="48.940010070801" lon="2.8946077823639"><ele>89</ele><time>2026-4-30T23:24:7Z</time></trkpt>
<trkpt lat="48.940052032471" lon="2.8945260047913"><ele>89</ele><time>2026-4-30T23:24:10Z</time></trkpt>
<trkpt lat="48.940090179443" lon="2.8944518566132"><ele>89</ele><time>2026-4-30T23:24:13Z</time></trkpt>
<trkpt lat="48.940132141113" lon="2.8943846225739"><ele>89</ele><time>2026-4-30T23:24:16Z</time></trkpt>
<trkpt lat="48.940181732178" lon="2.8943166732788"><ele>89</ele><time>2026-4-30T23:24:19Z</time></trkpt>
<trkpt lat="48.940231323242" lon="2.8942530155182"><ele>89</ele><time>2026-4-30T23:24:22Z</time></trkpt>
<trkpt lat="48.940231323242" lon="2.8942530155182"><ele>89</ele><time>2026-4-30T23:24:25Z</time></trkpt>
<trkpt lat="48.940231323242" lon="2.8942530155182"><ele>89</ele><time>2026-4-30T23:24:28Z</time></trkpt>
<trkpt lat="48.940231323242" lon="2.8942530155182"><ele>89</ele><time>2026-4-30T23:24:31Z</time></trkpt>
<trkpt lat="48.940299987793" lon="2.8941769599915"><ele>90</ele><time>2026-4-30T23:24:34Z</time></trkpt>
<trkpt lat="48.940299987793" lon="2.8941769599915"><ele>90</ele><time>2026-4-30T23:24:37Z</time></trkpt>
<trkpt lat="48.940299987793" lon="2.8941769599915"><ele>90</ele><time>2026-4-30T23:24:40Z</time></trkpt>
<trkpt lat="48.94034576416" lon="2.89408826828"><ele>90</ele><time>2026-4-30T23:24:43Z</time></trkpt>
<trkpt lat="48.94034576416" lon="2.89408826828"><ele>90</ele><time>2026-4-30T23:24:46Z</time></trkpt>
<trkpt lat="48.94034576416" lon="2.89408826828"><ele>90</ele><time>2026-4-30T23:24:49Z</time></trkpt>
<trkpt lat="48.94034576416" lon="2.89408826828"><ele>90</ele><time>2026-4-30T23:24:52Z</time></trkpt>
<trkpt lat="48.940414428711" lon="2.8940279483795"><ele>90</ele><time>2026-4-30T23:24:55Z</time></trkpt>
<trkpt lat="48.940414428711" lon="2.8940279483795"><ele>90</ele><time>2026-4-30T23:24:58Z</time></trkpt>
<trkpt lat="48.940414428711" lon="2.8940279483795"><ele>90</ele><time>2026-4-30T23:25:1Z</time></trkpt>
<trkpt lat="48.940414428711" lon="2.8940279483795"><ele>90</ele><time>2026-4-30T23:25:4Z</time></trkpt>
<trkpt lat="48.940456390381" lon="2.8939652442932"><ele>90</ele><time>2026-4-30T23:25:7Z</time></trkpt>
<trkpt lat="48.940486907959" lon="2.8938839435577"><ele>90</ele><time>2026-4-30T23:25:10Z</time></trkpt>
<trkpt lat="48.940532684326" lon="2.8938028812408"><ele>90</ele><time>2026-4-30T23:25:13Z</time></trkpt>
<trkpt lat="48.940532684326" lon="2.8938028812408"><ele>90</ele><time>2026-4-30T23:25:16Z</time></trkpt>
<trkpt lat="48.940593719482" lon="2.8936901092529"><ele>90</ele><time>2026-4-30T23:25:19Z</time></trkpt>
<trkpt lat="48.940650939941" lon="2.8935806751251"><ele>90</ele><time>2026-4-30T23:25:22Z</time></trkpt>
<trkpt lat="48.940700531006" lon="2.8934907913208"><ele>90</ele><time>2026-4-30T23:25:25Z</time></trkpt>
<trkpt lat="48.940753936768" lon="2.8934097290039"><ele>90</ele><time>2026-4-30T23:25:28Z</time></trkpt>
<trkpt lat="48.940814971924" lon="2.8933174610138"><ele>90</ele><time>2026-4-30T23:25:31Z</time></trkpt>
<trkpt lat="48.940868377686" lon="2.893238067627"><ele>90</ele><time>2026-4-30T23:25:34Z</time></trkpt>
<trkpt lat="48.940868377686" lon="2.893238067627"><ele>90</ele><time>2026-4-30T23:25:37Z</time></trkpt>
<trkpt lat="48.940925598145" lon="2.8931541442871"><ele>90</ele><time>2026-4-30T23:25:40Z</time></trkpt>
<trkpt lat="48.940982818604" lon="2.8930871486664"><ele>91</ele><time>2026-4-30T23:25:43Z</time></trkpt>
<trkpt lat="48.941051483154" lon="2.8930065631866"><ele>91</ele><time>2026-4-30T23:25:46Z</time></trkpt>
<trkpt lat="48.941051483154" lon="2.8930065631866"><ele>91</ele><time>2026-4-30T23:25:49Z</time></trkpt>
<trkpt lat="48.9411277771" lon="2.8929214477539"><ele>92</ele><time>2026-4-30T23:25:52Z</time></trkpt>
<trkpt lat="48.94119644165" lon="2.8928451538086"><ele>92</ele><time>2026-4-30T23:25:55Z</time></trkpt>
<trkpt lat="48.941265106201" lon="2.8927774429321"><ele>92</ele><time>2026-4-30T23:25:58Z</time></trkpt>
<trkpt lat="48.941337585449" lon="2.8927114009857"><ele>92</ele><time>2026-4-30T23:26:1Z</time></trkpt>
<trkpt lat="48.941394805908" lon="2.8926529884338"><ele>92</ele><time>2026-4-30T23:26:4Z</time></trkpt>
<trkpt lat="48.94144821167" lon="2.8926038742065"><ele>92</ele><time>2026-4-30T23:26:7Z</time></trkpt>
<trkpt lat="48.94144821167" lon="2.8926038742065"><ele>92</ele><time>2026-4-30T23:26:10Z</time></trkpt>
<trkpt lat="48.941501617432" lon="2.8925361633301"><ele>92</ele><time>2026-4-30T23:26:13Z</time></trkpt>
<trkpt lat="48.941501617432" lon="2.8925361633301"><ele>92</ele><time>2026-4-30T23:26:16Z</time></trkpt>
<trkpt lat="48.941421508789" lon="2.8925800323486"><ele>92</ele><time>2026-4-30T23:26:19Z</time></trkpt>
<trkpt lat="48.94144821167" lon="2.8927402496338"><ele>92</ele><time>2026-4-30T23:26:22Z</time></trkpt>
<trkpt lat="48.941497802734" lon="2.8928742408752"><ele>92</ele><time>2026-4-30T23:26:25Z</time></trkpt>
<trkpt lat="48.941497802734" lon="2.8928742408752"><ele>92</ele><time>2026-4-30T23:26:28Z</time></trkpt>
<trkpt lat="48.941555023193" lon="2.8929853439331"><ele>92</ele><time>2026-4-30T23:26:31Z</time></trkpt>
<trkpt lat="48.941555023193" lon="2.8929853439331"><ele>92</ele><time>2026-4-30T23:26:34Z</time></trkpt>
<trkpt lat="48.94161605835" lon="2.8929917812347"><ele>92</ele><time>2026-4-30T23:26:37Z</time></trkpt>
<trkpt lat="48.94161605835" lon="2.8929917812347"><ele>92</ele><time>2026-4-30T23:26:40Z</time></trkpt>
<trkpt lat="48.94161605835" lon="2.8929917812347"><ele>92</ele><time>2026-4-30T23:26:43Z</time></trkpt>
<trkpt lat="48.941699981689" lon="2.8929574489594"><ele>92</ele><time>2026-4-30T23:26:46Z</time></trkpt>
<trkpt lat="48.941738128662" lon="2.8928933143616"><ele>92</ele><time>2026-4-30T23:26:49Z</time></trkpt>
<trkpt lat="48.941799163818" lon="2.8928046226501"><ele>92</ele><time>2026-4-30T23:26:52Z</time></trkpt>
<trkpt lat="48.941860198975" lon="2.8927330970764"><ele>92</ele><time>2026-4-30T23:26:55Z</time></trkpt>
<trkpt lat="48.941905975342" lon="2.892683506012"><ele>92</ele><time>2026-4-30T23:26:58Z</time></trkpt>
<trkpt lat="48.941905975342" lon="2.892683506012"><ele>92</ele><time>2026-4-30T23:27:1Z</time></trkpt>
<trkpt lat="48.941993713379" lon="2.8927247524261"><ele>92</ele><time>2026-4-30T23:27:4Z</time></trkpt>
<trkpt lat="48.942077636719" lon="2.8927791118622"><ele>92</ele><time>2026-4-30T23:27:7Z</time></trkpt>
<trkpt lat="48.94214630127" lon="2.8927969932556"><ele>92</ele><time>2026-4-30T23:27:10Z</time></trkpt>
<trkpt lat="48.94221496582" lon="2.892810344696"><ele>92</ele><time>2026-4-30T23:27:13Z</time></trkpt>
<trkpt lat="48.942283630371" lon="2.8928048610687"><ele>91</ele><time>2026-4-30T23:27:16Z</time></trkpt>
<trkpt lat="48.942344665527" lon="2.8927872180939"><ele>91</ele><time>2026-4-30T23:27:19Z</time></trkpt>
<trkpt lat="48.942398071289" lon="2.8927595615387"><ele>91</ele><time>2026-4-30T23:27:22Z</time></trkpt>
<trkpt lat="48.942501068115" lon="2.8927364349365"><ele>91</ele><time>2026-4-30T23:27:25Z</time></trkpt>
<trkpt lat="48.942596435547" lon="2.8928322792053"><ele>91</ele><time>2026-4-30T23:27:28Z</time></trkpt>
<trkpt lat="48.9426612854" lon="2.8929352760315"><ele>91</ele><time>2026-4-30T23:27:31Z</time></trkpt>
<trkpt lat="48.942729949951" lon="2.8930490016937"><ele>91</ele><time>2026-4-30T23:27:34Z</time></trkpt>
<trkpt lat="48.94278717041" lon="2.893137216568"><ele>92</ele><time>2026-4-30T23:27:37Z</time></trkpt>
<trkpt lat="48.942840576172" lon="2.8932297229767"><ele>93</ele><time>2026-4-30T23:27:40Z</time></trkpt>
<trkpt lat="48.942882537842" lon="2.8933160305023"><ele>93</ele><time>2026-4-30T23:27:43Z</time></trkpt>
<trkpt lat="48.942920684814" lon="2.8933999538422"><ele>93</ele><time>2026-4-30T23:27:46Z</time></trkpt>
<trkpt lat="48.942951202393" lon="2.8934786319733"><ele>93</ele><time>2026-4-30T23:27:49Z</time></trkpt>
<trkpt lat="48.942951202393" lon="2.8934786319733"><ele>93</ele><time>2026-4-30T23:27:52Z</time></trkpt>
<trkpt lat="48.942970275879" lon="2.8936159610748"><ele>92</ele><time>2026-4-30T23:27:55Z</time></trkpt>
<trkpt lat="48.942970275879" lon="2.8936159610748"><ele>92</ele><time>2026-4-30T23:27:58Z</time></trkpt>
<trkpt lat="48.942985534668" lon="2.8937282562256"><ele>92</ele><time>2026-4-30T23:28:1Z</time></trkpt>
<trkpt lat="48.942985534668" lon="2.8937282562256"><ele>92</ele><time>2026-4-30T23:28:4Z</time></trkpt>
<trkpt lat="48.942958831787" lon="2.8938477039337"><ele>92</ele><time>2026-4-30T23:28:7Z</time></trkpt>
<trkpt lat="48.942958831787" lon="2.8938477039337"><ele>92</ele><time>2026-4-30T23:28:10Z</time></trkpt>
<trkpt lat="48.942958831787" lon="2.8939893245697"><ele>92</ele><time>2026-4-30T23:28:13Z</time></trkpt>
<trkpt lat="48.943016052246" lon="2.8940525054932"><ele>92</ele><time>2026-4-30T23:28:16Z</time></trkpt>
<trkpt lat="48.943092346191" lon="2.89408826828"><ele>92</ele><time>2026-4-30T23:28:19Z</time></trkpt>
<trkpt lat="48.943183898926" lon="2.894118309021"><ele>91</ele><time>2026-4-30T23:28:22Z</time></trkpt>
<trkpt lat="48.94327545166" lon="2.8941795825958"><ele>90</ele><time>2026-4-30T23:28:25Z</time></trkpt>
<trkpt lat="48.943340301514" lon="2.8942823410034"><ele>90</ele><time>2026-4-30T23:28:28Z</time></trkpt>
<trkpt lat="48.943389892578" lon="2.8943974971771"><ele>90</ele><time>2026-4-30T23:28:31Z</time></trkpt>
<trkpt lat="48.943450927734" lon="2.8945109844208"><ele>90</ele><time>2026-4-30T23:28:34Z</time></trkpt>
<trkpt lat="48.943492889404" lon="2.8946218490601"><ele>90</ele><time>2026-4-30T23:28:37Z</time></trkpt>
<trkpt lat="48.94352722168" lon="2.8947219848633"><ele>90</ele><time>2026-4-30T23:28:40Z</time></trkpt>
<trkpt lat="48.94356918335" lon="2.8948006629944"><ele>90</ele><time>2026-4-30T23:28:43Z</time></trkpt>
<trkpt lat="48.94356918335" lon="2.8948006629944"><ele>90</ele><time>2026-4-30T23:28:46Z</time></trkpt>
<trkpt lat="48.943618774414" lon="2.8949527740479"><ele>90</ele><time>2026-4-30T23:28:49Z</time></trkpt>
<trkpt lat="48.943618774414" lon="2.8949527740479"><ele>90</ele><time>2026-4-30T23:28:52Z</time></trkpt>
<trkpt lat="48.94367980957" lon="2.8950655460358"><ele>90</ele><time>2026-4-30T23:28:55Z</time></trkpt>
<trkpt lat="48.943740844727" lon="2.89515209198"><ele>90</ele><time>2026-4-30T23:28:58Z</time></trkpt>
<trkpt lat="48.943824768066" lon="2.8952434062958"><ele>91</ele><time>2026-4-30T23:29:1Z</time></trkpt>
<trkpt lat="48.943935394287" lon="2.8952867984772"><ele>91</ele><time>2026-4-30T23:29:4Z</time></trkpt>
<trkpt lat="48.944030761719" lon="2.8952524662018"><ele>92</ele><time>2026-4-30T23:29:7Z</time></trkpt>
<trkpt lat="48.944107055664" lon="2.8952052593231"><ele>92</ele><time>2026-4-30T23:29:10Z</time></trkpt>
<trkpt lat="48.944164276123" lon="2.8951597213745"><ele>92</ele><time>2026-4-30T23:29:13Z</time></trkpt>
<trkpt lat="48.944225311279" lon="2.8950958251953"><ele>92</ele><time>2026-4-30T23:29:16Z</time></trkpt>
<trkpt lat="48.944309234619" lon="2.8950419425964"><ele>92</ele><time>2026-4-30T23:29:19Z</time></trkpt>
<trkpt lat="48.944374084473" lon="2.8949959278107"><ele>92</ele><time>2026-4-30T23:29:22Z</time></trkpt>
<trkpt lat="48.944438934326" lon="2.8949754238129"><ele>91</ele><time>2026-4-30T23:29:25Z</time></trkpt>
<trkpt lat="48.944515228271" lon="2.8949673175812"><ele>91</ele><time>2026-4-30T23:29:28Z</time></trkpt>
<trkpt lat="48.944595336914" lon="2.8949642181396"><ele>91</ele><time>2026-4-30T23:29:31Z</time></trkpt>
<trkpt lat="48.944667816162" lon="2.8949751853943"><ele>91</ele><time>2026-4-30T23:29:34Z</time></trkpt>
<trkpt lat="48.94474029541" lon="2.8949830532074"><ele>91</ele><time>2026-4-30T23:29:37Z</time></trkpt>
<trkpt lat="48.944831848145" lon="2.8949503898621"><ele>91</ele><time>2026-4-30T23:29:40Z</time></trkpt>
<trkpt lat="48.944931030273" lon="2.8949036598206"><ele>92</ele><time>2026-4-30T23:29:43Z</time></trkpt>
<trkpt lat="48.945030212402" lon="2.8949069976807"><ele>92</ele><time>2026-4-30T23:29:46Z</time></trkpt>
<trkpt lat="48.945121765137" lon="2.8949189186096"><ele>92</ele><time>2026-4-30T23:29:49Z</time></trkpt>
<trkpt lat="48.945213317871" lon="2.8949289321899"><ele>92</ele><time>2026-4-30T23:29:52Z</time></trkpt>
<trkpt lat="48.945285797119" lon="2.8949508666992"><ele>92</ele><time>2026-4-30T23:29:55Z</time></trkpt>
<trkpt lat="48.94535446167" lon="2.8949511051178"><ele>92</ele><time>2026-4-30T23:29:58Z</time></trkpt>
<trkpt lat="48.945419311523" lon="2.8948922157288"><ele>92</ele><time>2026-4-30T23:30:1Z</time></trkpt>
<trkpt lat="48.945453643799" lon="2.8948178291321"><ele>92</ele><time>2026-4-30T23:30:4Z</time></trkpt>
<trkpt lat="48.945487976074" lon="2.8947191238403"><ele>91</ele><time>2026-4-30T23:30:7Z</time></trkpt>
<trkpt lat="48.945556640625" lon="2.8945853710175"><ele>91</ele><time>2026-4-30T23:30:10Z</time></trkpt>
<trkpt lat="48.945606231689" lon="2.8944404125214"><ele>91</ele><time>2026-4-30T23:30:13Z</time></trkpt>
<trkpt lat="48.945644378662" lon="2.8943192958832"><ele>91</ele><time>2026-4-30T23:30:16Z</time></trkpt>
<trkpt lat="48.945682525635" lon="2.8942122459412"><ele>91</ele><time>2026-4-30T23:30:19Z</time></trkpt>
<trkpt lat="48.94571685791" lon="2.8940570354462"><ele>91</ele><time>2026-4-30T23:30:22Z</time></trkpt>
<trkpt lat="48.945713043213" lon="2.8939394950867"><ele>91</ele><time>2026-4-30T23:30:25Z</time></trkpt>
<trkpt lat="48.945690155029" lon="2.8938298225403"><ele>91</ele><time>2026-4-30T23:30:28Z</time></trkpt>
<trkpt lat="48.945678710938" lon="2.8937284946442"><ele>91</ele><time>2026-4-30T23:30:31Z</time></trkpt>
<trkpt lat="48.945697784424" lon="2.8936228752136"><ele>91</ele><time>2026-4-30T23:30:34Z</time></trkpt>
<trkpt lat="48.94575881958" lon="2.8935353755951"><ele>91</ele><time>2026-4-30T23:30:37Z</time></trkpt>
<trkpt lat="48.94575881958" lon="2.8935353755951"><ele>91</ele><time>2026-4-30T23:30:40Z</time></trkpt>
<trkpt lat="48.945812225342" lon="2.8934569358826"><ele>91</ele><time>2026-4-30T23:30:43Z</time></trkpt>
<trkpt lat="48.945873260498" lon="2.8933651447296"><ele>91</ele><time>2026-4-30T23:30:46Z</time></trkpt>
<trkpt lat="48.945941925049" lon="2.8932898044586"><ele>91</ele><time>2026-4-30T23:30:49Z</time></trkpt>
<trkpt lat="48.945941925049" lon="2.8932898044586"><ele>91</ele><time>2026-4-30T23:30:52Z</time></trkpt>
<trkpt lat="48.946006774902" lon="2.8932321071625"><ele>91</ele><time>2026-4-30T23:30:55Z</time></trkpt>
<trkpt lat="48.946083068848" lon="2.8931822776794"><ele>91</ele><time>2026-4-30T23:30:58Z</time></trkpt>
<trkpt lat="48.946159362793" lon="2.8931457996368"><ele>91</ele><time>2026-4-30T23:31:1Z</time></trkpt>
<trkpt lat="48.946159362793" lon="2.8931457996368"><ele>91</ele><time>2026-4-30T23:31:4Z</time></trkpt>
<trkpt lat="48.946235656738" lon="2.8931238651276"><ele>91</ele><time>2026-4-30T23:31:7Z</time></trkpt>
<trkpt lat="48.946296691895" lon="2.8931164741516"><ele>91</ele><time>2026-4-30T23:31:10Z</time></trkpt>
<trkpt lat="48.946369171143" lon="2.8931131362915"><ele>91</ele><time>2026-4-30T23:31:13Z</time></trkpt>
<trkpt lat="48.946369171143" lon="2.8931131362915"><ele>91</ele><time>2026-4-30T23:31:16Z</time></trkpt>
<trkpt lat="48.94645690918" lon="2.8931059837341"><ele>90</ele><time>2026-4-30T23:31:19Z</time></trkpt>
<trkpt lat="48.94645690918" lon="2.8931059837341"><ele>90</ele><time>2026-4-30T23:31:22Z</time></trkpt>
<trkpt lat="48.946441650391" lon="2.8930623531342"><ele>90</ele><time>2026-4-30T23:31:25Z</time></trkpt>
<trkpt lat="48.946441650391" lon="2.8930623531342"><ele>90</ele><time>2026-4-30T23:31:28Z</time></trkpt>
<trkpt lat="48.946395874023" lon="2.893016576767"><ele>90</ele><time>2026-4-30T23:31:31Z</time></trkpt>
<trkpt lat="48.946334838867" lon="2.892972946167"><ele>90</ele><time>2026-4-30T23:31:34Z</time></trkpt>
<trkpt lat="48.946269989014" lon="2.8929278850555"><ele>90</ele><time>2026-4-30T23:31:37Z</time></trkpt>
<trkpt lat="48.946269989014" lon="2.8929278850555"><ele>90</ele><time>2026-4-30T23:31:40Z</time></trkpt>
<trkpt lat="48.946208953857" lon="2.8928844928741"><ele>90</ele><time>2026-4-30T23:31:43Z</time></trkpt>
<trkpt lat="48.946098327637" lon="2.8927764892578"><ele>90</ele><time>2026-4-30T23:31:46Z</time></trkpt>
<trkpt lat="48.946094512939" lon="2.8926706314087"><ele>90</ele><time>2026-4-30T23:31:49Z</time></trkpt>
<trkpt lat="48.946094512939" lon="2.8926706314087"><ele>90</ele><time>2026-4-30T23:31:52Z</time></trkpt>
<trkpt lat="48.946140289307" lon="2.8925864696503"><ele>90</ele><time>2026-4-30T23:31:55Z</time></trkpt>
<trkpt lat="48.946186065674" lon="2.8925273418427"><ele>90</ele><time>2026-4-30T23:31:58Z</time></trkpt>
<trkpt lat="48.946186065674" lon="2.8925273418427"><ele>90</ele><time>2026-4-30T23:32:1Z</time></trkpt>
<trkpt lat="48.946269989014" lon="2.892427444458"><ele>90</ele><time>2026-4-30T23:32:4Z</time></trkpt>
<trkpt lat="48.946315765381" lon="2.8923652172089"><ele>90</ele><time>2026-4-30T23:32:7Z</time></trkpt>
<trkpt lat="48.946369171143" lon="2.8922808170319"><ele>90</ele><time>2026-4-30T23:32:10Z</time></trkpt>
<trkpt lat="48.946434020996" lon="2.8921995162964"><ele>89</ele><time>2026-4-30T23:32:13Z</time></trkpt>
<trkpt lat="48.946491241455" lon="2.8921308517456"><ele>89</ele><time>2026-4-30T23:32:16Z</time></trkpt>
<trkpt lat="48.94654083252" lon="2.8920700550079"><ele>89</ele><time>2026-4-30T23:32:19Z</time></trkpt>
<trkpt lat="48.94654083252" lon="2.8920700550079"><ele>89</ele><time>2026-4-30T23:32:22Z</time></trkpt>
<trkpt lat="48.946601867676" lon="2.8919866085052"><ele>89</ele><time>2026-4-30T23:32:25Z</time></trkpt>
<trkpt lat="48.946670532227" lon="2.8918845653534"><ele>89</ele><time>2026-4-30T23:32:28Z</time></trkpt>
<trkpt lat="48.946720123291" lon="2.8918194770813"><ele>89</ele><time>2026-4-30T23:32:31Z</time></trkpt>
<trkpt lat="48.946765899658" lon="2.8917696475983"><ele>89</ele><time>2026-4-30T23:32:34Z</time></trkpt>
<trkpt lat="48.94681930542" lon="2.8916876316071"><ele>89</ele><time>2026-4-30T23:32:37Z</time></trkpt>
<trkpt lat="48.946865081787" lon="2.891578912735"><ele>89</ele><time>2026-4-30T23:32:40Z</time></trkpt>
<trkpt lat="48.946880340576" lon="2.8914933204651"><ele>89</ele><time>2026-4-30T23:32:43Z</time></trkpt>
<trkpt lat="48.946910858154" lon="2.8914041519165"><ele>89</ele><time>2026-4-30T23:32:46Z</time></trkpt>
<trkpt lat="48.946964263916" lon="2.8913397789001"><ele>89</ele><time>2026-4-30T23:32:49Z</time></trkpt>
<trkpt lat="48.947021484375" lon="2.8913064002991"><ele>89</ele><time>2026-4-30T23:32:52Z</time></trkpt>
<trkpt lat="48.947071075439" lon="2.8912556171417"><ele>89</ele><time>2026-4-30T23:32:55Z</time></trkpt>
<trkpt lat="48.947109222412" lon="2.8911788463593"><ele>90</ele><time>2026-4-30T23:32:58Z</time></trkpt>
<trkpt lat="48.947151184082" lon="2.8910999298096"><ele>90</ele><time>2026-4-30T23:33:1Z</time></trkpt>
<trkpt lat="48.947170257568" lon="2.8909502029419"><ele>90</ele><time>2026-4-30T23:33:4Z</time></trkpt>
<trkpt lat="48.947212219238" lon="2.8908226490021"><ele>90</ele><time>2026-4-30T23:33:7Z</time></trkpt>
<trkpt lat="48.947257995605" lon="2.890753030777"><ele>90</ele><time>2026-4-30T23:33:10Z</time></trkpt>
<trkpt lat="48.947257995605" lon="2.890753030777"><ele>90</ele><time>2026-4-30T23:33:13Z</time></trkpt>
<trkpt lat="48.947322845459" lon="2.8906722068787"><ele>90</ele><time>2026-4-30T23:33:16Z</time></trkpt>
<trkpt lat="48.947322845459" lon="2.8906722068787"><ele>90</ele><time>2026-4-30T23:33:19Z</time></trkpt>
<trkpt lat="48.947372436523" lon="2.8905324935913"><ele>90</ele><time>2026-4-30T23:33:22Z</time></trkpt>
<trkpt lat="48.947372436523" lon="2.8905324935913"><ele>90</ele><time>2026-4-30T23:33:25Z</time></trkpt>
<trkpt lat="48.947372436523" lon="2.8905324935913"><ele>90</ele><time>2026-4-30T23:33:28Z</time></trkpt>
<trkpt lat="48.947456359863" lon="2.8904001712799"><ele>90</ele><time>2026-4-30T23:33:31Z</time></trkpt>
<trkpt lat="48.947513580322" lon="2.8903317451477"><ele>90</ele><time>2026-4-30T23:33:34Z</time></trkpt>
<trkpt lat="48.947563171387" lon="2.8902945518494"><ele>90</ele><time>2026-4-30T23:33:37Z</time></trkpt>
<trkpt lat="48.947624206543" lon="2.8902454376221"><ele>91</ele><time>2026-4-30T23:33:40Z</time></trkpt>
<trkpt lat="48.947723388672" lon="2.8901312351227"><ele>91</ele><time>2026-4-30T23:33:43Z</time></trkpt>
<trkpt lat="48.947769165039" lon="2.8900508880615"><ele>91</ele><time>2026-4-30T23:33:46Z</time></trkpt>
<trkpt lat="48.947822570801" lon="2.8899369239807"><ele>91</ele><time>2026-4-30T23:33:49Z</time></trkpt>
<trkpt lat="48.947864532471" lon="2.889829158783"><ele>91</ele><time>2026-4-30T23:33:52Z</time></trkpt>
<trkpt lat="48.947898864746" lon="2.8897316455841"><ele>91</ele><time>2026-4-30T23:33:55Z</time></trkpt>
<trkpt lat="48.947933197021" lon="2.8896472454071"><ele>91</ele><time>2026-4-30T23:33:58Z</time></trkpt>
<trkpt lat="48.947971343994" lon="2.8895573616028"><ele>91</ele><time>2026-4-30T23:34:1Z</time></trkpt>
<trkpt lat="48.94800567627" lon="2.8894729614258"><ele>91</ele><time>2026-4-30T23:34:4Z</time></trkpt>
<trkpt lat="48.94799041748" lon="2.889369726181"><ele>91</ele><time>2026-4-30T23:34:7Z</time></trkpt>
<trkpt lat="48.9479637146" lon="2.8892290592194"><ele>91</ele><time>2026-4-30T23:34:10Z</time></trkpt>
<trkpt lat="48.947967529297" lon="2.8890748023987"><ele>91</ele><time>2026-4-30T23:34:13Z</time></trkpt>
<trkpt lat="48.947975158691" lon="2.8889396190643"><ele>90</ele><time>2026-4-30T23:34:16Z</time></trkpt>
<trkpt lat="48.94800567627" lon="2.8888285160065"><ele>90</ele><time>2026-4-30T23:34:19Z</time></trkpt>
<trkpt lat="48.948047637939" lon="2.8887121677399"><ele>90</ele><time>2026-4-30T23:34:22Z</time></trkpt>
<trkpt lat="48.948085784912" lon="2.8886115550995"><ele>90</ele><time>2026-4-30T23:34:25Z</time></trkpt>
<trkpt lat="48.948135375977" lon="2.8885524272919"><ele>90</ele><time>2026-4-30T23:34:28Z</time></trkpt>
<trkpt lat="48.948196411133" lon="2.888500213623"><ele>90</ele><time>2026-4-30T23:34:31Z</time></trkpt>
<trkpt lat="48.948261260986" lon="2.8884468078613"><ele>90</ele><time>2026-4-30T23:34:34Z</time></trkpt>
<trkpt lat="48.948307037354" lon="2.8883819580078"><ele>90</ele><time>2026-4-30T23:34:37Z</time></trkpt>
<trkpt lat="48.948307037354" lon="2.8883819580078"><ele>90</ele><time>2026-4-30T23:34:40Z</time></trkpt>
<trkpt lat="48.948375701904" lon="2.8882629871368"><ele>90</ele><time>2026-4-30T23:34:43Z</time></trkpt>
<trkpt lat="48.948375701904" lon="2.8882629871368"><ele>90</ele><time>2026-4-30T23:34:46Z</time></trkpt>
<trkpt lat="48.948432922363" lon="2.8881599903107"><ele>90</ele><time>2026-4-30T23:34:49Z</time></trkpt>
<trkpt lat="48.948432922363" lon="2.8881599903107"><ele>90</ele><time>2026-4-30T23:34:52Z</time></trkpt>
<trkpt lat="48.948516845703" lon="2.8880400657654"><ele>90</ele><time>2026-4-30T23:34:55Z</time></trkpt>
<trkpt lat="48.948516845703" lon="2.8880400657654"><ele>90</ele><time>2026-4-30T23:34:58Z</time></trkpt>
<trkpt lat="48.948554992676" lon="2.8879687786102"><ele>90</ele><time>2026-4-30T23:35:1Z</time></trkpt>
<trkpt lat="48.948554992676" lon="2.8879687786102"><ele>90</ele><time>2026-4-30T23:35:4Z</time></trkpt>
<trkpt lat="48.948616027832" lon="2.8878331184387"><ele>90</ele><time>2026-4-30T23:35:7Z</time></trkpt>
<trkpt lat="48.948616027832" lon="2.8878331184387"><ele>90</ele><time>2026-4-30T23:35:10Z</time></trkpt>
<trkpt lat="48.948642730713" lon="2.887749671936"><ele>90</ele><time>2026-4-30T23:35:13Z</time></trkpt>
<trkpt lat="48.948642730713" lon="2.887749671936"><ele>90</ele><time>2026-4-30T23:35:16Z</time></trkpt>
<trkpt lat="48.948657989502" lon="2.8875923156738"><ele>90</ele><time>2026-4-30T23:35:19Z</time></trkpt>
<trkpt lat="48.948665618896" lon="2.8874778747559"><ele>90</ele><time>2026-4-30T23:35:22Z</time></trkpt>
<trkpt lat="48.948661804199" lon="2.8873810768127"><ele>90</ele><time>2026-4-30T23:35:25Z</time></trkpt>
<trkpt lat="48.948657989502" lon="2.8872745037079"><ele>90</ele><time>2026-4-30T23:35:28Z</time></trkpt>
<trkpt lat="48.948711395264" lon="2.8871650695801"><ele>90</ele><time>2026-4-30T23:35:31Z</time></trkpt>
<trkpt lat="48.948711395264" lon="2.8871650695801"><ele>90</ele><time>2026-4-30T23:35:34Z</time></trkpt>
<trkpt lat="48.948711395264" lon="2.8871650695801"><ele>90</ele><time>2026-4-30T23:35:37Z</time></trkpt>
<trkpt lat="48.948795318604" lon="2.8870856761932"><ele>90</ele><time>2026-4-30T23:35:40Z</time></trkpt>
<trkpt lat="48.948795318604" lon="2.8870856761932"><ele>90</ele><time>2026-4-30T23:35:43Z</time></trkpt>
<trkpt lat="48.948890686035" lon="2.8870370388031"><ele>90</ele><time>2026-4-30T23:35:46Z</time></trkpt>
<trkpt lat="48.948890686035" lon="2.8870370388031"><ele>90</ele><time>2026-4-30T23:35:49Z</time></trkpt>
<trkpt lat="48.948944091797" lon="2.887008190155"><ele>90</ele><time>2026-4-30T23:35:52Z</time></trkpt>
<trkpt lat="48.948944091797" lon="2.887008190155"><ele>90</ele><time>2026-4-30T23:35:55Z</time></trkpt>
<trkpt lat="48.949043273926" lon="2.8869564533234"><ele>91</ele><time>2026-4-30T23:35:58Z</time></trkpt>
<trkpt lat="48.949104309082" lon="2.8869469165802"><ele>91</ele><time>2026-4-30T23:36:1Z</time></trkpt>
<trkpt lat="48.949104309082" lon="2.8869469165802"><ele>91</ele><time>2026-4-30T23:36:4Z</time></trkpt>
<trkpt lat="48.949165344238" lon="2.8870415687561"><ele>91</ele><time>2026-4-30T23:36:7Z</time></trkpt>
<trkpt lat="48.949184417725" lon="2.8871264457703"><ele>91</ele><time>2026-4-30T23:36:10Z</time></trkpt>
<trkpt lat="48.949184417725" lon="2.8871264457703"><ele>91</ele><time>2026-4-30T23:36:13Z</time></trkpt>
<trkpt lat="48.949264526367" lon="2.8871455192566"><ele>91</ele><time>2026-4-30T23:36:16Z</time></trkpt>
<trkpt lat="48.949264526367" lon="2.8871455192566"><ele>91</ele><time>2026-4-30T23:36:19Z</time></trkpt>
<trkpt lat="48.949264526367" lon="2.8871455192566"><ele>91</ele><time>2026-4-30T23:36:22Z</time></trkpt>
<trkpt lat="48.949325561523" lon="2.8871195316315"><ele>91</ele><time>2026-4-30T23:36:25Z</time></trkpt>
<trkpt lat="48.949325561523" lon="2.8871195316315"><ele>91</ele><time>2026-4-30T23:36:28Z</time></trkpt>
<trkpt lat="48.949325561523" lon="2.8871195316315"><ele>91</ele><time>2026-4-30T23:36:31Z</time></trkpt>
<trkpt lat="48.949371337891" lon="2.8869743347168"><ele>91</ele><time>2026-4-30T23:36:34Z</time></trkpt>
<trkpt lat="48.949394226074" lon="2.8868792057037"><ele>91</ele><time>2026-4-30T23:36:37Z</time></trkpt>
<trkpt lat="48.949394226074" lon="2.8868792057037"><ele>91</ele><time>2026-4-30T23:36:40Z</time></trkpt>
<trkpt lat="48.949443817139" lon="2.886739730835"><ele>91</ele><time>2026-4-30T23:36:43Z</time></trkpt>
<trkpt lat="48.949504852295" lon="2.8866539001465"><ele>91</ele><time>2026-4-30T23:36:46Z</time></trkpt>
<trkpt lat="48.949504852295" lon="2.8866539001465"><ele>91</ele><time>2026-4-30T23:36:49Z</time></trkpt>
<trkpt lat="48.949504852295" lon="2.8866539001465"><ele>91</ele><time>2026-4-30T23:36:52Z</time></trkpt>
<trkpt lat="48.949584960938" lon="2.8865842819214"><ele>91</ele><time>2026-4-30T23:36:55Z</time></trkpt>
<trkpt lat="48.949584960938" lon="2.8865842819214"><ele>91</ele><time>2026-4-30T23:36:58Z</time></trkpt>
<trkpt lat="48.949584960938" lon="2.8865842819214"><ele>91</ele><time>2026-4-30T23:37:1Z</time></trkpt>
<trkpt lat="48.949653625488" lon="2.8865139484406"><ele>91</ele><time>2026-4-30T23:37:4Z</time></trkpt>
<trkpt lat="48.949653625488" lon="2.8865139484406"><ele>91</ele><time>2026-4-30T23:37:7Z</time></trkpt>
<trkpt lat="48.949787139893" lon="2.8864345550537"><ele>91</ele><time>2026-4-30T23:37:10Z</time></trkpt>
<trkpt lat="48.949787139893" lon="2.8864345550537"><ele>91</ele><time>2026-4-30T23:37:13Z</time></trkpt>
<trkpt lat="48.94987487793" lon="2.8863658905029"><ele>91</ele><time>2026-4-30T23:37:16Z</time></trkpt>
<trkpt lat="48.949966430664" lon="2.8863179683685"><ele>91</ele><time>2026-4-30T23:37:19Z</time></trkpt>
<trkpt lat="48.950057983398" lon="2.8862669467926"><ele>91</ele><time>2026-4-30T23:37:22Z</time></trkpt>
<trkpt lat="48.950057983398" lon="2.8862669467926"><ele>91</ele><time>2026-4-30T23:37:25Z</time></trkpt>
<trkpt lat="48.950149536133" lon="2.8862197399139"><ele>92</ele><time>2026-4-30T23:37:28Z</time></trkpt>
<trkpt lat="48.95023727417" lon="2.8861746788025"><ele>92</ele><time>2026-4-30T23:37:31Z</time></trkpt>
<trkpt lat="48.950317382812" lon="2.8861413002014"><ele>91</ele><time>2026-4-30T23:37:34Z</time></trkpt>
<trkpt lat="48.950412750244" lon="2.8860929012299"><ele>91</ele><time>2026-4-30T23:37:37Z</time></trkpt>
<trkpt lat="48.950500488281" lon="2.8860578536987"><ele>91</ele><time>2026-4-30T23:37:40Z</time></trkpt>
<trkpt lat="48.950584411621" lon="2.8860185146332"><ele>91</ele><time>2026-4-30T23:37:43Z</time></trkpt>
<trkpt lat="48.950672149658" lon="2.8859798908234"><ele>92</ele><time>2026-4-30T23:37:46Z</time></trkpt>
<trkpt lat="48.950759887695" lon="2.8859515190125"><ele>92</ele><time>2026-4-30T23:37:49Z</time></trkpt>
<trkpt lat="48.950843811035" lon="2.8859205245972"><ele>91</ele><time>2026-4-30T23:37:52Z</time></trkpt>
<trkpt lat="48.950843811035" lon="2.8859205245972"><ele>91</ele><time>2026-4-30T23:37:55Z</time></trkpt>
<trkpt lat="48.950942993164" lon="2.8858821392059"><ele>91</ele><time>2026-4-30T23:37:58Z</time></trkpt>
<trkpt lat="48.951038360596" lon="2.8858461380005"><ele>91</ele><time>2026-4-30T23:38:1Z</time></trkpt>
<trkpt lat="48.951133728027" lon="2.8858320713043"><ele>92</ele><time>2026-4-30T23:38:4Z</time></trkpt>
<trkpt lat="48.951133728027" lon="2.8858320713043"><ele>92</ele><time>2026-4-30T23:38:7Z</time></trkpt>
<trkpt lat="48.951210021973" lon="2.8858528137207"><ele>92</ele><time>2026-4-30T23:38:10Z</time></trkpt>
<trkpt lat="48.951278686523" lon="2.8858363628387"><ele>92</ele><time>2026-4-30T23:38:13Z</time></trkpt>
<trkpt lat="48.951358795166" lon="2.8858060836792"><ele>92</ele><time>2026-4-30T23:38:16Z</time></trkpt>
<trkpt lat="48.951419830322" lon="2.8858025074005"><ele>92</ele><time>2026-4-30T23:38:19Z</time></trkpt>
<trkpt lat="48.951480865479" lon="2.8857893943787"><ele>93</ele><time>2026-4-30T23:38:22Z</time></trkpt>
<trkpt lat="48.951564788818" lon="2.8857769966125"><ele>93</ele><time>2026-4-30T23:38:25Z</time></trkpt>
<trkpt lat="48.951564788818" lon="2.8857769966125"><ele>93</ele><time>2026-4-30T23:38:28Z</time></trkpt>
<trkpt lat="48.951644897461" lon="2.8857729434967"><ele>93</ele><time>2026-4-30T23:38:31Z</time></trkpt>
<trkpt lat="48.951721191406" lon="2.8857703208923"><ele>93</ele><time>2026-4-30T23:38:34Z</time></trkpt>
<trkpt lat="48.951801300049" lon="2.8857553005219"><ele>95</ele><time>2026-4-30T23:38:37Z</time></trkpt>
<trkpt lat="48.951908111572" lon="2.8857207298279"><ele>95</ele><time>2026-4-30T23:38:40Z</time></trkpt>
<trkpt lat="48.952011108398" lon="2.8856978416443"><ele>95</ele><time>2026-4-30T23:38:43Z</time></trkpt>
<trkpt lat="48.952125549316" lon="2.885678768158"><ele>95</ele><time>2026-4-30T23:38:46Z</time></trkpt>
<trkpt lat="48.952125549316" lon="2.885678768158"><ele>95</ele><time>2026-4-30T23:38:49Z</time></trkpt>
<trkpt lat="48.952247619629" lon="2.8856513500214"><ele>96</ele><time>2026-4-30T23:38:52Z</time></trkpt>
<trkpt lat="48.952354431152" lon="2.885626077652"><ele>96</ele><time>2026-4-30T23:38:55Z</time></trkpt>
<trkpt lat="48.952453613281" lon="2.885598897934"><ele>97</ele><time>2026-4-30T23:38:58Z</time></trkpt>
<trkpt lat="48.952568054199" lon="2.885556936264"><ele>98</ele><time>2026-4-30T23:39:1Z</time></trkpt>
<trkpt lat="48.952671051025" lon="2.885516166687"><ele>98</ele><time>2026-4-30T23:39:4Z</time></trkpt>
<trkpt lat="48.95276260376" lon="2.8854615688324"><ele>99</ele><time>2026-4-30T23:39:7Z</time></trkpt>
<trkpt lat="48.95276260376" lon="2.8854615688324"><ele>99</ele><time>2026-4-30T23:39:10Z</time></trkpt>
<trkpt lat="48.952842712402" lon="2.885395526886"><ele>99</ele><time>2026-4-30T23:39:13Z</time></trkpt>
<trkpt lat="48.952919006348" lon="2.8853528499603"><ele>99</ele><time>2026-4-30T23:39:16Z</time></trkpt>
<trkpt lat="48.952987670898" lon="2.8852918148041"><ele>99</ele><time>2026-4-30T23:39:19Z</time></trkpt>
<trkpt lat="48.953010559082" lon="2.8852043151855"><ele>99</ele><time>2026-4-30T23:39:22Z</time></trkpt>
<trkpt lat="48.953010559082" lon="2.8852043151855"><ele>99</ele><time>2026-4-30T23:39:25Z</time></trkpt>
<trkpt lat="48.953002929688" lon="2.885085105896"><ele>99</ele><time>2026-4-30T23:39:28Z</time></trkpt>
<trkpt lat="48.953002929688" lon="2.885085105896"><ele>99</ele><time>2026-4-30T23:39:31Z</time></trkpt>
<trkpt lat="48.953002929688" lon="2.885085105896"><ele>99</ele><time>2026-4-30T23:39:34Z</time></trkpt>
<trkpt lat="48.952991485596" lon="2.8849124908447"><ele>99</ele><time>2026-4-30T23:39:37Z</time></trkpt>
<trkpt lat="48.952987670898" lon="2.8848204612732"><ele>98</ele><time>2026-4-30T23:39:40Z</time></trkpt>
<trkpt lat="48.952987670898" lon="2.8848204612732"><ele>98</ele><time>2026-4-30T23:39:43Z</time></trkpt>
<trkpt lat="48.952991485596" lon="2.884717464447"><ele>98</ele><time>2026-4-30T23:39:46Z</time></trkpt>
<trkpt lat="48.952987670898" lon="2.8845970630646"><ele>98</ele><time>2026-4-30T23:39:49Z</time></trkpt>
<trkpt lat="48.952972412109" lon="2.8844745159149"><ele>98</ele><time>2026-4-30T23:39:52Z</time></trkpt>
<trkpt lat="48.952972412109" lon="2.8844745159149"><ele>98</ele><time>2026-4-30T23:39:55Z</time></trkpt>
<trkpt lat="48.952964782715" lon="2.8843467235565"><ele>99</ele><time>2026-4-30T23:39:58Z</time></trkpt>
<trkpt lat="48.95295715332" lon="2.8842113018036"><ele>100</ele><time>2026-4-30T23:40:1Z</time></trkpt>
<trkpt lat="48.952945709229" lon="2.8840780258179"><ele>99</ele><time>2026-4-30T23:40:4Z</time></trkpt>
<trkpt lat="48.952949523926" lon="2.8839504718781"><ele>99</ele><time>2026-4-30T23:40:7Z</time></trkpt>
<trkpt lat="48.952938079834" lon="2.883816242218"><ele>99</ele><time>2026-4-30T23:40:10Z</time></trkpt>
<trkpt lat="48.952926635742" lon="2.8836781978607"><ele>99</ele><time>2026-4-30T23:40:13Z</time></trkpt>
<trkpt lat="48.952926635742" lon="2.8836781978607"><ele>99</ele><time>2026-4-30T23:40:16Z</time></trkpt>
<trkpt lat="48.952934265137" lon="2.8835530281067"><ele>99</ele><time>2026-4-30T23:40:19Z</time></trkpt>
<trkpt lat="48.952938079834" lon="2.8834218978882"><ele>98</ele><time>2026-4-30T23:40:22Z</time></trkpt>
<trkpt lat="48.952941894531" lon="2.8832828998566"><ele>97</ele><time>2026-4-30T23:40:25Z</time></trkpt>
<trkpt lat="48.952941894531" lon="2.8832828998566"><ele>97</ele><time>2026-4-30T23:40:28Z</time></trkpt>
<trkpt lat="48.952934265137" lon="2.8831646442413"><ele>96</ele><time>2026-4-30T23:40:31Z</time></trkpt>
<trkpt lat="48.95291519165" lon="2.8830728530884"><ele>96</ele><time>2026-4-30T23:40:34Z</time></trkpt>
<trkpt lat="48.952922821045" lon="2.8829545974731"><ele>95</ele><time>2026-4-30T23:40:37Z</time></trkpt>
<trkpt lat="48.952922821045" lon="2.8829545974731"><ele>95</ele><time>2026-4-30T23:40:40Z</time></trkpt>
<trkpt lat="48.952960968018" lon="2.882847070694"><ele>95</ele><time>2026-4-30T23:40:43Z</time></trkpt>
<trkpt lat="48.952968597412" lon="2.8827497959137"><ele>95</ele><time>2026-4-30T23:40:46Z</time></trkpt>
<trkpt lat="48.952968597412" lon="2.8827497959137"><ele>95</ele><time>2026-4-30T23:40:49Z</time></trkpt>
<trkpt lat="48.952980041504" lon="2.8826456069946"><ele>95</ele><time>2026-4-30T23:40:52Z</time></trkpt>
<trkpt lat="48.952991485596" lon="2.8825430870056"><ele>95</ele><time>2026-4-30T23:40:55Z</time></trkpt>
<trkpt lat="48.953010559082" lon="2.8824355602264"><ele>95</ele><time>2026-4-30T23:40:58Z</time></trkpt>
<trkpt lat="48.953018188477" lon="2.8823273181915"><ele>95</ele><time>2026-4-30T23:41:1Z</time></trkpt>
<trkpt lat="48.953025817871" lon="2.8822247982025"><ele>95</ele><time>2026-4-30T23:41:4Z</time></trkpt>
<trkpt lat="48.953037261963" lon="2.8821029663086"><ele>95</ele><time>2026-4-30T23:41:7Z</time></trkpt>
<trkpt lat="48.953048706055" lon="2.8819708824158"><ele>93</ele><time>2026-4-30T23:41:10Z</time></trkpt>
<trkpt lat="48.953067779541" lon="2.8818356990814"><ele>93</ele><time>2026-4-30T23:41:13Z</time></trkpt>
<trkpt lat="48.953086853027" lon="2.8816816806793"><ele>93</ele><time>2026-4-30T23:41:16Z</time></trkpt>
<trkpt lat="48.953105926514" lon="2.8815317153931"><ele>92</ele><time>2026-4-30T23:41:19Z</time></trkpt>
<trkpt lat="48.953086853027" lon="2.8814299106598"><ele>92</ele><time>2026-4-30T23:41:22Z</time></trkpt>
<trkpt lat="48.953029632568" lon="2.8814089298248"><ele>92</ele><time>2026-4-30T23:41:25Z</time></trkpt>
<trkpt lat="48.953029632568" lon="2.8814089298248"><ele>92</ele><time>2026-4-30T23:41:28Z</time></trkpt>
<trkpt lat="48.952964782715" lon="2.88134765625"><ele>92</ele><time>2026-4-30T23:41:31Z</time></trkpt>
<trkpt lat="48.952930450439" lon="2.8812615871429"><ele>92</ele><time>2026-4-30T23:41:34Z</time></trkpt>
<trkpt lat="48.952926635742" lon="2.8811402320862"><ele>92</ele><time>2026-4-30T23:41:37Z</time></trkpt>
<trkpt lat="48.952926635742" lon="2.8811402320862"><ele>92</ele><time>2026-4-30T23:41:40Z</time></trkpt>
<trkpt lat="48.952919006348" lon="2.8810005187988"><ele>92</ele><time>2026-4-30T23:41:43Z</time></trkpt>
<trkpt lat="48.952919006348" lon="2.8809015750885"><ele>92</ele><time>2026-4-30T23:41:46Z</time></trkpt>
<trkpt lat="48.95291519165" lon="2.880786895752"><ele>92</ele><time>2026-4-30T23:41:49Z</time></trkpt>
<trkpt lat="48.952911376953" lon="2.8806824684143"><ele>93</ele><time>2026-4-30T23:41:52Z</time></trkpt>
<trkpt lat="48.952903747559" lon="2.8805866241455"><ele>93</ele><time>2026-4-30T23:41:55Z</time></trkpt>
<trkpt lat="48.952903747559" lon="2.8804817199707"><ele>93</ele><time>2026-4-30T23:41:58Z</time></trkpt>
<trkpt lat="48.952896118164" lon="2.8803701400757"><ele>93</ele><time>2026-4-30T23:42:1Z</time></trkpt>
<trkpt lat="48.952884674072" lon="2.8802647590637"><ele>93</ele><time>2026-4-30T23:42:4Z</time></trkpt>
<trkpt lat="48.952884674072" lon="2.8802647590637"><ele>93</ele><time>2026-4-30T23:42:7Z</time></trkpt>
<trkpt lat="48.95287322998" lon="2.8801667690277"><ele>93</ele><time>2026-4-30T23:42:10Z</time></trkpt>
<trkpt lat="48.952861785889" lon="2.8800630569458"><ele>94</ele><time>2026-4-30T23:42:13Z</time></trkpt>
<trkpt lat="48.952854156494" lon="2.8799538612366"><ele>94</ele><time>2026-4-30T23:42:16Z</time></trkpt>
<trkpt lat="48.952854156494" lon="2.8799538612366"><ele>94</ele><time>2026-4-30T23:42:19Z</time></trkpt>
<trkpt lat="48.952850341797" lon="2.8798625469208"><ele>94</ele><time>2026-4-30T23:42:22Z</time></trkpt>
<trkpt lat="48.952850341797" lon="2.8798625469208"><ele>94</ele><time>2026-4-30T23:42:25Z</time></trkpt>
<trkpt lat="48.952877044678" lon="2.8797113895416"><ele>94</ele><time>2026-4-30T23:42:28Z</time></trkpt>
<trkpt lat="48.952877044678" lon="2.8797113895416"><ele>94</ele><time>2026-4-30T23:42:31Z</time></trkpt>
<trkpt lat="48.952854156494" lon="2.8796281814575"><ele>94</ele><time>2026-4-30T23:42:34Z</time></trkpt>
<trkpt lat="48.952854156494" lon="2.8796281814575"><ele>94</ele><time>2026-4-30T23:42:37Z</time></trkpt>
<trkpt lat="48.952854156494" lon="2.8796281814575"><ele>94</ele><time>2026-4-30T23:42:40Z</time></trkpt>
<trkpt lat="48.952766418457" lon="2.879643201828"><ele>95</ele><time>2026-4-30T23:42:43Z</time></trkpt>
<trkpt lat="48.952766418457" lon="2.879643201828"><ele>95</ele><time>2026-4-30T23:42:46Z</time></trkpt>
<trkpt lat="48.952709197998" lon="2.8796496391296"><ele>95</ele><time>2026-4-30T23:42:49Z</time></trkpt>
<trkpt lat="48.952709197998" lon="2.8796496391296"><ele>95</ele><time>2026-4-30T23:42:52Z</time></trkpt>
<trkpt lat="48.952709197998" lon="2.8796496391296"><ele>95</ele><time>2026-4-30T23:42:55Z</time></trkpt>
<trkpt lat="48.952709197998" lon="2.8796496391296"><ele>95</ele><time>2026-4-30T23:42:58Z</time></trkpt>
<trkpt lat="48.952674865723" lon="2.8796606063843"><ele>95</ele><time>2026-4-30T23:43:1Z</time></trkpt>
<trkpt lat="48.952640533447" lon="2.8796689510345"><ele>95</ele><time>2026-4-30T23:43:4Z</time></trkpt>
<trkpt lat="48.952640533447" lon="2.8796689510345"><ele>95</ele><time>2026-4-30T23:43:7Z</time></trkpt>
<trkpt lat="48.952606201172" lon="2.8796761035919"><ele>96</ele><time>2026-4-30T23:43:10Z</time></trkpt>
<trkpt lat="48.952575683594" lon="2.8796801567078"><ele>96</ele><time>2026-4-30T23:43:13Z</time></trkpt>
<trkpt lat="48.952545166016" lon="2.8796811103821"><ele>96</ele><time>2026-4-30T23:43:16Z</time></trkpt>
<trkpt lat="48.952503204346" lon="2.8796808719635"><ele>96</ele><time>2026-4-30T23:43:19Z</time></trkpt>
<trkpt lat="48.952449798584" lon="2.8796851634979"><ele>96</ele><time>2026-4-30T23:43:22Z</time></trkpt>
<trkpt lat="48.952320098877" lon="2.8796994686127"><ele>96</ele><time>2026-4-30T23:43:25Z</time></trkpt>
<trkpt lat="48.952247619629" lon="2.8797044754028"><ele>97</ele><time>2026-4-30T23:43:28Z</time></trkpt>
<trkpt lat="48.952171325684" lon="2.8797082901001"><ele>97</ele><time>2026-4-30T23:43:31Z</time></trkpt>
<trkpt lat="48.952087402344" lon="2.8797194957733"><ele>97</ele><time>2026-4-30T23:43:34Z</time></trkpt>
<trkpt lat="48.952014923096" lon="2.8797352313995"><ele>97</ele><time>2026-4-30T23:43:37Z</time></trkpt>
<trkpt lat="48.951942443848" lon="2.879766702652"><ele>97</ele><time>2026-4-30T23:43:40Z</time></trkpt>
<trkpt lat="48.951942443848" lon="2.879766702652"><ele>97</ele><time>2026-4-30T23:43:43Z</time></trkpt>
<trkpt lat="48.951942443848" lon="2.879766702652"><ele>97</ele><time>2026-4-30T23:43:46Z</time></trkpt>
<trkpt lat="48.951923370361" lon="2.8796243667603"><ele>98</ele><time>2026-4-30T23:43:49Z</time></trkpt>
<trkpt lat="48.951923370361" lon="2.8796243667603"><ele>98</ele><time>2026-4-30T23:43:52Z</time></trkpt>
<trkpt lat="48.951873779297" lon="2.8795537948608"><ele>101</ele><time>2026-4-30T23:43:55Z</time></trkpt>
<trkpt lat="48.951812744141" lon="2.8795137405396"><ele>102</ele><time>2026-4-30T23:43:58Z</time></trkpt>
<trkpt lat="48.951782226562" lon="2.8794362545013"><ele>103</ele><time>2026-4-30T23:44:1Z</time></trkpt>
<trkpt lat="48.951782226562" lon="2.8794362545013"><ele>103</ele><time>2026-4-30T23:44:4Z</time></trkpt>
<trkpt lat="48.951782226562" lon="2.8794362545013"><ele>103</ele><time>2026-4-30T23:44:7Z</time></trkpt>
<trkpt lat="48.951782226562" lon="2.8794362545013"><ele>103</ele><time>2026-4-30T23:44:10Z</time></trkpt>
<trkpt lat="48.951782226562" lon="2.8794362545013"><ele>103</ele><time>2026-4-30T23:44:13Z</time></trkpt>
<trkpt lat="48.951782226562" lon="2.8794362545013"><ele>103</ele><time>2026-4-30T23:44:16Z</time></trkpt>
<trkpt lat="48.951782226562" lon="2.8794362545013"><ele>103</ele><time>2026-4-30T23:44:19Z</time></trkpt>
<trkpt lat="48.951782226562" lon="2.8794362545013"><ele>103</ele><time>2026-4-30T23:44:22Z</time></trkpt>
<trkpt lat="48.951782226562" lon="2.8794362545013"><ele>103</ele><time>2026-4-30T23:44:25Z</time></trkpt>
<trkpt lat="48.951782226562" lon="2.8794362545013"><ele>103</ele><time>2026-4-30T23:44:28Z</time></trkpt>
<trkpt lat="48.951782226562" lon="2.8794362545013"><ele>103</ele><time>2026-4-30T23:44:31Z</time></trkpt>
<trkpt lat="48.951782226562" lon="2.8794362545013"><ele>103</ele><time>2026-4-30T23:44:34Z</time></trkpt>
<trkpt lat="48.951782226562" lon="2.8794362545013"><ele>103</ele><time>2026-4-30T23:44:37Z</time></trkpt>
<trkpt lat="48.951793670654" lon="2.8794503211975"><ele>98</ele><time>2026-4-30T23:44:40Z</time></trkpt>
<trkpt lat="48.951793670654" lon="2.8794503211975"><ele>98</ele><time>2026-4-30T23:44:43Z</time></trkpt>
<trkpt lat="48.951793670654" lon="2.8794503211975"><ele>98</ele><time>2026-4-30T23:44:46Z</time></trkpt>
<trkpt lat="48.951793670654" lon="2.8794503211975"><ele>98</ele><time>2026-4-30T23:44:49Z</time></trkpt>
<trkpt lat="48.951709747314" lon="2.8794374465942"><ele>98</ele><time>2026-4-30T23:44:52Z</time></trkpt>
<trkpt lat="48.951709747314" lon="2.8794374465942"><ele>98</ele><time>2026-4-30T23:44:55Z</time></trkpt>
<trkpt lat="48.951644897461" lon="2.8794565200806"><ele>97</ele><time>2026-4-30T23:44:58Z</time></trkpt>
<trkpt lat="48.951568603516" lon="2.8794870376587"><ele>97</ele><time>2026-4-30T23:45:1Z</time></trkpt>
<trkpt lat="48.951568603516" lon="2.8794870376587"><ele>97</ele><time>2026-4-30T23:45:4Z</time></trkpt>
<trkpt lat="48.951469421387" lon="2.8794870376587"><ele>97</ele><time>2026-4-30T23:45:7Z</time></trkpt>
<trkpt lat="48.951396942139" lon="2.8793592453003"><ele>97</ele><time>2026-4-30T23:45:10Z</time></trkpt>
<trkpt lat="48.951354980469" lon="2.8792643547058"><ele>97</ele><time>2026-4-30T23:45:13Z</time></trkpt>
<trkpt lat="48.951282501221" lon="2.8791582584381"><ele>100</ele><time>2026-4-30T23:45:16Z</time></trkpt>
<trkpt lat="48.951206207275" lon="2.8790266513824"><ele>101</ele><time>2026-4-30T23:45:19Z</time></trkpt>
<trkpt lat="48.95112991333" lon="2.8789031505585"><ele>101</ele><time>2026-4-30T23:45:22Z</time></trkpt>
<trkpt lat="48.95112991333" lon="2.8789031505585"><ele>101</ele><time>2026-4-30T23:45:25Z</time></trkpt>
<trkpt lat="48.951049804688" lon="2.87877202034"><ele>102</ele><time>2026-4-30T23:45:28Z</time></trkpt>
<trkpt lat="48.950988769531" lon="2.8786551952362"><ele>102</ele><time>2026-4-30T23:45:31Z</time></trkpt>
<trkpt lat="48.950988769531" lon="2.8786551952362"><ele>102</ele><time>2026-4-30T23:45:34Z</time></trkpt>
<trkpt lat="48.950969696045" lon="2.8785367012024"><ele>103</ele><time>2026-4-30T23:45:37Z</time></trkpt>
<trkpt lat="48.950946807861" lon="2.8783786296844"><ele>103</ele><time>2026-4-30T23:45:40Z</time></trkpt>
<trkpt lat="48.950916290283" lon="2.8781962394714"><ele>101</ele><time>2026-4-30T23:45:43Z</time></trkpt>
<trkpt lat="48.950916290283" lon="2.8781962394714"><ele>101</ele><time>2026-4-30T23:45:46Z</time></trkpt>
<trkpt lat="48.950885772705" lon="2.8780331611633"><ele>99</ele><time>2026-4-30T23:45:49Z</time></trkpt>
<trkpt lat="48.950881958008" lon="2.8778777122498"><ele>98</ele><time>2026-4-30T23:45:52Z</time></trkpt>
<trkpt lat="48.950901031494" lon="2.8777265548706"><ele>97</ele><time>2026-4-30T23:45:55Z</time></trkpt>
<trkpt lat="48.950901031494" lon="2.8777265548706"><ele>97</ele><time>2026-4-30T23:45:58Z</time></trkpt>
<trkpt lat="48.950923919678" lon="2.8775551319122"><ele>96</ele><time>2026-4-30T23:46:1Z</time></trkpt>
<trkpt lat="48.950958251953" lon="2.8774116039276"><ele>95</ele><time>2026-4-30T23:46:4Z</time></trkpt>
<trkpt lat="48.950988769531" lon="2.8772716522217"><ele>94</ele><time>2026-4-30T23:46:7Z</time></trkpt>
<trkpt lat="48.951026916504" lon="2.8771796226501"><ele>94</ele><time>2026-4-30T23:46:10Z</time></trkpt>
<trkpt lat="48.951026916504" lon="2.8771796226501"><ele>94</ele><time>2026-4-30T23:46:13Z</time></trkpt>
<trkpt lat="48.951026916504" lon="2.8771796226501"><ele>94</ele><time>2026-4-30T23:46:16Z</time></trkpt>
<trkpt lat="48.950954437256" lon="2.8771569728851"><ele>95</ele><time>2026-4-30T23:46:19Z</time></trkpt>
<trkpt lat="48.9508934021" lon="2.8771755695343"><ele>94</ele><time>2026-4-30T23:46:22Z</time></trkpt>
<trkpt lat="48.950820922852" lon="2.8772099018097"><ele>94</ele><time>2026-4-30T23:46:25Z</time></trkpt>
<trkpt lat="48.950756072998" lon="2.8772301673889"><ele>94</ele><time>2026-4-30T23:46:28Z</time></trkpt>
<trkpt lat="48.950695037842" lon="2.8772330284119"><ele>94</ele><time>2026-4-30T23:46:31Z</time></trkpt>
<trkpt lat="48.950611114502" lon="2.8772528171539"><ele>94</ele><time>2026-4-30T23:46:34Z</time></trkpt>
<trkpt lat="48.950519561768" lon="2.8772830963135"><ele>94</ele><time>2026-4-30T23:46:37Z</time></trkpt>
<trkpt lat="48.950435638428" lon="2.8773078918457"><ele>94</ele><time>2026-4-30T23:46:40Z</time></trkpt>
<trkpt lat="48.950370788574" lon="2.8773176670074"><ele>94</ele><time>2026-4-30T23:46:43Z</time></trkpt>
<trkpt lat="48.950309753418" lon="2.8773238658905"><ele>94</ele><time>2026-4-30T23:46:46Z</time></trkpt>
<trkpt lat="48.950225830078" lon="2.877349615097"><ele>94</ele><time>2026-4-30T23:46:49Z</time></trkpt>
<trkpt lat="48.950122833252" lon="2.8773865699768"><ele>94</ele><time>2026-4-30T23:46:52Z</time></trkpt>
<trkpt lat="48.950019836426" lon="2.8774275779724"><ele>94</ele><time>2026-4-30T23:46:55Z</time></trkpt>
<trkpt lat="48.94994354248" lon="2.8774557113647"><ele>93</ele><time>2026-4-30T23:46:58Z</time></trkpt>
<trkpt lat="48.949871063232" lon="2.8774757385254"><ele>93</ele><time>2026-4-30T23:47:1Z</time></trkpt>
<trkpt lat="48.949798583984" lon="2.8775191307068"><ele>93</ele><time>2026-4-30T23:47:4Z</time></trkpt>
<trkpt lat="48.949798583984" lon="2.8775191307068"><ele>93</ele><time>2026-4-30T23:47:7Z</time></trkpt>
<trkpt lat="48.949798583984" lon="2.8775191307068"><ele>93</ele><time>2026-4-30T23:47:10Z</time></trkpt>
<trkpt lat="48.949798583984" lon="2.8775191307068"><ele>93</ele><time>2026-4-30T23:47:13Z</time></trkpt>
<trkpt lat="48.949550628662" lon="2.8775992393494"><ele>91</ele><time>2026-4-30T23:47:16Z</time></trkpt>
<trkpt lat="48.949550628662" lon="2.8775992393494"><ele>91</ele><time>2026-4-30T23:47:19Z</time></trkpt>
<trkpt lat="48.949478149414" lon="2.8775680065155"><ele>91</ele><time>2026-4-30T23:47:22Z</time></trkpt>
<trkpt lat="48.949478149414" lon="2.8775680065155"><ele>91</ele><time>2026-4-30T23:47:25Z</time></trkpt>
<trkpt lat="48.949409484863" lon="2.877546787262"><ele>92</ele><time>2026-4-30T23:47:28Z</time></trkpt>
<trkpt lat="48.949409484863" lon="2.877546787262"><ele>92</ele><time>2026-4-30T23:47:31Z</time></trkpt>
<trkpt lat="48.949321746826" lon="2.8775401115417"><ele>92</ele><time>2026-4-30T23:47:34Z</time></trkpt>
<trkpt lat="48.949230194092" lon="2.8775072097778"><ele>92</ele><time>2026-4-30T23:47:37Z</time></trkpt>
<trkpt lat="48.949230194092" lon="2.8775072097778"><ele>92</ele><time>2026-4-30T23:47:40Z</time></trkpt>
<trkpt lat="48.949142456055" lon="2.8774654865265"><ele>92</ele><time>2026-4-30T23:47:43Z</time></trkpt>
<trkpt lat="48.949142456055" lon="2.8774654865265"><ele>92</ele><time>2026-4-30T23:47:46Z</time></trkpt>
<trkpt lat="48.949039459229" lon="2.8774170875549"><ele>93</ele><time>2026-4-30T23:47:49Z</time></trkpt>
<trkpt lat="48.94898223877" lon="2.8773806095123"><ele>93</ele><time>2026-4-30T23:47:52Z</time></trkpt>
<trkpt lat="48.948921203613" lon="2.8773419857025"><ele>93</ele><time>2026-4-30T23:47:55Z</time></trkpt>
<trkpt lat="48.948921203613" lon="2.8773419857025"><ele>93</ele><time>2026-4-30T23:47:58Z</time></trkpt>
<trkpt lat="48.948867797852" lon="2.877304315567"><ele>93</ele><time>2026-4-30T23:48:1Z</time></trkpt>
<trkpt lat="48.948810577393" lon="2.8772749900818"><ele>93</ele><time>2026-4-30T23:48:4Z</time></trkpt>
<trkpt lat="48.948757171631" lon="2.8772466182709"><ele>93</ele><time>2026-4-30T23:48:7Z</time></trkpt>
<trkpt lat="48.948699951172" lon="2.8772144317627"><ele>93</ele><time>2026-4-30T23:48:10Z</time></trkpt>
<trkpt lat="48.948642730713" lon="2.8771805763245"><ele>94</ele><time>2026-4-30T23:48:13Z</time></trkpt>
<trkpt lat="48.948585510254" lon="2.8771498203278"><ele>94</ele><time>2026-4-30T23:48:16Z</time></trkpt>
<trkpt lat="48.948585510254" lon="2.8771498203278"><ele>94</ele><time>2026-4-30T23:48:19Z</time></trkpt>
<trkpt lat="48.948528289795" lon="2.8771185874939"><ele>94</ele><time>2026-4-30T23:48:22Z</time></trkpt>
<trkpt lat="48.948467254639" lon="2.8770854473114"><ele>94</ele><time>2026-4-30T23:48:25Z</time></trkpt>
<trkpt lat="48.948345184326" lon="2.8770382404327"><ele>94</ele><time>2026-4-30T23:48:28Z</time></trkpt>
<trkpt lat="48.948268890381" lon="2.8770129680634"><ele>93</ele><time>2026-4-30T23:48:31Z</time></trkpt>
<trkpt lat="48.948184967041" lon="2.8769819736481"><ele>94</ele><time>2026-4-30T23:48:34Z</time></trkpt>
<trkpt lat="48.948184967041" lon="2.8769819736481"><ele>94</ele><time>2026-4-30T23:48:37Z</time></trkpt>
<trkpt lat="48.948101043701" lon="2.8769423961639"><ele>94</ele><time>2026-4-30T23:48:40Z</time></trkpt>
<trkpt lat="48.948017120361" lon="2.8768997192383"><ele>94</ele><time>2026-4-30T23:48:43Z</time></trkpt>
<trkpt lat="48.947933197021" lon="2.8768572807312"><ele>95</ele><time>2026-4-30T23:48:46Z</time></trkpt>
<trkpt lat="48.947841644287" lon="2.8768136501312"><ele>96</ele><time>2026-4-30T23:48:49Z</time></trkpt>
<trkpt lat="48.947742462158" lon="2.8767659664154"><ele>96</ele><time>2026-4-30T23:48:52Z</time></trkpt>
<trkpt lat="48.947658538818" lon="2.876713514328"><ele>96</ele><time>2026-4-30T23:48:55Z</time></trkpt>
<trkpt lat="48.947658538818" lon="2.876713514328"><ele>96</ele><time>2026-4-30T23:48:58Z</time></trkpt>
<trkpt lat="48.947570800781" lon="2.8766624927521"><ele>96</ele><time>2026-4-30T23:49:1Z</time></trkpt>
<trkpt lat="48.947463989258" lon="2.876610994339"><ele>96</ele><time>2026-4-30T23:49:4Z</time></trkpt>
<trkpt lat="48.947380065918" lon="2.8765695095062"><ele>98</ele><time>2026-4-30T23:49:7Z</time></trkpt>
<trkpt lat="48.947303771973" lon="2.8765094280243"><ele>98</ele><time>2026-4-30T23:49:10Z</time></trkpt>
<trkpt lat="48.947227478027" lon="2.8764395713806"><ele>98</ele><time>2026-4-30T23:49:13Z</time></trkpt>
<trkpt lat="48.947162628174" lon="2.8763840198517"><ele>98</ele><time>2026-4-30T23:49:16Z</time></trkpt>
<trkpt lat="48.947093963623" lon="2.8763318061829"><ele>98</ele><time>2026-4-30T23:49:19Z</time></trkpt>
<trkpt lat="48.947025299072" lon="2.8762736320496"><ele>97</ele><time>2026-4-30T23:49:22Z</time></trkpt>
<trkpt lat="48.946952819824" lon="2.8762097358704"><ele>97</ele><time>2026-4-30T23:49:25Z</time></trkpt>
<trkpt lat="48.946952819824" lon="2.8762097358704"><ele>97</ele><time>2026-4-30T23:49:28Z</time></trkpt>
<trkpt lat="48.946884155273" lon="2.8761425018311"><ele>96</ele><time>2026-4-30T23:49:31Z</time></trkpt>
<trkpt lat="48.946811676025" lon="2.8760743141174"><ele>96</ele><time>2026-4-30T23:49:34Z</time></trkpt>
<trkpt lat="48.946750640869" lon="2.876008272171"><ele>96</ele><time>2026-4-30T23:49:37Z</time></trkpt>
<trkpt lat="48.946685791016" lon="2.875944852829"><ele>96</ele><time>2026-4-30T23:49:40Z</time></trkpt>
<trkpt lat="48.946620941162" lon="2.8758814334869"><ele>96</ele><time>2026-4-30T23:49:43Z</time></trkpt>
<trkpt lat="48.946552276611" lon="2.8758175373077"><ele>96</ele><time>2026-4-30T23:49:46Z</time></trkpt>
<trkpt lat="48.946479797363" lon="2.8757503032684"><ele>97</ele><time>2026-4-30T23:49:49Z</time></trkpt>
<trkpt lat="48.946411132812" lon="2.8756844997406"><ele>98</ele><time>2026-4-30T23:49:52Z</time></trkpt>
<trkpt lat="48.946411132812" lon="2.8756844997406"><ele>98</ele><time>2026-4-30T23:49:55Z</time></trkpt>
<trkpt lat="48.946346282959" lon="2.8756234645844"><ele>98</ele><time>2026-4-30T23:49:58Z</time></trkpt>
<trkpt lat="48.946281433105" lon="2.8755583763123"><ele>98</ele><time>2026-4-30T23:50:1Z</time></trkpt>
<trkpt lat="48.946220397949" lon="2.8754997253418"><ele>98</ele><time>2026-4-30T23:50:4Z</time></trkpt>
<trkpt lat="48.946140289307" lon="2.8754284381866"><ele>99</ele><time>2026-4-30T23:50:7Z</time></trkpt>
<trkpt lat="48.946063995361" lon="2.875351190567"><ele>99</ele><time>2026-4-30T23:50:10Z</time></trkpt>
<trkpt lat="48.945987701416" lon="2.8752765655518"><ele>99</ele><time>2026-4-30T23:50:13Z</time></trkpt>
<trkpt lat="48.945911407471" lon="2.8752045631409"><ele>99</ele><time>2026-4-30T23:50:16Z</time></trkpt>
<trkpt lat="48.945835113525" lon="2.8751318454742"><ele>99</ele><time>2026-4-30T23:50:19Z</time></trkpt>
<trkpt lat="48.94575881958" lon="2.8750517368317"><ele>99</ele><time>2026-4-30T23:50:22Z</time></trkpt>
<trkpt lat="48.945690155029" lon="2.8749778270721"><ele>99</ele><time>2026-4-30T23:50:25Z</time></trkpt>
<trkpt lat="48.94563293457" lon="2.8749129772186"><ele>99</ele><time>2026-4-30T23:50:28Z</time></trkpt>
<trkpt lat="48.94563293457" lon="2.8749129772186"><ele>99</ele><time>2026-4-30T23:50:31Z</time></trkpt>
<trkpt lat="48.94563293457" lon="2.8749129772186"><ele>99</ele><time>2026-4-30T23:50:34Z</time></trkpt>
<trkpt lat="48.945495605469" lon="2.8747470378876"><ele>96</ele><time>2026-4-30T23:50:37Z</time></trkpt>
<trkpt lat="48.945400238037" lon="2.8746693134308"><ele>96</ele><time>2026-4-30T23:50:40Z</time></trkpt>
<trkpt lat="48.945346832275" lon="2.8746254444122"><ele>96</ele><time>2026-4-30T23:50:43Z</time></trkpt>
<trkpt lat="48.945259094238" lon="2.8745529651642"><ele>96</ele><time>2026-4-30T23:50:46Z</time></trkpt>
<trkpt lat="48.945259094238" lon="2.8745529651642"><ele>96</ele><time>2026-4-30T23:50:49Z</time></trkpt>
<trkpt lat="48.94518661499" lon="2.8744821548462"><ele>96</ele><time>2026-4-30T23:50:52Z</time></trkpt>
<trkpt lat="48.94518661499" lon="2.8744821548462"><ele>96</ele><time>2026-4-30T23:50:55Z</time></trkpt>
<trkpt lat="48.945114135742" lon="2.8744144439697"><ele>96</ele><time>2026-4-30T23:50:58Z</time></trkpt>
<trkpt lat="48.945022583008" lon="2.8743307590485"><ele>97</ele><time>2026-4-30T23:51:1Z</time></trkpt>
<trkpt lat="48.944942474365" lon="2.8742475509644"><ele>97</ele><time>2026-4-30T23:51:4Z</time></trkpt>
<trkpt lat="48.944862365723" lon="2.8741528987885"><ele>98</ele><time>2026-4-30T23:51:7Z</time></trkpt>
<trkpt lat="48.944862365723" lon="2.8741528987885"><ele>98</ele><time>2026-4-30T23:51:10Z</time></trkpt>
<trkpt lat="48.944766998291" lon="2.8740730285645"><ele>98</ele><time>2026-4-30T23:51:13Z</time></trkpt>
<trkpt lat="48.944766998291" lon="2.8740730285645"><ele>98</ele><time>2026-4-30T23:51:16Z</time></trkpt>
<trkpt lat="48.944686889648" lon="2.8739914894104"><ele>99</ele><time>2026-4-30T23:51:19Z</time></trkpt>
<trkpt lat="48.944686889648" lon="2.8739914894104"><ele>99</ele><time>2026-4-30T23:51:22Z</time></trkpt>
<trkpt lat="48.944610595703" lon="2.8738930225372"><ele>99</ele><time>2026-4-30T23:51:25Z</time></trkpt>
<trkpt lat="48.944557189941" lon="2.8738377094269"><ele>99</ele><time>2026-4-30T23:51:28Z</time></trkpt>
<trkpt lat="48.944496154785" lon="2.873779296875"><ele>99</ele><time>2026-4-30T23:51:31Z</time></trkpt>
<trkpt lat="48.944435119629" lon="2.8737297058105"><ele>99</ele><time>2026-4-30T23:51:34Z</time></trkpt>
<trkpt lat="48.944435119629" lon="2.8737297058105"><ele>99</ele><time>2026-4-30T23:51:37Z</time></trkpt>
<trkpt lat="48.944381713867" lon="2.8736848831177"><ele>100</ele><time>2026-4-30T23:51:40Z</time></trkpt>
<trkpt lat="48.944320678711" lon="2.8736338615417"><ele>100</ele><time>2026-4-30T23:51:43Z</time></trkpt>
<trkpt lat="48.94425201416" lon="2.8735735416412"><ele>100</ele><time>2026-4-30T23:51:46Z</time></trkpt>
<trkpt lat="48.94425201416" lon="2.8735735416412"><ele>100</ele><time>2026-4-30T23:51:49Z</time></trkpt>
<trkpt lat="48.944179534912" lon="2.8735086917877"><ele>100</ele><time>2026-4-30T23:51:52Z</time></trkpt>
<trkpt lat="48.944107055664" lon="2.8734531402588"><ele>100</ele><time>2026-4-30T23:51:55Z</time></trkpt>
<trkpt lat="48.944042205811" lon="2.8733849525452"><ele>102</ele><time>2026-4-30T23:51:58Z</time></trkpt>
<trkpt lat="48.944042205811" lon="2.8733849525452"><ele>102</ele><time>2026-4-30T23:52:1Z</time></trkpt>
<trkpt lat="48.943981170654" lon="2.8733143806458"><ele>102</ele><time>2026-4-30T23:52:4Z</time></trkpt>
<trkpt lat="48.943916320801" lon="2.8732404708862"><ele>101</ele><time>2026-4-30T23:52:7Z</time></trkpt>
<trkpt lat="48.943859100342" lon="2.873167514801"><ele>101</ele><time>2026-4-30T23:52:10Z</time></trkpt>
<trkpt lat="48.943859100342" lon="2.873167514801"><ele>101</ele><time>2026-4-30T23:52:13Z</time></trkpt>
<trkpt lat="48.943798065186" lon="2.8730976581573"><ele>101</ele><time>2026-4-30T23:52:16Z</time></trkpt>
<trkpt lat="48.943737030029" lon="2.8730244636536"><ele>100</ele><time>2026-4-30T23:52:19Z</time></trkpt>
<trkpt lat="48.94367980957" lon="2.8729572296143"><ele>100</ele><time>2026-4-30T23:52:22Z</time></trkpt>
<trkpt lat="48.943607330322" lon="2.8728849887848"><ele>100</ele><time>2026-4-30T23:52:25Z</time></trkpt>
<trkpt lat="48.943542480469" lon="2.8728313446045"><ele>100</ele><time>2026-4-30T23:52:28Z</time></trkpt>
<trkpt lat="48.94348526001" lon="2.8727722167969"><ele>100</ele><time>2026-4-30T23:52:31Z</time></trkpt>
<trkpt lat="48.943428039551" lon="2.8726985454559"><ele>100</ele><time>2026-4-30T23:52:34Z</time></trkpt>
<trkpt lat="48.943374633789" lon="2.8726305961609"><ele>100</ele><time>2026-4-30T23:52:37Z</time></trkpt>
<trkpt lat="48.94331741333" lon="2.8725755214691"><ele>100</ele><time>2026-4-30T23:52:40Z</time></trkpt>
<trkpt lat="48.94331741333" lon="2.8725755214691"><ele>100</ele><time>2026-4-30T23:52:43Z</time></trkpt>
<trkpt lat="48.943260192871" lon="2.8725173473358"><ele>100</ele><time>2026-4-30T23:52:46Z</time></trkpt>
<trkpt lat="48.943187713623" lon="2.8724589347839"><ele>99</ele><time>2026-4-30T23:52:49Z</time></trkpt>
<trkpt lat="48.943111419678" lon="2.8723969459534"><ele>98</ele><time>2026-4-30T23:52:52Z</time></trkpt>
<trkpt lat="48.943046569824" lon="2.8723192214966"><ele>97</ele><time>2026-4-30T23:52:55Z</time></trkpt>
<trkpt lat="48.942989349365" lon="2.872266292572"><ele>97</ele><time>2026-4-30T23:52:58Z</time></trkpt>
<trkpt lat="48.942932128906" lon="2.8722064495087"><ele>97</ele><time>2026-4-30T23:53:1Z</time></trkpt>
<trkpt lat="48.942932128906" lon="2.8722064495087"><ele>97</ele><time>2026-4-30T23:53:4Z</time></trkpt>
<trkpt lat="48.942863464355" lon="2.8721354007721"><ele>96</ele><time>2026-4-30T23:53:7Z</time></trkpt>
<trkpt lat="48.942802429199" lon="2.8720681667328"><ele>96</ele><time>2026-4-30T23:53:10Z</time></trkpt>
<trkpt lat="48.942737579346" lon="2.8720073699951"><ele>96</ele><time>2026-4-30T23:53:13Z</time></trkpt>
<trkpt lat="48.942737579346" lon="2.8720073699951"><ele>96</ele><time>2026-4-30T23:53:16Z</time></trkpt>
<trkpt lat="48.942676544189" lon="2.8719391822815"><ele>96</ele><time>2026-4-30T23:53:19Z</time></trkpt>
<trkpt lat="48.94261932373" lon="2.8718702793121"><ele>96</ele><time>2026-4-30T23:53:22Z</time></trkpt>
<trkpt lat="48.94255065918" lon="2.8718154430389"><ele>96</ele><time>2026-4-30T23:53:25Z</time></trkpt>
<trkpt lat="48.942481994629" lon="2.8717629909515"><ele>96</ele><time>2026-4-30T23:53:28Z</time></trkpt>
<trkpt lat="48.942401885986" lon="2.8716869354248"><ele>96</ele><time>2026-4-30T23:53:31Z</time></trkpt>
<trkpt lat="48.942321777344" lon="2.8716044425964"><ele>98</ele><time>2026-4-30T23:53:34Z</time></trkpt>
<trkpt lat="48.942268371582" lon="2.8715479373932"><ele>98</ele><time>2026-4-30T23:53:37Z</time></trkpt>
<trkpt lat="48.942211151123" lon="2.8714814186096"><ele>98</ele><time>2026-4-30T23:53:40Z</time></trkpt>
<trkpt lat="48.942138671875" lon="2.8714003562927"><ele>98</ele><time>2026-4-30T23:53:43Z</time></trkpt>
<trkpt lat="48.942138671875" lon="2.8714003562927"><ele>98</ele><time>2026-4-30T23:53:46Z</time></trkpt>
<trkpt lat="48.942070007324" lon="2.8713331222534"><ele>97</ele><time>2026-4-30T23:53:49Z</time></trkpt>
<trkpt lat="48.941997528076" lon="2.8712732791901"><ele>97</ele><time>2026-4-30T23:53:52Z</time></trkpt>
<trkpt lat="48.941921234131" lon="2.8712105751038"><ele>96</ele><time>2026-4-30T23:53:55Z</time></trkpt>
<trkpt lat="48.941921234131" lon="2.8712105751038"><ele>96</ele><time>2026-4-30T23:53:58Z</time></trkpt>
<trkpt lat="48.941837310791" lon="2.8711366653442"><ele>96</ele><time>2026-4-30T23:54:1Z</time></trkpt>
<trkpt lat="48.941764831543" lon="2.8710622787476"><ele>96</ele><time>2026-4-30T23:54:4Z</time></trkpt>
<trkpt lat="48.941696166992" lon="2.8709902763367"><ele>96</ele><time>2026-4-30T23:54:7Z</time></trkpt>
<trkpt lat="48.941627502441" lon="2.8709156513214"><ele>94</ele><time>2026-4-30T23:54:10Z</time></trkpt>
<trkpt lat="48.941558837891" lon="2.8708522319794"><ele>93</ele><time>2026-4-30T23:54:13Z</time></trkpt>
<trkpt lat="48.941505432129" lon="2.8707964420319"><ele>93</ele><time>2026-4-30T23:54:16Z</time></trkpt>
<trkpt lat="48.941505432129" lon="2.8707964420319"><ele>93</ele><time>2026-4-30T23:54:19Z</time></trkpt>
<trkpt lat="48.941440582275" lon="2.8707258701324"><ele>93</ele><time>2026-4-30T23:54:22Z</time></trkpt>
<trkpt lat="48.941383361816" lon="2.8706607818604"><ele>93</ele><time>2026-4-30T23:54:25Z</time></trkpt>
<trkpt lat="48.941310882568" lon="2.8705821037292"><ele>93</ele><time>2026-4-30T23:54:28Z</time></trkpt>
<trkpt lat="48.941310882568" lon="2.8705821037292"><ele>93</ele><time>2026-4-30T23:54:31Z</time></trkpt>
<trkpt lat="48.941226959229" lon="2.8705060482025"><ele>92</ele><time>2026-4-30T23:54:34Z</time></trkpt>
<trkpt lat="48.941150665283" lon="2.8704354763031"><ele>93</ele><time>2026-4-30T23:54:37Z</time></trkpt>
<trkpt lat="48.941074371338" lon="2.8703606128693"><ele>93</ele><time>2026-4-30T23:54:40Z</time></trkpt>
<trkpt lat="48.941074371338" lon="2.8703606128693"><ele>93</ele><time>2026-4-30T23:54:43Z</time></trkpt>
<trkpt lat="48.941005706787" lon="2.8702831268311"><ele>95</ele><time>2026-4-30T23:54:46Z</time></trkpt>
<trkpt lat="48.940925598145" lon="2.8702054023743"><ele>96</ele><time>2026-4-30T23:54:49Z</time></trkpt>
<trkpt lat="48.940845489502" lon="2.8701283931732"><ele>96</ele><time>2026-4-30T23:54:52Z</time></trkpt>
<trkpt lat="48.940845489502" lon="2.8701283931732"><ele>96</ele><time>2026-4-30T23:54:55Z</time></trkpt>
<trkpt lat="48.940746307373" lon="2.8700542449951"><ele>97</ele><time>2026-4-30T23:54:58Z</time></trkpt>
<trkpt lat="48.940650939941" lon="2.869993686676"><ele>96</ele><time>2026-4-30T23:55:1Z</time></trkpt>
<trkpt lat="48.940570831299" lon="2.8699238300323"><ele>96</ele><time>2026-4-30T23:55:4Z</time></trkpt>
<trkpt lat="48.940502166748" lon="2.869836807251"><ele>96</ele><time>2026-4-30T23:55:7Z</time></trkpt>
<trkpt lat="48.940414428711" lon="2.8697407245636"><ele>96</ele><time>2026-4-30T23:55:10Z</time></trkpt>
<trkpt lat="48.940315246582" lon="2.8696568012238"><ele>95</ele><time>2026-4-30T23:55:13Z</time></trkpt>
<trkpt lat="48.940223693848" lon="2.8695614337921"><ele>95</ele><time>2026-4-30T23:55:16Z</time></trkpt>
<trkpt lat="48.940132141113" lon="2.8694701194763"><ele>95</ele><time>2026-4-30T23:55:19Z</time></trkpt>
<trkpt lat="48.940059661865" lon="2.8693838119507"><ele>95</ele><time>2026-4-30T23:55:22Z</time></trkpt>
<trkpt lat="48.940059661865" lon="2.8693838119507"><ele>95</ele><time>2026-4-30T23:55:25Z</time></trkpt>
<trkpt lat="48.939994812012" lon="2.8692979812622"><ele>95</ele><time>2026-4-30T23:55:28Z</time></trkpt>
<trkpt lat="48.939922332764" lon="2.869208574295"><ele>96</ele><time>2026-4-30T23:55:31Z</time></trkpt>
<trkpt lat="48.939849853516" lon="2.8691492080688"><ele>96</ele><time>2026-4-30T23:55:34Z</time></trkpt>
<trkpt lat="48.939849853516" lon="2.8691492080688"><ele>96</ele><time>2026-4-30T23:55:37Z</time></trkpt>
<trkpt lat="48.939785003662" lon="2.8690891265869"><ele>96</ele><time>2026-4-30T23:55:40Z</time></trkpt>
<trkpt lat="48.939785003662" lon="2.8690891265869"><ele>96</ele><time>2026-4-30T23:55:43Z</time></trkpt>
<trkpt lat="48.939701080322" lon="2.8690176010132"><ele>96</ele><time>2026-4-30T23:55:46Z</time></trkpt>
<trkpt lat="48.939701080322" lon="2.8690176010132"><ele>96</ele><time>2026-4-30T23:55:49Z</time></trkpt>
<trkpt lat="48.939701080322" lon="2.8690176010132"><ele>96</ele><time>2026-4-30T23:55:52Z</time></trkpt>
<trkpt lat="48.939598083496" lon="2.8689162731171"><ele>96</ele><time>2026-4-30T23:55:55Z</time></trkpt>
<trkpt lat="48.939510345459" lon="2.8688275814056"><ele>97</ele><time>2026-4-30T23:55:58Z</time></trkpt>
<trkpt lat="48.939510345459" lon="2.8688275814056"><ele>97</ele><time>2026-4-30T23:56:1Z</time></trkpt>
<trkpt lat="48.939441680908" lon="2.8687601089478"><ele>97</ele><time>2026-4-30T23:56:4Z</time></trkpt>
<trkpt lat="48.939441680908" lon="2.8687601089478"><ele>97</ele><time>2026-4-30T23:56:7Z</time></trkpt>
<trkpt lat="48.939380645752" lon="2.8687314987183"><ele>97</ele><time>2026-4-30T23:56:10Z</time></trkpt>
<trkpt lat="48.939380645752" lon="2.8687314987183"><ele>97</ele><time>2026-4-30T23:56:13Z</time></trkpt>
<trkpt lat="48.939323425293" lon="2.8686652183533"><ele>98</ele><time>2026-4-30T23:56:16Z</time></trkpt>
<trkpt lat="48.939323425293" lon="2.8686652183533"><ele>98</ele><time>2026-4-30T23:56:19Z</time></trkpt>
<trkpt lat="48.93909072876" lon="2.8684086799622"><ele>98</ele><time>2026-4-30T23:56:22Z</time></trkpt>
<trkpt lat="48.939033508301" lon="2.8683388233185"><ele>98</ele><time>2026-4-30T23:56:25Z</time></trkpt>
<trkpt lat="48.938911437988" lon="2.8681938648224"><ele>99</ele><time>2026-4-30T23:56:28Z</time></trkpt>
<trkpt lat="48.938850402832" lon="2.8681406974792"><ele>99</ele><time>2026-4-30T23:56:31Z</time></trkpt>
<trkpt lat="48.93871307373" lon="2.868007183075"><ele>99</ele><time>2026-4-30T23:56:34Z</time></trkpt>
<trkpt lat="48.93871307373" lon="2.868007183075"><ele>99</ele><time>2026-4-30T23:56:37Z</time></trkpt>
<trkpt lat="48.938617706299" lon="2.8679239749908"><ele>99</ele><time>2026-4-30T23:56:40Z</time></trkpt>
<trkpt lat="48.938495635986" lon="2.8677926063538"><ele>99</ele><time>2026-4-30T23:56:43Z</time></trkpt>
<trkpt lat="48.938411712646" lon="2.8676960468292"><ele>98</ele><time>2026-4-30T23:56:46Z</time></trkpt>
<trkpt lat="48.938365936279" lon="2.867635011673"><ele>98</ele><time>2026-4-30T23:56:49Z</time></trkpt>
<trkpt lat="48.938365936279" lon="2.867635011673"><ele>98</ele><time>2026-4-30T23:56:52Z</time></trkpt>
<trkpt lat="48.938301086426" lon="2.8675801753998"><ele>97</ele><time>2026-4-30T23:56:55Z</time></trkpt>
<trkpt lat="48.938220977783" lon="2.8675143718719"><ele>97</ele><time>2026-4-30T23:56:58Z</time></trkpt>
<trkpt lat="48.938148498535" lon="2.8674504756927"><ele>96</ele><time>2026-4-30T23:57:1Z</time></trkpt>
<trkpt lat="48.938148498535" lon="2.8674504756927"><ele>96</ele><time>2026-4-30T23:57:4Z</time></trkpt>
<trkpt lat="48.938022613525" lon="2.8673150539398"><ele>96</ele><time>2026-4-30T23:57:7Z</time></trkpt>
<trkpt lat="48.937942504883" lon="2.8672223091125"><ele>95</ele><time>2026-4-30T23:57:10Z</time></trkpt>
<trkpt lat="48.937942504883" lon="2.8672223091125"><ele>95</ele><time>2026-4-30T23:57:13Z</time></trkpt>
<trkpt lat="48.937873840332" lon="2.867155790329"><ele>95</ele><time>2026-4-30T23:57:16Z</time></trkpt>
<trkpt lat="48.937812805176" lon="2.8670992851257"><ele>95</ele><time>2026-4-30T23:57:19Z</time></trkpt>
<trkpt lat="48.937744140625" lon="2.8670380115509"><ele>94</ele><time>2026-4-30T23:57:22Z</time></trkpt>
<trkpt lat="48.937744140625" lon="2.8670380115509"><ele>94</ele><time>2026-4-30T23:57:25Z</time></trkpt>
<trkpt lat="48.937686920166" lon="2.8669605255127"><ele>94</ele><time>2026-4-30T23:57:28Z</time></trkpt>
<trkpt lat="48.937614440918" lon="2.8669137954712"><ele>94</ele><time>2026-4-30T23:57:31Z</time></trkpt>
<trkpt lat="48.937549591064" lon="2.866858959198"><ele>94</ele><time>2026-4-30T23:57:34Z</time></trkpt>
<trkpt lat="48.937549591064" lon="2.866858959198"><ele>94</ele><time>2026-4-30T23:57:37Z</time></trkpt>
<trkpt lat="48.93745803833" lon="2.8667674064636"><ele>93</ele><time>2026-4-30T23:57:40Z</time></trkpt>
<trkpt lat="48.937389373779" lon="2.8667020797729"><ele>93</ele><time>2026-4-30T23:57:43Z</time></trkpt>
<trkpt lat="48.937324523926" lon="2.866672039032"><ele>93</ele><time>2026-4-30T23:57:46Z</time></trkpt>
<trkpt lat="48.937324523926" lon="2.866672039032"><ele>93</ele><time>2026-4-30T23:57:49Z</time></trkpt>
<trkpt lat="48.937324523926" lon="2.866672039032"><ele>93</ele><time>2026-4-30T23:57:52Z</time></trkpt>
<trkpt lat="48.937259674072" lon="2.8666117191315"><ele>92</ele><time>2026-4-30T23:57:55Z</time></trkpt>
<trkpt lat="48.937259674072" lon="2.8666117191315"><ele>92</ele><time>2026-4-30T23:57:58Z</time></trkpt>
<trkpt lat="48.937259674072" lon="2.8666117191315"><ele>92</ele><time>2026-4-30T23:58:1Z</time></trkpt>
<trkpt lat="48.937164306641" lon="2.8665118217468"><ele>92</ele><time>2026-4-30T23:58:4Z</time></trkpt>
<trkpt lat="48.937164306641" lon="2.8665118217468"><ele>92</ele><time>2026-4-30T23:58:7Z</time></trkpt>
<trkpt lat="48.937076568604" lon="2.8664197921753"><ele>92</ele><time>2026-4-30T23:58:10Z</time></trkpt>
<trkpt lat="48.937076568604" lon="2.8664197921753"><ele>92</ele><time>2026-4-30T23:58:13Z</time></trkpt>
<trkpt lat="48.937019348145" lon="2.8663635253906"><ele>92</ele><time>2026-4-30T23:58:16Z</time></trkpt>
<trkpt lat="48.936946868896" lon="2.8663003444672"><ele>92</ele><time>2026-4-30T23:58:19Z</time></trkpt>
<trkpt lat="48.93688583374" lon="2.8662416934967"><ele>91</ele><time>2026-4-30T23:58:22Z</time></trkpt>
<trkpt lat="48.93688583374" lon="2.8662416934967"><ele>91</ele><time>2026-4-30T23:58:25Z</time></trkpt>
<trkpt lat="48.936820983887" lon="2.8661785125732"><ele>91</ele><time>2026-4-30T23:58:28Z</time></trkpt>
<trkpt lat="48.936767578125" lon="2.8661093711853"><ele>91</ele><time>2026-4-30T23:58:31Z</time></trkpt>
<trkpt lat="48.936698913574" lon="2.8660340309143"><ele>91</ele><time>2026-4-30T23:58:34Z</time></trkpt>
<trkpt lat="48.936698913574" lon="2.8660340309143"><ele>91</ele><time>2026-4-30T23:58:37Z</time></trkpt>
<trkpt lat="48.936622619629" lon="2.8659439086914"><ele>91</ele><time>2026-4-30T23:58:40Z</time></trkpt>
<trkpt lat="48.936561584473" lon="2.8658800125122"><ele>91</ele><time>2026-4-30T23:58:43Z</time></trkpt>
<trkpt lat="48.936492919922" lon="2.8658299446106"><ele>91</ele><time>2026-4-30T23:58:46Z</time></trkpt>
<trkpt lat="48.936492919922" lon="2.8658299446106"><ele>91</ele><time>2026-4-30T23:58:49Z</time></trkpt>
<trkpt lat="48.936408996582" lon="2.8657574653625"><ele>91</ele><time>2026-4-30T23:58:52Z</time></trkpt>
<trkpt lat="48.93635559082" lon="2.8656949996948"><ele>91</ele><time>2026-4-30T23:58:55Z</time></trkpt>
<trkpt lat="48.936298370361" lon="2.8656167984009"><ele>91</ele><time>2026-4-30T23:58:58Z</time></trkpt>
<trkpt lat="48.936298370361" lon="2.8656167984009"><ele>91</ele><time>2026-4-30T23:59:1Z</time></trkpt>
<trkpt lat="48.936229705811" lon="2.8655438423157"><ele>91</ele><time>2026-4-30T23:59:4Z</time></trkpt>
<trkpt lat="48.936180114746" lon="2.8654916286469"><ele>90</ele><time>2026-4-30T23:59:7Z</time></trkpt>
<trkpt lat="48.936180114746" lon="2.8654916286469"><ele>90</ele><time>2026-4-30T23:59:10Z</time></trkpt>
<trkpt lat="48.936092376709" lon="2.8653936386108"><ele>91</ele><time>2026-4-30T23:59:13Z</time></trkpt>
<trkpt lat="48.936092376709" lon="2.8653936386108"><ele>91</ele><time>2026-4-30T23:59:16Z</time></trkpt>
<trkpt lat="48.936027526855" lon="2.8653426170349"><ele>91</ele><time>2026-4-30T23:59:19Z</time></trkpt>
<trkpt lat="48.936027526855" lon="2.8653426170349"><ele>91</ele><time>2026-4-30T23:59:22Z</time></trkpt>
<trkpt lat="48.935939788818" lon="2.8652684688568"><ele>91</ele><time>2026-4-30T23:59:25Z</time></trkpt>
<trkpt lat="48.935939788818" lon="2.8652684688568"><ele>91</ele><time>2026-4-30T23:59:28Z</time></trkpt>
<trkpt lat="48.935939788818" lon="2.8652684688568"><ele>91</ele><time>2026-4-30T23:59:31Z</time></trkpt>
<trkpt lat="48.93586730957" lon="2.8651759624481"><ele>91</ele><time>2026-4-30T23:59:34Z</time></trkpt>
<trkpt lat="48.93586730957" lon="2.8651759624481"><ele>91</ele><time>2026-4-30T23:59:37Z</time></trkpt>
<trkpt lat="48.93586730957" lon="2.8651759624481"><ele>91</ele><time>2026-4-30T23:59:40Z</time></trkpt>
<trkpt lat="48.935771942139" lon="2.8650732040405"><ele>91</ele><time>2026-4-30T23:59:43Z</time></trkpt>
<trkpt lat="48.935718536377" lon="2.8650236129761"><ele>90</ele><time>2026-4-30T23:59:46Z</time></trkpt>
<trkpt lat="48.935718536377" lon="2.8650236129761"><ele>90</ele><time>2026-4-30T23:59:49Z</time></trkpt>
<trkpt lat="48.935596466064" lon="2.864937543869"><ele>91</ele><time>2026-4-30T23:59:52Z</time></trkpt>
<trkpt lat="48.935527801514" lon="2.8648777008057"><ele>91</ele><time>2026-4-30T23:59:55Z</time></trkpt>
<trkpt lat="48.935459136963" lon="2.8647816181183"><ele>91</ele><time>2026-4-30T23:59:58Z</time></trkpt>
<trkpt lat="48.935459136963" lon="2.8647816181183"><ele>91</ele><time>2026-5-1T0:0:1Z</time></trkpt>
<trkpt lat="48.935398101807" lon="2.8647091388702"><ele>91</ele><time>2026-5-1T0:0:4Z</time></trkpt>
<trkpt lat="48.935314178467" lon="2.864634513855"><ele>91</ele><time>2026-5-1T0:0:7Z</time></trkpt>
<trkpt lat="48.93522644043" lon="2.8645861148834"><ele>91</ele><time>2026-5-1T0:0:10Z</time></trkpt>
<trkpt lat="48.935157775879" lon="2.8645331859589"><ele>91</ele><time>2026-5-1T0:0:13Z</time></trkpt>
<trkpt lat="48.935089111328" lon="2.864462852478"><ele>92</ele><time>2026-5-1T0:0:16Z</time></trkpt>
<trkpt lat="48.93501663208" lon="2.8643944263458"><ele>92</ele><time>2026-5-1T0:0:19Z</time></trkpt>
<trkpt lat="48.93501663208" lon="2.8643944263458"><ele>92</ele><time>2026-5-1T0:0:22Z</time></trkpt>
<trkpt lat="48.934955596924" lon="2.864319562912"><ele>92</ele><time>2026-5-1T0:0:25Z</time></trkpt>
<trkpt lat="48.93489074707" lon="2.8642399311066"><ele>92</ele><time>2026-5-1T0:0:28Z</time></trkpt>
<trkpt lat="48.934825897217" lon="2.8641452789307"><ele>92</ele><time>2026-5-1T0:0:31Z</time></trkpt>
<trkpt lat="48.934825897217" lon="2.8641452789307"><ele>92</ele><time>2026-5-1T0:0:34Z</time></trkpt>
<trkpt lat="48.934734344482" lon="2.8640351295471"><ele>92</ele><time>2026-5-1T0:0:37Z</time></trkpt>
<trkpt lat="48.934673309326" lon="2.8639838695526"><ele>92</ele><time>2026-5-1T0:0:40Z</time></trkpt>
<trkpt lat="48.93461227417" lon="2.8639409542084"><ele>91</ele><time>2026-5-1T0:0:43Z</time></trkpt>
<trkpt lat="48.934547424316" lon="2.8638956546783"><ele>91</ele><time>2026-5-1T0:0:46Z</time></trkpt>
<trkpt lat="48.934490203857" lon="2.8638293743134"><ele>91</ele><time>2026-5-1T0:0:49Z</time></trkpt>
<trkpt lat="48.934417724609" lon="2.8637635707855"><ele>90</ele><time>2026-5-1T0:0:52Z</time></trkpt>
<trkpt lat="48.934349060059" lon="2.8636991977692"><ele>90</ele><time>2026-5-1T0:0:55Z</time></trkpt>
<trkpt lat="48.934276580811" lon="2.863627910614"><ele>90</ele><time>2026-5-1T0:0:58Z</time></trkpt>
<trkpt lat="48.934276580811" lon="2.863627910614"><ele>90</ele><time>2026-5-1T0:1:1Z</time></trkpt>
<trkpt lat="48.934200286865" lon="2.8635456562042"><ele>90</ele><time>2026-5-1T0:1:4Z</time></trkpt>
<trkpt lat="48.934135437012" lon="2.8634777069092"><ele>90</ele><time>2026-5-1T0:1:7Z</time></trkpt>
<trkpt lat="48.934085845947" lon="2.8634297847748"><ele>90</ele><time>2026-5-1T0:1:10Z</time></trkpt>
<trkpt lat="48.934024810791" lon="2.8633773326874"><ele>90</ele><time>2026-5-1T0:1:13Z</time></trkpt>
<trkpt lat="48.93395614624" lon="2.8633227348328"><ele>90</ele><time>2026-5-1T0:1:16Z</time></trkpt>
<trkpt lat="48.933887481689" lon="2.8632748126984"><ele>90</ele><time>2026-5-1T0:1:19Z</time></trkpt>
<trkpt lat="48.93383026123" lon="2.8632311820984"><ele>90</ele><time>2026-5-1T0:1:22Z</time></trkpt>
<trkpt lat="48.933765411377" lon="2.8631567955017"><ele>91</ele><time>2026-5-1T0:1:25Z</time></trkpt>
<trkpt lat="48.933696746826" lon="2.8630857467651"><ele>91</ele><time>2026-5-1T0:1:28Z</time></trkpt>
<trkpt lat="48.933620452881" lon="2.8630135059357"><ele>91</ele><time>2026-5-1T0:1:31Z</time></trkpt>
<trkpt lat="48.933547973633" lon="2.8629229068756"><ele>91</ele><time>2026-5-1T0:1:34Z</time></trkpt>
<trkpt lat="48.933479309082" lon="2.8628368377686"><ele>91</ele><time>2026-5-1T0:1:37Z</time></trkpt>
<trkpt lat="48.933410644531" lon="2.8627724647522"><ele>91</ele><time>2026-5-1T0:1:40Z</time></trkpt>
<trkpt lat="48.933349609375" lon="2.8627068996429"><ele>91</ele><time>2026-5-1T0:1:43Z</time></trkpt>
<trkpt lat="48.933277130127" lon="2.862621307373"><ele>91</ele><time>2026-5-1T0:1:46Z</time></trkpt>
<trkpt lat="48.933208465576" lon="2.8625600337982"><ele>91</ele><time>2026-5-1T0:1:49Z</time></trkpt>
<trkpt lat="48.933143615723" lon="2.8625059127808"><ele>91</ele><time>2026-5-1T0:1:52Z</time></trkpt>
<trkpt lat="48.933078765869" lon="2.8624422550201"><ele>91</ele><time>2026-5-1T0:1:55Z</time></trkpt>
<trkpt lat="48.933010101318" lon="2.8623735904694"><ele>92</ele><time>2026-5-1T0:1:58Z</time></trkpt>
<trkpt lat="48.932941436768" lon="2.862309217453"><ele>92</ele><time>2026-5-1T0:2:1Z</time></trkpt>
<trkpt lat="48.932880401611" lon="2.8622553348541"><ele>92</ele><time>2026-5-1T0:2:4Z</time></trkpt>
<trkpt lat="48.932811737061" lon="2.8621971607208"><ele>92</ele><time>2026-5-1T0:2:7Z</time></trkpt>
<trkpt lat="48.932731628418" lon="2.8621251583099"><ele>92</ele><time>2026-5-1T0:2:10Z</time></trkpt>
<trkpt lat="48.93265914917" lon="2.8620390892029"><ele>92</ele><time>2026-5-1T0:2:13Z</time></trkpt>
<trkpt lat="48.932579040527" lon="2.8619508743286"><ele>92</ele><time>2026-5-1T0:2:16Z</time></trkpt>
<trkpt lat="48.93249130249" lon="2.8618507385254"><ele>93</ele><time>2026-5-1T0:2:19Z</time></trkpt>
<trkpt lat="48.932415008545" lon="2.8617765903473"><ele>94</ele><time>2026-5-1T0:2:22Z</time></trkpt>
<trkpt lat="48.932327270508" lon="2.8616955280304"><ele>95</ele><time>2026-5-1T0:2:25Z</time></trkpt>
<trkpt lat="48.932250976562" lon="2.8616170883179"><ele>95</ele><time>2026-5-1T0:2:28Z</time></trkpt>
<trkpt lat="48.932178497314" lon="2.8615343570709"><ele>94</ele><time>2026-5-1T0:2:31Z</time></trkpt>
<trkpt lat="48.932098388672" lon="2.8614566326141"><ele>94</ele><time>2026-5-1T0:2:34Z</time></trkpt>
<trkpt lat="48.932041168213" lon="2.8614015579224"><ele>94</ele><time>2026-5-1T0:2:37Z</time></trkpt>
<trkpt lat="48.931968688965" lon="2.8613474369049"><ele>94</ele><time>2026-5-1T0:2:40Z</time></trkpt>
<trkpt lat="48.931968688965" lon="2.8613474369049"><ele>94</ele><time>2026-5-1T0:2:43Z</time></trkpt>
<trkpt lat="48.931861877441" lon="2.8612353801727"><ele>94</ele><time>2026-5-1T0:2:46Z</time></trkpt>
<trkpt lat="48.931797027588" lon="2.8611552715302"><ele>94</ele><time>2026-5-1T0:2:49Z</time></trkpt>
<trkpt lat="48.931720733643" lon="2.8610892295837"><ele>94</ele><time>2026-5-1T0:2:52Z</time></trkpt>
<trkpt lat="48.931655883789" lon="2.8610317707062"><ele>94</ele><time>2026-5-1T0:2:55Z</time></trkpt>
<trkpt lat="48.931579589844" lon="2.8609664440155"><ele>94</ele><time>2026-5-1T0:2:58Z</time></trkpt>
<trkpt lat="48.931495666504" lon="2.8608856201172"><ele>94</ele><time>2026-5-1T0:3:1Z</time></trkpt>
<trkpt lat="48.931411743164" lon="2.860808134079"><ele>94</ele><time>2026-5-1T0:3:4Z</time></trkpt>
<trkpt lat="48.931339263916" lon="2.8607456684113"><ele>93</ele><time>2026-5-1T0:3:7Z</time></trkpt>
<trkpt lat="48.931339263916" lon="2.8607456684113"><ele>93</ele><time>2026-5-1T0:3:10Z</time></trkpt>
<trkpt lat="48.93127822876" lon="2.8606805801392"><ele>93</ele><time>2026-5-1T0:3:13Z</time></trkpt>
<trkpt lat="48.931205749512" lon="2.8605904579163"><ele>93</ele><time>2026-5-1T0:3:16Z</time></trkpt>
<trkpt lat="48.931144714355" lon="2.8605108261108"><ele>94</ele><time>2026-5-1T0:3:19Z</time></trkpt>
<trkpt lat="48.931144714355" lon="2.8605108261108"><ele>94</ele><time>2026-5-1T0:3:22Z</time></trkpt>
<trkpt lat="48.931072235107" lon="2.8604328632355"><ele>94</ele><time>2026-5-1T0:3:25Z</time></trkpt>
<trkpt lat="48.931007385254" lon="2.860383272171"><ele>94</ele><time>2026-5-1T0:3:28Z</time></trkpt>
<trkpt lat="48.930934906006" lon="2.8603227138519"><ele>94</ele><time>2026-5-1T0:3:31Z</time></trkpt>
<trkpt lat="48.93087387085" lon="2.8602590560913"><ele>94</ele><time>2026-5-1T0:3:34Z</time></trkpt>
<trkpt lat="48.930812835693" lon="2.8601899147034"><ele>94</ele><time>2026-5-1T0:3:37Z</time></trkpt>
<trkpt lat="48.930751800537" lon="2.8601207733154"><ele>94</ele><time>2026-5-1T0:3:40Z</time></trkpt>
<trkpt lat="48.930683135986" lon="2.86004114151"><ele>94</ele><time>2026-5-1T0:3:43Z</time></trkpt>
<trkpt lat="48.930610656738" lon="2.8599615097046"><ele>94</ele><time>2026-5-1T0:3:46Z</time></trkpt>
<trkpt lat="48.930541992188" lon="2.8598902225494"><ele>94</ele><time>2026-5-1T0:3:49Z</time></trkpt>
<trkpt lat="48.930480957031" lon="2.8598325252533"><ele>94</ele><time>2026-5-1T0:3:52Z</time></trkpt>
<trkpt lat="48.930416107178" lon="2.8597662448883"><ele>94</ele><time>2026-5-1T0:3:55Z</time></trkpt>
<trkpt lat="48.930416107178" lon="2.8597662448883"><ele>94</ele><time>2026-5-1T0:3:58Z</time></trkpt>
<trkpt lat="48.930316925049" lon="2.8596920967102"><ele>93</ele><time>2026-5-1T0:4:1Z</time></trkpt>
<trkpt lat="48.930263519287" lon="2.8596332073212"><ele>93</ele><time>2026-5-1T0:4:4Z</time></trkpt>
<trkpt lat="48.930206298828" lon="2.8595724105835"><ele>93</ele><time>2026-5-1T0:4:7Z</time></trkpt>
<trkpt lat="48.93013381958" lon="2.8595147132874"><ele>93</ele><time>2026-5-1T0:4:10Z</time></trkpt>
<trkpt lat="48.930053710938" lon="2.8594479560852"><ele>93</ele><time>2026-5-1T0:4:13Z</time></trkpt>
<trkpt lat="48.929969787598" lon="2.8593640327454"><ele>93</ele><time>2026-5-1T0:4:16Z</time></trkpt>
<trkpt lat="48.929893493652" lon="2.8592941761017"><ele>92</ele><time>2026-5-1T0:4:19Z</time></trkpt>
<trkpt lat="48.929828643799" lon="2.8592257499695"><ele>92</ele><time>2026-5-1T0:4:22Z</time></trkpt>
<trkpt lat="48.929767608643" lon="2.8591463565826"><ele>92</ele><time>2026-5-1T0:4:25Z</time></trkpt>
<trkpt lat="48.929702758789" lon="2.8590621948242"><ele>92</ele><time>2026-5-1T0:4:28Z</time></trkpt>
<trkpt lat="48.929641723633" lon="2.8589839935303"><ele>92</ele><time>2026-5-1T0:4:31Z</time></trkpt>
<trkpt lat="48.929584503174" lon="2.8589177131653"><ele>92</ele><time>2026-5-1T0:4:34Z</time></trkpt>
<trkpt lat="48.929515838623" lon="2.8588478565216"><ele>92</ele><time>2026-5-1T0:4:37Z</time></trkpt>
<trkpt lat="48.929431915283" lon="2.8587684631348"><ele>92</ele><time>2026-5-1T0:4:40Z</time></trkpt>
<trkpt lat="48.929374694824" lon="2.8587052822113"><ele>92</ele><time>2026-5-1T0:4:43Z</time></trkpt>
<trkpt lat="48.929302215576" lon="2.858638048172"><ele>92</ele><time>2026-5-1T0:4:46Z</time></trkpt>
<trkpt lat="48.92924118042" lon="2.8585929870605"><ele>92</ele><time>2026-5-1T0:4:49Z</time></trkpt>
<trkpt lat="48.929176330566" lon="2.8585433959961"><ele>92</ele><time>2026-5-1T0:4:52Z</time></trkpt>
<trkpt lat="48.929119110107" lon="2.8584854602814"><ele>92</ele><time>2026-5-1T0:4:55Z</time></trkpt>
<trkpt lat="48.929119110107" lon="2.8584854602814"><ele>92</ele><time>2026-5-1T0:4:58Z</time></trkpt>
<trkpt lat="48.929023742676" lon="2.8583765029907"><ele>91</ele><time>2026-5-1T0:5:1Z</time></trkpt>
<trkpt lat="48.928970336914" lon="2.8583178520203"><ele>91</ele><time>2026-5-1T0:5:4Z</time></trkpt>
<trkpt lat="48.928913116455" lon="2.8582594394684"><ele>91</ele><time>2026-5-1T0:5:7Z</time></trkpt>
<trkpt lat="48.928855895996" lon="2.858206987381"><ele>91</ele><time>2026-5-1T0:5:10Z</time></trkpt>
<trkpt lat="48.928791046143" lon="2.8581559658051"><ele>91</ele><time>2026-5-1T0:5:13Z</time></trkpt>
<trkpt lat="48.928726196289" lon="2.8581013679504"><ele>91</ele><time>2026-5-1T0:5:16Z</time></trkpt>
<trkpt lat="48.92866897583" lon="2.8580429553986"><ele>91</ele><time>2026-5-1T0:5:19Z</time></trkpt>
<trkpt lat="48.92866897583" lon="2.8580429553986"><ele>91</ele><time>2026-5-1T0:5:22Z</time></trkpt>
<trkpt lat="48.92866897583" lon="2.8580429553986"><ele>91</ele><time>2026-5-1T0:5:25Z</time></trkpt>
<trkpt lat="48.928615570068" lon="2.858011007309"><ele>90</ele><time>2026-5-1T0:5:28Z</time></trkpt>
<trkpt lat="48.928615570068" lon="2.858011007309"><ele>90</ele><time>2026-5-1T0:5:31Z</time></trkpt>
<trkpt lat="48.928546905518" lon="2.8579425811768"><ele>90</ele><time>2026-5-1T0:5:34Z</time></trkpt>
<trkpt lat="48.928470611572" lon="2.8578495979309"><ele>90</ele><time>2026-5-1T0:5:37Z</time></trkpt>
<trkpt lat="48.928424835205" lon="2.8577857017517"><ele>90</ele><time>2026-5-1T0:5:40Z</time></trkpt>
<trkpt lat="48.928371429443" lon="2.8577330112457"><ele>90</ele><time>2026-5-1T0:5:43Z</time></trkpt>
<trkpt lat="48.92830657959" lon="2.8576827049255"><ele>90</ele><time>2026-5-1T0:5:46Z</time></trkpt>
<trkpt lat="48.928249359131" lon="2.8576364517212"><ele>90</ele><time>2026-5-1T0:5:49Z</time></trkpt>
<trkpt lat="48.928195953369" lon="2.8575949668884"><ele>90</ele><time>2026-5-1T0:5:52Z</time></trkpt>
<trkpt lat="48.928131103516" lon="2.8575320243835"><ele>90</ele><time>2026-5-1T0:5:55Z</time></trkpt>
<trkpt lat="48.928073883057" lon="2.8574705123901"><ele>90</ele><time>2026-5-1T0:5:58Z</time></trkpt>
<trkpt lat="48.928016662598" lon="2.857403755188"><ele>89</ele><time>2026-5-1T0:6:1Z</time></trkpt>
<trkpt lat="48.928016662598" lon="2.857403755188"><ele>89</ele><time>2026-5-1T0:6:4Z</time></trkpt>
<trkpt lat="48.927925109863" lon="2.8573276996613"><ele>89</ele><time>2026-5-1T0:6:7Z</time></trkpt>
<trkpt lat="48.927925109863" lon="2.8573276996613"><ele>89</ele><time>2026-5-1T0:6:10Z</time></trkpt>
<trkpt lat="48.927886962891" lon="2.8572916984558"><ele>90</ele><time>2026-5-1T0:6:13Z</time></trkpt>
<trkpt lat="48.927852630615" lon="2.8572592735291"><ele>90</ele><time>2026-5-1T0:6:16Z</time></trkpt>
<trkpt lat="48.927822113037" lon="2.8572340011597"><ele>90</ele><time>2026-5-1T0:6:19Z</time></trkpt>
<trkpt lat="48.927795410156" lon="2.8572020530701"><ele>90</ele><time>2026-5-1T0:6:22Z</time></trkpt>
<trkpt lat="48.927761077881" lon="2.8571512699127"><ele>90</ele><time>2026-5-1T0:6:25Z</time></trkpt>
<trkpt lat="48.927703857422" lon="2.8570425510406"><ele>90</ele><time>2026-5-1T0:6:28Z</time></trkpt>
<trkpt lat="48.927703857422" lon="2.8570425510406"><ele>90</ele><time>2026-5-1T0:6:31Z</time></trkpt>
<trkpt lat="48.927635192871" lon="2.8569271564484"><ele>90</ele><time>2026-5-1T0:6:34Z</time></trkpt>
<trkpt lat="48.927589416504" lon="2.8568646907806"><ele>90</ele><time>2026-5-1T0:6:37Z</time></trkpt>
<trkpt lat="48.927589416504" lon="2.8568646907806"><ele>90</ele><time>2026-5-1T0:6:40Z</time></trkpt>
<trkpt lat="48.927490234375" lon="2.8567841053009"><ele>90</ele><time>2026-5-1T0:6:43Z</time></trkpt>
<trkpt lat="48.927410125732" lon="2.8567247390747"><ele>90</ele><time>2026-5-1T0:6:46Z</time></trkpt>
<trkpt lat="48.927318572998" lon="2.8566515445709"><ele>89</ele><time>2026-5-1T0:6:49Z</time></trkpt>
<trkpt lat="48.927207946777" lon="2.8565638065338"><ele>88</ele><time>2026-5-1T0:6:52Z</time></trkpt>
<trkpt lat="48.927101135254" lon="2.8564786911011"><ele>88</ele><time>2026-5-1T0:6:55Z</time></trkpt>
<trkpt lat="48.926998138428" lon="2.856388092041"><ele>88</ele><time>2026-5-1T0:6:58Z</time></trkpt>
<trkpt lat="48.926902770996" lon="2.8563086986542"><ele>88</ele><time>2026-5-1T0:7:1Z</time></trkpt>
<trkpt lat="48.926822662354" lon="2.8562395572662"><ele>88</ele><time>2026-5-1T0:7:4Z</time></trkpt>
<trkpt lat="48.926742553711" lon="2.8561811447144"><ele>88</ele><time>2026-5-1T0:7:7Z</time></trkpt>
<trkpt lat="48.926647186279" lon="2.8561081886292"><ele>88</ele><time>2026-5-1T0:7:10Z</time></trkpt>
<trkpt lat="48.926570892334" lon="2.8560481071472"><ele>88</ele><time>2026-5-1T0:7:13Z</time></trkpt>
<trkpt lat="48.926494598389" lon="2.8559920787811"><ele>88</ele><time>2026-5-1T0:7:16Z</time></trkpt>
<trkpt lat="48.926422119141" lon="2.8559441566467"><ele>89</ele><time>2026-5-1T0:7:19Z</time></trkpt>
<trkpt lat="48.926330566406" lon="2.8558957576752"><ele>89</ele><time>2026-5-1T0:7:22Z</time></trkpt>
<trkpt lat="48.926250457764" lon="2.8558504581451"><ele>89</ele><time>2026-5-1T0:7:25Z</time></trkpt>
<trkpt lat="48.926158905029" lon="2.8557901382446"><ele>89</ele><time>2026-5-1T0:7:28Z</time></trkpt>
<trkpt lat="48.926071166992" lon="2.8557329177856"><ele>89</ele><time>2026-5-1T0:7:31Z</time></trkpt>
<trkpt lat="48.925998687744" lon="2.8556826114655"><ele>87</ele><time>2026-5-1T0:7:34Z</time></trkpt>
<trkpt lat="48.925922393799" lon="2.8556411266327"><ele>86</ele><time>2026-5-1T0:7:37Z</time></trkpt>
<trkpt lat="48.925842285156" lon="2.8555908203125"><ele>85</ele><time>2026-5-1T0:7:40Z</time></trkpt>
<trkpt lat="48.925773620605" lon="2.855536699295"><ele>85</ele><time>2026-5-1T0:7:43Z</time></trkpt>
<trkpt lat="48.925712585449" lon="2.8554995059967"><ele>84</ele><time>2026-5-1T0:7:46Z</time></trkpt>
<trkpt lat="48.925712585449" lon="2.8554995059967"><ele>84</ele><time>2026-5-1T0:7:49Z</time></trkpt>
<trkpt lat="48.925712585449" lon="2.8554995059967"><ele>84</ele><time>2026-5-1T0:7:52Z</time></trkpt>
<trkpt lat="48.925624847412" lon="2.8554611206055"><ele>84</ele><time>2026-5-1T0:7:55Z</time></trkpt>
<trkpt lat="48.925624847412" lon="2.8554611206055"><ele>84</ele><time>2026-5-1T0:7:58Z</time></trkpt>
<trkpt lat="48.925525665283" lon="2.8554136753082"><ele>84</ele><time>2026-5-1T0:8:1Z</time></trkpt>
<trkpt lat="48.925472259521" lon="2.8553750514984"><ele>84</ele><time>2026-5-1T0:8:4Z</time></trkpt>
<trkpt lat="48.925472259521" lon="2.8553750514984"><ele>84</ele><time>2026-5-1T0:8:7Z</time></trkpt>
<trkpt lat="48.925472259521" lon="2.8553750514984"><ele>84</ele><time>2026-5-1T0:8:10Z</time></trkpt>
<trkpt lat="48.925395965576" lon="2.8552975654602"><ele>84</ele><time>2026-5-1T0:8:13Z</time></trkpt>
<trkpt lat="48.925395965576" lon="2.8552975654602"><ele>84</ele><time>2026-5-1T0:8:16Z</time></trkpt>
<trkpt lat="48.925407409668" lon="2.8551285266876"><ele>85</ele><time>2026-5-1T0:8:19Z</time></trkpt>
<trkpt lat="48.925407409668" lon="2.8551285266876"><ele>85</ele><time>2026-5-1T0:8:22Z</time></trkpt>
<trkpt lat="48.925449371338" lon="2.8549742698669"><ele>86</ele><time>2026-5-1T0:8:25Z</time></trkpt>
<trkpt lat="48.925495147705" lon="2.8548045158386"><ele>87</ele><time>2026-5-1T0:8:28Z</time></trkpt>
<trkpt lat="48.925552368164" lon="2.8546347618103"><ele>87</ele><time>2026-5-1T0:8:31Z</time></trkpt>
<trkpt lat="48.925552368164" lon="2.8546347618103"><ele>87</ele><time>2026-5-1T0:8:34Z</time></trkpt>
<trkpt lat="48.925601959229" lon="2.8544583320618"><ele>88</ele><time>2026-5-1T0:8:37Z</time></trkpt>
<trkpt lat="48.925579071045" lon="2.8542912006378"><ele>88</ele><time>2026-5-1T0:8:40Z</time></trkpt>
<trkpt lat="48.925514221191" lon="2.8541476726532"><ele>88</ele><time>2026-5-1T0:8:43Z</time></trkpt>
<trkpt lat="48.925514221191" lon="2.8541476726532"><ele>88</ele><time>2026-5-1T0:8:46Z</time></trkpt>
<trkpt lat="48.925411224365" lon="2.8540344238281"><ele>88</ele><time>2026-5-1T0:8:49Z</time></trkpt>
<trkpt lat="48.925319671631" lon="2.8539247512817"><ele>89</ele><time>2026-5-1T0:8:52Z</time></trkpt>
<trkpt lat="48.925220489502" lon="2.853807926178"><ele>88</ele><time>2026-5-1T0:8:55Z</time></trkpt>
<trkpt lat="48.925220489502" lon="2.853807926178"><ele>88</ele><time>2026-5-1T0:8:58Z</time></trkpt>
<trkpt lat="48.925144195557" lon="2.8537085056305"><ele>86</ele><time>2026-5-1T0:9:1Z</time></trkpt>
<trkpt lat="48.925064086914" lon="2.8536012172699"><ele>86</ele><time>2026-5-1T0:9:4Z</time></trkpt>
<trkpt lat="48.924976348877" lon="2.8534903526306"><ele>86</ele><time>2026-5-1T0:9:7Z</time></trkpt>
<trkpt lat="48.924976348877" lon="2.8534903526306"><ele>86</ele><time>2026-5-1T0:9:10Z</time></trkpt>
<trkpt lat="48.924892425537" lon="2.8533780574799"><ele>86</ele><time>2026-5-1T0:9:13Z</time></trkpt>
<trkpt lat="48.924819946289" lon="2.8532605171204"><ele>86</ele><time>2026-5-1T0:9:16Z</time></trkpt>
<trkpt lat="48.924743652344" lon="2.8531727790833"><ele>87</ele><time>2026-5-1T0:9:19Z</time></trkpt>
<trkpt lat="48.924743652344" lon="2.8531727790833"><ele>87</ele><time>2026-5-1T0:9:22Z</time></trkpt>
<trkpt lat="48.924659729004" lon="2.8530769348145"><ele>87</ele><time>2026-5-1T0:9:25Z</time></trkpt>
<trkpt lat="48.924579620361" lon="2.8529946804047"><ele>87</ele><time>2026-5-1T0:9:28Z</time></trkpt>
<trkpt lat="48.924503326416" lon="2.8529090881348"><ele>88</ele><time>2026-5-1T0:9:31Z</time></trkpt>
<trkpt lat="48.924503326416" lon="2.8529090881348"><ele>88</ele><time>2026-5-1T0:9:34Z</time></trkpt>
<trkpt lat="48.924423217773" lon="2.8528168201447"><ele>89</ele><time>2026-5-1T0:9:37Z</time></trkpt>
<trkpt lat="48.924350738525" lon="2.8527317047119"><ele>90</ele><time>2026-5-1T0:9:40Z</time></trkpt>
<trkpt lat="48.924278259277" lon="2.8526513576508"><ele>89</ele><time>2026-5-1T0:9:43Z</time></trkpt>
<trkpt lat="48.924278259277" lon="2.8526513576508"><ele>89</ele><time>2026-5-1T0:9:46Z</time></trkpt>
<trkpt lat="48.924209594727" lon="2.8525650501251"><ele>89</ele><time>2026-5-1T0:9:49Z</time></trkpt>
<trkpt lat="48.924140930176" lon="2.8524873256683"><ele>88</ele><time>2026-5-1T0:9:52Z</time></trkpt>
<trkpt lat="48.924068450928" lon="2.852415561676"><ele>88</ele><time>2026-5-1T0:9:55Z</time></trkpt>
<trkpt lat="48.924003601074" lon="2.8523547649384"><ele>88</ele><time>2026-5-1T0:9:58Z</time></trkpt>
<trkpt lat="48.923938751221" lon="2.8522944450378"><ele>88</ele><time>2026-5-1T0:10:1Z</time></trkpt>
<trkpt lat="48.923938751221" lon="2.8522944450378"><ele>88</ele><time>2026-5-1T0:10:4Z</time></trkpt>
<trkpt lat="48.923885345459" lon="2.852240562439"><ele>87</ele><time>2026-5-1T0:10:7Z</time></trkpt>
<trkpt lat="48.923885345459" lon="2.852240562439"><ele>87</ele><time>2026-5-1T0:10:10Z</time></trkpt>
<trkpt lat="48.923839569092" lon="2.8521797657013"><ele>87</ele><time>2026-5-1T0:10:13Z</time></trkpt>
<trkpt lat="48.923839569092" lon="2.8521797657013"><ele>87</ele><time>2026-5-1T0:10:16Z</time></trkpt>
<trkpt lat="48.923839569092" lon="2.8521797657013"><ele>87</ele><time>2026-5-1T0:10:19Z</time></trkpt>
<trkpt lat="48.923755645752" lon="2.8521084785461"><ele>87</ele><time>2026-5-1T0:10:22Z</time></trkpt>
<trkpt lat="48.923755645752" lon="2.8521084785461"><ele>87</ele><time>2026-5-1T0:10:25Z</time></trkpt>
<trkpt lat="48.923755645752" lon="2.8521084785461"><ele>87</ele><time>2026-5-1T0:10:28Z</time></trkpt>
<trkpt lat="48.923698425293" lon="2.8520400524139"><ele>87</ele><time>2026-5-1T0:10:31Z</time></trkpt>
<trkpt lat="48.923652648926" lon="2.8519818782806"><ele>87</ele><time>2026-5-1T0:10:34Z</time></trkpt>
<trkpt lat="48.923599243164" lon="2.8519213199615"><ele>87</ele><time>2026-5-1T0:10:37Z</time></trkpt>
<trkpt lat="48.923534393311" lon="2.8518626689911"><ele>87</ele><time>2026-5-1T0:10:40Z</time></trkpt>
<trkpt lat="48.923477172852" lon="2.8518106937408"><ele>87</ele><time>2026-5-1T0:10:43Z</time></trkpt>
<trkpt lat="48.923477172852" lon="2.8518106937408"><ele>87</ele><time>2026-5-1T0:10:46Z</time></trkpt>
<trkpt lat="48.923419952393" lon="2.8517537117004"><ele>87</ele><time>2026-5-1T0:10:49Z</time></trkpt>
<trkpt lat="48.923324584961" lon="2.8516745567322"><ele>86</ele><time>2026-5-1T0:10:52Z</time></trkpt>
<trkpt lat="48.923324584961" lon="2.8516745567322"><ele>86</ele><time>2026-5-1T0:10:55Z</time></trkpt>
<trkpt lat="48.92325592041" lon="2.851621389389"><ele>86</ele><time>2026-5-1T0:10:58Z</time></trkpt>
<trkpt lat="48.923187255859" lon="2.8515739440918"><ele>86</ele><time>2026-5-1T0:11:1Z</time></trkpt>
<trkpt lat="48.923118591309" lon="2.8515298366547"><ele>86</ele><time>2026-5-1T0:11:4Z</time></trkpt>
<trkpt lat="48.923118591309" lon="2.8515298366547"><ele>86</ele><time>2026-5-1T0:11:7Z</time></trkpt>
<trkpt lat="48.923046112061" lon="2.851482629776"><ele>85</ele><time>2026-5-1T0:11:10Z</time></trkpt>
<trkpt lat="48.922981262207" lon="2.8514420986176"><ele>85</ele><time>2026-5-1T0:11:13Z</time></trkpt>
<trkpt lat="48.922927856445" lon="2.8514063358307"><ele>85</ele><time>2026-5-1T0:11:16Z</time></trkpt>
<trkpt lat="48.922927856445" lon="2.8514063358307"><ele>85</ele><time>2026-5-1T0:11:19Z</time></trkpt>
<trkpt lat="48.922866821289" lon="2.8513658046722"><ele>84</ele><time>2026-5-1T0:11:22Z</time></trkpt>
<trkpt lat="48.922763824463" lon="2.8512966632843"><ele>84</ele><time>2026-5-1T0:11:25Z</time></trkpt>
<trkpt lat="48.922702789307" lon="2.8512632846832"><ele>84</ele><time>2026-5-1T0:11:28Z</time></trkpt>
<trkpt lat="48.922630310059" lon="2.8512341976166"><ele>84</ele><time>2026-5-1T0:11:31Z</time></trkpt>
<trkpt lat="48.922554016113" lon="2.8512036800385"><ele>84</ele><time>2026-5-1T0:11:34Z</time></trkpt>
<trkpt lat="48.922481536865" lon="2.8511714935303"><ele>84</ele><time>2026-5-1T0:11:37Z</time></trkpt>
<trkpt lat="48.922416687012" lon="2.8511455059052"><ele>84</ele><time>2026-5-1T0:11:40Z</time></trkpt>
<trkpt lat="48.922340393066" lon="2.8511066436768"><ele>83</ele><time>2026-5-1T0:11:43Z</time></trkpt>
<trkpt lat="48.922264099121" lon="2.8510715961456"><ele>83</ele><time>2026-5-1T0:11:46Z</time></trkpt>
<trkpt lat="48.922206878662" lon="2.8510491847992"><ele>83</ele><time>2026-5-1T0:11:49Z</time></trkpt>
<trkpt lat="48.922122955322" lon="2.851016998291"><ele>83</ele><time>2026-5-1T0:11:52Z</time></trkpt>
<trkpt lat="48.922046661377" lon="2.8509843349457"><ele>83</ele><time>2026-5-1T0:11:55Z</time></trkpt>
<trkpt lat="48.921977996826" lon="2.850953578949"><ele>83</ele><time>2026-5-1T0:11:58Z</time></trkpt>
<trkpt lat="48.921920776367" lon="2.8509278297424"><ele>83</ele><time>2026-5-1T0:12:1Z</time></trkpt>
<trkpt lat="48.921852111816" lon="2.8508999347687"><ele>82</ele><time>2026-5-1T0:12:4Z</time></trkpt>
<trkpt lat="48.921779632568" lon="2.8508667945862"><ele>82</ele><time>2026-5-1T0:12:7Z</time></trkpt>
<trkpt lat="48.921710968018" lon="2.8508393764496"><ele>82</ele><time>2026-5-1T0:12:10Z</time></trkpt>
<trkpt lat="48.92163848877" lon="2.8508121967316"><ele>82</ele><time>2026-5-1T0:12:13Z</time></trkpt>
<trkpt lat="48.921566009521" lon="2.8507883548737"><ele>83</ele><time>2026-5-1T0:12:16Z</time></trkpt>
<trkpt lat="48.921485900879" lon="2.8507614135742"><ele>83</ele><time>2026-5-1T0:12:19Z</time></trkpt>
<trkpt lat="48.921417236328" lon="2.8507342338562"><ele>83</ele><time>2026-5-1T0:12:22Z</time></trkpt>
<trkpt lat="48.921348571777" lon="2.8507149219513"><ele>83</ele><time>2026-5-1T0:12:25Z</time></trkpt>
<trkpt lat="48.921268463135" lon="2.850695848465"><ele>84</ele><time>2026-5-1T0:12:28Z</time></trkpt>
<trkpt lat="48.921173095703" lon="2.8506708145142"><ele>84</ele><time>2026-5-1T0:12:31Z</time></trkpt>
<trkpt lat="48.921085357666" lon="2.8506424427032"><ele>83</ele><time>2026-5-1T0:12:34Z</time></trkpt>
<trkpt lat="48.920993804932" lon="2.8506200313568"><ele>82</ele><time>2026-5-1T0:12:37Z</time></trkpt>
<trkpt lat="48.920921325684" lon="2.8505983352661"><ele>83</ele><time>2026-5-1T0:12:40Z</time></trkpt>
<trkpt lat="48.920848846436" lon="2.8505754470825"><ele>85</ele><time>2026-5-1T0:12:43Z</time></trkpt>
<trkpt lat="48.920761108398" lon="2.8505508899689"><ele>86</ele><time>2026-5-1T0:12:46Z</time></trkpt>
<trkpt lat="48.920677185059" lon="2.8505263328552"><ele>85</ele><time>2026-5-1T0:12:49Z</time></trkpt>
<trkpt lat="48.920593261719" lon="2.8505039215088"><ele>84</ele><time>2026-5-1T0:12:52Z</time></trkpt>
<trkpt lat="48.920520782471" lon="2.8504841327667"><ele>82</ele><time>2026-5-1T0:12:55Z</time></trkpt>
<trkpt lat="48.920425415039" lon="2.8504538536072"><ele>83</ele><time>2026-5-1T0:12:58Z</time></trkpt>
<trkpt lat="48.920341491699" lon="2.8504364490509"><ele>84</ele><time>2026-5-1T0:13:1Z</time></trkpt>
<trkpt lat="48.920249938965" lon="2.8504157066345"><ele>83</ele><time>2026-5-1T0:13:4Z</time></trkpt>
<trkpt lat="48.920169830322" lon="2.8503942489624"><ele>83</ele><time>2026-5-1T0:13:7Z</time></trkpt>
<trkpt lat="48.92008972168" lon="2.850371837616"><ele>82</ele><time>2026-5-1T0:13:10Z</time></trkpt>
<trkpt lat="48.920009613037" lon="2.8503510951996"><ele>82</ele><time>2026-5-1T0:13:13Z</time></trkpt>
<trkpt lat="48.919933319092" lon="2.8503320217133"><ele>82</ele><time>2026-5-1T0:13:16Z</time></trkpt>
<trkpt lat="48.919857025146" lon="2.8503127098083"><ele>82</ele><time>2026-5-1T0:13:19Z</time></trkpt>
<trkpt lat="48.919784545898" lon="2.8502888679504"><ele>83</ele><time>2026-5-1T0:13:22Z</time></trkpt>
<trkpt lat="48.919784545898" lon="2.8502888679504"><ele>83</ele><time>2026-5-1T0:13:25Z</time></trkpt>
<trkpt lat="48.919704437256" lon="2.8502621650696"><ele>83</ele><time>2026-5-1T0:13:28Z</time></trkpt>
<trkpt lat="48.919631958008" lon="2.8502383232117"><ele>83</ele><time>2026-5-1T0:13:31Z</time></trkpt>
<trkpt lat="48.919544219971" lon="2.8502080440521"><ele>83</ele><time>2026-5-1T0:13:34Z</time></trkpt>
<trkpt lat="48.919445037842" lon="2.8501763343811"><ele>82</ele><time>2026-5-1T0:13:37Z</time></trkpt>
<trkpt lat="48.919368743896" lon="2.8501353263855"><ele>81</ele><time>2026-5-1T0:13:40Z</time></trkpt>
<trkpt lat="48.919300079346" lon="2.8500878810883"><ele>81</ele><time>2026-5-1T0:13:43Z</time></trkpt>
<trkpt lat="48.919231414795" lon="2.8500533103943"><ele>81</ele><time>2026-5-1T0:13:46Z</time></trkpt>
<trkpt lat="48.919151306152" lon="2.8500199317932"><ele>81</ele><time>2026-5-1T0:13:49Z</time></trkpt>
<trkpt lat="48.919082641602" lon="2.8500070571899"><ele>81</ele><time>2026-5-1T0:13:52Z</time></trkpt>
<trkpt lat="48.918998718262" lon="2.8499722480774"><ele>82</ele><time>2026-5-1T0:13:55Z</time></trkpt>
<trkpt lat="48.918914794922" lon="2.8499338626862"><ele>82</ele><time>2026-5-1T0:13:58Z</time></trkpt>
<trkpt lat="48.918838500977" lon="2.849898815155"><ele>82</ele><time>2026-5-1T0:14:1Z</time></trkpt>
<trkpt lat="48.918754577637" lon="2.8498630523682"><ele>82</ele><time>2026-5-1T0:14:4Z</time></trkpt>
<trkpt lat="48.918682098389" lon="2.8498246669769"><ele>82</ele><time>2026-5-1T0:14:7Z</time></trkpt>
<trkpt lat="48.918601989746" lon="2.8497846126556"><ele>84</ele><time>2026-5-1T0:14:10Z</time></trkpt>
<trkpt lat="48.918529510498" lon="2.8497412204742"><ele>87</ele><time>2026-5-1T0:14:13Z</time></trkpt>
<trkpt lat="48.918453216553" lon="2.8497016429901"><ele>87</ele><time>2026-5-1T0:14:16Z</time></trkpt>
<trkpt lat="48.918453216553" lon="2.8497016429901"><ele>87</ele><time>2026-5-1T0:14:19Z</time></trkpt>
<trkpt lat="48.918380737305" lon="2.849662065506"><ele>86</ele><time>2026-5-1T0:14:22Z</time></trkpt>
<trkpt lat="48.918308258057" lon="2.8496127128601"><ele>86</ele><time>2026-5-1T0:14:25Z</time></trkpt>
<trkpt lat="48.918224334717" lon="2.8495695590973"><ele>86</ele><time>2026-5-1T0:14:28Z</time></trkpt>
<trkpt lat="48.918121337891" lon="2.8495573997498"><ele>86</ele><time>2026-5-1T0:14:31Z</time></trkpt>
<trkpt lat="48.918041229248" lon="2.8495330810547"><ele>87</ele><time>2026-5-1T0:14:34Z</time></trkpt>
<trkpt lat="48.917976379395" lon="2.8494982719421"><ele>88</ele><time>2026-5-1T0:14:37Z</time></trkpt>
<trkpt lat="48.917915344238" lon="2.8494682312012"><ele>88</ele><time>2026-5-1T0:14:40Z</time></trkpt>
<trkpt lat="48.917846679688" lon="2.8494312763214"><ele>88</ele><time>2026-5-1T0:14:43Z</time></trkpt>
<trkpt lat="48.917739868164" lon="2.8493921756744"><ele>88</ele><time>2026-5-1T0:14:46Z</time></trkpt>
<trkpt lat="48.917633056641" lon="2.8493766784668"><ele>88</ele><time>2026-5-1T0:14:49Z</time></trkpt>
<trkpt lat="48.917537689209" lon="2.8493661880493"><ele>88</ele><time>2026-5-1T0:14:52Z</time></trkpt>
<trkpt lat="48.917430877686" lon="2.8493647575378"><ele>87</ele><time>2026-5-1T0:14:55Z</time></trkpt>
<trkpt lat="48.91735458374" lon="2.8493568897247"><ele>87</ele><time>2026-5-1T0:14:58Z</time></trkpt>
<trkpt lat="48.917259216309" lon="2.8493492603302"><ele>86</ele><time>2026-5-1T0:15:1Z</time></trkpt>
<trkpt lat="48.917163848877" lon="2.8493423461914"><ele>86</ele><time>2026-5-1T0:15:4Z</time></trkpt>
<trkpt lat="48.917091369629" lon="2.8493344783783"><ele>86</ele><time>2026-5-1T0:15:7Z</time></trkpt>
<trkpt lat="48.917091369629" lon="2.8493344783783"><ele>86</ele><time>2026-5-1T0:15:10Z</time></trkpt>
<trkpt lat="48.916965484619" lon="2.8493332862854"><ele>86</ele><time>2026-5-1T0:15:13Z</time></trkpt>
<trkpt lat="48.916873931885" lon="2.8493378162384"><ele>85</ele><time>2026-5-1T0:15:16Z</time></trkpt>
<trkpt lat="48.916774749756" lon="2.8493456840515"><ele>85</ele><time>2026-5-1T0:15:19Z</time></trkpt>
<trkpt lat="48.916706085205" lon="2.8493402004242"><ele>85</ele><time>2026-5-1T0:15:22Z</time></trkpt>
<trkpt lat="48.916706085205" lon="2.8493402004242"><ele>85</ele><time>2026-5-1T0:15:25Z</time></trkpt>
<trkpt lat="48.916591644287" lon="2.8493390083313"><ele>85</ele><time>2026-5-1T0:15:28Z</time></trkpt>
<trkpt lat="48.916515350342" lon="2.8493373394012"><ele>85</ele><time>2026-5-1T0:15:31Z</time></trkpt>
<trkpt lat="48.916515350342" lon="2.8493373394012"><ele>85</ele><time>2026-5-1T0:15:34Z</time></trkpt>
<trkpt lat="48.91641998291" lon="2.8493313789368"><ele>85</ele><time>2026-5-1T0:15:37Z</time></trkpt>
<trkpt lat="48.916328430176" lon="2.8493230342865"><ele>85</ele><time>2026-5-1T0:15:40Z</time></trkpt>
<trkpt lat="48.916328430176" lon="2.8493230342865"><ele>85</ele><time>2026-5-1T0:15:43Z</time></trkpt>
<trkpt lat="48.916240692139" lon="2.849310874939"><ele>85</ele><time>2026-5-1T0:15:46Z</time></trkpt>
<trkpt lat="48.916168212891" lon="2.8493025302887"><ele>85</ele><time>2026-5-1T0:15:49Z</time></trkpt>
<trkpt lat="48.91609954834" lon="2.8493020534515"><ele>85</ele><time>2026-5-1T0:15:52Z</time></trkpt>
<trkpt lat="48.91609954834" lon="2.8493020534515"><ele>85</ele><time>2026-5-1T0:15:55Z</time></trkpt>
<trkpt lat="48.916027069092" lon="2.8492867946625"><ele>86</ele><time>2026-5-1T0:15:58Z</time></trkpt>
<trkpt lat="48.915935516357" lon="2.849273443222"><ele>86</ele><time>2026-5-1T0:16:1Z</time></trkpt>
<trkpt lat="48.915840148926" lon="2.8492696285248"><ele>85</ele><time>2026-5-1T0:16:4Z</time></trkpt>
<trkpt lat="48.915733337402" lon="2.849267244339"><ele>84</ele><time>2026-5-1T0:16:7Z</time></trkpt>
<trkpt lat="48.915657043457" lon="2.8492641448975"><ele>84</ele><time>2026-5-1T0:16:10Z</time></trkpt>
<trkpt lat="48.915596008301" lon="2.8492538928986"><ele>84</ele><time>2026-5-1T0:16:13Z</time></trkpt>
<trkpt lat="48.915596008301" lon="2.8492538928986"><ele>84</ele><time>2026-5-1T0:16:16Z</time></trkpt>
<trkpt lat="48.915481567383" lon="2.8492896556854"><ele>83</ele><time>2026-5-1T0:16:19Z</time></trkpt>
<trkpt lat="48.91540145874" lon="2.8492910861969"><ele>83</ele><time>2026-5-1T0:16:22Z</time></trkpt>
<trkpt lat="48.915328979492" lon="2.8492872714996"><ele>83</ele><time>2026-5-1T0:16:25Z</time></trkpt>
<trkpt lat="48.915271759033" lon="2.8492851257324"><ele>82</ele><time>2026-5-1T0:16:28Z</time></trkpt>
<trkpt lat="48.915203094482" lon="2.8492858409882"><ele>82</ele><time>2026-5-1T0:16:31Z</time></trkpt>
<trkpt lat="48.915130615234" lon="2.8492875099182"><ele>82</ele><time>2026-5-1T0:16:34Z</time></trkpt>
<trkpt lat="48.915065765381" lon="2.8492887020111"><ele>82</ele><time>2026-5-1T0:16:37Z</time></trkpt>
<trkpt lat="48.914989471436" lon="2.8492891788483"><ele>82</ele><time>2026-5-1T0:16:40Z</time></trkpt>
<trkpt lat="48.914920806885" lon="2.8492925167084"><ele>82</ele><time>2026-5-1T0:16:43Z</time></trkpt>
<trkpt lat="48.914855957031" lon="2.849289894104"><ele>82</ele><time>2026-5-1T0:16:46Z</time></trkpt>
<trkpt lat="48.914772033691" lon="2.8492870330811"><ele>82</ele><time>2026-5-1T0:16:49Z</time></trkpt>
<trkpt lat="48.914695739746" lon="2.8492825031281"><ele>82</ele><time>2026-5-1T0:16:52Z</time></trkpt>
<trkpt lat="48.914695739746" lon="2.8492825031281"><ele>82</ele><time>2026-5-1T0:16:55Z</time></trkpt>
<trkpt lat="48.914573669434" lon="2.8492772579193"><ele>82</ele><time>2026-5-1T0:16:58Z</time></trkpt>
<trkpt lat="48.91450881958" lon="2.8492572307587"><ele>82</ele><time>2026-5-1T0:17:1Z</time></trkpt>
<trkpt lat="48.914428710938" lon="2.8492393493652"><ele>82</ele><time>2026-5-1T0:17:4Z</time></trkpt>
<trkpt lat="48.914360046387" lon="2.8492205142975"><ele>82</ele><time>2026-5-1T0:17:7Z</time></trkpt>
<trkpt lat="48.914295196533" lon="2.8492000102997"><ele>82</ele><time>2026-5-1T0:17:10Z</time></trkpt>
<trkpt lat="48.914218902588" lon="2.8491923809052"><ele>82</ele><time>2026-5-1T0:17:13Z</time></trkpt>
<trkpt lat="48.914150238037" lon="2.8491866588593"><ele>82</ele><time>2026-5-1T0:17:16Z</time></trkpt>
<trkpt lat="48.914073944092" lon="2.849182844162"><ele>83</ele><time>2026-5-1T0:17:19Z</time></trkpt>
<trkpt lat="48.914001464844" lon="2.8491690158844"><ele>83</ele><time>2026-5-1T0:17:22Z</time></trkpt>
<trkpt lat="48.913928985596" lon="2.8491570949554"><ele>83</ele><time>2026-5-1T0:17:25Z</time></trkpt>
<trkpt lat="48.913871765137" lon="2.8491487503052"><ele>83</ele><time>2026-5-1T0:17:28Z</time></trkpt>
<trkpt lat="48.913806915283" lon="2.8491382598877"><ele>84</ele><time>2026-5-1T0:17:31Z</time></trkpt>
<trkpt lat="48.913738250732" lon="2.8491296768188"><ele>84</ele><time>2026-5-1T0:17:34Z</time></trkpt>
<trkpt lat="48.913669586182" lon="2.8491282463074"><ele>84</ele><time>2026-5-1T0:17:37Z</time></trkpt>
<trkpt lat="48.913669586182" lon="2.8491282463074"><ele>84</ele><time>2026-5-1T0:17:40Z</time></trkpt>
<trkpt lat="48.913547515869" lon="2.8491253852844"><ele>85</ele><time>2026-5-1T0:17:43Z</time></trkpt>
<trkpt lat="48.913478851318" lon="2.8491108417511"><ele>85</ele><time>2026-5-1T0:17:46Z</time></trkpt>
<trkpt lat="48.913421630859" lon="2.8490762710571"><ele>85</ele><time>2026-5-1T0:17:49Z</time></trkpt>
<trkpt lat="48.913360595703" lon="2.849048614502"><ele>85</ele><time>2026-5-1T0:17:52Z</time></trkpt>
<trkpt lat="48.913288116455" lon="2.8490359783173"><ele>85</ele><time>2026-5-1T0:17:55Z</time></trkpt>
<trkpt lat="48.91321182251" lon="2.8490240573883"><ele>86</ele><time>2026-5-1T0:17:58Z</time></trkpt>
<trkpt lat="48.913135528564" lon="2.8490116596222"><ele>86</ele><time>2026-5-1T0:18:1Z</time></trkpt>
<trkpt lat="48.913055419922" lon="2.8489964008331"><ele>86</ele><time>2026-5-1T0:18:4Z</time></trkpt>
<trkpt lat="48.912982940674" lon="2.8489925861359"><ele>86</ele><time>2026-5-1T0:18:7Z</time></trkpt>
<trkpt lat="48.912910461426" lon="2.8489918708801"><ele>86</ele><time>2026-5-1T0:18:10Z</time></trkpt>
<trkpt lat="48.912837982178" lon="2.8489811420441"><ele>86</ele><time>2026-5-1T0:18:13Z</time></trkpt>
<trkpt lat="48.912773132324" lon="2.8489727973938"><ele>86</ele><time>2026-5-1T0:18:16Z</time></trkpt>
<trkpt lat="48.912693023682" lon="2.8489742279053"><ele>86</ele><time>2026-5-1T0:18:19Z</time></trkpt>
<trkpt lat="48.912624359131" lon="2.8489644527435"><ele>86</ele><time>2026-5-1T0:18:22Z</time></trkpt>
<trkpt lat="48.912544250488" lon="2.8489336967468"><ele>86</ele><time>2026-5-1T0:18:25Z</time></trkpt>
<trkpt lat="48.912464141846" lon="2.8488864898682"><ele>86</ele><time>2026-5-1T0:18:28Z</time></trkpt>
<trkpt lat="48.9123878479" lon="2.8488552570343"><ele>86</ele><time>2026-5-1T0:18:31Z</time></trkpt>
<trkpt lat="48.91231918335" lon="2.8488309383392"><ele>86</ele><time>2026-5-1T0:18:34Z</time></trkpt>
<trkpt lat="48.912239074707" lon="2.8488149642944"><ele>86</ele><time>2026-5-1T0:18:37Z</time></trkpt>
<trkpt lat="48.912181854248" lon="2.8488113880157"><ele>86</ele><time>2026-5-1T0:18:40Z</time></trkpt>
<trkpt lat="48.912181854248" lon="2.8488113880157"><ele>86</ele><time>2026-5-1T0:18:43Z</time></trkpt>
<trkpt lat="48.912181854248" lon="2.8488113880157"><ele>86</ele><time>2026-5-1T0:18:46Z</time></trkpt>
<trkpt lat="48.91206741333" lon="2.8487877845764"><ele>85</ele><time>2026-5-1T0:18:49Z</time></trkpt>
<trkpt lat="48.91198348999" lon="2.84876537323"><ele>85</ele><time>2026-5-1T0:18:52Z</time></trkpt>
<trkpt lat="48.911911010742" lon="2.8487505912781"><ele>85</ele><time>2026-5-1T0:18:55Z</time></trkpt>
<trkpt lat="48.911911010742" lon="2.8487505912781"><ele>85</ele><time>2026-5-1T0:18:58Z</time></trkpt>
<trkpt lat="48.911819458008" lon="2.8487279415131"><ele>85</ele><time>2026-5-1T0:19:1Z</time></trkpt>
<trkpt lat="48.911739349365" lon="2.8487215042114"><ele>85</ele><time>2026-5-1T0:19:4Z</time></trkpt>
<trkpt lat="48.911659240723" lon="2.8487086296082"><ele>85</ele><time>2026-5-1T0:19:7Z</time></trkpt>
<trkpt lat="48.911586761475" lon="2.8487048149109"><ele>85</ele><time>2026-5-1T0:19:10Z</time></trkpt>
<trkpt lat="48.911521911621" lon="2.8486971855164"><ele>85</ele><time>2026-5-1T0:19:13Z</time></trkpt>
<trkpt lat="48.911460876465" lon="2.8486948013306"><ele>86</ele><time>2026-5-1T0:19:16Z</time></trkpt>
<trkpt lat="48.911460876465" lon="2.8486948013306"><ele>86</ele><time>2026-5-1T0:19:19Z</time></trkpt>
<trkpt lat="48.911460876465" lon="2.8486948013306"><ele>86</ele><time>2026-5-1T0:19:22Z</time></trkpt>
<trkpt lat="48.911357879639" lon="2.8486752510071"><ele>86</ele><time>2026-5-1T0:19:25Z</time></trkpt>
<trkpt lat="48.911293029785" lon="2.8486757278442"><ele>87</ele><time>2026-5-1T0:19:28Z</time></trkpt>
<trkpt lat="48.911293029785" lon="2.8486757278442"><ele>87</ele><time>2026-5-1T0:19:31Z</time></trkpt>
<trkpt lat="48.911231994629" lon="2.8487458229065"><ele>87</ele><time>2026-5-1T0:19:34Z</time></trkpt>
<trkpt lat="48.911182403564" lon="2.8488526344299"><ele>87</ele><time>2026-5-1T0:19:37Z</time></trkpt>
<trkpt lat="48.911155700684" lon="2.8489480018616"><ele>88</ele><time>2026-5-1T0:19:40Z</time></trkpt>
<trkpt lat="48.9111328125" lon="2.8490633964539"><ele>88</ele><time>2026-5-1T0:19:43Z</time></trkpt>
<trkpt lat="48.911109924316" lon="2.8491830825806"><ele>88</ele><time>2026-5-1T0:19:46Z</time></trkpt>
<trkpt lat="48.911087036133" lon="2.8493006229401"><ele>87</ele><time>2026-5-1T0:19:49Z</time></trkpt>
<trkpt lat="48.911087036133" lon="2.8493006229401"><ele>87</ele><time>2026-5-1T0:19:52Z</time></trkpt>
<trkpt lat="48.911064147949" lon="2.8493986129761"><ele>87</ele><time>2026-5-1T0:19:55Z</time></trkpt>
<trkpt lat="48.911056518555" lon="2.8494853973389"><ele>87</ele><time>2026-5-1T0:19:58Z</time></trkpt>
<trkpt lat="48.911022186279" lon="2.8495545387268"><ele>87</ele><time>2026-5-1T0:20:1Z</time></trkpt>
<trkpt lat="48.910930633545" lon="2.8496162891388"><ele>87</ele><time>2026-5-1T0:20:4Z</time></trkpt>
<trkpt lat="48.910861968994" lon="2.8496077060699"><ele>88</ele><time>2026-5-1T0:20:7Z</time></trkpt>
<trkpt lat="48.910778045654" lon="2.8495554924011"><ele>88</ele><time>2026-5-1T0:20:10Z</time></trkpt>
<trkpt lat="48.910713195801" lon="2.8495163917542"><ele>88</ele><time>2026-5-1T0:20:13Z</time></trkpt>
<trkpt lat="48.910713195801" lon="2.8495163917542"><ele>88</ele><time>2026-5-1T0:20:16Z</time></trkpt>
<trkpt lat="48.91064453125" lon="2.8494784832001"><ele>88</ele><time>2026-5-1T0:20:19Z</time></trkpt>
<trkpt lat="48.910556793213" lon="2.8494365215302"><ele>88</ele><time>2026-5-1T0:20:22Z</time></trkpt>
<trkpt lat="48.910472869873" lon="2.8494036197662"><ele>88</ele><time>2026-5-1T0:20:25Z</time></trkpt>
<trkpt lat="48.910472869873" lon="2.8494036197662"><ele>88</ele><time>2026-5-1T0:20:28Z</time></trkpt>
<trkpt lat="48.91039276123" lon="2.8493711948395"><ele>89</ele><time>2026-5-1T0:20:31Z</time></trkpt>
<trkpt lat="48.910289764404" lon="2.8493447303772"><ele>89</ele><time>2026-5-1T0:20:34Z</time></trkpt>
<trkpt lat="48.910190582275" lon="2.8493065834045"><ele>89</ele><time>2026-5-1T0:20:37Z</time></trkpt>
<trkpt lat="48.910110473633" lon="2.8492748737335"><ele>89</ele><time>2026-5-1T0:20:40Z</time></trkpt>
<trkpt lat="48.910034179688" lon="2.8492474555969"><ele>90</ele><time>2026-5-1T0:20:43Z</time></trkpt>
<trkpt lat="48.910034179688" lon="2.8492474555969"><ele>90</ele><time>2026-5-1T0:20:46Z</time></trkpt>
<trkpt lat="48.909961700439" lon="2.8492140769958"><ele>90</ele><time>2026-5-1T0:20:49Z</time></trkpt>
<trkpt lat="48.909889221191" lon="2.8491725921631"><ele>90</ele><time>2026-5-1T0:20:52Z</time></trkpt>
<trkpt lat="48.909809112549" lon="2.8491380214691"><ele>90</ele><time>2026-5-1T0:20:55Z</time></trkpt>
<trkpt lat="48.909809112549" lon="2.8491380214691"><ele>90</ele><time>2026-5-1T0:20:58Z</time></trkpt>
<trkpt lat="48.909736633301" lon="2.8491020202637"><ele>90</ele><time>2026-5-1T0:21:1Z</time></trkpt>
<trkpt lat="48.909736633301" lon="2.8491020202637"><ele>90</ele><time>2026-5-1T0:21:4Z</time></trkpt>
<trkpt lat="48.909618377686" lon="2.8490679264069"><ele>91</ele><time>2026-5-1T0:21:7Z</time></trkpt>
<trkpt lat="48.909618377686" lon="2.8490679264069"><ele>91</ele><time>2026-5-1T0:21:10Z</time></trkpt>
<trkpt lat="48.909553527832" lon="2.8490474224091"><ele>91</ele><time>2026-5-1T0:21:13Z</time></trkpt>
<trkpt lat="48.909481048584" lon="2.8490352630615"><ele>92</ele><time>2026-5-1T0:21:16Z</time></trkpt>
<trkpt lat="48.909412384033" lon="2.8490099906921"><ele>92</ele><time>2026-5-1T0:21:19Z</time></trkpt>
<trkpt lat="48.909412384033" lon="2.8490099906921"><ele>92</ele><time>2026-5-1T0:21:22Z</time></trkpt>
<trkpt lat="48.909324645996" lon="2.8489875793457"><ele>92</ele><time>2026-5-1T0:21:25Z</time></trkpt>
<trkpt lat="48.909324645996" lon="2.8489875793457"><ele>92</ele><time>2026-5-1T0:21:28Z</time></trkpt>
<trkpt lat="48.909233093262" lon="2.8489518165588"><ele>93</ele><time>2026-5-1T0:21:31Z</time></trkpt>
<trkpt lat="48.909233093262" lon="2.8489518165588"><ele>93</ele><time>2026-5-1T0:21:34Z</time></trkpt>
<trkpt lat="48.909233093262" lon="2.8489518165588"><ele>93</ele><time>2026-5-1T0:21:37Z</time></trkpt>
<trkpt lat="48.909103393555" lon="2.8489224910736"><ele>93</ele><time>2026-5-1T0:21:40Z</time></trkpt>
<trkpt lat="48.909103393555" lon="2.8489224910736"><ele>93</ele><time>2026-5-1T0:21:43Z</time></trkpt>
<trkpt lat="48.909103393555" lon="2.8489224910736"><ele>93</ele><time>2026-5-1T0:21:46Z</time></trkpt>
<trkpt lat="48.909042358398" lon="2.8489129543304"><ele>92</ele><time>2026-5-1T0:21:49Z</time></trkpt>
<trkpt lat="48.909042358398" lon="2.8489129543304"><ele>92</ele><time>2026-5-1T0:21:52Z</time></trkpt>
<trkpt lat="48.908946990967" lon="2.8488643169403"><ele>91</ele><time>2026-5-1T0:21:55Z</time></trkpt>
<trkpt lat="48.908946990967" lon="2.8488643169403"><ele>91</ele><time>2026-5-1T0:21:58Z</time></trkpt>
<trkpt lat="48.908866882324" lon="2.8488500118256"><ele>91</ele><time>2026-5-1T0:22:1Z</time></trkpt>
<trkpt lat="48.908866882324" lon="2.8488500118256"><ele>91</ele><time>2026-5-1T0:22:4Z</time></trkpt>
<trkpt lat="48.908782958984" lon="2.8488283157349"><ele>92</ele><time>2026-5-1T0:22:7Z</time></trkpt>
<trkpt lat="48.908782958984" lon="2.8488283157349"><ele>92</ele><time>2026-5-1T0:22:10Z</time></trkpt>
<trkpt lat="48.908782958984" lon="2.8488283157349"><ele>92</ele><time>2026-5-1T0:22:13Z</time></trkpt>
<trkpt lat="48.90873336792" lon="2.8488259315491"><ele>91</ele><time>2026-5-1T0:22:16Z</time></trkpt>
<trkpt lat="48.908687591553" lon="2.8488230705261"><ele>91</ele><time>2026-5-1T0:22:19Z</time></trkpt>
<trkpt lat="48.908638000488" lon="2.8488237857819"><ele>91</ele><time>2026-5-1T0:22:22Z</time></trkpt>
<trkpt lat="48.908638000488" lon="2.8488237857819"><ele>91</ele><time>2026-5-1T0:22:25Z</time></trkpt>
<trkpt lat="48.908588409424" lon="2.8488249778748"><ele>91</ele><time>2026-5-1T0:22:28Z</time></trkpt>
<trkpt lat="48.908546447754" lon="2.8488261699677"><ele>91</ele><time>2026-5-1T0:22:31Z</time></trkpt>
<trkpt lat="48.908462524414" lon="2.8488223552704"><ele>91</ele><time>2026-5-1T0:22:34Z</time></trkpt>
<trkpt lat="48.908462524414" lon="2.8488223552704"><ele>91</ele><time>2026-5-1T0:22:37Z</time></trkpt>
<trkpt lat="48.908462524414" lon="2.8488223552704"><ele>91</ele><time>2026-5-1T0:22:40Z</time></trkpt>
<trkpt lat="48.908397674561" lon="2.848833322525"><ele>90</ele><time>2026-5-1T0:22:43Z</time></trkpt>
<trkpt lat="48.908344268799" lon="2.8488736152649"><ele>90</ele><time>2026-5-1T0:22:46Z</time></trkpt>
<trkpt lat="48.908344268799" lon="2.8488736152649"><ele>90</ele><time>2026-5-1T0:22:49Z</time></trkpt>
<trkpt lat="48.908344268799" lon="2.8488736152649"><ele>90</ele><time>2026-5-1T0:22:52Z</time></trkpt>
<trkpt lat="48.908306121826" lon="2.8489439487457"><ele>90</ele><time>2026-5-1T0:22:55Z</time></trkpt>
<trkpt lat="48.908306121826" lon="2.8489439487457"><ele>90</ele><time>2026-5-1T0:22:58Z</time></trkpt>
<trkpt lat="48.908306121826" lon="2.8489439487457"><ele>90</ele><time>2026-5-1T0:23:1Z</time></trkpt>
<trkpt lat="48.908279418945" lon="2.8490271568298"><ele>90</ele><time>2026-5-1T0:23:4Z</time></trkpt>
<trkpt lat="48.908279418945" lon="2.8490271568298"><ele>90</ele><time>2026-5-1T0:23:7Z</time></trkpt>
<trkpt lat="48.908279418945" lon="2.8490271568298"><ele>90</ele><time>2026-5-1T0:23:10Z</time></trkpt>
<trkpt lat="48.908279418945" lon="2.8490271568298"><ele>90</ele><time>2026-5-1T0:23:13Z</time></trkpt>
<trkpt lat="48.908275604248" lon="2.8491172790527"><ele>91</ele><time>2026-5-1T0:23:16Z</time></trkpt>
<trkpt lat="48.908275604248" lon="2.8491172790527"><ele>91</ele><time>2026-5-1T0:23:19Z</time></trkpt>
<trkpt lat="48.908275604248" lon="2.8491172790527"><ele>91</ele><time>2026-5-1T0:23:22Z</time></trkpt>
<trkpt lat="48.908275604248" lon="2.8491172790527"><ele>91</ele><time>2026-5-1T0:23:25Z</time></trkpt>
<trkpt lat="48.908302307129" lon="2.8492238521576"><ele>93</ele><time>2026-5-1T0:23:28Z</time></trkpt>
<trkpt lat="48.908260345459" lon="2.8493301868439"><ele>93</ele><time>2026-5-1T0:23:31Z</time></trkpt>
<trkpt lat="48.908222198486" lon="2.8494124412537"><ele>93</ele><time>2026-5-1T0:23:34Z</time></trkpt>
<trkpt lat="48.908222198486" lon="2.8494124412537"><ele>93</ele><time>2026-5-1T0:23:37Z</time></trkpt>
<trkpt lat="48.908172607422" lon="2.8495273590088"><ele>92</ele><time>2026-5-1T0:23:40Z</time></trkpt>
<trkpt lat="48.908172607422" lon="2.8495273590088"><ele>92</ele><time>2026-5-1T0:23:43Z</time></trkpt>
<trkpt lat="48.908092498779" lon="2.8494713306427"><ele>92</ele><time>2026-5-1T0:23:46Z</time></trkpt>
<trkpt lat="48.90803527832" lon="2.8494246006012"><ele>92</ele><time>2026-5-1T0:23:49Z</time></trkpt>
<trkpt lat="48.907962799072" lon="2.8493731021881"><ele>92</ele><time>2026-5-1T0:23:52Z</time></trkpt>
<trkpt lat="48.90788269043" lon="2.8493275642395"><ele>91</ele><time>2026-5-1T0:23:55Z</time></trkpt>
<trkpt lat="48.907791137695" lon="2.8492877483368"><ele>91</ele><time>2026-5-1T0:23:58Z</time></trkpt>
<trkpt lat="48.907691955566" lon="2.8492450714111"><ele>92</ele><time>2026-5-1T0:24:1Z</time></trkpt>
<trkpt lat="48.907596588135" lon="2.8491902351379"><ele>93</ele><time>2026-5-1T0:24:4Z</time></trkpt>
<trkpt lat="48.907512664795" lon="2.8491477966309"><ele>94</ele><time>2026-5-1T0:24:7Z</time></trkpt>
<trkpt lat="48.907405853271" lon="2.8490996360779"><ele>95</ele><time>2026-5-1T0:24:10Z</time></trkpt>
<trkpt lat="48.907291412354" lon="2.8490455150604"><ele>97</ele><time>2026-5-1T0:24:13Z</time></trkpt>
<trkpt lat="48.907176971436" lon="2.8489964008331"><ele>98</ele><time>2026-5-1T0:24:16Z</time></trkpt>
<trkpt lat="48.907077789307" lon="2.8489441871643"><ele>98</ele><time>2026-5-1T0:24:19Z</time></trkpt>
<trkpt lat="48.906993865967" lon="2.8488936424255"><ele>98</ele><time>2026-5-1T0:24:22Z</time></trkpt>
<trkpt lat="48.90690612793" lon="2.8488509654999"><ele>98</ele><time>2026-5-1T0:24:25Z</time></trkpt>
<trkpt lat="48.906795501709" lon="2.8488049507141"><ele>98</ele><time>2026-5-1T0:24:28Z</time></trkpt>
<trkpt lat="48.906684875488" lon="2.8487312793732"><ele>97</ele><time>2026-5-1T0:24:31Z</time></trkpt>
<trkpt lat="48.906555175781" lon="2.8486511707306"><ele>96</ele><time>2026-5-1T0:24:34Z</time></trkpt>
<trkpt lat="48.906433105469" lon="2.848582983017"><ele>96</ele><time>2026-5-1T0:24:37Z</time></trkpt>
<trkpt lat="48.906314849854" lon="2.8485205173492"><ele>95</ele><time>2026-5-1T0:24:40Z</time></trkpt>
<trkpt lat="48.906200408936" lon="2.8484508991241"><ele>94</ele><time>2026-5-1T0:24:43Z</time></trkpt>
<trkpt lat="48.906097412109" lon="2.8483753204346"><ele>94</ele><time>2026-5-1T0:24:46Z</time></trkpt>
<trkpt lat="48.906009674072" lon="2.8483119010925"><ele>94</ele><time>2026-5-1T0:24:49Z</time></trkpt>
<trkpt lat="48.90592956543" lon="2.8482468128204"><ele>94</ele><time>2026-5-1T0:24:52Z</time></trkpt>
<trkpt lat="48.905834197998" lon="2.8481752872467"><ele>96</ele><time>2026-5-1T0:24:55Z</time></trkpt>
<trkpt lat="48.905757904053" lon="2.8481059074402"><ele>96</ele><time>2026-5-1T0:24:58Z</time></trkpt>
<trkpt lat="48.90567779541" lon="2.8480365276337"><ele>97</ele><time>2026-5-1T0:25:1Z</time></trkpt>
<trkpt lat="48.905597686768" lon="2.8479716777802"><ele>97</ele><time>2026-5-1T0:25:4Z</time></trkpt>
<trkpt lat="48.90548324585" lon="2.8478863239288"><ele>97</ele><time>2026-5-1T0:25:7Z</time></trkpt>
<trkpt lat="48.905345916748" lon="2.8477890491486"><ele>99</ele><time>2026-5-1T0:25:10Z</time></trkpt>
<trkpt lat="48.905246734619" lon="2.8477020263672"><ele>99</ele><time>2026-5-1T0:25:13Z</time></trkpt>
<trkpt lat="48.90514755249" lon="2.8476269245148"><ele>100</ele><time>2026-5-1T0:25:16Z</time></trkpt>
<trkpt lat="48.90503692627" lon="2.8475539684296"><ele>100</ele><time>2026-5-1T0:25:19Z</time></trkpt>
<trkpt lat="48.904926300049" lon="2.8474791049957"><ele>99</ele><time>2026-5-1T0:25:22Z</time></trkpt>
<trkpt lat="48.904819488525" lon="2.8474099636078"><ele>98</ele><time>2026-5-1T0:25:25Z</time></trkpt>
<trkpt lat="48.904727935791" lon="2.8473398685455"><ele>96</ele><time>2026-5-1T0:25:28Z</time></trkpt>
<trkpt lat="48.904632568359" lon="2.8472654819489"><ele>96</ele><time>2026-5-1T0:25:31Z</time></trkpt>
<trkpt lat="48.904544830322" lon="2.8471956253052"><ele>96</ele><time>2026-5-1T0:25:34Z</time></trkpt>
<trkpt lat="48.904544830322" lon="2.8471956253052"><ele>96</ele><time>2026-5-1T0:25:37Z</time></trkpt>
<trkpt lat="48.904468536377" lon="2.8471355438232"><ele>96</ele><time>2026-5-1T0:25:40Z</time></trkpt>
<trkpt lat="48.904392242432" lon="2.8470709323883"><ele>97</ele><time>2026-5-1T0:25:43Z</time></trkpt>
<trkpt lat="48.904319763184" lon="2.8469989299774"><ele>97</ele><time>2026-5-1T0:25:46Z</time></trkpt>
<trkpt lat="48.904262542725" lon="2.8469438552856"><ele>97</ele><time>2026-5-1T0:25:49Z</time></trkpt>
<trkpt lat="48.904193878174" lon="2.8468904495239"><ele>97</ele><time>2026-5-1T0:25:52Z</time></trkpt>
<trkpt lat="48.904106140137" lon="2.846825838089"><ele>97</ele><time>2026-5-1T0:25:55Z</time></trkpt>
<trkpt lat="48.904010772705" lon="2.8467564582825"><ele>97</ele><time>2026-5-1T0:25:58Z</time></trkpt>
<trkpt lat="48.903903961182" lon="2.8466823101044"><ele>96</ele><time>2026-5-1T0:26:1Z</time></trkpt>
<trkpt lat="48.903785705566" lon="2.8465881347656"><ele>95</ele><time>2026-5-1T0:26:4Z</time></trkpt>
<trkpt lat="48.903694152832" lon="2.8465082645416"><ele>94</ele><time>2026-5-1T0:26:7Z</time></trkpt>
<trkpt lat="48.9035987854" lon="2.8464233875275"><ele>94</ele><time>2026-5-1T0:26:10Z</time></trkpt>
<trkpt lat="48.903503417969" lon="2.8463413715363"><ele>94</ele><time>2026-5-1T0:26:13Z</time></trkpt>
<trkpt lat="48.903396606445" lon="2.8462653160095"><ele>94</ele><time>2026-5-1T0:26:16Z</time></trkpt>
<trkpt lat="48.9033203125" lon="2.8461978435516"><ele>94</ele><time>2026-5-1T0:26:19Z</time></trkpt>
<trkpt lat="48.903244018555" lon="2.8461380004883"><ele>94</ele><time>2026-5-1T0:26:22Z</time></trkpt>
<trkpt lat="48.903160095215" lon="2.8460741043091"><ele>95</ele><time>2026-5-1T0:26:25Z</time></trkpt>
<trkpt lat="48.903076171875" lon="2.8460094928741"><ele>94</ele><time>2026-5-1T0:26:28Z</time></trkpt>
<trkpt lat="48.902984619141" lon="2.8459360599518"><ele>94</ele><time>2026-5-1T0:26:31Z</time></trkpt>
<trkpt lat="48.902885437012" lon="2.8458633422852"><ele>94</ele><time>2026-5-1T0:26:34Z</time></trkpt>
<trkpt lat="48.902801513672" lon="2.845801115036"><ele>94</ele><time>2026-5-1T0:26:37Z</time></trkpt>
<trkpt lat="48.902690887451" lon="2.8457083702087"><ele>94</ele><time>2026-5-1T0:26:40Z</time></trkpt>
<trkpt lat="48.90258026123" lon="2.8456163406372"><ele>94</ele><time>2026-5-1T0:26:43Z</time></trkpt>
<trkpt lat="48.902481079102" lon="2.8455362319946"><ele>95</ele><time>2026-5-1T0:26:46Z</time></trkpt>
<trkpt lat="48.902389526367" lon="2.8454735279083"><ele>94</ele><time>2026-5-1T0:26:49Z</time></trkpt>
<trkpt lat="48.902389526367" lon="2.8454735279083"><ele>94</ele><time>2026-5-1T0:26:52Z</time></trkpt>
<trkpt lat="48.902214050293" lon="2.8453478813171"><ele>94</ele><time>2026-5-1T0:26:55Z</time></trkpt>
<trkpt lat="48.902118682861" lon="2.8452663421631"><ele>94</ele><time>2026-5-1T0:26:58Z</time></trkpt>
<trkpt lat="48.902038574219" lon="2.8451981544495"><ele>94</ele><time>2026-5-1T0:27:1Z</time></trkpt>
<trkpt lat="48.901943206787" lon="2.845118522644"><ele>93</ele><time>2026-5-1T0:27:4Z</time></trkpt>
<trkpt lat="48.901851654053" lon="2.8450345993042"><ele>92</ele><time>2026-5-1T0:27:7Z</time></trkpt>
<trkpt lat="48.901756286621" lon="2.8449487686157"><ele>92</ele><time>2026-5-1T0:27:10Z</time></trkpt>
<trkpt lat="48.901664733887" lon="2.8448600769043"><ele>93</ele><time>2026-5-1T0:27:13Z</time></trkpt>
<trkpt lat="48.90157699585" lon="2.8447721004486"><ele>93</ele><time>2026-5-1T0:27:16Z</time></trkpt>
<trkpt lat="48.90149307251" lon="2.8446977138519"><ele>93</ele><time>2026-5-1T0:27:19Z</time></trkpt>
<trkpt lat="48.901344299316" lon="2.8445365428925"><ele>91</ele><time>2026-5-1T0:27:22Z</time></trkpt>
<trkpt lat="48.901245117188" lon="2.8444368839264"><ele>91</ele><time>2026-5-1T0:27:25Z</time></trkpt>
<trkpt lat="48.901145935059" lon="2.8443179130554"><ele>90</ele><time>2026-5-1T0:27:28Z</time></trkpt>
<trkpt lat="48.901031494141" lon="2.844172000885"><ele>89</ele><time>2026-5-1T0:27:31Z</time></trkpt>
<trkpt lat="48.900939941406" lon="2.8440477848053"><ele>87</ele><time>2026-5-1T0:27:34Z</time></trkpt>
<trkpt lat="48.900848388672" lon="2.8439290523529"><ele>86</ele><time>2026-5-1T0:27:37Z</time></trkpt>
<trkpt lat="48.900745391846" lon="2.8438131809235"><ele>86</ele><time>2026-5-1T0:27:40Z</time></trkpt>
<trkpt lat="48.90064239502" lon="2.8436794281006"><ele>87</ele><time>2026-5-1T0:27:43Z</time></trkpt>
<trkpt lat="48.900562286377" lon="2.8435671329498"><ele>88</ele><time>2026-5-1T0:27:46Z</time></trkpt>
<trkpt lat="48.900489807129" lon="2.8434574604034"><ele>89</ele><time>2026-5-1T0:27:49Z</time></trkpt>
<trkpt lat="48.900444030762" lon="2.8433744907379"><ele>89</ele><time>2026-5-1T0:27:52Z</time></trkpt>
<trkpt lat="48.900405883789" lon="2.8432996273041"><ele>89</ele><time>2026-5-1T0:27:55Z</time></trkpt>
<trkpt lat="48.900360107422" lon="2.8432056903839"><ele>90</ele><time>2026-5-1T0:27:58Z</time></trkpt>
<trkpt lat="48.900360107422" lon="2.8432056903839"><ele>90</ele><time>2026-5-1T0:28:1Z</time></trkpt>
<trkpt lat="48.900291442871" lon="2.8430938720703"><ele>90</ele><time>2026-5-1T0:28:4Z</time></trkpt>
<trkpt lat="48.900291442871" lon="2.8430938720703"><ele>90</ele><time>2026-5-1T0:28:7Z</time></trkpt>
<trkpt lat="48.900291442871" lon="2.8430938720703"><ele>90</ele><time>2026-5-1T0:28:10Z</time></trkpt>
<trkpt lat="48.900291442871" lon="2.8430938720703"><ele>90</ele><time>2026-5-1T0:28:13Z</time></trkpt>
<trkpt lat="48.900238037109" lon="2.8429684638977"><ele>90</ele><time>2026-5-1T0:28:16Z</time></trkpt>
<trkpt lat="48.900238037109" lon="2.8429684638977"><ele>90</ele><time>2026-5-1T0:28:19Z</time></trkpt>
<trkpt lat="48.900238037109" lon="2.8429684638977"><ele>90</ele><time>2026-5-1T0:28:22Z</time></trkpt>
<trkpt lat="48.900238037109" lon="2.8429684638977"><ele>90</ele><time>2026-5-1T0:28:25Z</time></trkpt>
<trkpt lat="48.900135040283" lon="2.8427548408508"><ele>91</ele><time>2026-5-1T0:28:28Z</time></trkpt>
<trkpt lat="48.900066375732" lon="2.842609167099"><ele>91</ele><time>2026-5-1T0:28:31Z</time></trkpt>
<trkpt lat="48.900024414062" lon="2.8425331115723"><ele>91</ele><time>2026-5-1T0:28:34Z</time></trkpt>
<trkpt lat="48.900024414062" lon="2.8425331115723"><ele>91</ele><time>2026-5-1T0:28:37Z</time></trkpt>
<trkpt lat="48.899971008301" lon="2.8424506187439"><ele>91</ele><time>2026-5-1T0:28:40Z</time></trkpt>
<trkpt lat="48.899925231934" lon="2.8423647880554"><ele>91</ele><time>2026-5-1T0:28:43Z</time></trkpt>
<trkpt lat="48.899879455566" lon="2.8422737121582"><ele>91</ele><time>2026-5-1T0:28:46Z</time></trkpt>
<trkpt lat="48.899879455566" lon="2.8422737121582"><ele>91</ele><time>2026-5-1T0:28:49Z</time></trkpt>
<trkpt lat="48.899829864502" lon="2.8421738147736"><ele>91</ele><time>2026-5-1T0:28:52Z</time></trkpt>
<trkpt lat="48.899784088135" lon="2.8420765399933"><ele>92</ele><time>2026-5-1T0:28:55Z</time></trkpt>
<trkpt lat="48.899738311768" lon="2.8419604301453"><ele>92</ele><time>2026-5-1T0:28:58Z</time></trkpt>
<trkpt lat="48.899738311768" lon="2.8419604301453"><ele>92</ele><time>2026-5-1T0:29:1Z</time></trkpt>
<trkpt lat="48.899703979492" lon="2.841858625412"><ele>92</ele><time>2026-5-1T0:29:4Z</time></trkpt>
<trkpt lat="48.899669647217" lon="2.8417682647705"><ele>92</ele><time>2026-5-1T0:29:7Z</time></trkpt>
<trkpt lat="48.899635314941" lon="2.8416662216187"><ele>93</ele><time>2026-5-1T0:29:10Z</time></trkpt>
<trkpt lat="48.899635314941" lon="2.8416662216187"><ele>93</ele><time>2026-5-1T0:29:13Z</time></trkpt>
<trkpt lat="48.899593353271" lon="2.8415467739105"><ele>93</ele><time>2026-5-1T0:29:16Z</time></trkpt>
<trkpt lat="48.899543762207" lon="2.8414335250854"><ele>93</ele><time>2026-5-1T0:29:19Z</time></trkpt>
<trkpt lat="48.89949798584" lon="2.8413355350494"><ele>93</ele><time>2026-5-1T0:29:22Z</time></trkpt>
<trkpt lat="48.89949798584" lon="2.8413355350494"><ele>93</ele><time>2026-5-1T0:29:25Z</time></trkpt>
<trkpt lat="48.899467468262" lon="2.8412439823151"><ele>93</ele><time>2026-5-1T0:29:28Z</time></trkpt>
<trkpt lat="48.899433135986" lon="2.8411376476288"><ele>93</ele><time>2026-5-1T0:29:31Z</time></trkpt>
<trkpt lat="48.899391174316" lon="2.8410115242004"><ele>92</ele><time>2026-5-1T0:29:34Z</time></trkpt>
<trkpt lat="48.899360656738" lon="2.8409080505371"><ele>92</ele><time>2026-5-1T0:29:37Z</time></trkpt>
<trkpt lat="48.89933013916" lon="2.8407928943634"><ele>92</ele><time>2026-5-1T0:29:40Z</time></trkpt>
<trkpt lat="48.899303436279" lon="2.8406767845154"><ele>92</ele><time>2026-5-1T0:29:43Z</time></trkpt>
<trkpt lat="48.899303436279" lon="2.8406767845154"><ele>92</ele><time>2026-5-1T0:29:46Z</time></trkpt>
<trkpt lat="48.899272918701" lon="2.840559720993"><ele>91</ele><time>2026-5-1T0:29:49Z</time></trkpt>
<trkpt lat="48.89924621582" lon="2.8404331207275"><ele>90</ele><time>2026-5-1T0:29:52Z</time></trkpt>
<trkpt lat="48.899200439453" lon="2.8403189182281"><ele>88</ele><time>2026-5-1T0:29:55Z</time></trkpt>
<trkpt lat="48.89916229248" lon="2.8402240276337"><ele>87</ele><time>2026-5-1T0:29:58Z</time></trkpt>
<trkpt lat="48.899124145508" lon="2.8401219844818"><ele>88</ele><time>2026-5-1T0:30:1Z</time></trkpt>
<trkpt lat="48.899124145508" lon="2.8401219844818"><ele>88</ele><time>2026-5-1T0:30:4Z</time></trkpt>
<trkpt lat="48.899074554443" lon="2.8399975299835"><ele>88</ele><time>2026-5-1T0:30:7Z</time></trkpt>
<trkpt lat="48.899036407471" lon="2.8398768901825"><ele>88</ele><time>2026-5-1T0:30:10Z</time></trkpt>
<trkpt lat="48.899013519287" lon="2.8397545814514"><ele>88</ele><time>2026-5-1T0:30:13Z</time></trkpt>
<trkpt lat="48.899013519287" lon="2.8397545814514"><ele>88</ele><time>2026-5-1T0:30:16Z</time></trkpt>
<trkpt lat="48.898994445801" lon="2.8396351337433"><ele>88</ele><time>2026-5-1T0:30:19Z</time></trkpt>
<trkpt lat="48.898979187012" lon="2.8395175933838"><ele>88</ele><time>2026-5-1T0:30:22Z</time></trkpt>
<trkpt lat="48.898956298828" lon="2.8394012451172"><ele>88</ele><time>2026-5-1T0:30:25Z</time></trkpt>
<trkpt lat="48.898956298828" lon="2.8394012451172"><ele>88</ele><time>2026-5-1T0:30:28Z</time></trkpt>
<trkpt lat="48.898929595947" lon="2.8392841815948"><ele>87</ele><time>2026-5-1T0:30:31Z</time></trkpt>
<trkpt lat="48.898910522461" lon="2.8391516208649"><ele>87</ele><time>2026-5-1T0:30:34Z</time></trkpt>
<trkpt lat="48.89888381958" lon="2.8390293121338"><ele>87</ele><time>2026-5-1T0:30:37Z</time></trkpt>
<trkpt lat="48.89888381958" lon="2.8390293121338"><ele>87</ele><time>2026-5-1T0:30:40Z</time></trkpt>
<trkpt lat="48.898864746094" lon="2.8388991355896"><ele>87</ele><time>2026-5-1T0:30:43Z</time></trkpt>
<trkpt lat="48.898853302002" lon="2.8387775421143"><ele>87</ele><time>2026-5-1T0:30:46Z</time></trkpt>
<trkpt lat="48.898830413818" lon="2.8386504650116"><ele>87</ele><time>2026-5-1T0:30:49Z</time></trkpt>
<trkpt lat="48.898830413818" lon="2.8386504650116"><ele>87</ele><time>2026-5-1T0:30:52Z</time></trkpt>
<trkpt lat="48.898807525635" lon="2.8385257720947"><ele>87</ele><time>2026-5-1T0:30:55Z</time></trkpt>
<trkpt lat="48.898792266846" lon="2.8384120464325"><ele>87</ele><time>2026-5-1T0:30:58Z</time></trkpt>
<trkpt lat="48.898784637451" lon="2.8382971286774"><ele>87</ele><time>2026-5-1T0:31:1Z</time></trkpt>
<trkpt lat="48.898769378662" lon="2.838187456131"><ele>87</ele><time>2026-5-1T0:31:4Z</time></trkpt>
<trkpt lat="48.898746490479" lon="2.8380751609802"><ele>87</ele><time>2026-5-1T0:31:7Z</time></trkpt>
<trkpt lat="48.898731231689" lon="2.8379554748535"><ele>87</ele><time>2026-5-1T0:31:10Z</time></trkpt>
<trkpt lat="48.898708343506" lon="2.837824344635"><ele>87</ele><time>2026-5-1T0:31:13Z</time></trkpt>
<trkpt lat="48.898700714111" lon="2.837708234787"><ele>87</ele><time>2026-5-1T0:31:16Z</time></trkpt>
<trkpt lat="48.898696899414" lon="2.8376095294952"><ele>87</ele><time>2026-5-1T0:31:19Z</time></trkpt>
<trkpt lat="48.89868927002" lon="2.8374857902527"><ele>88</ele><time>2026-5-1T0:31:22Z</time></trkpt>
<trkpt lat="48.898685455322" lon="2.83735704422"><ele>88</ele><time>2026-5-1T0:31:25Z</time></trkpt>
<trkpt lat="48.89867401123" lon="2.8372440338135"><ele>88</ele><time>2026-5-1T0:31:28Z</time></trkpt>
<trkpt lat="48.898658752441" lon="2.8371198177338"><ele>88</ele><time>2026-5-1T0:31:31Z</time></trkpt>
<trkpt lat="48.898643493652" lon="2.836989402771"><ele>88</ele><time>2026-5-1T0:31:34Z</time></trkpt>
<trkpt lat="48.898628234863" lon="2.8368639945984"><ele>88</ele><time>2026-5-1T0:31:37Z</time></trkpt>
<trkpt lat="48.898620605469" lon="2.8367531299591"><ele>88</ele><time>2026-5-1T0:31:40Z</time></trkpt>
<trkpt lat="48.898612976074" lon="2.836629152298"><ele>88</ele><time>2026-5-1T0:31:43Z</time></trkpt>
<trkpt lat="48.898616790771" lon="2.8365242481232"><ele>88</ele><time>2026-5-1T0:31:46Z</time></trkpt>
<trkpt lat="48.898620605469" lon="2.8364129066467"><ele>89</ele><time>2026-5-1T0:31:49Z</time></trkpt>
<trkpt lat="48.898628234863" lon="2.8362905979156"><ele>89</ele><time>2026-5-1T0:31:52Z</time></trkpt>
<trkpt lat="48.898620605469" lon="2.8361504077911"><ele>89</ele><time>2026-5-1T0:31:55Z</time></trkpt>
<trkpt lat="48.898612976074" lon="2.8360311985016"><ele>89</ele><time>2026-5-1T0:31:58Z</time></trkpt>
<trkpt lat="48.898612976074" lon="2.8360311985016"><ele>89</ele><time>2026-5-1T0:32:1Z</time></trkpt>
<trkpt lat="48.898590087891" lon="2.8359198570251"><ele>89</ele><time>2026-5-1T0:32:4Z</time></trkpt>
<trkpt lat="48.898578643799" lon="2.8357841968536"><ele>89</ele><time>2026-5-1T0:32:7Z</time></trkpt>
<trkpt lat="48.898590087891" lon="2.835640668869"><ele>89</ele><time>2026-5-1T0:32:10Z</time></trkpt>
<trkpt lat="48.898593902588" lon="2.8354902267456"><ele>88</ele><time>2026-5-1T0:32:13Z</time></trkpt>
<trkpt lat="48.898609161377" lon="2.8353610038757"><ele>87</ele><time>2026-5-1T0:32:16Z</time></trkpt>
<trkpt lat="48.898620605469" lon="2.8352208137512"><ele>86</ele><time>2026-5-1T0:32:19Z</time></trkpt>
<trkpt lat="48.898632049561" lon="2.8350894451141"><ele>86</ele><time>2026-5-1T0:32:22Z</time></trkpt>
<trkpt lat="48.898628234863" lon="2.8349666595459"><ele>86</ele><time>2026-5-1T0:32:25Z</time></trkpt>
<trkpt lat="48.898624420166" lon="2.8348565101624"><ele>86</ele><time>2026-5-1T0:32:28Z</time></trkpt>
<trkpt lat="48.898632049561" lon="2.8347599506378"><ele>86</ele><time>2026-5-1T0:32:31Z</time></trkpt>
<trkpt lat="48.898651123047" lon="2.834641456604"><ele>86</ele><time>2026-5-1T0:32:34Z</time></trkpt>
<trkpt lat="48.898651123047" lon="2.834641456604"><ele>86</ele><time>2026-5-1T0:32:37Z</time></trkpt>
<trkpt lat="48.898643493652" lon="2.8345427513123"><ele>86</ele><time>2026-5-1T0:32:40Z</time></trkpt>
<trkpt lat="48.898643493652" lon="2.8345427513123"><ele>86</ele><time>2026-5-1T0:32:43Z</time></trkpt>
<trkpt lat="48.898643493652" lon="2.8343651294708"><ele>86</ele><time>2026-5-1T0:32:46Z</time></trkpt>
<trkpt lat="48.898658752441" lon="2.8342020511627"><ele>86</ele><time>2026-5-1T0:32:49Z</time></trkpt>
<trkpt lat="48.898662567139" lon="2.8341066837311"><ele>86</ele><time>2026-5-1T0:32:52Z</time></trkpt>
<trkpt lat="48.898666381836" lon="2.8339970111847"><ele>86</ele><time>2026-5-1T0:32:55Z</time></trkpt>
<trkpt lat="48.89867401123" lon="2.833883523941"><ele>86</ele><time>2026-5-1T0:32:58Z</time></trkpt>
<trkpt lat="48.898681640625" lon="2.8337743282318"><ele>86</ele><time>2026-5-1T0:33:1Z</time></trkpt>
<trkpt lat="48.898685455322" lon="2.8336803913116"><ele>87</ele><time>2026-5-1T0:33:4Z</time></trkpt>
<trkpt lat="48.898696899414" lon="2.8335926532745"><ele>87</ele><time>2026-5-1T0:33:7Z</time></trkpt>
<trkpt lat="48.8987159729" lon="2.833423614502"><ele>87</ele><time>2026-5-1T0:33:10Z</time></trkpt>
<trkpt lat="48.898727416992" lon="2.8333342075348"><ele>87</ele><time>2026-5-1T0:33:13Z</time></trkpt>
<trkpt lat="48.898742675781" lon="2.8332335948944"><ele>87</ele><time>2026-5-1T0:33:16Z</time></trkpt>
<trkpt lat="48.898750305176" lon="2.8331384658813"><ele>87</ele><time>2026-5-1T0:33:19Z</time></trkpt>
<trkpt lat="48.898765563965" lon="2.8330433368683"><ele>87</ele><time>2026-5-1T0:33:22Z</time></trkpt>
<trkpt lat="48.898780822754" lon="2.8329517841339"><ele>87</ele><time>2026-5-1T0:33:25Z</time></trkpt>
<trkpt lat="48.898792266846" lon="2.8328547477722"><ele>87</ele><time>2026-5-1T0:33:28Z</time></trkpt>
<trkpt lat="48.898792266846" lon="2.8328547477722"><ele>87</ele><time>2026-5-1T0:33:31Z</time></trkpt>
<trkpt lat="48.898807525635" lon="2.8327596187592"><ele>87</ele><time>2026-5-1T0:33:34Z</time></trkpt>
<trkpt lat="48.898818969727" lon="2.8326625823975"><ele>87</ele><time>2026-5-1T0:33:37Z</time></trkpt>
<trkpt lat="48.898818969727" lon="2.8326625823975"><ele>87</ele><time>2026-5-1T0:33:40Z</time></trkpt>
<trkpt lat="48.898830413818" lon="2.8324990272522"><ele>87</ele><time>2026-5-1T0:33:43Z</time></trkpt>
<trkpt lat="48.898830413818" lon="2.8324990272522"><ele>87</ele><time>2026-5-1T0:33:46Z</time></trkpt>
<trkpt lat="48.898849487305" lon="2.8323962688446"><ele>87</ele><time>2026-5-1T0:33:49Z</time></trkpt>
<trkpt lat="48.898849487305" lon="2.8323962688446"><ele>87</ele><time>2026-5-1T0:33:52Z</time></trkpt>
<trkpt lat="48.898860931396" lon="2.8322534561157"><ele>87</ele><time>2026-5-1T0:33:55Z</time></trkpt>
<trkpt lat="48.898860931396" lon="2.8322534561157"><ele>87</ele><time>2026-5-1T0:33:58Z</time></trkpt>
<trkpt lat="48.898868560791" lon="2.8321552276611"><ele>88</ele><time>2026-5-1T0:34:1Z</time></trkpt>
<trkpt lat="48.898868560791" lon="2.8321552276611"><ele>88</ele><time>2026-5-1T0:34:4Z</time></trkpt>
<trkpt lat="48.898872375488" lon="2.8320305347443"><ele>88</ele><time>2026-5-1T0:34:7Z</time></trkpt>
<trkpt lat="48.898872375488" lon="2.8320305347443"><ele>88</ele><time>2026-5-1T0:34:10Z</time></trkpt>
<trkpt lat="48.898899078369" lon="2.8319003582001"><ele>88</ele><time>2026-5-1T0:34:13Z</time></trkpt>
<trkpt lat="48.898899078369" lon="2.8319003582001"><ele>88</ele><time>2026-5-1T0:34:16Z</time></trkpt>
<trkpt lat="48.898948669434" lon="2.831741809845"><ele>88</ele><time>2026-5-1T0:34:19Z</time></trkpt>
<trkpt lat="48.898998260498" lon="2.8316607475281"><ele>88</ele><time>2026-5-1T0:34:22Z</time></trkpt>
<trkpt lat="48.899040222168" lon="2.8315560817719"><ele>88</ele><time>2026-5-1T0:34:25Z</time></trkpt>
<trkpt lat="48.899070739746" lon="2.831451177597"><ele>88</ele><time>2026-5-1T0:34:28Z</time></trkpt>
<trkpt lat="48.899089813232" lon="2.831351518631"><ele>88</ele><time>2026-5-1T0:34:31Z</time></trkpt>
<trkpt lat="48.899120330811" lon="2.8312327861786"><ele>88</ele><time>2026-5-1T0:34:34Z</time></trkpt>
<trkpt lat="48.899154663086" lon="2.831113576889"><ele>87</ele><time>2026-5-1T0:34:37Z</time></trkpt>
<trkpt lat="48.899185180664" lon="2.8309895992279"><ele>87</ele><time>2026-5-1T0:34:40Z</time></trkpt>
<trkpt lat="48.899215698242" lon="2.8308923244476"><ele>87</ele><time>2026-5-1T0:34:43Z</time></trkpt>
<trkpt lat="48.89924621582" lon="2.8308012485504"><ele>87</ele><time>2026-5-1T0:34:46Z</time></trkpt>
<trkpt lat="48.899272918701" lon="2.8307003974915"><ele>87</ele><time>2026-5-1T0:34:49Z</time></trkpt>
<trkpt lat="48.899318695068" lon="2.8305842876434"><ele>87</ele><time>2026-5-1T0:34:52Z</time></trkpt>
<trkpt lat="48.899368286133" lon="2.8304738998413"><ele>87</ele><time>2026-5-1T0:34:55Z</time></trkpt>
<trkpt lat="48.899394989014" lon="2.8303978443146"><ele>87</ele><time>2026-5-1T0:34:58Z</time></trkpt>
<trkpt lat="48.899394989014" lon="2.8303978443146"><ele>87</ele><time>2026-5-1T0:35:1Z</time></trkpt>
<trkpt lat="48.899433135986" lon="2.8303153514862"><ele>87</ele><time>2026-5-1T0:35:4Z</time></trkpt>
<trkpt lat="48.899490356445" lon="2.8302347660065"><ele>87</ele><time>2026-5-1T0:35:7Z</time></trkpt>
<trkpt lat="48.89953994751" lon="2.8301861286163"><ele>87</ele><time>2026-5-1T0:35:10Z</time></trkpt>
<trkpt lat="48.899589538574" lon="2.8301239013672"><ele>87</ele><time>2026-5-1T0:35:13Z</time></trkpt>
<trkpt lat="48.899631500244" lon="2.8300540447235"><ele>86</ele><time>2026-5-1T0:35:16Z</time></trkpt>
<trkpt lat="48.899631500244" lon="2.8300540447235"><ele>86</ele><time>2026-5-1T0:35:19Z</time></trkpt>
<trkpt lat="48.899688720703" lon="2.8299210071564"><ele>86</ele><time>2026-5-1T0:35:22Z</time></trkpt>
<trkpt lat="48.899688720703" lon="2.8299210071564"><ele>86</ele><time>2026-5-1T0:35:25Z</time></trkpt>
<trkpt lat="48.899749755859" lon="2.8297991752625"><ele>86</ele><time>2026-5-1T0:35:28Z</time></trkpt>
<trkpt lat="48.899784088135" lon="2.8297173976898"><ele>86</ele><time>2026-5-1T0:35:31Z</time></trkpt>
<trkpt lat="48.899784088135" lon="2.8297173976898"><ele>86</ele><time>2026-5-1T0:35:34Z</time></trkpt>
<trkpt lat="48.899841308594" lon="2.8295545578003"><ele>86</ele><time>2026-5-1T0:35:37Z</time></trkpt>
<trkpt lat="48.89986038208" lon="2.8294610977173"><ele>86</ele><time>2026-5-1T0:35:40Z</time></trkpt>
<trkpt lat="48.899879455566" lon="2.8293659687042"><ele>86</ele><time>2026-5-1T0:35:43Z</time></trkpt>
<trkpt lat="48.899906158447" lon="2.8292851448059"><ele>86</ele><time>2026-5-1T0:35:46Z</time></trkpt>
<trkpt lat="48.899932861328" lon="2.8292014598846"><ele>86</ele><time>2026-5-1T0:35:49Z</time></trkpt>
<trkpt lat="48.899963378906" lon="2.8291220664978"><ele>86</ele><time>2026-5-1T0:35:52Z</time></trkpt>
<trkpt lat="48.900001525879" lon="2.8290410041809"><ele>86</ele><time>2026-5-1T0:35:55Z</time></trkpt>
<trkpt lat="48.900043487549" lon="2.828958272934"><ele>86</ele><time>2026-5-1T0:35:58Z</time></trkpt>
<trkpt lat="48.900074005127" lon="2.8288674354553"><ele>86</ele><time>2026-5-1T0:36:1Z</time></trkpt>
<trkpt lat="48.900104522705" lon="2.8287713527679"><ele>86</ele><time>2026-5-1T0:36:4Z</time></trkpt>
<trkpt lat="48.90013885498" lon="2.8286838531494"><ele>87</ele><time>2026-5-1T0:36:7Z</time></trkpt>
<trkpt lat="48.900165557861" lon="2.8285961151123"><ele>87</ele><time>2026-5-1T0:36:10Z</time></trkpt>
<trkpt lat="48.900165557861" lon="2.8285961151123"><ele>87</ele><time>2026-5-1T0:36:13Z</time></trkpt>
<trkpt lat="48.900199890137" lon="2.8285024166107"><ele>87</ele><time>2026-5-1T0:36:16Z</time></trkpt>
<trkpt lat="48.900238037109" lon="2.828417301178"><ele>87</ele><time>2026-5-1T0:36:19Z</time></trkpt>
<trkpt lat="48.900272369385" lon="2.8283505439758"><ele>87</ele><time>2026-5-1T0:36:22Z</time></trkpt>
<trkpt lat="48.90030670166" lon="2.8282675743103"><ele>87</ele><time>2026-5-1T0:36:25Z</time></trkpt>
<trkpt lat="48.900333404541" lon="2.8281905651093"><ele>87</ele><time>2026-5-1T0:36:28Z</time></trkpt>
<trkpt lat="48.900375366211" lon="2.8280808925629"><ele>87</ele><time>2026-5-1T0:36:31Z</time></trkpt>
<trkpt lat="48.900417327881" lon="2.8279786109924"><ele>87</ele><time>2026-5-1T0:36:34Z</time></trkpt>
<trkpt lat="48.900444030762" lon="2.8278963565826"><ele>88</ele><time>2026-5-1T0:36:37Z</time></trkpt>
<trkpt lat="48.900470733643" lon="2.8278138637543"><ele>88</ele><time>2026-5-1T0:36:40Z</time></trkpt>
<trkpt lat="48.900497436523" lon="2.8277361392975"><ele>88</ele><time>2026-5-1T0:36:43Z</time></trkpt>
<trkpt lat="48.900524139404" lon="2.8276305198669"><ele>88</ele><time>2026-5-1T0:36:46Z</time></trkpt>
<trkpt lat="48.900539398193" lon="2.8275234699249"><ele>88</ele><time>2026-5-1T0:36:49Z</time></trkpt>
<trkpt lat="48.90055847168" lon="2.8274202346802"><ele>88</ele><time>2026-5-1T0:36:52Z</time></trkpt>
<trkpt lat="48.900581359863" lon="2.8273377418518"><ele>88</ele><time>2026-5-1T0:36:55Z</time></trkpt>
<trkpt lat="48.900596618652" lon="2.8272540569305"><ele>89</ele><time>2026-5-1T0:36:58Z</time></trkpt>
<trkpt lat="48.900619506836" lon="2.8271427154541"><ele>89</ele><time>2026-5-1T0:37:1Z</time></trkpt>
<trkpt lat="48.900650024414" lon="2.8270015716553"><ele>89</ele><time>2026-5-1T0:37:4Z</time></trkpt>
<trkpt lat="48.900680541992" lon="2.8268914222717"><ele>89</ele><time>2026-5-1T0:37:7Z</time></trkpt>
<trkpt lat="48.900699615479" lon="2.8267714977264"><ele>89</ele><time>2026-5-1T0:37:10Z</time></trkpt>
<trkpt lat="48.900714874268" lon="2.8266417980194"><ele>89</ele><time>2026-5-1T0:37:13Z</time></trkpt>
<trkpt lat="48.900718688965" lon="2.8265428543091"><ele>89</ele><time>2026-5-1T0:37:16Z</time></trkpt>
<trkpt lat="48.900718688965" lon="2.8265428543091"><ele>89</ele><time>2026-5-1T0:37:19Z</time></trkpt>
<trkpt lat="48.900730133057" lon="2.8264222145081"><ele>89</ele><time>2026-5-1T0:37:22Z</time></trkpt>
<trkpt lat="48.900760650635" lon="2.82626080513"><ele>89</ele><time>2026-5-1T0:37:25Z</time></trkpt>
<trkpt lat="48.900775909424" lon="2.8261375427246"><ele>88</ele><time>2026-5-1T0:37:28Z</time></trkpt>
<trkpt lat="48.90079498291" lon="2.8260169029236"><ele>88</ele><time>2026-5-1T0:37:31Z</time></trkpt>
<trkpt lat="48.900817871094" lon="2.8258697986603"><ele>89</ele><time>2026-5-1T0:37:34Z</time></trkpt>
<trkpt lat="48.90083694458" lon="2.8257398605347"><ele>89</ele><time>2026-5-1T0:37:37Z</time></trkpt>
<trkpt lat="48.900848388672" lon="2.8256313800812"><ele>90</ele><time>2026-5-1T0:37:40Z</time></trkpt>
<trkpt lat="48.900859832764" lon="2.8255264759064"><ele>90</ele><time>2026-5-1T0:37:43Z</time></trkpt>
<trkpt lat="48.900871276855" lon="2.8253874778748"><ele>90</ele><time>2026-5-1T0:37:46Z</time></trkpt>
<trkpt lat="48.90087890625" lon="2.8252720832825"><ele>91</ele><time>2026-5-1T0:37:49Z</time></trkpt>
<trkpt lat="48.900882720947" lon="2.8251333236694"><ele>91</ele><time>2026-5-1T0:37:52Z</time></trkpt>
<trkpt lat="48.900882720947" lon="2.8250272274017"><ele>91</ele><time>2026-5-1T0:37:55Z</time></trkpt>
<trkpt lat="48.90087890625" lon="2.8249096870422"><ele>91</ele><time>2026-5-1T0:37:58Z</time></trkpt>
<trkpt lat="48.900882720947" lon="2.8247919082642"><ele>92</ele><time>2026-5-1T0:38:1Z</time></trkpt>
<trkpt lat="48.900856018066" lon="2.8246693611145"><ele>92</ele><time>2026-5-1T0:38:4Z</time></trkpt>
<trkpt lat="48.900840759277" lon="2.8245720863342"><ele>92</ele><time>2026-5-1T0:38:7Z</time></trkpt>
<trkpt lat="48.900825500488" lon="2.8244771957397"><ele>92</ele><time>2026-5-1T0:38:10Z</time></trkpt>
<trkpt lat="48.900817871094" lon="2.8243560791016"><ele>92</ele><time>2026-5-1T0:38:13Z</time></trkpt>
<trkpt lat="48.900798797607" lon="2.8242189884186"><ele>92</ele><time>2026-5-1T0:38:16Z</time></trkpt>
<trkpt lat="48.900787353516" lon="2.8240995407104"><ele>92</ele><time>2026-5-1T0:38:19Z</time></trkpt>
<trkpt lat="48.900760650635" lon="2.8239629268646"><ele>92</ele><time>2026-5-1T0:38:22Z</time></trkpt>
<trkpt lat="48.900730133057" lon="2.8238043785095"><ele>91</ele><time>2026-5-1T0:38:25Z</time></trkpt>
<trkpt lat="48.900714874268" lon="2.8236770629883"><ele>89</ele><time>2026-5-1T0:38:28Z</time></trkpt>
<trkpt lat="48.900703430176" lon="2.823549747467"><ele>89</ele><time>2026-5-1T0:38:31Z</time></trkpt>
<trkpt lat="48.900684356689" lon="2.8234262466431"><ele>89</ele><time>2026-5-1T0:38:34Z</time></trkpt>
<trkpt lat="48.900665283203" lon="2.8233318328857"><ele>89</ele><time>2026-5-1T0:38:37Z</time></trkpt>
<trkpt lat="48.900650024414" lon="2.8232328891754"><ele>89</ele><time>2026-5-1T0:38:40Z</time></trkpt>
<trkpt lat="48.900634765625" lon="2.823091506958"><ele>89</ele><time>2026-5-1T0:38:43Z</time></trkpt>
<trkpt lat="48.900611877441" lon="2.8229510784149"><ele>90</ele><time>2026-5-1T0:38:46Z</time></trkpt>
<trkpt lat="48.900585174561" lon="2.822826385498"><ele>90</ele><time>2026-5-1T0:38:49Z</time></trkpt>
<trkpt lat="48.900566101074" lon="2.8227002620697"><ele>91</ele><time>2026-5-1T0:38:52Z</time></trkpt>
<trkpt lat="48.900543212891" lon="2.8225541114807"><ele>90</ele><time>2026-5-1T0:38:55Z</time></trkpt>
<trkpt lat="48.900531768799" lon="2.8224229812622"><ele>89</ele><time>2026-5-1T0:38:58Z</time></trkpt>
<trkpt lat="48.900531768799" lon="2.8224229812622"><ele>89</ele><time>2026-5-1T0:39:1Z</time></trkpt>
<trkpt lat="48.90051651001" lon="2.822304725647"><ele>89</ele><time>2026-5-1T0:39:4Z</time></trkpt>
<trkpt lat="48.900501251221" lon="2.8221800327301"><ele>89</ele><time>2026-5-1T0:39:7Z</time></trkpt>
<trkpt lat="48.900485992432" lon="2.822048664093"><ele>89</ele><time>2026-5-1T0:39:10Z</time></trkpt>
<trkpt lat="48.900485992432" lon="2.822048664093"><ele>89</ele><time>2026-5-1T0:39:13Z</time></trkpt>
<trkpt lat="48.900470733643" lon="2.8219208717346"><ele>89</ele><time>2026-5-1T0:39:16Z</time></trkpt>
<trkpt lat="48.900451660156" lon="2.8217988014221"><ele>86</ele><time>2026-5-1T0:39:19Z</time></trkpt>
<trkpt lat="48.90043258667" lon="2.8216691017151"><ele>84</ele><time>2026-5-1T0:39:22Z</time></trkpt>
<trkpt lat="48.900413513184" lon="2.8215336799622"><ele>82</ele><time>2026-5-1T0:39:25Z</time></trkpt>
<trkpt lat="48.900394439697" lon="2.8214168548584"><ele>81</ele><time>2026-5-1T0:39:28Z</time></trkpt>
<trkpt lat="48.900375366211" lon="2.8212821483612"><ele>80</ele><time>2026-5-1T0:39:31Z</time></trkpt>
<trkpt lat="48.900375366211" lon="2.8212821483612"><ele>80</ele><time>2026-5-1T0:39:34Z</time></trkpt>
<trkpt lat="48.900344848633" lon="2.8211483955383"><ele>79</ele><time>2026-5-1T0:39:37Z</time></trkpt>
<trkpt lat="48.900318145752" lon="2.8210434913635"><ele>78</ele><time>2026-5-1T0:39:40Z</time></trkpt>
<trkpt lat="48.900291442871" lon="2.8209145069122"><ele>80</ele><time>2026-5-1T0:39:43Z</time></trkpt>
<trkpt lat="48.900291442871" lon="2.8209145069122"><ele>80</ele><time>2026-5-1T0:39:46Z</time></trkpt>
<trkpt lat="48.900272369385" lon="2.8207886219025"><ele>81</ele><time>2026-5-1T0:39:49Z</time></trkpt>
<trkpt lat="48.900260925293" lon="2.8206498622894"><ele>82</ele><time>2026-5-1T0:39:52Z</time></trkpt>
<trkpt lat="48.900249481201" lon="2.820503950119"><ele>82</ele><time>2026-5-1T0:39:55Z</time></trkpt>
<trkpt lat="48.900249481201" lon="2.820503950119"><ele>82</ele><time>2026-5-1T0:39:58Z</time></trkpt>
<trkpt lat="48.900245666504" lon="2.8203494548798"><ele>80</ele><time>2026-5-1T0:40:1Z</time></trkpt>
<trkpt lat="48.900238037109" lon="2.8202152252197"><ele>80</ele><time>2026-5-1T0:40:4Z</time></trkpt>
<trkpt lat="48.900230407715" lon="2.8200788497925"><ele>80</ele><time>2026-5-1T0:40:7Z</time></trkpt>
<trkpt lat="48.900230407715" lon="2.8200788497925"><ele>80</ele><time>2026-5-1T0:40:10Z</time></trkpt>
<trkpt lat="48.900211334229" lon="2.8199853897095"><ele>80</ele><time>2026-5-1T0:40:13Z</time></trkpt>
<trkpt lat="48.900177001953" lon="2.8198132514954"><ele>81</ele><time>2026-5-1T0:40:16Z</time></trkpt>
<trkpt lat="48.900177001953" lon="2.8198132514954"><ele>81</ele><time>2026-5-1T0:40:19Z</time></trkpt>
<trkpt lat="48.900161743164" lon="2.8196959495544"><ele>82</ele><time>2026-5-1T0:40:22Z</time></trkpt>
<trkpt lat="48.90013885498" lon="2.8195600509644"><ele>82</ele><time>2026-5-1T0:40:25Z</time></trkpt>
<trkpt lat="48.900119781494" lon="2.8194386959076"><ele>82</ele><time>2026-5-1T0:40:28Z</time></trkpt>
<trkpt lat="48.900108337402" lon="2.8193101882935"><ele>82</ele><time>2026-5-1T0:40:31Z</time></trkpt>
<trkpt lat="48.900115966797" lon="2.8191978931427"><ele>83</ele><time>2026-5-1T0:40:34Z</time></trkpt>
<trkpt lat="48.900127410889" lon="2.8190672397614"><ele>84</ele><time>2026-5-1T0:40:37Z</time></trkpt>
<trkpt lat="48.900123596191" lon="2.81893658638"><ele>85</ele><time>2026-5-1T0:40:40Z</time></trkpt>
<trkpt lat="48.900100708008" lon="2.8188197612762"><ele>85</ele><time>2026-5-1T0:40:43Z</time></trkpt>
<trkpt lat="48.900100708008" lon="2.8188197612762"><ele>85</ele><time>2026-5-1T0:40:46Z</time></trkpt>
<trkpt lat="48.90007019043" lon="2.8187279701233"><ele>85</ele><time>2026-5-1T0:40:49Z</time></trkpt>
<trkpt lat="48.900039672852" lon="2.8186392784119"><ele>87</ele><time>2026-5-1T0:40:52Z</time></trkpt>
<trkpt lat="48.900005340576" lon="2.8185200691223"><ele>88</ele><time>2026-5-1T0:40:55Z</time></trkpt>
<trkpt lat="48.900005340576" lon="2.8185200691223"><ele>88</ele><time>2026-5-1T0:40:58Z</time></trkpt>
<trkpt lat="48.899974822998" lon="2.8183877468109"><ele>88</ele><time>2026-5-1T0:41:1Z</time></trkpt>
<trkpt lat="48.899948120117" lon="2.8182687759399"><ele>88</ele><time>2026-5-1T0:41:4Z</time></trkpt>
<trkpt lat="48.899948120117" lon="2.8182687759399"><ele>88</ele><time>2026-5-1T0:41:7Z</time></trkpt>
<trkpt lat="48.899948120117" lon="2.8182687759399"><ele>88</ele><time>2026-5-1T0:41:10Z</time></trkpt>
<trkpt lat="48.899917602539" lon="2.8181166648865"><ele>88</ele><time>2026-5-1T0:41:13Z</time></trkpt>
<trkpt lat="48.899906158447" lon="2.8180284500122"><ele>88</ele><time>2026-5-1T0:41:16Z</time></trkpt>
<trkpt lat="48.899906158447" lon="2.8180284500122"><ele>88</ele><time>2026-5-1T0:41:19Z</time></trkpt>
<trkpt lat="48.899906158447" lon="2.8180284500122"><ele>88</ele><time>2026-5-1T0:41:22Z</time></trkpt>
<trkpt lat="48.899871826172" lon="2.8178768157959"><ele>88</ele><time>2026-5-1T0:41:25Z</time></trkpt>
<trkpt lat="48.899871826172" lon="2.8178768157959"><ele>88</ele><time>2026-5-1T0:41:28Z</time></trkpt>
<trkpt lat="48.899829864502" lon="2.8177869319916"><ele>87</ele><time>2026-5-1T0:41:31Z</time></trkpt>
<trkpt lat="48.899829864502" lon="2.8177869319916"><ele>87</ele><time>2026-5-1T0:41:34Z</time></trkpt>
<trkpt lat="48.899829864502" lon="2.8177869319916"><ele>87</ele><time>2026-5-1T0:41:37Z</time></trkpt>
<trkpt lat="48.899791717529" lon="2.8177175521851"><ele>87</ele><time>2026-5-1T0:41:40Z</time></trkpt>
<trkpt lat="48.899791717529" lon="2.8177175521851"><ele>87</ele><time>2026-5-1T0:41:43Z</time></trkpt>
<trkpt lat="48.899791717529" lon="2.8177175521851"><ele>87</ele><time>2026-5-1T0:41:46Z</time></trkpt>
<trkpt lat="48.899791717529" lon="2.8177175521851"><ele>87</ele><time>2026-5-1T0:41:49Z</time></trkpt>
<trkpt lat="48.899803161621" lon="2.8176121711731"><ele>87</ele><time>2026-5-1T0:41:52Z</time></trkpt>
<trkpt lat="48.899803161621" lon="2.8176121711731"><ele>87</ele><time>2026-5-1T0:41:55Z</time></trkpt>
<trkpt lat="48.89981842041" lon="2.8174481391907"><ele>87</ele><time>2026-5-1T0:41:58Z</time></trkpt>
<trkpt lat="48.899822235107" lon="2.8173229694366"><ele>88</ele><time>2026-5-1T0:42:1Z</time></trkpt>
<trkpt lat="48.899814605713" lon="2.8171610832214"><ele>87</ele><time>2026-5-1T0:42:4Z</time></trkpt>
<trkpt lat="48.899787902832" lon="2.8170003890991"><ele>88</ele><time>2026-5-1T0:42:7Z</time></trkpt>
<trkpt lat="48.899765014648" lon="2.8168129920959"><ele>89</ele><time>2026-5-1T0:42:10Z</time></trkpt>
<trkpt lat="48.899749755859" lon="2.8166654109955"><ele>88</ele><time>2026-5-1T0:42:13Z</time></trkpt>
<trkpt lat="48.89973449707" lon="2.8165462017059"><ele>87</ele><time>2026-5-1T0:42:16Z</time></trkpt>
<trkpt lat="48.899726867676" lon="2.8164274692535"><ele>87</ele><time>2026-5-1T0:42:19Z</time></trkpt>
<trkpt lat="48.899707794189" lon="2.8163063526154"><ele>86</ele><time>2026-5-1T0:42:22Z</time></trkpt>
<trkpt lat="48.899673461914" lon="2.8161790370941"><ele>86</ele><time>2026-5-1T0:42:25Z</time></trkpt>
<trkpt lat="48.899642944336" lon="2.8160727024078"><ele>86</ele><time>2026-5-1T0:42:28Z</time></trkpt>
<trkpt lat="48.899616241455" lon="2.8159644603729"><ele>86</ele><time>2026-5-1T0:42:31Z</time></trkpt>
<trkpt lat="48.899604797363" lon="2.8158686161041"><ele>86</ele><time>2026-5-1T0:42:34Z</time></trkpt>
<trkpt lat="48.899585723877" lon="2.8157794475555"><ele>86</ele><time>2026-5-1T0:42:37Z</time></trkpt>
<trkpt lat="48.899570465088" lon="2.8156871795654"><ele>85</ele><time>2026-5-1T0:42:40Z</time></trkpt>
<trkpt lat="48.899559020996" lon="2.815589427948"><ele>85</ele><time>2026-5-1T0:42:43Z</time></trkpt>
<trkpt lat="48.899547576904" lon="2.8154730796814"><ele>85</ele><time>2026-5-1T0:42:46Z</time></trkpt>
<trkpt lat="48.899532318115" lon="2.8153676986694"><ele>85</ele><time>2026-5-1T0:42:49Z</time></trkpt>
<trkpt lat="48.899520874023" lon="2.8152720928192"><ele>85</ele><time>2026-5-1T0:42:52Z</time></trkpt>
<trkpt lat="48.899509429932" lon="2.81516456604"><ele>85</ele><time>2026-5-1T0:42:55Z</time></trkpt>
<trkpt lat="48.899509429932" lon="2.81516456604"><ele>85</ele><time>2026-5-1T0:42:58Z</time></trkpt>
<trkpt lat="48.899459838867" lon="2.8150243759155"><ele>85</ele><time>2026-5-1T0:43:1Z</time></trkpt>
<trkpt lat="48.899459838867" lon="2.8150243759155"><ele>85</ele><time>2026-5-1T0:43:4Z</time></trkpt>
<trkpt lat="48.899360656738" lon="2.814906835556"><ele>85</ele><time>2026-5-1T0:43:7Z</time></trkpt>
<trkpt lat="48.899284362793" lon="2.8148586750031"><ele>85</ele><time>2026-5-1T0:43:10Z</time></trkpt>
<trkpt lat="48.899215698242" lon="2.8148567676544"><ele>85</ele><time>2026-5-1T0:43:13Z</time></trkpt>
<trkpt lat="48.899215698242" lon="2.8148567676544"><ele>85</ele><time>2026-5-1T0:43:16Z</time></trkpt>
<trkpt lat="48.899150848389" lon="2.8149125576019"><ele>86</ele><time>2026-5-1T0:43:19Z</time></trkpt>
<trkpt lat="48.899150848389" lon="2.8149125576019"><ele>86</ele><time>2026-5-1T0:43:22Z</time></trkpt>
<trkpt lat="48.899066925049" lon="2.8149964809418"><ele>86</ele><time>2026-5-1T0:43:25Z</time></trkpt>
<trkpt lat="48.899036407471" lon="2.8150668144226"><ele>87</ele><time>2026-5-1T0:43:28Z</time></trkpt>
<trkpt lat="48.899036407471" lon="2.8150668144226"><ele>87</ele><time>2026-5-1T0:43:31Z</time></trkpt>
<trkpt lat="48.898983001709" lon="2.8151774406433"><ele>87</ele><time>2026-5-1T0:43:34Z</time></trkpt>
<trkpt lat="48.898983001709" lon="2.8151774406433"><ele>87</ele><time>2026-5-1T0:43:37Z</time></trkpt>
<trkpt lat="48.898929595947" lon="2.8153173923492"><ele>87</ele><time>2026-5-1T0:43:40Z</time></trkpt>
<trkpt lat="48.898891448975" lon="2.815393447876"><ele>87</ele><time>2026-5-1T0:43:43Z</time></trkpt>
<trkpt lat="48.898891448975" lon="2.815393447876"><ele>87</ele><time>2026-5-1T0:43:46Z</time></trkpt>
<trkpt lat="48.898857116699" lon="2.8154649734497"><ele>88</ele><time>2026-5-1T0:43:49Z</time></trkpt>
<trkpt lat="48.898818969727" lon="2.8155355453491"><ele>89</ele><time>2026-5-1T0:43:52Z</time></trkpt>
<trkpt lat="48.898780822754" lon="2.8156168460846"><ele>89</ele><time>2026-5-1T0:43:55Z</time></trkpt>
<trkpt lat="48.898742675781" lon="2.8157188892365"><ele>90</ele><time>2026-5-1T0:43:58Z</time></trkpt>
<trkpt lat="48.8987159729" lon="2.8158051967621"><ele>91</ele><time>2026-5-1T0:44:1Z</time></trkpt>
<trkpt lat="48.898643493652" lon="2.8159792423248"><ele>91</ele><time>2026-5-1T0:44:4Z</time></trkpt>
<trkpt lat="48.898597717285" lon="2.816059589386"><ele>92</ele><time>2026-5-1T0:44:7Z</time></trkpt>
<trkpt lat="48.898567199707" lon="2.8161418437958"><ele>92</ele><time>2026-5-1T0:44:10Z</time></trkpt>
<trkpt lat="48.898567199707" lon="2.8161418437958"><ele>92</ele><time>2026-5-1T0:44:13Z</time></trkpt>
<trkpt lat="48.898525238037" lon="2.8163084983826"><ele>93</ele><time>2026-5-1T0:44:16Z</time></trkpt>
<trkpt lat="48.898483276367" lon="2.8164005279541"><ele>93</ele><time>2026-5-1T0:44:19Z</time></trkpt>
<trkpt lat="48.898483276367" lon="2.8164005279541"><ele>93</ele><time>2026-5-1T0:44:22Z</time></trkpt>
<trkpt lat="48.8984375" lon="2.8164834976196"><ele>93</ele><time>2026-5-1T0:44:25Z</time></trkpt>
<trkpt lat="48.898368835449" lon="2.8165698051453"><ele>93</ele><time>2026-5-1T0:44:28Z</time></trkpt>
<trkpt lat="48.898319244385" lon="2.8166325092316"><ele>93</ele><time>2026-5-1T0:44:31Z</time></trkpt>
<trkpt lat="48.898281097412" lon="2.8167326450348"><ele>93</ele><time>2026-5-1T0:44:34Z</time></trkpt>
<trkpt lat="48.898258209229" lon="2.8168158531189"><ele>93</ele><time>2026-5-1T0:44:37Z</time></trkpt>
<trkpt lat="48.898258209229" lon="2.8168158531189"><ele>93</ele><time>2026-5-1T0:44:40Z</time></trkpt>
<trkpt lat="48.898208618164" lon="2.8169648647308"><ele>93</ele><time>2026-5-1T0:44:43Z</time></trkpt>
<trkpt lat="48.898166656494" lon="2.8170728683472"><ele>93</ele><time>2026-5-1T0:44:46Z</time></trkpt>
<trkpt lat="48.898132324219" lon="2.8171710968018"><ele>94</ele><time>2026-5-1T0:44:49Z</time></trkpt>
<trkpt lat="48.898094177246" lon="2.8172650337219"><ele>94</ele><time>2026-5-1T0:44:52Z</time></trkpt>
<trkpt lat="48.898048400879" lon="2.8173499107361"><ele>94</ele><time>2026-5-1T0:44:55Z</time></trkpt>
<trkpt lat="48.898010253906" lon="2.8174135684967"><ele>94</ele><time>2026-5-1T0:44:58Z</time></trkpt>
<trkpt lat="48.897964477539" lon="2.8174810409546"><ele>95</ele><time>2026-5-1T0:45:1Z</time></trkpt>
<trkpt lat="48.897911071777" lon="2.817565202713"><ele>95</ele><time>2026-5-1T0:45:4Z</time></trkpt>
<trkpt lat="48.897869110107" lon="2.8176550865173"><ele>95</ele><time>2026-5-1T0:45:7Z</time></trkpt>
<trkpt lat="48.897834777832" lon="2.8177375793457"><ele>96</ele><time>2026-5-1T0:45:10Z</time></trkpt>
<trkpt lat="48.897792816162" lon="2.8177995681763"><ele>96</ele><time>2026-5-1T0:45:13Z</time></trkpt>
<trkpt lat="48.897743225098" lon="2.8178579807281"><ele>96</ele><time>2026-5-1T0:45:16Z</time></trkpt>
<trkpt lat="48.897701263428" lon="2.8179473876953"><ele>96</ele><time>2026-5-1T0:45:19Z</time></trkpt>
<trkpt lat="48.89767074585" lon="2.8180320262909"><ele>97</ele><time>2026-5-1T0:45:22Z</time></trkpt>
<trkpt lat="48.897632598877" lon="2.8181133270264"><ele>97</ele><time>2026-5-1T0:45:25Z</time></trkpt>
<trkpt lat="48.897602081299" lon="2.8181898593903"><ele>97</ele><time>2026-5-1T0:45:28Z</time></trkpt>
<trkpt lat="48.897563934326" lon="2.8182771205902"><ele>97</ele><time>2026-5-1T0:45:31Z</time></trkpt>
<trkpt lat="48.897521972656" lon="2.8183531761169"><ele>97</ele><time>2026-5-1T0:45:34Z</time></trkpt>
<trkpt lat="48.897483825684" lon="2.8184292316437"><ele>96</ele><time>2026-5-1T0:45:37Z</time></trkpt>
<trkpt lat="48.897449493408" lon="2.8185048103333"><ele>96</ele><time>2026-5-1T0:45:40Z</time></trkpt>
<trkpt lat="48.897422790527" lon="2.8185794353485"><ele>95</ele><time>2026-5-1T0:45:43Z</time></trkpt>
<trkpt lat="48.897384643555" lon="2.818687915802"><ele>95</ele><time>2026-5-1T0:45:46Z</time></trkpt>
<trkpt lat="48.897384643555" lon="2.818687915802"><ele>95</ele><time>2026-5-1T0:45:49Z</time></trkpt>
<trkpt lat="48.897319793701" lon="2.8188285827637"><ele>94</ele><time>2026-5-1T0:45:52Z</time></trkpt>
<trkpt lat="48.89729309082" lon="2.8189070224762"><ele>93</ele><time>2026-5-1T0:45:55Z</time></trkpt>
<trkpt lat="48.897266387939" lon="2.8189880847931"><ele>93</ele><time>2026-5-1T0:45:58Z</time></trkpt>
<trkpt lat="48.897266387939" lon="2.8189880847931"><ele>93</ele><time>2026-5-1T0:46:1Z</time></trkpt>
<trkpt lat="48.897201538086" lon="2.8191285133362"><ele>92</ele><time>2026-5-1T0:46:4Z</time></trkpt>
<trkpt lat="48.897167205811" lon="2.8192191123962"><ele>92</ele><time>2026-5-1T0:46:7Z</time></trkpt>
<trkpt lat="48.897125244141" lon="2.8193023204803"><ele>92</ele><time>2026-5-1T0:46:10Z</time></trkpt>
<trkpt lat="48.897079467773" lon="2.819393157959"><ele>92</ele><time>2026-5-1T0:46:13Z</time></trkpt>
<trkpt lat="48.897029876709" lon="2.8194801807404"><ele>91</ele><time>2026-5-1T0:46:16Z</time></trkpt>
<trkpt lat="48.896984100342" lon="2.8195688724518"><ele>91</ele><time>2026-5-1T0:46:19Z</time></trkpt>
<trkpt lat="48.896938323975" lon="2.8196485042572"><ele>91</ele><time>2026-5-1T0:46:22Z</time></trkpt>
<trkpt lat="48.89688873291" lon="2.8197550773621"><ele>91</ele><time>2026-5-1T0:46:25Z</time></trkpt>
<trkpt lat="48.896862030029" lon="2.8198435306549"><ele>91</ele><time>2026-5-1T0:46:28Z</time></trkpt>
<trkpt lat="48.896839141846" lon="2.8199286460876"><ele>91</ele><time>2026-5-1T0:46:31Z</time></trkpt>
<trkpt lat="48.896839141846" lon="2.8199286460876"><ele>91</ele><time>2026-5-1T0:46:34Z</time></trkpt>
<trkpt lat="48.896781921387" lon="2.8200581073761"><ele>92</ele><time>2026-5-1T0:46:37Z</time></trkpt>
<trkpt lat="48.896739959717" lon="2.8201470375061"><ele>92</ele><time>2026-5-1T0:46:40Z</time></trkpt>
<trkpt lat="48.896686553955" lon="2.8202323913574"><ele>92</ele><time>2026-5-1T0:46:43Z</time></trkpt>
<trkpt lat="48.896659851074" lon="2.8203084468842"><ele>92</ele><time>2026-5-1T0:46:46Z</time></trkpt>
<trkpt lat="48.896617889404" lon="2.8203718662262"><ele>92</ele><time>2026-5-1T0:46:49Z</time></trkpt>
<trkpt lat="48.896553039551" lon="2.8205003738403"><ele>92</ele><time>2026-5-1T0:46:52Z</time></trkpt>
<trkpt lat="48.896511077881" lon="2.820604801178"><ele>92</ele><time>2026-5-1T0:46:55Z</time></trkpt>
<trkpt lat="48.896488189697" lon="2.820698261261"><ele>93</ele><time>2026-5-1T0:46:58Z</time></trkpt>
<trkpt lat="48.896488189697" lon="2.820698261261"><ele>93</ele><time>2026-5-1T0:47:1Z</time></trkpt>
<trkpt lat="48.896438598633" lon="2.8208417892456"><ele>93</ele><time>2026-5-1T0:47:4Z</time></trkpt>
<trkpt lat="48.896438598633" lon="2.8208417892456"><ele>93</ele><time>2026-5-1T0:47:7Z</time></trkpt>
<trkpt lat="48.896377563477" lon="2.8209936618805"><ele>93</ele><time>2026-5-1T0:47:10Z</time></trkpt>
<trkpt lat="48.896320343018" lon="2.8210971355438"><ele>93</ele><time>2026-5-1T0:47:13Z</time></trkpt>
<trkpt lat="48.896320343018" lon="2.8210971355438"><ele>93</ele><time>2026-5-1T0:47:16Z</time></trkpt>
<trkpt lat="48.89624786377" lon="2.821257352829"><ele>93</ele><time>2026-5-1T0:47:19Z</time></trkpt>
<trkpt lat="48.8962059021" lon="2.8213407993317"><ele>93</ele><time>2026-5-1T0:47:22Z</time></trkpt>
<trkpt lat="48.8962059021" lon="2.8213407993317"><ele>93</ele><time>2026-5-1T0:47:25Z</time></trkpt>
<trkpt lat="48.896133422852" lon="2.821469783783"><ele>93</ele><time>2026-5-1T0:47:28Z</time></trkpt>
<trkpt lat="48.896133422852" lon="2.821469783783"><ele>93</ele><time>2026-5-1T0:47:31Z</time></trkpt>
<trkpt lat="48.89603805542" lon="2.8216009140015"><ele>93</ele><time>2026-5-1T0:47:34Z</time></trkpt>
<trkpt lat="48.895992279053" lon="2.8217010498047"><ele>93</ele><time>2026-5-1T0:47:37Z</time></trkpt>
<trkpt lat="48.89595413208" lon="2.821784734726"><ele>93</ele><time>2026-5-1T0:47:40Z</time></trkpt>
<trkpt lat="48.895904541016" lon="2.8218877315521"><ele>93</ele><time>2026-5-1T0:47:43Z</time></trkpt>
<trkpt lat="48.895847320557" lon="2.8220045566559"><ele>93</ele><time>2026-5-1T0:47:46Z</time></trkpt>
<trkpt lat="48.895797729492" lon="2.8220975399017"><ele>94</ele><time>2026-5-1T0:47:49Z</time></trkpt>
<trkpt lat="48.895751953125" lon="2.822173833847"><ele>94</ele><time>2026-5-1T0:47:52Z</time></trkpt>
<trkpt lat="48.89571762085" lon="2.8222467899323"><ele>94</ele><time>2026-5-1T0:47:55Z</time></trkpt>
<trkpt lat="48.895671844482" lon="2.8223397731781"><ele>95</ele><time>2026-5-1T0:47:58Z</time></trkpt>
<trkpt lat="48.895637512207" lon="2.8224318027496"><ele>95</ele><time>2026-5-1T0:48:1Z</time></trkpt>
<trkpt lat="48.895599365234" lon="2.8225166797638"><ele>96</ele><time>2026-5-1T0:48:4Z</time></trkpt>
<trkpt lat="48.895519256592" lon="2.8226461410522"><ele>96</ele><time>2026-5-1T0:48:7Z</time></trkpt>
<trkpt lat="48.895469665527" lon="2.8227255344391"><ele>97</ele><time>2026-5-1T0:48:10Z</time></trkpt>
<trkpt lat="48.895427703857" lon="2.8227980136871"><ele>97</ele><time>2026-5-1T0:48:13Z</time></trkpt>
<trkpt lat="48.895378112793" lon="2.8228712081909"><ele>98</ele><time>2026-5-1T0:48:16Z</time></trkpt>
<trkpt lat="48.895320892334" lon="2.8229608535767"><ele>99</ele><time>2026-5-1T0:48:19Z</time></trkpt>
<trkpt lat="48.895267486572" lon="2.8230488300323"><ele>99</ele><time>2026-5-1T0:48:22Z</time></trkpt>
<trkpt lat="48.895225524902" lon="2.8231201171875"><ele>99</ele><time>2026-5-1T0:48:25Z</time></trkpt>
<trkpt lat="48.895225524902" lon="2.8231201171875"><ele>99</ele><time>2026-5-1T0:48:28Z</time></trkpt>
<trkpt lat="48.895160675049" lon="2.8232743740082"><ele>100</ele><time>2026-5-1T0:48:31Z</time></trkpt>
<trkpt lat="48.895130157471" lon="2.8233470916748"><ele>100</ele><time>2026-5-1T0:48:34Z</time></trkpt>
<trkpt lat="48.895095825195" lon="2.8234403133392"><ele>100</ele><time>2026-5-1T0:48:37Z</time></trkpt>
<trkpt lat="48.895069122314" lon="2.8235421180725"><ele>100</ele><time>2026-5-1T0:48:40Z</time></trkpt>
<trkpt lat="48.895034790039" lon="2.8236441612244"><ele>100</ele><time>2026-5-1T0:48:43Z</time></trkpt>
<trkpt lat="48.894989013672" lon="2.8237612247467"><ele>100</ele><time>2026-5-1T0:48:46Z</time></trkpt>
<trkpt lat="48.894939422607" lon="2.8238713741302"><ele>100</ele><time>2026-5-1T0:48:49Z</time></trkpt>
<trkpt lat="48.894897460938" lon="2.8239512443542"><ele>100</ele><time>2026-5-1T0:48:52Z</time></trkpt>
<trkpt lat="48.89485168457" lon="2.8240478038788"><ele>100</ele><time>2026-5-1T0:48:55Z</time></trkpt>
<trkpt lat="48.894802093506" lon="2.8241486549377"><ele>100</ele><time>2026-5-1T0:48:58Z</time></trkpt>
<trkpt lat="48.894752502441" lon="2.824257850647"><ele>99</ele><time>2026-5-1T0:49:1Z</time></trkpt>
<trkpt lat="48.894710540771" lon="2.8243525028229"><ele>99</ele><time>2026-5-1T0:49:4Z</time></trkpt>
<trkpt lat="48.89465713501" lon="2.8244631290436"><ele>98</ele><time>2026-5-1T0:49:7Z</time></trkpt>
<trkpt lat="48.894607543945" lon="2.8245961666107"><ele>97</ele><time>2026-5-1T0:49:10Z</time></trkpt>
<trkpt lat="48.894554138184" lon="2.8247215747833"><ele>97</ele><time>2026-5-1T0:49:13Z</time></trkpt>
<trkpt lat="48.894515991211" lon="2.8248181343079"><ele>97</ele><time>2026-5-1T0:49:16Z</time></trkpt>
<trkpt lat="48.894466400146" lon="2.8249475955963"><ele>97</ele><time>2026-5-1T0:49:19Z</time></trkpt>
<trkpt lat="48.894420623779" lon="2.8250608444214"><ele>97</ele><time>2026-5-1T0:49:22Z</time></trkpt>
<trkpt lat="48.89436340332" lon="2.8251478672028"><ele>96</ele><time>2026-5-1T0:49:25Z</time></trkpt>
<trkpt lat="48.894309997559" lon="2.8252151012421"><ele>96</ele><time>2026-5-1T0:49:28Z</time></trkpt>
<trkpt lat="48.894309997559" lon="2.8252151012421"><ele>96</ele><time>2026-5-1T0:49:31Z</time></trkpt>
<trkpt lat="48.894268035889" lon="2.8252730369568"><ele>96</ele><time>2026-5-1T0:49:34Z</time></trkpt>
<trkpt lat="48.894218444824" lon="2.8253638744354"><ele>96</ele><time>2026-5-1T0:49:37Z</time></trkpt>
<trkpt lat="48.894172668457" lon="2.825469493866"><ele>95</ele><time>2026-5-1T0:49:40Z</time></trkpt>
<trkpt lat="48.894172668457" lon="2.825469493866"><ele>95</ele><time>2026-5-1T0:49:43Z</time></trkpt>
<trkpt lat="48.894119262695" lon="2.8255684375763"><ele>95</ele><time>2026-5-1T0:49:46Z</time></trkpt>
<trkpt lat="48.894058227539" lon="2.8256623744965"><ele>95</ele><time>2026-5-1T0:49:49Z</time></trkpt>
<trkpt lat="48.894020080566" lon="2.8257465362549"><ele>96</ele><time>2026-5-1T0:49:52Z</time></trkpt>
<trkpt lat="48.894020080566" lon="2.8257465362549"><ele>96</ele><time>2026-5-1T0:49:55Z</time></trkpt>
<trkpt lat="48.893985748291" lon="2.8258211612701"><ele>96</ele><time>2026-5-1T0:49:58Z</time></trkpt>
<trkpt lat="48.893920898438" lon="2.8259751796722"><ele>96</ele><time>2026-5-1T0:50:1Z</time></trkpt>
<trkpt lat="48.893920898438" lon="2.8259751796722"><ele>96</ele><time>2026-5-1T0:50:4Z</time></trkpt>
<trkpt lat="48.89387512207" lon="2.8260691165924"><ele>96</ele><time>2026-5-1T0:50:7Z</time></trkpt>
<trkpt lat="48.8938331604" lon="2.8261783123016"><ele>97</ele><time>2026-5-1T0:50:10Z</time></trkpt>
<trkpt lat="48.8938331604" lon="2.8261783123016"><ele>97</ele><time>2026-5-1T0:50:13Z</time></trkpt>
<trkpt lat="48.8938331604" lon="2.8261783123016"><ele>97</ele><time>2026-5-1T0:50:16Z</time></trkpt>
<trkpt lat="48.893787384033" lon="2.826308965683"><ele>97</ele><time>2026-5-1T0:50:19Z</time></trkpt>
<trkpt lat="48.893787384033" lon="2.826308965683"><ele>97</ele><time>2026-5-1T0:50:22Z</time></trkpt>
<trkpt lat="48.893718719482" lon="2.8264400959015"><ele>97</ele><time>2026-5-1T0:50:25Z</time></trkpt>
<trkpt lat="48.893718719482" lon="2.8264400959015"><ele>97</ele><time>2026-5-1T0:50:28Z</time></trkpt>
<trkpt lat="48.893688201904" lon="2.8265316486359"><ele>98</ele><time>2026-5-1T0:50:31Z</time></trkpt>
<trkpt lat="48.893688201904" lon="2.8265316486359"><ele>98</ele><time>2026-5-1T0:50:34Z</time></trkpt>
<trkpt lat="48.893650054932" lon="2.826643705368"><ele>98</ele><time>2026-5-1T0:50:37Z</time></trkpt>
<trkpt lat="48.893650054932" lon="2.826643705368"><ele>98</ele><time>2026-5-1T0:50:40Z</time></trkpt>
<trkpt lat="48.893650054932" lon="2.826643705368"><ele>98</ele><time>2026-5-1T0:50:43Z</time></trkpt>
<trkpt lat="48.893650054932" lon="2.826643705368"><ele>98</ele><time>2026-5-1T0:50:46Z</time></trkpt>
<trkpt lat="48.893650054932" lon="2.826643705368"><ele>98</ele><time>2026-5-1T0:50:49Z</time></trkpt>
<trkpt lat="48.893650054932" lon="2.826643705368"><ele>98</ele><time>2026-5-1T0:50:52Z</time></trkpt>
<trkpt lat="48.893650054932" lon="2.826643705368"><ele>98</ele><time>2026-5-1T0:50:55Z</time></trkpt>
<trkpt lat="48.893650054932" lon="2.826643705368"><ele>98</ele><time>2026-5-1T0:50:58Z</time></trkpt>
<trkpt lat="48.893650054932" lon="2.826643705368"><ele>98</ele><time>2026-5-1T0:51:1Z</time></trkpt>
<trkpt lat="48.89351272583" lon="2.826607465744"><ele>96</ele><time>2026-5-1T0:51:4Z</time></trkpt>
<trkpt lat="48.89351272583" lon="2.826607465744"><ele>96</ele><time>2026-5-1T0:51:7Z</time></trkpt>
<trkpt lat="48.89351272583" lon="2.826607465744"><ele>96</ele><time>2026-5-1T0:51:10Z</time></trkpt>
<trkpt lat="48.893432617188" lon="2.8265657424927"><ele>96</ele><time>2026-5-1T0:51:13Z</time></trkpt>
<trkpt lat="48.893432617188" lon="2.8265657424927"><ele>96</ele><time>2026-5-1T0:51:16Z</time></trkpt>
<trkpt lat="48.893329620361" lon="2.8265414237976"><ele>96</ele><time>2026-5-1T0:51:19Z</time></trkpt>
<trkpt lat="48.893215179443" lon="2.8266077041626"><ele>95</ele><time>2026-5-1T0:51:22Z</time></trkpt>
<trkpt lat="48.893215179443" lon="2.8266077041626"><ele>95</ele><time>2026-5-1T0:51:25Z</time></trkpt>
<trkpt lat="48.893154144287" lon="2.8267440795898"><ele>95</ele><time>2026-5-1T0:51:28Z</time></trkpt>
<trkpt lat="48.893123626709" lon="2.8269355297089"><ele>95</ele><time>2026-5-1T0:51:31Z</time></trkpt>
<trkpt lat="48.893070220947" lon="2.8270921707153"><ele>94</ele><time>2026-5-1T0:51:34Z</time></trkpt>
<trkpt lat="48.893070220947" lon="2.8270921707153"><ele>94</ele><time>2026-5-1T0:51:37Z</time></trkpt>
<trkpt lat="48.893028259277" lon="2.8272037506104"><ele>94</ele><time>2026-5-1T0:51:40Z</time></trkpt>
<trkpt lat="48.89298248291" lon="2.8273334503174"><ele>94</ele><time>2026-5-1T0:51:43Z</time></trkpt>
<trkpt lat="48.892951965332" lon="2.8274209499359"><ele>94</ele><time>2026-5-1T0:51:46Z</time></trkpt>
<trkpt lat="48.892951965332" lon="2.8274209499359"><ele>94</ele><time>2026-5-1T0:51:49Z</time></trkpt>
<trkpt lat="48.892913818359" lon="2.8275229930878"><ele>94</ele><time>2026-5-1T0:51:52Z</time></trkpt>
<trkpt lat="48.892868041992" lon="2.8276240825653"><ele>94</ele><time>2026-5-1T0:51:55Z</time></trkpt>
<trkpt lat="48.892833709717" lon="2.8277204036713"><ele>94</ele><time>2026-5-1T0:51:58Z</time></trkpt>
<trkpt lat="48.892833709717" lon="2.8277204036713"><ele>94</ele><time>2026-5-1T0:52:1Z</time></trkpt>
<trkpt lat="48.89278793335" lon="2.8278095722198"><ele>94</ele><time>2026-5-1T0:52:4Z</time></trkpt>
<trkpt lat="48.89274597168" lon="2.8278841972351"><ele>94</ele><time>2026-5-1T0:52:7Z</time></trkpt>
<trkpt lat="48.89270401001" lon="2.8279664516449"><ele>95</ele><time>2026-5-1T0:52:10Z</time></trkpt>
<trkpt lat="48.89270401001" lon="2.8279664516449"><ele>95</ele><time>2026-5-1T0:52:13Z</time></trkpt>
<trkpt lat="48.892658233643" lon="2.8280684947968"><ele>95</ele><time>2026-5-1T0:52:16Z</time></trkpt>
<trkpt lat="48.892604827881" lon="2.8281762599945"><ele>95</ele><time>2026-5-1T0:52:19Z</time></trkpt>
<trkpt lat="48.892551422119" lon="2.8282811641693"><ele>95</ele><time>2026-5-1T0:52:22Z</time></trkpt>
<trkpt lat="48.892551422119" lon="2.8282811641693"><ele>95</ele><time>2026-5-1T0:52:25Z</time></trkpt>
<trkpt lat="48.892517089844" lon="2.8283658027649"><ele>95</ele><time>2026-5-1T0:52:28Z</time></trkpt>
<trkpt lat="48.892482757568" lon="2.8284394741058"><ele>96</ele><time>2026-5-1T0:52:31Z</time></trkpt>
<trkpt lat="48.892436981201" lon="2.8285202980042"><ele>96</ele><time>2026-5-1T0:52:34Z</time></trkpt>
<trkpt lat="48.892395019531" lon="2.8286194801331"><ele>96</ele><time>2026-5-1T0:52:37Z</time></trkpt>
<trkpt lat="48.892349243164" lon="2.8287224769592"><ele>96</ele><time>2026-5-1T0:52:40Z</time></trkpt>
<trkpt lat="48.892314910889" lon="2.8288004398346"><ele>96</ele><time>2026-5-1T0:52:43Z</time></trkpt>
<trkpt lat="48.892314910889" lon="2.8288004398346"><ele>96</ele><time>2026-5-1T0:52:46Z</time></trkpt>
<trkpt lat="48.892272949219" lon="2.8288850784302"><ele>96</ele><time>2026-5-1T0:52:49Z</time></trkpt>
<trkpt lat="48.892238616943" lon="2.8289632797241"><ele>95</ele><time>2026-5-1T0:52:52Z</time></trkpt>
<trkpt lat="48.892200469971" lon="2.8290505409241"><ele>96</ele><time>2026-5-1T0:52:55Z</time></trkpt>
<trkpt lat="48.892200469971" lon="2.8290505409241"><ele>96</ele><time>2026-5-1T0:52:58Z</time></trkpt>
<trkpt lat="48.892158508301" lon="2.8291549682617"><ele>96</ele><time>2026-5-1T0:53:1Z</time></trkpt>
<trkpt lat="48.892116546631" lon="2.8292665481567"><ele>96</ele><time>2026-5-1T0:53:4Z</time></trkpt>
<trkpt lat="48.892074584961" lon="2.8293466567993"><ele>96</ele><time>2026-5-1T0:53:7Z</time></trkpt>
<trkpt lat="48.892074584961" lon="2.8293466567993"><ele>96</ele><time>2026-5-1T0:53:10Z</time></trkpt>
<trkpt lat="48.892013549805" lon="2.8294477462769"><ele>96</ele><time>2026-5-1T0:53:13Z</time></trkpt>
<trkpt lat="48.89196395874" lon="2.8295364379883"><ele>97</ele><time>2026-5-1T0:53:16Z</time></trkpt>
<trkpt lat="48.89192199707" lon="2.8296134471893"><ele>97</ele><time>2026-5-1T0:53:19Z</time></trkpt>
<trkpt lat="48.89192199707" lon="2.8296134471893"><ele>97</ele><time>2026-5-1T0:53:22Z</time></trkpt>
<trkpt lat="48.891876220703" lon="2.8297066688538"><ele>97</ele><time>2026-5-1T0:53:25Z</time></trkpt>
<trkpt lat="48.891841888428" lon="2.8298013210297"><ele>97</ele><time>2026-5-1T0:53:28Z</time></trkpt>
<trkpt lat="48.891780853271" lon="2.829934835434"><ele>97</ele><time>2026-5-1T0:53:31Z</time></trkpt>
<trkpt lat="48.891780853271" lon="2.829934835434"><ele>97</ele><time>2026-5-1T0:53:34Z</time></trkpt>
<trkpt lat="48.89172744751" lon="2.8300411701202"><ele>96</ele><time>2026-5-1T0:53:37Z</time></trkpt>
<trkpt lat="48.891666412354" lon="2.8301365375519"><ele>96</ele><time>2026-5-1T0:53:40Z</time></trkpt>
<trkpt lat="48.8916015625" lon="2.830249786377"><ele>96</ele><time>2026-5-1T0:53:43Z</time></trkpt>
<trkpt lat="48.8916015625" lon="2.830249786377"><ele>96</ele><time>2026-5-1T0:53:46Z</time></trkpt>
<trkpt lat="48.891548156738" lon="2.8303678035736"><ele>95</ele><time>2026-5-1T0:53:49Z</time></trkpt>
<trkpt lat="48.891498565674" lon="2.8304681777954"><ele>95</ele><time>2026-5-1T0:53:52Z</time></trkpt>
<trkpt lat="48.891441345215" lon="2.8305585384369"><ele>95</ele><time>2026-5-1T0:53:55Z</time></trkpt>
<trkpt lat="48.891441345215" lon="2.8305585384369"><ele>95</ele><time>2026-5-1T0:53:58Z</time></trkpt>
<trkpt lat="48.89139175415" lon="2.8306691646576"><ele>95</ele><time>2026-5-1T0:54:1Z</time></trkpt>
<trkpt lat="48.891342163086" lon="2.8307693004608"><ele>95</ele><time>2026-5-1T0:54:4Z</time></trkpt>
<trkpt lat="48.891292572021" lon="2.830851316452"><ele>95</ele><time>2026-5-1T0:54:7Z</time></trkpt>
<trkpt lat="48.891292572021" lon="2.830851316452"><ele>95</ele><time>2026-5-1T0:54:10Z</time></trkpt>
<trkpt lat="48.891292572021" lon="2.830851316452"><ele>95</ele><time>2026-5-1T0:54:13Z</time></trkpt>
<trkpt lat="48.891220092773" lon="2.8309898376465"><ele>95</ele><time>2026-5-1T0:54:16Z</time></trkpt>
<trkpt lat="48.891185760498" lon="2.8310806751251"><ele>94</ele><time>2026-5-1T0:54:19Z</time></trkpt>
<trkpt lat="48.891185760498" lon="2.8310806751251"><ele>94</ele><time>2026-5-1T0:54:22Z</time></trkpt>
<trkpt lat="48.891151428223" lon="2.8311874866486"><ele>94</ele><time>2026-5-1T0:54:25Z</time></trkpt>
<trkpt lat="48.891105651855" lon="2.8312873840332"><ele>94</ele><time>2026-5-1T0:54:28Z</time></trkpt>
<trkpt lat="48.891048431396" lon="2.8313970565796"><ele>94</ele><time>2026-5-1T0:54:31Z</time></trkpt>
<trkpt lat="48.891002655029" lon="2.83149766922"><ele>94</ele><time>2026-5-1T0:54:34Z</time></trkpt>
<trkpt lat="48.890964508057" lon="2.8315937519073"><ele>94</ele><time>2026-5-1T0:54:37Z</time></trkpt>
<trkpt lat="48.890918731689" lon="2.8316826820374"><ele>94</ele><time>2026-5-1T0:54:40Z</time></trkpt>
<trkpt lat="48.89087677002" lon="2.8317804336548"><ele>94</ele><time>2026-5-1T0:54:43Z</time></trkpt>
<trkpt lat="48.890838623047" lon="2.83185505867"><ele>94</ele><time>2026-5-1T0:54:46Z</time></trkpt>
<trkpt lat="48.890785217285" lon="2.831951379776"><ele>93</ele><time>2026-5-1T0:54:49Z</time></trkpt>
<trkpt lat="48.890785217285" lon="2.831951379776"><ele>93</ele><time>2026-5-1T0:54:52Z</time></trkpt>
<trkpt lat="48.890747070312" lon="2.8320229053497"><ele>93</ele><time>2026-5-1T0:54:55Z</time></trkpt>
<trkpt lat="48.890712738037" lon="2.8321044445038"><ele>93</ele><time>2026-5-1T0:54:58Z</time></trkpt>
<trkpt lat="48.890682220459" lon="2.832188129425"><ele>93</ele><time>2026-5-1T0:55:1Z</time></trkpt>
<trkpt lat="48.890682220459" lon="2.832188129425"><ele>93</ele><time>2026-5-1T0:55:4Z</time></trkpt>
<trkpt lat="48.890682220459" lon="2.832188129425"><ele>93</ele><time>2026-5-1T0:55:7Z</time></trkpt>
<trkpt lat="48.890609741211" lon="2.8323500156403"><ele>93</ele><time>2026-5-1T0:55:10Z</time></trkpt>
<trkpt lat="48.890571594238" lon="2.8324611186981"><ele>93</ele><time>2026-5-1T0:55:13Z</time></trkpt>
<trkpt lat="48.890571594238" lon="2.8324611186981"><ele>93</ele><time>2026-5-1T0:55:16Z</time></trkpt>
<trkpt lat="48.890537261963" lon="2.8325579166412"><ele>93</ele><time>2026-5-1T0:55:19Z</time></trkpt>
<trkpt lat="48.890483856201" lon="2.832629442215"><ele>93</ele><time>2026-5-1T0:55:22Z</time></trkpt>
<trkpt lat="48.890422821045" lon="2.8326694965363"><ele>93</ele><time>2026-5-1T0:55:25Z</time></trkpt>
<trkpt lat="48.890422821045" lon="2.8326694965363"><ele>93</ele><time>2026-5-1T0:55:28Z</time></trkpt>
<trkpt lat="48.890422821045" lon="2.8326694965363"><ele>93</ele><time>2026-5-1T0:55:31Z</time></trkpt>
<trkpt lat="48.890316009521" lon="2.8327353000641"><ele>94</ele><time>2026-5-1T0:55:34Z</time></trkpt>
<trkpt lat="48.890316009521" lon="2.8327353000641"><ele>94</ele><time>2026-5-1T0:55:37Z</time></trkpt>
<trkpt lat="48.890316009521" lon="2.8327353000641"><ele>94</ele><time>2026-5-1T0:55:40Z</time></trkpt>
<trkpt lat="48.890224456787" lon="2.8328664302826"><ele>94</ele><time>2026-5-1T0:55:43Z</time></trkpt>
<trkpt lat="48.890171051025" lon="2.8329699039459"><ele>94</ele><time>2026-5-1T0:55:46Z</time></trkpt>
<trkpt lat="48.890129089355" lon="2.8330698013306"><ele>94</ele><time>2026-5-1T0:55:49Z</time></trkpt>
<trkpt lat="48.890129089355" lon="2.8330698013306"><ele>94</ele><time>2026-5-1T0:55:52Z</time></trkpt>
<trkpt lat="48.89009475708" lon="2.8331787586212"><ele>94</ele><time>2026-5-1T0:55:55Z</time></trkpt>
<trkpt lat="48.890064239502" lon="2.8332908153534"><ele>94</ele><time>2026-5-1T0:55:58Z</time></trkpt>
<trkpt lat="48.890029907227" lon="2.8333830833435"><ele>94</ele><time>2026-5-1T0:56:1Z</time></trkpt>
<trkpt lat="48.890029907227" lon="2.8333830833435"><ele>94</ele><time>2026-5-1T0:56:4Z</time></trkpt>
<trkpt lat="48.889999389648" lon="2.8334786891937"><ele>94</ele><time>2026-5-1T0:56:7Z</time></trkpt>
<trkpt lat="48.889972686768" lon="2.8335740566254"><ele>94</ele><time>2026-5-1T0:56:10Z</time></trkpt>
<trkpt lat="48.889945983887" lon="2.8336646556854"><ele>94</ele><time>2026-5-1T0:56:13Z</time></trkpt>
<trkpt lat="48.889945983887" lon="2.8336646556854"><ele>94</ele><time>2026-5-1T0:56:16Z</time></trkpt>
<trkpt lat="48.889904022217" lon="2.8337640762329"><ele>95</ele><time>2026-5-1T0:56:19Z</time></trkpt>
<trkpt lat="48.889862060547" lon="2.8338799476624"><ele>95</ele><time>2026-5-1T0:56:22Z</time></trkpt>
<trkpt lat="48.88981628418" lon="2.8340029716492"><ele>95</ele><time>2026-5-1T0:56:25Z</time></trkpt>
<trkpt lat="48.88981628418" lon="2.8340029716492"><ele>95</ele><time>2026-5-1T0:56:28Z</time></trkpt>
<trkpt lat="48.889766693115" lon="2.8341364860535"><ele>95</ele><time>2026-5-1T0:56:31Z</time></trkpt>
<trkpt lat="48.889701843262" lon="2.8342022895813"><ele>94</ele><time>2026-5-1T0:56:34Z</time></trkpt>
<trkpt lat="48.889633178711" lon="2.8341748714447"><ele>94</ele><time>2026-5-1T0:56:37Z</time></trkpt>
<trkpt lat="48.889633178711" lon="2.8341748714447"><ele>94</ele><time>2026-5-1T0:56:40Z</time></trkpt>
<trkpt lat="48.889575958252" lon="2.8341267108917"><ele>94</ele><time>2026-5-1T0:56:43Z</time></trkpt>
<trkpt lat="48.889503479004" lon="2.8340606689453"><ele>94</ele><time>2026-5-1T0:56:46Z</time></trkpt>
<trkpt lat="48.889419555664" lon="2.8339915275574"><ele>95</ele><time>2026-5-1T0:56:49Z</time></trkpt>
<trkpt lat="48.889419555664" lon="2.8339915275574"><ele>95</ele><time>2026-5-1T0:56:52Z</time></trkpt>
<trkpt lat="48.889354705811" lon="2.8339366912842"><ele>95</ele><time>2026-5-1T0:56:55Z</time></trkpt>
<trkpt lat="48.889293670654" lon="2.833881855011"><ele>95</ele><time>2026-5-1T0:56:58Z</time></trkpt>
<trkpt lat="48.889225006104" lon="2.8338208198547"><ele>95</ele><time>2026-5-1T0:57:1Z</time></trkpt>
<trkpt lat="48.889225006104" lon="2.8338208198547"><ele>95</ele><time>2026-5-1T0:57:4Z</time></trkpt>
<trkpt lat="48.889144897461" lon="2.833758354187"><ele>96</ele><time>2026-5-1T0:57:7Z</time></trkpt>
<trkpt lat="48.889060974121" lon="2.8337037563324"><ele>95</ele><time>2026-5-1T0:57:10Z</time></trkpt>
<trkpt lat="48.888977050781" lon="2.8336508274078"><ele>95</ele><time>2026-5-1T0:57:13Z</time></trkpt>
<trkpt lat="48.888977050781" lon="2.8336508274078"><ele>95</ele><time>2026-5-1T0:57:16Z</time></trkpt>
<trkpt lat="48.888900756836" lon="2.8335983753204"><ele>94</ele><time>2026-5-1T0:57:19Z</time></trkpt>
<trkpt lat="48.888828277588" lon="2.8335433006287"><ele>94</ele><time>2026-5-1T0:57:22Z</time></trkpt>
<trkpt lat="48.888759613037" lon="2.8334934711456"><ele>94</ele><time>2026-5-1T0:57:25Z</time></trkpt>
<trkpt lat="48.888759613037" lon="2.8334934711456"><ele>94</ele><time>2026-5-1T0:57:28Z</time></trkpt>
<trkpt lat="48.888694763184" lon="2.8334484100342"><ele>94</ele><time>2026-5-1T0:57:31Z</time></trkpt>
<trkpt lat="48.88862991333" lon="2.8334031105042"><ele>94</ele><time>2026-5-1T0:57:34Z</time></trkpt>
<trkpt lat="48.888568878174" lon="2.8333554267883"><ele>94</ele><time>2026-5-1T0:57:37Z</time></trkpt>
<trkpt lat="48.888568878174" lon="2.8333554267883"><ele>94</ele><time>2026-5-1T0:57:40Z</time></trkpt>
<trkpt lat="48.88850402832" lon="2.8333106040955"><ele>94</ele><time>2026-5-1T0:57:43Z</time></trkpt>
<trkpt lat="48.888442993164" lon="2.8332743644714"><ele>93</ele><time>2026-5-1T0:57:46Z</time></trkpt>
<trkpt lat="48.888378143311" lon="2.8332316875458"><ele>93</ele><time>2026-5-1T0:57:49Z</time></trkpt>
<trkpt lat="48.888378143311" lon="2.8332316875458"><ele>93</ele><time>2026-5-1T0:57:52Z</time></trkpt>
<trkpt lat="48.888324737549" lon="2.833190202713"><ele>93</ele><time>2026-5-1T0:57:55Z</time></trkpt>
<trkpt lat="48.888263702393" lon="2.8331470489502"><ele>93</ele><time>2026-5-1T0:57:58Z</time></trkpt>
<trkpt lat="48.888210296631" lon="2.8331093788147"><ele>93</ele><time>2026-5-1T0:58:1Z</time></trkpt>
<trkpt lat="48.888156890869" lon="2.8330819606781"><ele>94</ele><time>2026-5-1T0:58:4Z</time></trkpt>
<trkpt lat="48.888156890869" lon="2.8330819606781"><ele>94</ele><time>2026-5-1T0:58:7Z</time></trkpt>
<trkpt lat="48.888046264648" lon="2.8330619335175"><ele>94</ele><time>2026-5-1T0:58:10Z</time></trkpt>
<trkpt lat="48.888000488281" lon="2.8331170082092"><ele>94</ele><time>2026-5-1T0:58:13Z</time></trkpt>
<trkpt lat="48.887962341309" lon="2.8331954479218"><ele>94</ele><time>2026-5-1T0:58:16Z</time></trkpt>
<trkpt lat="48.887912750244" lon="2.8332901000977"><ele>94</ele><time>2026-5-1T0:58:19Z</time></trkpt>
<trkpt lat="48.887870788574" lon="2.833395242691"><ele>94</ele><time>2026-5-1T0:58:22Z</time></trkpt>
<trkpt lat="48.887832641602" lon="2.8335132598877"><ele>94</ele><time>2026-5-1T0:58:25Z</time></trkpt>
<trkpt lat="48.887802124023" lon="2.8336193561554"><ele>94</ele><time>2026-5-1T0:58:28Z</time></trkpt>
<trkpt lat="48.887763977051" lon="2.8337557315826"><ele>94</ele><time>2026-5-1T0:58:31Z</time></trkpt>
<trkpt lat="48.887725830078" lon="2.8338878154755"><ele>95</ele><time>2026-5-1T0:58:34Z</time></trkpt>
<trkpt lat="48.887702941895" lon="2.8340151309967"><ele>95</ele><time>2026-5-1T0:58:37Z</time></trkpt>
<trkpt lat="48.887668609619" lon="2.8341324329376"><ele>96</ele><time>2026-5-1T0:58:40Z</time></trkpt>
<trkpt lat="48.887619018555" lon="2.8342761993408"><ele>96</ele><time>2026-5-1T0:58:43Z</time></trkpt>
<trkpt lat="48.887577056885" lon="2.8344171047211"><ele>96</ele><time>2026-5-1T0:58:46Z</time></trkpt>
<trkpt lat="48.887535095215" lon="2.8345384597778"><ele>96</ele><time>2026-5-1T0:58:49Z</time></trkpt>
<trkpt lat="48.887496948242" lon="2.834676027298"><ele>96</ele><time>2026-5-1T0:58:52Z</time></trkpt>
<trkpt lat="48.887447357178" lon="2.8348286151886"><ele>96</ele><time>2026-5-1T0:58:55Z</time></trkpt>
<trkpt lat="48.887393951416" lon="2.8349709510803"><ele>97</ele><time>2026-5-1T0:58:58Z</time></trkpt>
<trkpt lat="48.887348175049" lon="2.8350992202759"><ele>98</ele><time>2026-5-1T0:59:1Z</time></trkpt>
<trkpt lat="48.887306213379" lon="2.8352243900299"><ele>99</ele><time>2026-5-1T0:59:4Z</time></trkpt>
<trkpt lat="48.887268066406" lon="2.835348367691"><ele>100</ele><time>2026-5-1T0:59:7Z</time></trkpt>
<trkpt lat="48.887218475342" lon="2.835480928421"><ele>100</ele><time>2026-5-1T0:59:10Z</time></trkpt>
<trkpt lat="48.88716506958" lon="2.8356187343597"><ele>99</ele><time>2026-5-1T0:59:13Z</time></trkpt>
<trkpt lat="48.887111663818" lon="2.8357605934143"><ele>97</ele><time>2026-5-1T0:59:16Z</time></trkpt>
<trkpt lat="48.887062072754" lon="2.8358914852142"><ele>95</ele><time>2026-5-1T0:59:19Z</time></trkpt>
<trkpt lat="48.887062072754" lon="2.8358914852142"><ele>95</ele><time>2026-5-1T0:59:22Z</time></trkpt>
<trkpt lat="48.887012481689" lon="2.8360130786896"><ele>94</ele><time>2026-5-1T0:59:25Z</time></trkpt>
<trkpt lat="48.886962890625" lon="2.8361248970032"><ele>94</ele><time>2026-5-1T0:59:28Z</time></trkpt>
<trkpt lat="48.886882781982" lon="2.8361799716949"><ele>94</ele><time>2026-5-1T0:59:31Z</time></trkpt>
<trkpt lat="48.886882781982" lon="2.8361799716949"><ele>94</ele><time>2026-5-1T0:59:34Z</time></trkpt>
<trkpt lat="48.886787414551" lon="2.8361663818359"><ele>94</ele><time>2026-5-1T0:59:37Z</time></trkpt>
<trkpt lat="48.886688232422" lon="2.8361175060272"><ele>94</ele><time>2026-5-1T0:59:40Z</time></trkpt>
<trkpt lat="48.886600494385" lon="2.8360676765442"><ele>95</ele><time>2026-5-1T0:59:43Z</time></trkpt>
<trkpt lat="48.886600494385" lon="2.8360676765442"><ele>95</ele><time>2026-5-1T0:59:46Z</time></trkpt>
<trkpt lat="48.886516571045" lon="2.8360147476196"><ele>96</ele><time>2026-5-1T0:59:49Z</time></trkpt>
<trkpt lat="48.886436462402" lon="2.8359682559967"><ele>96</ele><time>2026-5-1T0:59:52Z</time></trkpt>
<trkpt lat="48.886360168457" lon="2.8359279632568"><ele>97</ele><time>2026-5-1T0:59:55Z</time></trkpt>
<trkpt lat="48.886360168457" lon="2.8359279632568"><ele>97</ele><time>2026-5-1T0:59:58Z</time></trkpt>
<trkpt lat="48.886287689209" lon="2.8359453678131"><ele>97</ele><time>2026-5-1T1:0:1Z</time></trkpt>
<trkpt lat="48.88623046875" lon="2.8360123634338"><ele>97</ele><time>2026-5-1T1:0:4Z</time></trkpt>
<trkpt lat="48.886177062988" lon="2.8361415863037"><ele>97</ele><time>2026-5-1T1:0:7Z</time></trkpt>
<trkpt lat="48.886177062988" lon="2.8361415863037"><ele>97</ele><time>2026-5-1T1:0:10Z</time></trkpt>
<trkpt lat="48.886135101318" lon="2.8362801074982"><ele>96</ele><time>2026-5-1T1:0:13Z</time></trkpt>
<trkpt lat="48.88610458374" lon="2.8363978862762"><ele>96</ele><time>2026-5-1T1:0:16Z</time></trkpt>
<trkpt lat="48.88606262207" lon="2.8365392684937"><ele>95</ele><time>2026-5-1T1:0:19Z</time></trkpt>
<trkpt lat="48.88606262207" lon="2.8365392684937"><ele>95</ele><time>2026-5-1T1:0:22Z</time></trkpt>
<trkpt lat="48.886005401611" lon="2.8366482257843"><ele>96</ele><time>2026-5-1T1:0:25Z</time></trkpt>
<trkpt lat="48.885913848877" lon="2.8367145061493"><ele>95</ele><time>2026-5-1T1:0:28Z</time></trkpt>
<trkpt lat="48.885814666748" lon="2.8367581367493"><ele>96</ele><time>2026-5-1T1:0:31Z</time></trkpt>
<trkpt lat="48.885814666748" lon="2.8367581367493"><ele>96</ele><time>2026-5-1T1:0:34Z</time></trkpt>
<trkpt lat="48.885715484619" lon="2.8367917537689"><ele>96</ele><time>2026-5-1T1:0:37Z</time></trkpt>
<trkpt lat="48.88561630249" lon="2.8368301391602"><ele>96</ele><time>2026-5-1T1:0:40Z</time></trkpt>
<trkpt lat="48.885513305664" lon="2.8368706703186"><ele>96</ele><time>2026-5-1T1:0:43Z</time></trkpt>
<trkpt lat="48.885513305664" lon="2.8368706703186"><ele>96</ele><time>2026-5-1T1:0:46Z</time></trkpt>
<trkpt lat="48.885414123535" lon="2.8369121551514"><ele>97</ele><time>2026-5-1T1:0:49Z</time></trkpt>
<trkpt lat="48.885326385498" lon="2.8369266986847"><ele>98</ele><time>2026-5-1T1:0:52Z</time></trkpt>
<trkpt lat="48.885246276855" lon="2.8369047641754"><ele>98</ele><time>2026-5-1T1:0:55Z</time></trkpt>
<trkpt lat="48.885246276855" lon="2.8369047641754"><ele>98</ele><time>2026-5-1T1:0:58Z</time></trkpt>
<trkpt lat="48.885192871094" lon="2.836864233017"><ele>98</ele><time>2026-5-1T1:1:1Z</time></trkpt>
<trkpt lat="48.885135650635" lon="2.8368258476257"><ele>98</ele><time>2026-5-1T1:1:4Z</time></trkpt>
<trkpt lat="48.885078430176" lon="2.8367877006531"><ele>98</ele><time>2026-5-1T1:1:7Z</time></trkpt>
<trkpt lat="48.885078430176" lon="2.8367877006531"><ele>98</ele><time>2026-5-1T1:1:10Z</time></trkpt>
<trkpt lat="48.885078430176" lon="2.8367877006531"><ele>98</ele><time>2026-5-1T1:1:13Z</time></trkpt>
<trkpt lat="48.88500213623" lon="2.8367726802826"><ele>98</ele><time>2026-5-1T1:1:16Z</time></trkpt>
<trkpt lat="48.88500213623" lon="2.8367726802826"><ele>98</ele><time>2026-5-1T1:1:19Z</time></trkpt>
<trkpt lat="48.88500213623" lon="2.8367726802826"><ele>98</ele><time>2026-5-1T1:1:22Z</time></trkpt>
<trkpt lat="48.88497543335" lon="2.8369362354279"><ele>98</ele><time>2026-5-1T1:1:25Z</time></trkpt>
<trkpt lat="48.884967803955" lon="2.8370480537415"><ele>98</ele><time>2026-5-1T1:1:28Z</time></trkpt>
<trkpt lat="48.884956359863" lon="2.8371818065643"><ele>99</ele><time>2026-5-1T1:1:31Z</time></trkpt>
<trkpt lat="48.884956359863" lon="2.8371818065643"><ele>99</ele><time>2026-5-1T1:1:34Z</time></trkpt>
<trkpt lat="48.884937286377" lon="2.8372988700867"><ele>98</ele><time>2026-5-1T1:1:37Z</time></trkpt>
<trkpt lat="48.884914398193" lon="2.837455034256"><ele>98</ele><time>2026-5-1T1:1:40Z</time></trkpt>
<trkpt lat="48.88489151001" lon="2.8376178741455"><ele>98</ele><time>2026-5-1T1:1:43Z</time></trkpt>
<trkpt lat="48.88489151001" lon="2.8376178741455"><ele>98</ele><time>2026-5-1T1:1:46Z</time></trkpt>
<trkpt lat="48.884864807129" lon="2.8377604484558"><ele>98</ele><time>2026-5-1T1:1:49Z</time></trkpt>
<trkpt lat="48.884838104248" lon="2.8379220962524"><ele>98</ele><time>2026-5-1T1:1:52Z</time></trkpt>
<trkpt lat="48.884811401367" lon="2.8380649089813"><ele>97</ele><time>2026-5-1T1:1:55Z</time></trkpt>
<trkpt lat="48.884811401367" lon="2.8380649089813"><ele>97</ele><time>2026-5-1T1:1:58Z</time></trkpt>
<trkpt lat="48.884788513184" lon="2.8382079601288"><ele>98</ele><time>2026-5-1T1:2:1Z</time></trkpt>
<trkpt lat="48.884769439697" lon="2.838338136673"><ele>97</ele><time>2026-5-1T1:2:4Z</time></trkpt>
<trkpt lat="48.884742736816" lon="2.8384666442871"><ele>97</ele><time>2026-5-1T1:2:7Z</time></trkpt>
<trkpt lat="48.884742736816" lon="2.8384666442871"><ele>97</ele><time>2026-5-1T1:2:10Z</time></trkpt>
<trkpt lat="48.884716033936" lon="2.8386232852936"><ele>96</ele><time>2026-5-1T1:2:13Z</time></trkpt>
<trkpt lat="48.884693145752" lon="2.8387825489044"><ele>96</ele><time>2026-5-1T1:2:16Z</time></trkpt>
<trkpt lat="48.884674072266" lon="2.8389413356781"><ele>96</ele><time>2026-5-1T1:2:19Z</time></trkpt>
<trkpt lat="48.884674072266" lon="2.8389413356781"><ele>96</ele><time>2026-5-1T1:2:22Z</time></trkpt>
<trkpt lat="48.884654998779" lon="2.8391098976135"><ele>98</ele><time>2026-5-1T1:2:25Z</time></trkpt>
<trkpt lat="48.884624481201" lon="2.8392701148987"><ele>100</ele><time>2026-5-1T1:2:28Z</time></trkpt>
<trkpt lat="48.884605407715" lon="2.8394241333008"><ele>101</ele><time>2026-5-1T1:2:31Z</time></trkpt>
<trkpt lat="48.884605407715" lon="2.8394241333008"><ele>101</ele><time>2026-5-1T1:2:34Z</time></trkpt>
<trkpt lat="48.884590148926" lon="2.8395538330078"><ele>102</ele><time>2026-5-1T1:2:37Z</time></trkpt>
<trkpt lat="48.884574890137" lon="2.8396797180176"><ele>101</ele><time>2026-5-1T1:2:40Z</time></trkpt>
<trkpt lat="48.884552001953" lon="2.8398122787476"><ele>101</ele><time>2026-5-1T1:2:43Z</time></trkpt>
<trkpt lat="48.884552001953" lon="2.8398122787476"><ele>101</ele><time>2026-5-1T1:2:46Z</time></trkpt>
<trkpt lat="48.88452911377" lon="2.8399655818939"><ele>100</ele><time>2026-5-1T1:2:49Z</time></trkpt>
<trkpt lat="48.884506225586" lon="2.8401136398315"><ele>100</ele><time>2026-5-1T1:2:52Z</time></trkpt>
<trkpt lat="48.8844871521" lon="2.8402452468872"><ele>99</ele><time>2026-5-1T1:2:55Z</time></trkpt>
<trkpt lat="48.8844871521" lon="2.8402452468872"><ele>99</ele><time>2026-5-1T1:2:58Z</time></trkpt>
<trkpt lat="48.884464263916" lon="2.8403718471527"><ele>99</ele><time>2026-5-1T1:3:1Z</time></trkpt>
<trkpt lat="48.884452819824" lon="2.8405117988586"><ele>99</ele><time>2026-5-1T1:3:4Z</time></trkpt>
<trkpt lat="48.884429931641" lon="2.840637922287"><ele>99</ele><time>2026-5-1T1:3:7Z</time></trkpt>
<trkpt lat="48.884429931641" lon="2.840637922287"><ele>99</ele><time>2026-5-1T1:3:10Z</time></trkpt>
<trkpt lat="48.884387969971" lon="2.8407418727875"><ele>99</ele><time>2026-5-1T1:3:13Z</time></trkpt>
<trkpt lat="48.884349822998" lon="2.8408372402191"><ele>99</ele><time>2026-5-1T1:3:16Z</time></trkpt>
<trkpt lat="48.884296417236" lon="2.8409235477448"><ele>98</ele><time>2026-5-1T1:3:19Z</time></trkpt>
<trkpt lat="48.884296417236" lon="2.8409235477448"><ele>98</ele><time>2026-5-1T1:3:22Z</time></trkpt>
<trkpt lat="48.884227752686" lon="2.8410291671753"><ele>98</ele><time>2026-5-1T1:3:25Z</time></trkpt>
<trkpt lat="48.884201049805" lon="2.8411386013031"><ele>98</ele><time>2026-5-1T1:3:28Z</time></trkpt>
<trkpt lat="48.884181976318" lon="2.8412535190582"><ele>98</ele><time>2026-5-1T1:3:31Z</time></trkpt>
<trkpt lat="48.884181976318" lon="2.8412535190582"><ele>98</ele><time>2026-5-1T1:3:34Z</time></trkpt>
<trkpt lat="48.884162902832" lon="2.8413760662079"><ele>98</ele><time>2026-5-1T1:3:37Z</time></trkpt>
<trkpt lat="48.884147644043" lon="2.8414924144745"><ele>97</ele><time>2026-5-1T1:3:40Z</time></trkpt>
<trkpt lat="48.884124755859" lon="2.8416178226471"><ele>98</ele><time>2026-5-1T1:3:43Z</time></trkpt>
<trkpt lat="48.884124755859" lon="2.8416178226471"><ele>98</ele><time>2026-5-1T1:3:46Z</time></trkpt>
<trkpt lat="48.88410949707" lon="2.8417422771454"><ele>98</ele><time>2026-5-1T1:3:49Z</time></trkpt>
<trkpt lat="48.884086608887" lon="2.8418750762939"><ele>98</ele><time>2026-5-1T1:3:52Z</time></trkpt>
<trkpt lat="48.884063720703" lon="2.8420171737671"><ele>99</ele><time>2026-5-1T1:3:55Z</time></trkpt>
<trkpt lat="48.884063720703" lon="2.8420171737671"><ele>99</ele><time>2026-5-1T1:3:58Z</time></trkpt>
<trkpt lat="48.884029388428" lon="2.8421697616577"><ele>100</ele><time>2026-5-1T1:4:1Z</time></trkpt>
<trkpt lat="48.884006500244" lon="2.8423035144806"><ele>101</ele><time>2026-5-1T1:4:4Z</time></trkpt>
<trkpt lat="48.883991241455" lon="2.8424150943756"><ele>101</ele><time>2026-5-1T1:4:7Z</time></trkpt>
<trkpt lat="48.883991241455" lon="2.8424150943756"><ele>101</ele><time>2026-5-1T1:4:10Z</time></trkpt>
<trkpt lat="48.883975982666" lon="2.8425369262695"><ele>100</ele><time>2026-5-1T1:4:13Z</time></trkpt>
<trkpt lat="48.88395690918" lon="2.8426761627197"><ele>100</ele><time>2026-5-1T1:4:16Z</time></trkpt>
<trkpt lat="48.883934020996" lon="2.8428106307983"><ele>100</ele><time>2026-5-1T1:4:19Z</time></trkpt>
<trkpt lat="48.883934020996" lon="2.8428106307983"><ele>100</ele><time>2026-5-1T1:4:22Z</time></trkpt>
<trkpt lat="48.88391494751" lon="2.8429343700409"><ele>101</ele><time>2026-5-1T1:4:25Z</time></trkpt>
<trkpt lat="48.883892059326" lon="2.8430497646332"><ele>101</ele><time>2026-5-1T1:4:28Z</time></trkpt>
<trkpt lat="48.883861541748" lon="2.8431766033173"><ele>102</ele><time>2026-5-1T1:4:31Z</time></trkpt>
<trkpt lat="48.883861541748" lon="2.8431766033173"><ele>102</ele><time>2026-5-1T1:4:34Z</time></trkpt>
<trkpt lat="48.883834838867" lon="2.8433127403259"><ele>103</ele><time>2026-5-1T1:4:37Z</time></trkpt>
<trkpt lat="48.883811950684" lon="2.8434572219849"><ele>104</ele><time>2026-5-1T1:4:40Z</time></trkpt>
<trkpt lat="48.8837890625" lon="2.8435983657837"><ele>104</ele><time>2026-5-1T1:4:43Z</time></trkpt>
<trkpt lat="48.8837890625" lon="2.8435983657837"><ele>104</ele><time>2026-5-1T1:4:46Z</time></trkpt>
<trkpt lat="48.883762359619" lon="2.8437323570251"><ele>105</ele><time>2026-5-1T1:4:49Z</time></trkpt>
<trkpt lat="48.883731842041" lon="2.8438608646393"><ele>105</ele><time>2026-5-1T1:4:52Z</time></trkpt>
<trkpt lat="48.883689880371" lon="2.8439657688141"><ele>105</ele><time>2026-5-1T1:4:55Z</time></trkpt>
<trkpt lat="48.883689880371" lon="2.8439657688141"><ele>105</ele><time>2026-5-1T1:4:58Z</time></trkpt>
<trkpt lat="48.883659362793" lon="2.8440852165222"><ele>105</ele><time>2026-5-1T1:5:1Z</time></trkpt>
<trkpt lat="48.883640289307" lon="2.8442161083221"><ele>102</ele><time>2026-5-1T1:5:4Z</time></trkpt>
<trkpt lat="48.88362121582" lon="2.8443491458893"><ele>100</ele><time>2026-5-1T1:5:7Z</time></trkpt>
<trkpt lat="48.88362121582" lon="2.8443491458893"><ele>100</ele><time>2026-5-1T1:5:10Z</time></trkpt>
<trkpt lat="48.883602142334" lon="2.8444921970367"><ele>99</ele><time>2026-5-1T1:5:13Z</time></trkpt>
<trkpt lat="48.88357925415" lon="2.8446283340454"><ele>98</ele><time>2026-5-1T1:5:16Z</time></trkpt>
<trkpt lat="48.883556365967" lon="2.8447766304016"><ele>98</ele><time>2026-5-1T1:5:19Z</time></trkpt>
<trkpt lat="48.883556365967" lon="2.8447766304016"><ele>98</ele><time>2026-5-1T1:5:22Z</time></trkpt>
<trkpt lat="48.883533477783" lon="2.8449122905731"><ele>98</ele><time>2026-5-1T1:5:25Z</time></trkpt>
<trkpt lat="48.8835105896" lon="2.8450336456299"><ele>98</ele><time>2026-5-1T1:5:28Z</time></trkpt>
<trkpt lat="48.8835105896" lon="2.8450336456299"><ele>98</ele><time>2026-5-1T1:5:31Z</time></trkpt>
<trkpt lat="48.8835105896" lon="2.8450336456299"><ele>98</ele><time>2026-5-1T1:5:34Z</time></trkpt>
<trkpt lat="48.8835105896" lon="2.8450336456299"><ele>98</ele><time>2026-5-1T1:5:37Z</time></trkpt>
<trkpt lat="48.8835105896" lon="2.8450336456299"><ele>98</ele><time>2026-5-1T1:5:40Z</time></trkpt>
<trkpt lat="48.883411407471" lon="2.8451638221741"><ele>102</ele><time>2026-5-1T1:5:43Z</time></trkpt>
<trkpt lat="48.883411407471" lon="2.8451638221741"><ele>102</ele><time>2026-5-1T1:5:46Z</time></trkpt>
<trkpt lat="48.883323669434" lon="2.8451261520386"><ele>102</ele><time>2026-5-1T1:5:49Z</time></trkpt>
<trkpt lat="48.883323669434" lon="2.8451261520386"><ele>102</ele><time>2026-5-1T1:5:52Z</time></trkpt>
<trkpt lat="48.883224487305" lon="2.8450465202332"><ele>101</ele><time>2026-5-1T1:5:55Z</time></trkpt>
<trkpt lat="48.883171081543" lon="2.8449990749359"><ele>101</ele><time>2026-5-1T1:5:58Z</time></trkpt>
<trkpt lat="48.883171081543" lon="2.8449990749359"><ele>101</ele><time>2026-5-1T1:6:1Z</time></trkpt>
<trkpt lat="48.883068084717" lon="2.8449196815491"><ele>101</ele><time>2026-5-1T1:6:4Z</time></trkpt>
<trkpt lat="48.883014678955" lon="2.844872713089"><ele>101</ele><time>2026-5-1T1:6:7Z</time></trkpt>
<trkpt lat="48.882957458496" lon="2.8448231220245"><ele>101</ele><time>2026-5-1T1:6:10Z</time></trkpt>
<trkpt lat="48.882957458496" lon="2.8448231220245"><ele>101</ele><time>2026-5-1T1:6:13Z</time></trkpt>
<trkpt lat="48.882904052734" lon="2.8447756767273"><ele>101</ele><time>2026-5-1T1:6:16Z</time></trkpt>
<trkpt lat="48.882850646973" lon="2.8447320461273"><ele>101</ele><time>2026-5-1T1:6:19Z</time></trkpt>
<trkpt lat="48.882793426514" lon="2.8446826934814"><ele>101</ele><time>2026-5-1T1:6:22Z</time></trkpt>
<trkpt lat="48.882793426514" lon="2.8446826934814"><ele>101</ele><time>2026-5-1T1:6:25Z</time></trkpt>
<trkpt lat="48.882740020752" lon="2.8446335792542"><ele>101</ele><time>2026-5-1T1:6:28Z</time></trkpt>
<trkpt lat="48.882682800293" lon="2.844584941864"><ele>101</ele><time>2026-5-1T1:6:31Z</time></trkpt>
<trkpt lat="48.882617950439" lon="2.8445439338684"><ele>101</ele><time>2026-5-1T1:6:34Z</time></trkpt>
<trkpt lat="48.882549285889" lon="2.8444950580597"><ele>101</ele><time>2026-5-1T1:6:37Z</time></trkpt>
<trkpt lat="48.882476806641" lon="2.8444511890411"><ele>102</ele><time>2026-5-1T1:6:40Z</time></trkpt>
<trkpt lat="48.882400512695" lon="2.8444240093231"><ele>101</ele><time>2026-5-1T1:6:43Z</time></trkpt>
<trkpt lat="48.88232421875" lon="2.8443946838379"><ele>101</ele><time>2026-5-1T1:6:46Z</time></trkpt>
<trkpt lat="48.882259368896" lon="2.8443534374237"><ele>101</ele><time>2026-5-1T1:6:49Z</time></trkpt>
<trkpt lat="48.882259368896" lon="2.8443534374237"><ele>101</ele><time>2026-5-1T1:6:52Z</time></trkpt>
<trkpt lat="48.88219833374" lon="2.8443133831024"><ele>101</ele><time>2026-5-1T1:6:55Z</time></trkpt>
<trkpt lat="48.882137298584" lon="2.8442702293396"><ele>101</ele><time>2026-5-1T1:6:58Z</time></trkpt>
<trkpt lat="48.88207244873" lon="2.8442311286926"><ele>101</ele><time>2026-5-1T1:7:1Z</time></trkpt>
<trkpt lat="48.88207244873" lon="2.8442311286926"><ele>101</ele><time>2026-5-1T1:7:4Z</time></trkpt>
<trkpt lat="48.882007598877" lon="2.8441877365112"><ele>102</ele><time>2026-5-1T1:7:7Z</time></trkpt>
<trkpt lat="48.881942749023" lon="2.8441348075867"><ele>102</ele><time>2026-5-1T1:7:10Z</time></trkpt>
<trkpt lat="48.881870269775" lon="2.8440794944763"><ele>102</ele><time>2026-5-1T1:7:13Z</time></trkpt>
<trkpt lat="48.881870269775" lon="2.8440794944763"><ele>102</ele><time>2026-5-1T1:7:16Z</time></trkpt>
<trkpt lat="48.881797790527" lon="2.844019651413"><ele>102</ele><time>2026-5-1T1:7:19Z</time></trkpt>
<trkpt lat="48.881725311279" lon="2.8439629077911"><ele>103</ele><time>2026-5-1T1:7:22Z</time></trkpt>
<trkpt lat="48.881652832031" lon="2.8439059257507"><ele>103</ele><time>2026-5-1T1:7:25Z</time></trkpt>
<trkpt lat="48.881652832031" lon="2.8439059257507"><ele>103</ele><time>2026-5-1T1:7:28Z</time></trkpt>
<trkpt lat="48.881580352783" lon="2.8438520431519"><ele>103</ele><time>2026-5-1T1:7:31Z</time></trkpt>
<trkpt lat="48.881500244141" lon="2.8437936306"><ele>102</ele><time>2026-5-1T1:7:34Z</time></trkpt>
<trkpt lat="48.881423950195" lon="2.8437325954437"><ele>101</ele><time>2026-5-1T1:7:37Z</time></trkpt>
<trkpt lat="48.881423950195" lon="2.8437325954437"><ele>101</ele><time>2026-5-1T1:7:40Z</time></trkpt>
<trkpt lat="48.881343841553" lon="2.8436689376831"><ele>100</ele><time>2026-5-1T1:7:43Z</time></trkpt>
<trkpt lat="48.881256103516" lon="2.8435983657837"><ele>99</ele><time>2026-5-1T1:7:46Z</time></trkpt>
<trkpt lat="48.881172180176" lon="2.8435351848602"><ele>99</ele><time>2026-5-1T1:7:49Z</time></trkpt>
<trkpt lat="48.881084442139" lon="2.8434762954712"><ele>99</ele><time>2026-5-1T1:7:52Z</time></trkpt>
<trkpt lat="48.881004333496" lon="2.8434174060822"><ele>99</ele><time>2026-5-1T1:7:55Z</time></trkpt>
<trkpt lat="48.880928039551" lon="2.8433575630188"><ele>99</ele><time>2026-5-1T1:7:58Z</time></trkpt>
<trkpt lat="48.880847930908" lon="2.8433010578156"><ele>99</ele><time>2026-5-1T1:8:1Z</time></trkpt>
<trkpt lat="48.880771636963" lon="2.8432416915894"><ele>99</ele><time>2026-5-1T1:8:4Z</time></trkpt>
<trkpt lat="48.880699157715" lon="2.843189239502"><ele>99</ele><time>2026-5-1T1:8:7Z</time></trkpt>
<trkpt lat="48.880634307861" lon="2.843156337738"><ele>99</ele><time>2026-5-1T1:8:10Z</time></trkpt>
<trkpt lat="48.880634307861" lon="2.843156337738"><ele>99</ele><time>2026-5-1T1:8:13Z</time></trkpt>
<trkpt lat="48.880569458008" lon="2.8432512283325"><ele>99</ele><time>2026-5-1T1:8:16Z</time></trkpt>
<trkpt lat="48.880569458008" lon="2.8432512283325"><ele>99</ele><time>2026-5-1T1:8:19Z</time></trkpt>
<trkpt lat="48.880569458008" lon="2.8432512283325"><ele>99</ele><time>2026-5-1T1:8:22Z</time></trkpt>
<trkpt lat="48.880535125732" lon="2.843376159668"><ele>99</ele><time>2026-5-1T1:8:25Z</time></trkpt>
<trkpt lat="48.880535125732" lon="2.843376159668"><ele>99</ele><time>2026-5-1T1:8:28Z</time></trkpt>
<trkpt lat="48.880493164062" lon="2.8435111045837"><ele>99</ele><time>2026-5-1T1:8:31Z</time></trkpt>
<trkpt lat="48.880493164062" lon="2.8435111045837"><ele>99</ele><time>2026-5-1T1:8:34Z</time></trkpt>
<trkpt lat="48.880451202393" lon="2.8436710834503"><ele>99</ele><time>2026-5-1T1:8:37Z</time></trkpt>
<trkpt lat="48.880435943604" lon="2.8437561988831"><ele>99</ele><time>2026-5-1T1:8:40Z</time></trkpt>
<trkpt lat="48.880416870117" lon="2.8438420295715"><ele>99</ele><time>2026-5-1T1:8:43Z</time></trkpt>
<trkpt lat="48.880386352539" lon="2.8439173698425"><ele>99</ele><time>2026-5-1T1:8:46Z</time></trkpt>
<trkpt lat="48.880355834961" lon="2.8439924716949"><ele>99</ele><time>2026-5-1T1:8:49Z</time></trkpt>
<trkpt lat="48.88032913208" lon="2.8440778255463"><ele>100</ele><time>2026-5-1T1:8:52Z</time></trkpt>
<trkpt lat="48.880298614502" lon="2.8441641330719"><ele>100</ele><time>2026-5-1T1:8:55Z</time></trkpt>
<trkpt lat="48.880264282227" lon="2.8442497253418"><ele>100</ele><time>2026-5-1T1:8:58Z</time></trkpt>
<trkpt lat="48.880229949951" lon="2.8443324565887"><ele>100</ele><time>2026-5-1T1:9:1Z</time></trkpt>
<trkpt lat="48.880187988281" lon="2.8444087505341"><ele>100</ele><time>2026-5-1T1:9:4Z</time></trkpt>
<trkpt lat="48.880187988281" lon="2.8444087505341"><ele>100</ele><time>2026-5-1T1:9:7Z</time></trkpt>
<trkpt lat="48.88009262085" lon="2.8444447517395"><ele>100</ele><time>2026-5-1T1:9:10Z</time></trkpt>
<trkpt lat="48.88009262085" lon="2.8444447517395"><ele>100</ele><time>2026-5-1T1:9:13Z</time></trkpt>
<trkpt lat="48.879981994629" lon="2.8444509506226"><ele>100</ele><time>2026-5-1T1:9:16Z</time></trkpt>
<trkpt lat="48.879981994629" lon="2.8444509506226"><ele>100</ele><time>2026-5-1T1:9:19Z</time></trkpt>
<trkpt lat="48.879917144775" lon="2.8445565700531"><ele>100</ele><time>2026-5-1T1:9:22Z</time></trkpt>
<trkpt lat="48.879875183105" lon="2.8446290493011"><ele>100</ele><time>2026-5-1T1:9:25Z</time></trkpt>
<trkpt lat="48.879825592041" lon="2.8446824550629"><ele>100</ele><time>2026-5-1T1:9:28Z</time></trkpt>
<trkpt lat="48.879768371582" lon="2.8447189331055"><ele>100</ele><time>2026-5-1T1:9:31Z</time></trkpt>
<trkpt lat="48.879722595215" lon="2.8447923660278"><ele>100</ele><time>2026-5-1T1:9:34Z</time></trkpt>
<trkpt lat="48.879695892334" lon="2.8448708057404"><ele>100</ele><time>2026-5-1T1:9:37Z</time></trkpt>
<trkpt lat="48.879669189453" lon="2.8449513912201"><ele>100</ele><time>2026-5-1T1:9:40Z</time></trkpt>
<trkpt lat="48.879669189453" lon="2.8449513912201"><ele>100</ele><time>2026-5-1T1:9:43Z</time></trkpt>
<trkpt lat="48.879619598389" lon="2.8451111316681"><ele>100</ele><time>2026-5-1T1:9:46Z</time></trkpt>
<trkpt lat="48.879619598389" lon="2.8451111316681"><ele>100</ele><time>2026-5-1T1:9:49Z</time></trkpt>
<trkpt lat="48.879570007324" lon="2.8452627658844"><ele>101</ele><time>2026-5-1T1:9:52Z</time></trkpt>
<trkpt lat="48.879547119141" lon="2.8453538417816"><ele>101</ele><time>2026-5-1T1:9:55Z</time></trkpt>
<trkpt lat="48.879516601562" lon="2.8454394340515"><ele>101</ele><time>2026-5-1T1:9:58Z</time></trkpt>
<trkpt lat="48.879493713379" lon="2.8455195426941"><ele>101</ele><time>2026-5-1T1:10:1Z</time></trkpt>
<trkpt lat="48.879493713379" lon="2.8455195426941"><ele>101</ele><time>2026-5-1T1:10:4Z</time></trkpt>
<trkpt lat="48.879447937012" lon="2.8456797599792"><ele>101</ele><time>2026-5-1T1:10:7Z</time></trkpt>
<trkpt lat="48.879405975342" lon="2.8457927703857"><ele>101</ele><time>2026-5-1T1:10:10Z</time></trkpt>
<trkpt lat="48.879337310791" lon="2.8458797931671"><ele>101</ele><time>2026-5-1T1:10:13Z</time></trkpt>
<trkpt lat="48.879215240479" lon="2.8458631038666"><ele>102</ele><time>2026-5-1T1:10:16Z</time></trkpt>
<trkpt lat="48.879154205322" lon="2.8458251953125"><ele>102</ele><time>2026-5-1T1:10:19Z</time></trkpt>
<trkpt lat="48.879100799561" lon="2.8457758426666"><ele>102</ele><time>2026-5-1T1:10:22Z</time></trkpt>
<trkpt lat="48.879043579102" lon="2.8457295894623"><ele>102</ele><time>2026-5-1T1:10:25Z</time></trkpt>
<trkpt lat="48.878986358643" lon="2.8456869125366"><ele>102</ele><time>2026-5-1T1:10:28Z</time></trkpt>
<trkpt lat="48.878871917725" lon="2.8456475734711"><ele>102</ele><time>2026-5-1T1:10:31Z</time></trkpt>
<trkpt lat="48.878814697266" lon="2.8456344604492"><ele>102</ele><time>2026-5-1T1:10:34Z</time></trkpt>
<trkpt lat="48.878814697266" lon="2.8456344604492"><ele>102</ele><time>2026-5-1T1:10:37Z</time></trkpt>
<trkpt lat="48.878726959229" lon="2.8455867767334"><ele>102</ele><time>2026-5-1T1:10:40Z</time></trkpt>
<trkpt lat="48.878726959229" lon="2.8455867767334"><ele>102</ele><time>2026-5-1T1:10:43Z</time></trkpt>
<trkpt lat="48.878631591797" lon="2.8455018997192"><ele>102</ele><time>2026-5-1T1:10:46Z</time></trkpt>
<trkpt lat="48.878582000732" lon="2.8454532623291"><ele>102</ele><time>2026-5-1T1:10:49Z</time></trkpt>
<trkpt lat="48.878528594971" lon="2.8454012870789"><ele>102</ele><time>2026-5-1T1:10:52Z</time></trkpt>
<trkpt lat="48.878429412842" lon="2.8452920913696"><ele>102</ele><time>2026-5-1T1:10:55Z</time></trkpt>
<trkpt lat="48.878379821777" lon="2.8452224731445"><ele>102</ele><time>2026-5-1T1:10:58Z</time></trkpt>
<trkpt lat="48.878299713135" lon="2.8451209068298"><ele>103</ele><time>2026-5-1T1:11:1Z</time></trkpt>
<trkpt lat="48.878299713135" lon="2.8451209068298"><ele>103</ele><time>2026-5-1T1:11:4Z</time></trkpt>
<trkpt lat="48.8782081604" lon="2.845046043396"><ele>103</ele><time>2026-5-1T1:11:7Z</time></trkpt>
<trkpt lat="48.878150939941" lon="2.8450067043304"><ele>102</ele><time>2026-5-1T1:11:10Z</time></trkpt>
<trkpt lat="48.878089904785" lon="2.8449585437775"><ele>102</ele><time>2026-5-1T1:11:13Z</time></trkpt>
<trkpt lat="48.878032684326" lon="2.8449149131775"><ele>102</ele><time>2026-5-1T1:11:16Z</time></trkpt>
<trkpt lat="48.877967834473" lon="2.8448703289032"><ele>102</ele><time>2026-5-1T1:11:19Z</time></trkpt>
<trkpt lat="48.877906799316" lon="2.8448259830475"><ele>102</ele><time>2026-5-1T1:11:22Z</time></trkpt>
<trkpt lat="48.87784576416" lon="2.8447861671448"><ele>102</ele><time>2026-5-1T1:11:25Z</time></trkpt>
<trkpt lat="48.877784729004" lon="2.8447449207306"><ele>102</ele><time>2026-5-1T1:11:28Z</time></trkpt>
<trkpt lat="48.87771987915" lon="2.8447005748749"><ele>102</ele><time>2026-5-1T1:11:31Z</time></trkpt>
<trkpt lat="48.877624511719" lon="2.8446249961853"><ele>102</ele><time>2026-5-1T1:11:34Z</time></trkpt>
<trkpt lat="48.877624511719" lon="2.8446249961853"><ele>102</ele><time>2026-5-1T1:11:37Z</time></trkpt>
<trkpt lat="48.87752532959" lon="2.8445496559143"><ele>102</ele><time>2026-5-1T1:11:40Z</time></trkpt>
<trkpt lat="48.877471923828" lon="2.8445088863373"><ele>102</ele><time>2026-5-1T1:11:43Z</time></trkpt>
<trkpt lat="48.877471923828" lon="2.8445088863373"><ele>102</ele><time>2026-5-1T1:11:46Z</time></trkpt>
<trkpt lat="48.877365112305" lon="2.8444368839264"><ele>102</ele><time>2026-5-1T1:11:49Z</time></trkpt>
<trkpt lat="48.877304077148" lon="2.8443994522095"><ele>102</ele><time>2026-5-1T1:11:52Z</time></trkpt>
<trkpt lat="48.877243041992" lon="2.8443622589111"><ele>102</ele><time>2026-5-1T1:11:55Z</time></trkpt>
<trkpt lat="48.877185821533" lon="2.844322681427"><ele>102</ele><time>2026-5-1T1:11:58Z</time></trkpt>
<trkpt lat="48.877185821533" lon="2.844322681427"><ele>102</ele><time>2026-5-1T1:12:1Z</time></trkpt>
<trkpt lat="48.877082824707" lon="2.8442533016205"><ele>102</ele><time>2026-5-1T1:12:4Z</time></trkpt>
<trkpt lat="48.877025604248" lon="2.8442137241364"><ele>102</ele><time>2026-5-1T1:12:7Z</time></trkpt>
<trkpt lat="48.876968383789" lon="2.8441751003265"><ele>102</ele><time>2026-5-1T1:12:10Z</time></trkpt>
<trkpt lat="48.876914978027" lon="2.8441390991211"><ele>102</ele><time>2026-5-1T1:12:13Z</time></trkpt>
<trkpt lat="48.876857757568" lon="2.8441004753113"><ele>102</ele><time>2026-5-1T1:12:16Z</time></trkpt>
<trkpt lat="48.876789093018" lon="2.8440587520599"><ele>103</ele><time>2026-5-1T1:12:19Z</time></trkpt>
<trkpt lat="48.876731872559" lon="2.844019651413"><ele>103</ele><time>2026-5-1T1:12:22Z</time></trkpt>
<trkpt lat="48.876670837402" lon="2.84397315979"><ele>103</ele><time>2026-5-1T1:12:25Z</time></trkpt>
<trkpt lat="48.876605987549" lon="2.8439288139343"><ele>103</ele><time>2026-5-1T1:12:28Z</time></trkpt>
<trkpt lat="48.876544952393" lon="2.8438849449158"><ele>103</ele><time>2026-5-1T1:12:31Z</time></trkpt>
<trkpt lat="48.876483917236" lon="2.8438396453857"><ele>103</ele><time>2026-5-1T1:12:34Z</time></trkpt>
<trkpt lat="48.876426696777" lon="2.8437974452972"><ele>103</ele><time>2026-5-1T1:12:37Z</time></trkpt>
<trkpt lat="48.876365661621" lon="2.84375"><ele>103</ele><time>2026-5-1T1:12:40Z</time></trkpt>
<trkpt lat="48.876300811768" lon="2.8437027931213"><ele>103</ele><time>2026-5-1T1:12:43Z</time></trkpt>
<trkpt lat="48.87622833252" lon="2.843653678894"><ele>103</ele><time>2026-5-1T1:12:46Z</time></trkpt>
<trkpt lat="48.876167297363" lon="2.8436119556427"><ele>103</ele><time>2026-5-1T1:12:49Z</time></trkpt>
<trkpt lat="48.876110076904" lon="2.8435709476471"><ele>103</ele><time>2026-5-1T1:12:52Z</time></trkpt>
<trkpt lat="48.876045227051" lon="2.8435280323029"><ele>103</ele><time>2026-5-1T1:12:55Z</time></trkpt>
<trkpt lat="48.875984191895" lon="2.8434875011444"><ele>103</ele><time>2026-5-1T1:12:58Z</time></trkpt>
<trkpt lat="48.875923156738" lon="2.8434507846832"><ele>103</ele><time>2026-5-1T1:13:1Z</time></trkpt>
<trkpt lat="48.875862121582" lon="2.8434121608734"><ele>103</ele><time>2026-5-1T1:13:4Z</time></trkpt>
<trkpt lat="48.875804901123" lon="2.8433697223663"><ele>103</ele><time>2026-5-1T1:13:7Z</time></trkpt>
<trkpt lat="48.875747680664" lon="2.8433282375336"><ele>103</ele><time>2026-5-1T1:13:10Z</time></trkpt>
<trkpt lat="48.875690460205" lon="2.8432834148407"><ele>104</ele><time>2026-5-1T1:13:13Z</time></trkpt>
<trkpt lat="48.875629425049" lon="2.8432340621948"><ele>104</ele><time>2026-5-1T1:13:16Z</time></trkpt>
<trkpt lat="48.875564575195" lon="2.8431875705719"><ele>104</ele><time>2026-5-1T1:13:19Z</time></trkpt>
<trkpt lat="48.875511169434" lon="2.8431503772736"><ele>104</ele><time>2026-5-1T1:13:22Z</time></trkpt>
<trkpt lat="48.875511169434" lon="2.8431503772736"><ele>104</ele><time>2026-5-1T1:13:25Z</time></trkpt>
<trkpt lat="48.875423431396" lon="2.8430864810944"><ele>104</ele><time>2026-5-1T1:13:28Z</time></trkpt>
<trkpt lat="48.875423431396" lon="2.8430864810944"><ele>104</ele><time>2026-5-1T1:13:31Z</time></trkpt>
<trkpt lat="48.875358581543" lon="2.8430256843567"><ele>104</ele><time>2026-5-1T1:13:34Z</time></trkpt>
<trkpt lat="48.875358581543" lon="2.8430256843567"><ele>104</ele><time>2026-5-1T1:13:37Z</time></trkpt>
<trkpt lat="48.875297546387" lon="2.8429744243622"><ele>104</ele><time>2026-5-1T1:13:40Z</time></trkpt>
<trkpt lat="48.875297546387" lon="2.8429744243622"><ele>104</ele><time>2026-5-1T1:13:43Z</time></trkpt>
<trkpt lat="48.875240325928" lon="2.8429353237152"><ele>104</ele><time>2026-5-1T1:13:46Z</time></trkpt>
<trkpt lat="48.875240325928" lon="2.8429353237152"><ele>104</ele><time>2026-5-1T1:13:49Z</time></trkpt>
<trkpt lat="48.875240325928" lon="2.8429353237152"><ele>104</ele><time>2026-5-1T1:13:52Z</time></trkpt>
<trkpt lat="48.875202178955" lon="2.842921257019"><ele>105</ele><time>2026-5-1T1:13:55Z</time></trkpt>
<trkpt lat="48.87516784668" lon="2.8429093360901"><ele>105</ele><time>2026-5-1T1:13:58Z</time></trkpt>
<trkpt lat="48.87516784668" lon="2.8429093360901"><ele>105</ele><time>2026-5-1T1:14:1Z</time></trkpt>
<trkpt lat="48.875133514404" lon="2.8428943157196"><ele>105</ele><time>2026-5-1T1:14:4Z</time></trkpt>
<trkpt lat="48.875133514404" lon="2.8428943157196"><ele>105</ele><time>2026-5-1T1:14:7Z</time></trkpt>
<trkpt lat="48.875102996826" lon="2.8428728580475"><ele>105</ele><time>2026-5-1T1:14:10Z</time></trkpt>
<trkpt lat="48.875102996826" lon="2.8428728580475"><ele>105</ele><time>2026-5-1T1:14:13Z</time></trkpt>
<trkpt lat="48.875064849854" lon="2.8428523540497"><ele>106</ele><time>2026-5-1T1:14:16Z</time></trkpt>
<trkpt lat="48.875064849854" lon="2.8428523540497"><ele>106</ele><time>2026-5-1T1:14:19Z</time></trkpt>
<trkpt lat="48.875030517578" lon="2.8428325653076"><ele>106</ele><time>2026-5-1T1:14:22Z</time></trkpt>
<trkpt lat="48.875030517578" lon="2.8428325653076"><ele>106</ele><time>2026-5-1T1:14:25Z</time></trkpt>
<trkpt lat="48.875030517578" lon="2.8428325653076"><ele>106</ele><time>2026-5-1T1:14:28Z</time></trkpt>
<trkpt lat="48.875030517578" lon="2.8428325653076"><ele>106</ele><time>2026-5-1T1:14:31Z</time></trkpt>
<trkpt lat="48.875030517578" lon="2.8428325653076"><ele>106</ele><time>2026-5-1T1:14:34Z</time></trkpt>
<trkpt lat="48.875030517578" lon="2.8428325653076"><ele>106</ele><time>2026-5-1T1:14:37Z</time></trkpt>
<trkpt lat="48.875030517578" lon="2.8428325653076"><ele>106</ele><time>2026-5-1T1:14:40Z</time></trkpt>
<trkpt lat="48.874935150146" lon="2.8428046703339"><ele>110</ele><time>2026-5-1T1:14:43Z</time></trkpt>
<trkpt lat="48.874877929688" lon="2.842787027359"><ele>111</ele><time>2026-5-1T1:14:46Z</time></trkpt>
<trkpt lat="48.874877929688" lon="2.842787027359"><ele>111</ele><time>2026-5-1T1:14:49Z</time></trkpt>
<trkpt lat="48.874877929688" lon="2.842787027359"><ele>111</ele><time>2026-5-1T1:14:52Z</time></trkpt>
<trkpt lat="48.874725341797" lon="2.8427503108978"><ele>112</ele><time>2026-5-1T1:14:55Z</time></trkpt>
<trkpt lat="48.874725341797" lon="2.8427503108978"><ele>112</ele><time>2026-5-1T1:14:58Z</time></trkpt>
<trkpt lat="48.874725341797" lon="2.8427503108978"><ele>112</ele><time>2026-5-1T1:15:1Z</time></trkpt>
<trkpt lat="48.874664306641" lon="2.8427355289459"><ele>113</ele><time>2026-5-1T1:15:4Z</time></trkpt>
<trkpt lat="48.874664306641" lon="2.8427355289459"><ele>113</ele><time>2026-5-1T1:15:7Z</time></trkpt>
<trkpt lat="48.874603271484" lon="2.8426995277405"><ele>114</ele><time>2026-5-1T1:15:10Z</time></trkpt>
<trkpt lat="48.874603271484" lon="2.8426995277405"><ele>114</ele><time>2026-5-1T1:15:13Z</time></trkpt>
<trkpt lat="48.874603271484" lon="2.8426995277405"><ele>114</ele><time>2026-5-1T1:15:16Z</time></trkpt>
<trkpt lat="48.874603271484" lon="2.8426995277405"><ele>114</ele><time>2026-5-1T1:15:19Z</time></trkpt>
<trkpt lat="48.874538421631" lon="2.8426549434662"><ele>115</ele><time>2026-5-1T1:15:22Z</time></trkpt>
<trkpt lat="48.874538421631" lon="2.8426549434662"><ele>115</ele><time>2026-5-1T1:15:25Z</time></trkpt>
<trkpt lat="48.874538421631" lon="2.8426549434662"><ele>115</ele><time>2026-5-1T1:15:28Z</time></trkpt>
<trkpt lat="48.874488830566" lon="2.8426022529602"><ele>116</ele><time>2026-5-1T1:15:31Z</time></trkpt>
<trkpt lat="48.874488830566" lon="2.8426022529602"><ele>116</ele><time>2026-5-1T1:15:34Z</time></trkpt>
<trkpt lat="48.874488830566" lon="2.8426022529602"><ele>116</ele><time>2026-5-1T1:15:37Z</time></trkpt>
<trkpt lat="48.874488830566" lon="2.8426022529602"><ele>116</ele><time>2026-5-1T1:15:40Z</time></trkpt>
<trkpt lat="48.874488830566" lon="2.8426022529602"><ele>116</ele><time>2026-5-1T1:15:43Z</time></trkpt>
<trkpt lat="48.874435424805" lon="2.842536687851"><ele>117</ele><time>2026-5-1T1:15:46Z</time></trkpt>
<trkpt lat="48.874435424805" lon="2.842536687851"><ele>117</ele><time>2026-5-1T1:15:49Z</time></trkpt>
<trkpt lat="48.874374389648" lon="2.8425099849701"><ele>118</ele><time>2026-5-1T1:15:52Z</time></trkpt>
<trkpt lat="48.874374389648" lon="2.8425099849701"><ele>118</ele><time>2026-5-1T1:15:55Z</time></trkpt>
<trkpt lat="48.874374389648" lon="2.8425099849701"><ele>118</ele><time>2026-5-1T1:15:58Z</time></trkpt>
<trkpt lat="48.874374389648" lon="2.8425099849701"><ele>118</ele><time>2026-5-1T1:16:1Z</time></trkpt>
<trkpt lat="48.874267578125" lon="2.8424727916718"><ele>120</ele><time>2026-5-1T1:16:4Z</time></trkpt>
<trkpt lat="48.874267578125" lon="2.8424727916718"><ele>120</ele><time>2026-5-1T1:16:7Z</time></trkpt>
<trkpt lat="48.874267578125" lon="2.8424727916718"><ele>120</ele><time>2026-5-1T1:16:10Z</time></trkpt>
<trkpt lat="48.874206542969" lon="2.8424515724182"><ele>120</ele><time>2026-5-1T1:16:13Z</time></trkpt>
<trkpt lat="48.874206542969" lon="2.8424515724182"><ele>120</ele><time>2026-5-1T1:16:16Z</time></trkpt>
<trkpt lat="48.874206542969" lon="2.8424515724182"><ele>120</ele><time>2026-5-1T1:16:19Z</time></trkpt>
<trkpt lat="48.87414932251" lon="2.8423976898193"><ele>121</ele><time>2026-5-1T1:16:22Z</time></trkpt>
<trkpt lat="48.87414932251" lon="2.8423976898193"><ele>121</ele><time>2026-5-1T1:16:25Z</time></trkpt>
<trkpt lat="48.874092102051" lon="2.8423678874969"><ele>122</ele><time>2026-5-1T1:16:28Z</time></trkpt>
<trkpt lat="48.874092102051" lon="2.8423678874969"><ele>122</ele><time>2026-5-1T1:16:31Z</time></trkpt>
<trkpt lat="48.874019622803" lon="2.8423414230347"><ele>122</ele><time>2026-5-1T1:16:34Z</time></trkpt>
<trkpt lat="48.874019622803" lon="2.8423414230347"><ele>122</ele><time>2026-5-1T1:16:37Z</time></trkpt>
<trkpt lat="48.873954772949" lon="2.8422794342041"><ele>123</ele><time>2026-5-1T1:16:40Z</time></trkpt>
<trkpt lat="48.873954772949" lon="2.8422794342041"><ele>123</ele><time>2026-5-1T1:16:43Z</time></trkpt>
<trkpt lat="48.87389755249" lon="2.8422620296478"><ele>124</ele><time>2026-5-1T1:16:46Z</time></trkpt>
<trkpt lat="48.87389755249" lon="2.8422620296478"><ele>124</ele><time>2026-5-1T1:16:49Z</time></trkpt>
<trkpt lat="48.873863220215" lon="2.8423781394958"><ele>124</ele><time>2026-5-1T1:16:52Z</time></trkpt>
<trkpt lat="48.873832702637" lon="2.8424589633942"><ele>125</ele><time>2026-5-1T1:16:55Z</time></trkpt>
<trkpt lat="48.873832702637" lon="2.8424589633942"><ele>125</ele><time>2026-5-1T1:16:58Z</time></trkpt>
<trkpt lat="48.873802185059" lon="2.8425362110138"><ele>125</ele><time>2026-5-1T1:17:1Z</time></trkpt>
<trkpt lat="48.873802185059" lon="2.8425362110138"><ele>125</ele><time>2026-5-1T1:17:4Z</time></trkpt>
<trkpt lat="48.873764038086" lon="2.8426218032837"><ele>126</ele><time>2026-5-1T1:17:7Z</time></trkpt>
<trkpt lat="48.873722076416" lon="2.8426976203918"><ele>126</ele><time>2026-5-1T1:17:10Z</time></trkpt>
<trkpt lat="48.873722076416" lon="2.8426976203918"><ele>126</ele><time>2026-5-1T1:17:13Z</time></trkpt>
<trkpt lat="48.873687744141" lon="2.8428020477295"><ele>127</ele><time>2026-5-1T1:17:16Z</time></trkpt>
<trkpt lat="48.873687744141" lon="2.8428020477295"><ele>127</ele><time>2026-5-1T1:17:19Z</time></trkpt>
<trkpt lat="48.873657226562" lon="2.8428828716278"><ele>127</ele><time>2026-5-1T1:17:22Z</time></trkpt>
<trkpt lat="48.873657226562" lon="2.8428828716278"><ele>127</ele><time>2026-5-1T1:17:25Z</time></trkpt>
<trkpt lat="48.873638153076" lon="2.8429930210114"><ele>128</ele><time>2026-5-1T1:17:28Z</time></trkpt>
<trkpt lat="48.873638153076" lon="2.8429930210114"><ele>128</ele><time>2026-5-1T1:17:31Z</time></trkpt>
<trkpt lat="48.873638153076" lon="2.8429930210114"><ele>128</ele><time>2026-5-1T1:17:34Z</time></trkpt>
<trkpt lat="48.873638153076" lon="2.8429930210114"><ele>128</ele><time>2026-5-1T1:17:37Z</time></trkpt>
<trkpt lat="48.873600006104" lon="2.8431117534637"><ele>129</ele><time>2026-5-1T1:17:40Z</time></trkpt>
<trkpt lat="48.873600006104" lon="2.8431117534637"><ele>129</ele><time>2026-5-1T1:17:43Z</time></trkpt>
<trkpt lat="48.873554229736" lon="2.8432173728943"><ele>129</ele><time>2026-5-1T1:17:46Z</time></trkpt>
<trkpt lat="48.873554229736" lon="2.8432173728943"><ele>129</ele><time>2026-5-1T1:17:49Z</time></trkpt>
<trkpt lat="48.873554229736" lon="2.8432173728943"><ele>129</ele><time>2026-5-1T1:17:52Z</time></trkpt>
<trkpt lat="48.873519897461" lon="2.8433034420013"><ele>130</ele><time>2026-5-1T1:17:55Z</time></trkpt>
<trkpt lat="48.873519897461" lon="2.8433034420013"><ele>130</ele><time>2026-5-1T1:17:58Z</time></trkpt>
<trkpt lat="48.873519897461" lon="2.8433034420013"><ele>130</ele><time>2026-5-1T1:18:1Z</time></trkpt>
<trkpt lat="48.873485565186" lon="2.8433790206909"><ele>131</ele><time>2026-5-1T1:18:4Z</time></trkpt>
<trkpt lat="48.873485565186" lon="2.8433790206909"><ele>131</ele><time>2026-5-1T1:18:7Z</time></trkpt>
<trkpt lat="48.873443603516" lon="2.8434534072876"><ele>131</ele><time>2026-5-1T1:18:10Z</time></trkpt>
<trkpt lat="48.873443603516" lon="2.8434534072876"><ele>131</ele><time>2026-5-1T1:18:13Z</time></trkpt>
<trkpt lat="48.873443603516" lon="2.8434534072876"><ele>131</ele><time>2026-5-1T1:18:16Z</time></trkpt>
<trkpt lat="48.873443603516" lon="2.8434534072876"><ele>131</ele><time>2026-5-1T1:18:19Z</time></trkpt>
<trkpt lat="48.873386383057" lon="2.8435454368591"><ele>132</ele><time>2026-5-1T1:18:22Z</time></trkpt>
<trkpt lat="48.873386383057" lon="2.8435454368591"><ele>132</ele><time>2026-5-1T1:18:25Z</time></trkpt>
<trkpt lat="48.873340606689" lon="2.8436102867126"><ele>133</ele><time>2026-5-1T1:18:28Z</time></trkpt>
<trkpt lat="48.873340606689" lon="2.8436102867126"><ele>133</ele><time>2026-5-1T1:18:31Z</time></trkpt>
<trkpt lat="48.873340606689" lon="2.8436102867126"><ele>133</ele><time>2026-5-1T1:18:34Z</time></trkpt>
<trkpt lat="48.873340606689" lon="2.8436102867126"><ele>133</ele><time>2026-5-1T1:18:37Z</time></trkpt>
<trkpt lat="48.873340606689" lon="2.8436102867126"><ele>133</ele><time>2026-5-1T1:18:40Z</time></trkpt>
<trkpt lat="48.873340606689" lon="2.8436102867126"><ele>133</ele><time>2026-5-1T1:18:43Z</time></trkpt>
<trkpt lat="48.873340606689" lon="2.8436102867126"><ele>133</ele><time>2026-5-1T1:18:46Z</time></trkpt>
</trkseg></trk></gpx>